<?xml version="1.0" encoding="UTF-8"?>
<gpx version="1.1" creator="https://www.youtrack.es" xsi:schemaLocation="http://www.topografix.com/GPX/1/1 http://www.topografix.com/GPX/1/1/gpx.xsd http://www.garmin.com/xmlschemas/GpxExtensions/v3 http://www.garmin.com/xmlschemas/GpxExtensionsv3.xsd http://www.garmin.com/xmlschemas/TrackPointExtension/v1 http://www.garmin.com/xmlschemas/TrackPointExtensionv1.xsd" xmlns:gpxtpx="http://www.garmin.com/xmlschemas/TrackPointExtension/v1" xmlns:gpxx="http://www.garmin.com/xmlschemas/GpxExtensions/v3" xmlns:xsi="http://www.w3.org/2001/XMLSchema-instance">
  <metadata>
    <link href="https://www.youtrack.es">
      <text>YouTrack.es</text>
    </link>
    <time>2026-05-09T10:05:30Z</time>
  </metadata>
  <trk>
    <src>https://www.youtrack.es</src>
    <link href="https://www.youtrack.es/ruta/35202-canigo">
      <text>YouTrack.es</text>
    </link>
    <trkseg>
      <trkpt lat="42.514803" lon="2.381182">
        <ele>1127.739</ele>
        <time>2022-08-11T15:45:12Z</time>
      </trkpt>
      <trkpt lat="42.514766" lon="2.381223">
        <ele>1126.501</ele>
        <time>2022-08-11T15:45:17Z</time>
      </trkpt>
      <trkpt lat="42.514731" lon="2.381262">
        <ele>1127.221</ele>
        <time>2022-08-11T15:45:22Z</time>
      </trkpt>
      <trkpt lat="42.514688" lon="2.381285">
        <ele>1127.509</ele>
        <time>2022-08-11T15:45:28Z</time>
      </trkpt>
      <trkpt lat="42.514669" lon="2.381341">
        <ele>1127.844</ele>
        <time>2022-08-11T15:45:32Z</time>
      </trkpt>
      <trkpt lat="42.514640" lon="2.381401">
        <ele>1128.294</ele>
        <time>2022-08-11T15:45:37Z</time>
      </trkpt>
      <trkpt lat="42.514625" lon="2.381467">
        <ele>1128.963</ele>
        <time>2022-08-11T15:45:41Z</time>
      </trkpt>
      <trkpt lat="42.514624" lon="2.381532">
        <ele>1130.046</ele>
        <time>2022-08-11T15:45:45Z</time>
      </trkpt>
      <trkpt lat="42.514638" lon="2.381600">
        <ele>1131.227</ele>
        <time>2022-08-11T15:45:48Z</time>
      </trkpt>
      <trkpt lat="42.514648" lon="2.381661">
        <ele>1131.736</ele>
        <time>2022-08-11T15:45:53Z</time>
      </trkpt>
      <trkpt lat="42.514645" lon="2.381738">
        <ele>1132.169</ele>
        <time>2022-08-11T15:45:59Z</time>
      </trkpt>
      <trkpt lat="42.514626" lon="2.381802">
        <ele>1132.894</ele>
        <time>2022-08-11T15:46:03Z</time>
      </trkpt>
      <trkpt lat="42.514621" lon="2.381870">
        <ele>1133.855</ele>
        <time>2022-08-11T15:46:06Z</time>
      </trkpt>
      <trkpt lat="42.514621" lon="2.381938">
        <ele>1134.783</ele>
        <time>2022-08-11T15:46:10Z</time>
      </trkpt>
      <trkpt lat="42.514641" lon="2.382004">
        <ele>1135.425</ele>
        <time>2022-08-11T15:46:16Z</time>
      </trkpt>
      <trkpt lat="42.514644" lon="2.382067">
        <ele>1136.117</ele>
        <time>2022-08-11T15:46:21Z</time>
      </trkpt>
      <trkpt lat="42.514643" lon="2.382136">
        <ele>1137.009</ele>
        <time>2022-08-11T15:46:27Z</time>
      </trkpt>
      <trkpt lat="42.514607" lon="2.382192">
        <ele>1138.159</ele>
        <time>2022-08-11T15:46:33Z</time>
      </trkpt>
      <trkpt lat="42.514583" lon="2.382250">
        <ele>1139.149</ele>
        <time>2022-08-11T15:46:39Z</time>
      </trkpt>
      <trkpt lat="42.514574" lon="2.382310">
        <ele>1140.278</ele>
        <time>2022-08-11T15:46:42Z</time>
      </trkpt>
      <trkpt lat="42.514568" lon="2.382381">
        <ele>1141.441</ele>
        <time>2022-08-11T15:46:46Z</time>
      </trkpt>
      <trkpt lat="42.514553" lon="2.382446">
        <ele>1142.122</ele>
        <time>2022-08-11T15:46:50Z</time>
      </trkpt>
      <trkpt lat="42.514538" lon="2.382509">
        <ele>1142.641</ele>
        <time>2022-08-11T15:46:55Z</time>
      </trkpt>
      <trkpt lat="42.514532" lon="2.382591">
        <ele>1143.294</ele>
        <time>2022-08-11T15:47:01Z</time>
      </trkpt>
      <trkpt lat="42.514534" lon="2.382653">
        <ele>1144.319</ele>
        <time>2022-08-11T15:47:06Z</time>
      </trkpt>
      <trkpt lat="42.514536" lon="2.382715">
        <ele>1145.470</ele>
        <time>2022-08-11T15:47:11Z</time>
      </trkpt>
      <trkpt lat="42.514529" lon="2.382777">
        <ele>1146.217</ele>
        <time>2022-08-11T15:47:18Z</time>
      </trkpt>
      <trkpt lat="42.514509" lon="2.382846">
        <ele>1147.387</ele>
        <time>2022-08-11T15:47:22Z</time>
      </trkpt>
      <trkpt lat="42.514484" lon="2.382900">
        <ele>1148.415</ele>
        <time>2022-08-11T15:47:28Z</time>
      </trkpt>
      <trkpt lat="42.514500" lon="2.382962">
        <ele>1149.209</ele>
        <time>2022-08-11T15:47:34Z</time>
      </trkpt>
      <trkpt lat="42.514497" lon="2.383025">
        <ele>1150.142</ele>
        <time>2022-08-11T15:47:39Z</time>
      </trkpt>
      <trkpt lat="42.514487" lon="2.383088">
        <ele>1151.362</ele>
        <time>2022-08-11T15:47:45Z</time>
      </trkpt>
      <trkpt lat="42.514495" lon="2.383168">
        <ele>1152.471</ele>
        <time>2022-08-11T15:47:49Z</time>
      </trkpt>
      <trkpt lat="42.514482" lon="2.383233">
        <ele>1153.414</ele>
        <time>2022-08-11T15:47:53Z</time>
      </trkpt>
      <trkpt lat="42.514461" lon="2.383294">
        <ele>1154.225</ele>
        <time>2022-08-11T15:47:59Z</time>
      </trkpt>
      <trkpt lat="42.514429" lon="2.383343">
        <ele>1154.954</ele>
        <time>2022-08-11T15:48:04Z</time>
      </trkpt>
      <trkpt lat="42.514416" lon="2.383422">
        <ele>1155.917</ele>
        <time>2022-08-11T15:48:10Z</time>
      </trkpt>
      <trkpt lat="42.514400" lon="2.383483">
        <ele>1156.982</ele>
        <time>2022-08-11T15:48:16Z</time>
      </trkpt>
      <trkpt lat="42.514396" lon="2.383552">
        <ele>1158.033</ele>
        <time>2022-08-11T15:48:23Z</time>
      </trkpt>
      <trkpt lat="42.514441" lon="2.383574">
        <ele>1159.129</ele>
        <time>2022-08-11T15:48:29Z</time>
      </trkpt>
      <trkpt lat="42.514468" lon="2.383632">
        <ele>1160.000</ele>
        <time>2022-08-11T15:48:32Z</time>
      </trkpt>
      <trkpt lat="42.514486" lon="2.383694">
        <ele>1161.220</ele>
        <time>2022-08-11T15:48:38Z</time>
      </trkpt>
      <trkpt lat="42.514498" lon="2.383756">
        <ele>1162.109</ele>
        <time>2022-08-11T15:48:43Z</time>
      </trkpt>
      <trkpt lat="42.514529" lon="2.383828">
        <ele>1162.873</ele>
        <time>2022-08-11T15:48:47Z</time>
      </trkpt>
      <trkpt lat="42.514554" lon="2.383896">
        <ele>1163.583</ele>
        <time>2022-08-11T15:48:51Z</time>
      </trkpt>
      <trkpt lat="42.514580" lon="2.383968">
        <ele>1164.462</ele>
        <time>2022-08-11T15:48:55Z</time>
      </trkpt>
      <trkpt lat="42.514609" lon="2.384022">
        <ele>1165.395</ele>
        <time>2022-08-11T15:48:58Z</time>
      </trkpt>
      <trkpt lat="42.514617" lon="2.384087">
        <ele>1165.816</ele>
        <time>2022-08-11T15:49:03Z</time>
      </trkpt>
      <trkpt lat="42.514619" lon="2.384159">
        <ele>1166.085</ele>
        <time>2022-08-11T15:49:08Z</time>
      </trkpt>
      <trkpt lat="42.514640" lon="2.384228">
        <ele>1166.568</ele>
        <time>2022-08-11T15:49:13Z</time>
      </trkpt>
      <trkpt lat="42.514645" lon="2.384289">
        <ele>1167.383</ele>
        <time>2022-08-11T15:49:17Z</time>
      </trkpt>
      <trkpt lat="42.514672" lon="2.384346">
        <ele>1168.214</ele>
        <time>2022-08-11T15:49:21Z</time>
      </trkpt>
      <trkpt lat="42.514696" lon="2.384408">
        <ele>1168.927</ele>
        <time>2022-08-11T15:49:27Z</time>
      </trkpt>
      <trkpt lat="42.514716" lon="2.384466">
        <ele>1169.468</ele>
        <time>2022-08-11T15:49:32Z</time>
      </trkpt>
      <trkpt lat="42.514751" lon="2.384514">
        <ele>1170.114</ele>
        <time>2022-08-11T15:49:37Z</time>
      </trkpt>
      <trkpt lat="42.514775" lon="2.384577">
        <ele>1170.909</ele>
        <time>2022-08-11T15:49:42Z</time>
      </trkpt>
      <trkpt lat="42.514793" lon="2.384645">
        <ele>1171.583</ele>
        <time>2022-08-11T15:49:47Z</time>
      </trkpt>
      <trkpt lat="42.514830" lon="2.384692">
        <ele>1172.353</ele>
        <time>2022-08-11T15:49:53Z</time>
      </trkpt>
      <trkpt lat="42.514859" lon="2.384746">
        <ele>1173.392</ele>
        <time>2022-08-11T15:50:01Z</time>
      </trkpt>
      <trkpt lat="42.514872" lon="2.384805">
        <ele>1174.215</ele>
        <time>2022-08-11T15:50:05Z</time>
      </trkpt>
      <trkpt lat="42.514857" lon="2.384868">
        <ele>1175.276</ele>
        <time>2022-08-11T15:50:10Z</time>
      </trkpt>
      <trkpt lat="42.514864" lon="2.384952">
        <ele>1176.385</ele>
        <time>2022-08-11T15:50:14Z</time>
      </trkpt>
      <trkpt lat="42.514877" lon="2.385013">
        <ele>1177.228</ele>
        <time>2022-08-11T15:50:19Z</time>
      </trkpt>
      <trkpt lat="42.514893" lon="2.385073">
        <ele>1177.893</ele>
        <time>2022-08-11T15:50:25Z</time>
      </trkpt>
      <trkpt lat="42.514913" lon="2.385134">
        <ele>1178.574</ele>
        <time>2022-08-11T15:50:32Z</time>
      </trkpt>
      <trkpt lat="42.514941" lon="2.385187">
        <ele>1179.592</ele>
        <time>2022-08-11T15:50:37Z</time>
      </trkpt>
      <trkpt lat="42.514980" lon="2.385239">
        <ele>1180.773</ele>
        <time>2022-08-11T15:50:42Z</time>
      </trkpt>
      <trkpt lat="42.514994" lon="2.385311">
        <ele>1181.620</ele>
        <time>2022-08-11T15:50:50Z</time>
      </trkpt>
      <trkpt lat="42.514991" lon="2.385375">
        <ele>1182.409</ele>
        <time>2022-08-11T15:50:57Z</time>
      </trkpt>
      <trkpt lat="42.515014" lon="2.385433">
        <ele>1183.450</ele>
        <time>2022-08-11T15:51:03Z</time>
      </trkpt>
      <trkpt lat="42.515020" lon="2.385503">
        <ele>1184.640</ele>
        <time>2022-08-11T15:51:08Z</time>
      </trkpt>
      <trkpt lat="42.515025" lon="2.385574">
        <ele>1185.859</ele>
        <time>2022-08-11T15:51:14Z</time>
      </trkpt>
      <trkpt lat="42.515019" lon="2.385641">
        <ele>1186.992</ele>
        <time>2022-08-11T15:51:19Z</time>
      </trkpt>
      <trkpt lat="42.515020" lon="2.385704">
        <ele>1187.963</ele>
        <time>2022-08-11T15:51:29Z</time>
      </trkpt>
      <trkpt lat="42.514995" lon="2.385765">
        <ele>1188.992</ele>
        <time>2022-08-11T15:51:36Z</time>
      </trkpt>
      <trkpt lat="42.514983" lon="2.385834">
        <ele>1190.435</ele>
        <time>2022-08-11T15:51:42Z</time>
      </trkpt>
      <trkpt lat="42.514972" lon="2.385895">
        <ele>1192.080</ele>
        <time>2022-08-11T15:51:47Z</time>
      </trkpt>
      <trkpt lat="42.514971" lon="2.385963">
        <ele>1193.261</ele>
        <time>2022-08-11T15:51:50Z</time>
      </trkpt>
      <trkpt lat="42.514986" lon="2.386040">
        <ele>1194.496</ele>
        <time>2022-08-11T15:51:54Z</time>
      </trkpt>
      <trkpt lat="42.515017" lon="2.386098">
        <ele>1195.131</ele>
        <time>2022-08-11T15:51:56Z</time>
      </trkpt>
      <trkpt lat="42.515048" lon="2.386153">
        <ele>1195.624</ele>
        <time>2022-08-11T15:51:59Z</time>
      </trkpt>
      <trkpt lat="42.515069" lon="2.386208">
        <ele>1196.209</ele>
        <time>2022-08-11T15:52:04Z</time>
      </trkpt>
      <trkpt lat="42.515104" lon="2.386252">
        <ele>1196.640</ele>
        <time>2022-08-11T15:52:09Z</time>
      </trkpt>
      <trkpt lat="42.515147" lon="2.386286">
        <ele>1197.240</ele>
        <time>2022-08-11T15:52:12Z</time>
      </trkpt>
      <trkpt lat="42.515189" lon="2.386315">
        <ele>1198.259</ele>
        <time>2022-08-11T15:52:15Z</time>
      </trkpt>
      <trkpt lat="42.515235" lon="2.386345">
        <ele>1198.892</ele>
        <time>2022-08-11T15:52:20Z</time>
      </trkpt>
      <trkpt lat="42.515275" lon="2.386402">
        <ele>1199.453</ele>
        <time>2022-08-11T15:52:23Z</time>
      </trkpt>
      <trkpt lat="42.515294" lon="2.386462">
        <ele>1200.182</ele>
        <time>2022-08-11T15:52:30Z</time>
      </trkpt>
      <trkpt lat="42.515318" lon="2.386521">
        <ele>1200.935</ele>
        <time>2022-08-11T15:52:37Z</time>
      </trkpt>
      <trkpt lat="42.515347" lon="2.386579">
        <ele>1201.850</ele>
        <time>2022-08-11T15:52:42Z</time>
      </trkpt>
      <trkpt lat="42.515381" lon="2.386636">
        <ele>1202.621</ele>
        <time>2022-08-11T15:52:49Z</time>
      </trkpt>
      <trkpt lat="42.515385" lon="2.386699">
        <ele>1203.434</ele>
        <time>2022-08-11T15:52:53Z</time>
      </trkpt>
      <trkpt lat="42.515368" lon="2.386759">
        <ele>1204.455</ele>
        <time>2022-08-11T15:52:59Z</time>
      </trkpt>
      <trkpt lat="42.515330" lon="2.386796">
        <ele>1205.210</ele>
        <time>2022-08-11T15:53:04Z</time>
      </trkpt>
      <trkpt lat="42.515288" lon="2.386827">
        <ele>1205.909</ele>
        <time>2022-08-11T15:53:08Z</time>
      </trkpt>
      <trkpt lat="42.515261" lon="2.386876">
        <ele>1206.744</ele>
        <time>2022-08-11T15:53:14Z</time>
      </trkpt>
      <trkpt lat="42.515207" lon="2.386898">
        <ele>1207.334</ele>
        <time>2022-08-11T15:53:19Z</time>
      </trkpt>
      <trkpt lat="42.515156" lon="2.386903">
        <ele>1208.133</ele>
        <time>2022-08-11T15:53:26Z</time>
      </trkpt>
      <trkpt lat="42.515112" lon="2.386869">
        <ele>1209.246</ele>
        <time>2022-08-11T15:53:29Z</time>
      </trkpt>
      <trkpt lat="42.515069" lon="2.386848">
        <ele>1210.147</ele>
        <time>2022-08-11T15:53:33Z</time>
      </trkpt>
      <trkpt lat="42.515012" lon="2.386831">
        <ele>1210.526</ele>
        <time>2022-08-11T15:53:37Z</time>
      </trkpt>
      <trkpt lat="42.514961" lon="2.386815">
        <ele>1210.899</ele>
        <time>2022-08-11T15:53:41Z</time>
      </trkpt>
      <trkpt lat="42.514913" lon="2.386804">
        <ele>1211.164</ele>
        <time>2022-08-11T15:53:48Z</time>
      </trkpt>
      <trkpt lat="42.514865" lon="2.386815">
        <ele>1211.445</ele>
        <time>2022-08-11T15:53:52Z</time>
      </trkpt>
      <trkpt lat="42.514821" lon="2.386843">
        <ele>1212.168</ele>
        <time>2022-08-11T15:53:57Z</time>
      </trkpt>
      <trkpt lat="42.514773" lon="2.386860">
        <ele>1213.042</ele>
        <time>2022-08-11T15:54:10Z</time>
      </trkpt>
      <trkpt lat="42.514728" lon="2.386863">
        <ele>1213.526</ele>
        <time>2022-08-11T15:54:16Z</time>
      </trkpt>
      <trkpt lat="42.514682" lon="2.386866">
        <ele>1214.109</ele>
        <time>2022-08-11T15:54:23Z</time>
      </trkpt>
      <trkpt lat="42.514632" lon="2.386876">
        <ele>1214.617</ele>
        <time>2022-08-11T15:54:26Z</time>
      </trkpt>
      <trkpt lat="42.514585" lon="2.386885">
        <ele>1215.037</ele>
        <time>2022-08-11T15:54:30Z</time>
      </trkpt>
      <trkpt lat="42.514530" lon="2.386890">
        <ele>1215.326</ele>
        <time>2022-08-11T15:54:34Z</time>
      </trkpt>
      <trkpt lat="42.514480" lon="2.386915">
        <ele>1215.869</ele>
        <time>2022-08-11T15:54:38Z</time>
      </trkpt>
      <trkpt lat="42.514435" lon="2.386934">
        <ele>1216.290</ele>
        <time>2022-08-11T15:54:44Z</time>
      </trkpt>
      <trkpt lat="42.514390" lon="2.386957">
        <ele>1216.769</ele>
        <time>2022-08-11T15:54:48Z</time>
      </trkpt>
      <trkpt lat="42.514347" lon="2.386979">
        <ele>1217.472</ele>
        <time>2022-08-11T15:54:52Z</time>
      </trkpt>
      <trkpt lat="42.514297" lon="2.386981">
        <ele>1217.737</ele>
        <time>2022-08-11T15:54:57Z</time>
      </trkpt>
      <trkpt lat="42.514254" lon="2.387015">
        <ele>1218.058</ele>
        <time>2022-08-11T15:55:01Z</time>
      </trkpt>
      <trkpt lat="42.514214" lon="2.387057">
        <ele>1218.419</ele>
        <time>2022-08-11T15:55:04Z</time>
      </trkpt>
      <trkpt lat="42.514166" lon="2.387093">
        <ele>1218.709</ele>
        <time>2022-08-11T15:55:08Z</time>
      </trkpt>
      <trkpt lat="42.514118" lon="2.387130">
        <ele>1218.719</ele>
        <time>2022-08-11T15:55:12Z</time>
      </trkpt>
      <trkpt lat="42.514062" lon="2.387139">
        <ele>1218.809</ele>
        <time>2022-08-11T15:55:17Z</time>
      </trkpt>
      <trkpt lat="42.514009" lon="2.387169">
        <ele>1218.882</ele>
        <time>2022-08-11T15:55:23Z</time>
      </trkpt>
      <trkpt lat="42.513958" lon="2.387205">
        <ele>1218.962</ele>
        <time>2022-08-11T15:55:27Z</time>
      </trkpt>
      <trkpt lat="42.513916" lon="2.387243">
        <ele>1219.711</ele>
        <time>2022-08-11T15:55:30Z</time>
      </trkpt>
      <trkpt lat="42.513876" lon="2.387295">
        <ele>1219.764</ele>
        <time>2022-08-11T15:55:33Z</time>
      </trkpt>
      <trkpt lat="42.513843" lon="2.387350">
        <ele>1219.815</ele>
        <time>2022-08-11T15:55:36Z</time>
      </trkpt>
      <trkpt lat="42.513800" lon="2.387395">
        <ele>1220.064</ele>
        <time>2022-08-11T15:55:41Z</time>
      </trkpt>
      <trkpt lat="42.513758" lon="2.387445">
        <ele>1220.567</ele>
        <time>2022-08-11T15:55:45Z</time>
      </trkpt>
      <trkpt lat="42.513710" lon="2.387477">
        <ele>1221.362</ele>
        <time>2022-08-11T15:55:50Z</time>
      </trkpt>
      <trkpt lat="42.513669" lon="2.387513">
        <ele>1221.663</ele>
        <time>2022-08-11T15:55:54Z</time>
      </trkpt>
      <trkpt lat="42.513624" lon="2.387543">
        <ele>1222.473</ele>
        <time>2022-08-11T15:55:57Z</time>
      </trkpt>
      <trkpt lat="42.513581" lon="2.387575">
        <ele>1223.085</ele>
        <time>2022-08-11T15:56:01Z</time>
      </trkpt>
      <trkpt lat="42.513545" lon="2.387623">
        <ele>1223.313</ele>
        <time>2022-08-11T15:56:05Z</time>
      </trkpt>
      <trkpt lat="42.513505" lon="2.387669">
        <ele>1223.909</ele>
        <time>2022-08-11T15:56:10Z</time>
      </trkpt>
      <trkpt lat="42.513473" lon="2.387718">
        <ele>1224.498</ele>
        <time>2022-08-11T15:56:15Z</time>
      </trkpt>
      <trkpt lat="42.513443" lon="2.387767">
        <ele>1225.148</ele>
        <time>2022-08-11T15:56:22Z</time>
      </trkpt>
      <trkpt lat="42.513406" lon="2.387816">
        <ele>1226.097</ele>
        <time>2022-08-11T15:56:28Z</time>
      </trkpt>
      <trkpt lat="42.513364" lon="2.387861">
        <ele>1226.970</ele>
        <time>2022-08-11T15:56:33Z</time>
      </trkpt>
      <trkpt lat="42.513323" lon="2.387901">
        <ele>1228.021</ele>
        <time>2022-08-11T15:56:38Z</time>
      </trkpt>
      <trkpt lat="42.513303" lon="2.387957">
        <ele>1228.920</ele>
        <time>2022-08-11T15:56:45Z</time>
      </trkpt>
      <trkpt lat="42.513252" lon="2.387972">
        <ele>1229.753</ele>
        <time>2022-08-11T15:56:50Z</time>
      </trkpt>
      <trkpt lat="42.513206" lon="2.387989">
        <ele>1230.788</ele>
        <time>2022-08-11T15:56:56Z</time>
      </trkpt>
      <trkpt lat="42.513162" lon="2.388051">
        <ele>1231.729</ele>
        <time>2022-08-11T15:57:02Z</time>
      </trkpt>
      <trkpt lat="42.513119" lon="2.388099">
        <ele>1232.724</ele>
        <time>2022-08-11T15:57:05Z</time>
      </trkpt>
      <trkpt lat="42.513071" lon="2.388110">
        <ele>1233.904</ele>
        <time>2022-08-11T15:57:09Z</time>
      </trkpt>
      <trkpt lat="42.513025" lon="2.388126">
        <ele>1234.814</ele>
        <time>2022-08-11T15:57:16Z</time>
      </trkpt>
      <trkpt lat="42.512979" lon="2.388145">
        <ele>1235.309</ele>
        <time>2022-08-11T15:57:20Z</time>
      </trkpt>
      <trkpt lat="42.512935" lon="2.388163">
        <ele>1236.293</ele>
        <time>2022-08-11T15:57:24Z</time>
      </trkpt>
      <trkpt lat="42.512884" lon="2.388187">
        <ele>1237.123</ele>
        <time>2022-08-11T15:57:28Z</time>
      </trkpt>
      <trkpt lat="42.512836" lon="2.388177">
        <ele>1237.982</ele>
        <time>2022-08-11T15:57:33Z</time>
      </trkpt>
      <trkpt lat="42.512789" lon="2.388181">
        <ele>1238.745</ele>
        <time>2022-08-11T15:57:39Z</time>
      </trkpt>
      <trkpt lat="42.512741" lon="2.388198">
        <ele>1239.466</ele>
        <time>2022-08-11T15:57:44Z</time>
      </trkpt>
      <trkpt lat="42.512698" lon="2.388229">
        <ele>1240.415</ele>
        <time>2022-08-11T15:57:49Z</time>
      </trkpt>
      <trkpt lat="42.512654" lon="2.388261">
        <ele>1241.498</ele>
        <time>2022-08-11T15:57:54Z</time>
      </trkpt>
      <trkpt lat="42.512617" lon="2.388297">
        <ele>1242.353</ele>
        <time>2022-08-11T15:57:59Z</time>
      </trkpt>
      <trkpt lat="42.512580" lon="2.388360">
        <ele>1243.214</ele>
        <time>2022-08-11T15:58:04Z</time>
      </trkpt>
      <trkpt lat="42.512553" lon="2.388431">
        <ele>1244.246</ele>
        <time>2022-08-11T15:58:08Z</time>
      </trkpt>
      <trkpt lat="42.512531" lon="2.388495">
        <ele>1245.088</ele>
        <time>2022-08-11T15:58:12Z</time>
      </trkpt>
      <trkpt lat="42.512543" lon="2.388564">
        <ele>1245.616</ele>
        <time>2022-08-11T15:58:17Z</time>
      </trkpt>
      <trkpt lat="42.512522" lon="2.388633">
        <ele>1246.909</ele>
        <time>2022-08-11T15:58:23Z</time>
      </trkpt>
      <trkpt lat="42.512507" lon="2.388696">
        <ele>1247.395</ele>
        <time>2022-08-11T15:58:27Z</time>
      </trkpt>
      <trkpt lat="42.512485" lon="2.388752">
        <ele>1248.115</ele>
        <time>2022-08-11T15:58:32Z</time>
      </trkpt>
      <trkpt lat="42.512458" lon="2.388812">
        <ele>1249.094</ele>
        <time>2022-08-11T15:58:36Z</time>
      </trkpt>
      <trkpt lat="42.512429" lon="2.388869">
        <ele>1249.997</ele>
        <time>2022-08-11T15:58:41Z</time>
      </trkpt>
      <trkpt lat="42.512408" lon="2.388928">
        <ele>1250.438</ele>
        <time>2022-08-11T15:58:48Z</time>
      </trkpt>
      <trkpt lat="42.512387" lon="2.388994">
        <ele>1250.997</ele>
        <time>2022-08-11T15:58:55Z</time>
      </trkpt>
      <trkpt lat="42.512354" lon="2.389041">
        <ele>1251.960</ele>
        <time>2022-08-11T15:59:03Z</time>
      </trkpt>
      <trkpt lat="42.512312" lon="2.389080">
        <ele>1253.065</ele>
        <time>2022-08-11T15:59:11Z</time>
      </trkpt>
      <trkpt lat="42.512270" lon="2.389113">
        <ele>1254.526</ele>
        <time>2022-08-11T15:59:16Z</time>
      </trkpt>
      <trkpt lat="42.512214" lon="2.389149">
        <ele>1256.539</ele>
        <time>2022-08-11T15:59:21Z</time>
      </trkpt>
      <trkpt lat="42.512172" lon="2.389196">
        <ele>1257.901</ele>
        <time>2022-08-11T15:59:29Z</time>
      </trkpt>
      <trkpt lat="42.512127" lon="2.389233">
        <ele>1258.821</ele>
        <time>2022-08-11T15:59:35Z</time>
      </trkpt>
      <trkpt lat="42.512081" lon="2.389253">
        <ele>1260.009</ele>
        <time>2022-08-11T15:59:41Z</time>
      </trkpt>
      <trkpt lat="42.512052" lon="2.389309">
        <ele>1261.374</ele>
        <time>2022-08-11T15:59:48Z</time>
      </trkpt>
      <trkpt lat="42.512018" lon="2.389360">
        <ele>1262.484</ele>
        <time>2022-08-11T15:59:55Z</time>
      </trkpt>
      <trkpt lat="42.511984" lon="2.389410">
        <ele>1263.883</ele>
        <time>2022-08-11T16:00:00Z</time>
      </trkpt>
      <trkpt lat="42.511943" lon="2.389455">
        <ele>1265.226</ele>
        <time>2022-08-11T16:00:05Z</time>
      </trkpt>
      <trkpt lat="42.511910" lon="2.389499">
        <ele>1266.187</ele>
        <time>2022-08-11T16:00:14Z</time>
      </trkpt>
      <trkpt lat="42.511883" lon="2.389548">
        <ele>1266.786</ele>
        <time>2022-08-11T16:00:21Z</time>
      </trkpt>
      <trkpt lat="42.511842" lon="2.389600">
        <ele>1268.199</ele>
        <time>2022-08-11T16:00:26Z</time>
      </trkpt>
      <trkpt lat="42.511823" lon="2.389661">
        <ele>1270.024</ele>
        <time>2022-08-11T16:00:31Z</time>
      </trkpt>
      <trkpt lat="42.511795" lon="2.389723">
        <ele>1271.135</ele>
        <time>2022-08-11T16:00:36Z</time>
      </trkpt>
      <trkpt lat="42.511756" lon="2.389772">
        <ele>1272.127</ele>
        <time>2022-08-11T16:00:40Z</time>
      </trkpt>
      <trkpt lat="42.511714" lon="2.389812">
        <ele>1273.168</ele>
        <time>2022-08-11T16:00:46Z</time>
      </trkpt>
      <trkpt lat="42.511665" lon="2.389833">
        <ele>1273.714</ele>
        <time>2022-08-11T16:00:52Z</time>
      </trkpt>
      <trkpt lat="42.511619" lon="2.389831">
        <ele>1274.809</ele>
        <time>2022-08-11T16:00:57Z</time>
      </trkpt>
      <trkpt lat="42.511609" lon="2.389892">
        <ele>1276.083</ele>
        <time>2022-08-11T16:01:05Z</time>
      </trkpt>
      <trkpt lat="42.511604" lon="2.389964">
        <ele>1276.953</ele>
        <time>2022-08-11T16:01:14Z</time>
      </trkpt>
      <trkpt lat="42.511611" lon="2.390028">
        <ele>1277.872</ele>
        <time>2022-08-11T16:01:20Z</time>
      </trkpt>
      <trkpt lat="42.511611" lon="2.390090">
        <ele>1278.245</ele>
        <time>2022-08-11T16:01:32Z</time>
      </trkpt>
      <trkpt lat="42.511607" lon="2.390168">
        <ele>1278.286</ele>
        <time>2022-08-11T16:01:39Z</time>
      </trkpt>
      <trkpt lat="42.511600" lon="2.390237">
        <ele>1278.355</ele>
        <time>2022-08-11T16:01:42Z</time>
      </trkpt>
      <trkpt lat="42.511590" lon="2.390296">
        <ele>1278.558</ele>
        <time>2022-08-11T16:01:45Z</time>
      </trkpt>
      <trkpt lat="42.511585" lon="2.390370">
        <ele>1278.733</ele>
        <time>2022-08-11T16:01:50Z</time>
      </trkpt>
      <trkpt lat="42.511574" lon="2.390431">
        <ele>1278.824</ele>
        <time>2022-08-11T16:01:53Z</time>
      </trkpt>
      <trkpt lat="42.511547" lon="2.390491">
        <ele>1279.152</ele>
        <time>2022-08-11T16:01:57Z</time>
      </trkpt>
      <trkpt lat="42.511520" lon="2.390549">
        <ele>1279.553</ele>
        <time>2022-08-11T16:02:00Z</time>
      </trkpt>
      <trkpt lat="42.511489" lon="2.390594">
        <ele>1279.808</ele>
        <time>2022-08-11T16:02:05Z</time>
      </trkpt>
      <trkpt lat="42.511464" lon="2.390653">
        <ele>1280.109</ele>
        <time>2022-08-11T16:02:09Z</time>
      </trkpt>
      <trkpt lat="42.511434" lon="2.390710">
        <ele>1280.166</ele>
        <time>2022-08-11T16:02:13Z</time>
      </trkpt>
      <trkpt lat="42.511409" lon="2.390767">
        <ele>1280.136</ele>
        <time>2022-08-11T16:02:19Z</time>
      </trkpt>
      <trkpt lat="42.511375" lon="2.390727">
        <ele>1280.165</ele>
        <time>2022-08-11T16:02:35Z</time>
      </trkpt>
      <trkpt lat="42.511387" lon="2.390789">
        <ele>1280.268</ele>
        <time>2022-08-11T16:02:49Z</time>
      </trkpt>
      <trkpt lat="42.511396" lon="2.390852">
        <ele>1280.869</ele>
        <time>2022-08-11T16:02:53Z</time>
      </trkpt>
      <trkpt lat="42.511403" lon="2.390920">
        <ele>1282.658</ele>
        <time>2022-08-11T16:02:59Z</time>
      </trkpt>
      <trkpt lat="42.511426" lon="2.390981">
        <ele>1284.271</ele>
        <time>2022-08-11T16:03:06Z</time>
      </trkpt>
      <trkpt lat="42.511456" lon="2.391028">
        <ele>1285.056</ele>
        <time>2022-08-11T16:03:15Z</time>
      </trkpt>
      <trkpt lat="42.511501" lon="2.391049">
        <ele>1285.927</ele>
        <time>2022-08-11T16:03:21Z</time>
      </trkpt>
      <trkpt lat="42.511538" lon="2.391103">
        <ele>1287.418</ele>
        <time>2022-08-11T16:03:28Z</time>
      </trkpt>
      <trkpt lat="42.511583" lon="2.391121">
        <ele>1288.698</ele>
        <time>2022-08-11T16:03:35Z</time>
      </trkpt>
      <trkpt lat="42.511627" lon="2.391095">
        <ele>1289.117</ele>
        <time>2022-08-11T16:03:40Z</time>
      </trkpt>
      <trkpt lat="42.511657" lon="2.391048">
        <ele>1289.809</ele>
        <time>2022-08-11T16:03:50Z</time>
      </trkpt>
      <trkpt lat="42.511619" lon="2.391082">
        <ele>1290.552</ele>
        <time>2022-08-11T16:04:03Z</time>
      </trkpt>
      <trkpt lat="42.511573" lon="2.391096">
        <ele>1292.062</ele>
        <time>2022-08-11T16:04:09Z</time>
      </trkpt>
      <trkpt lat="42.511522" lon="2.391121">
        <ele>1294.271</ele>
        <time>2022-08-11T16:04:14Z</time>
      </trkpt>
      <trkpt lat="42.511465" lon="2.391131">
        <ele>1295.244</ele>
        <time>2022-08-11T16:04:19Z</time>
      </trkpt>
      <trkpt lat="42.511420" lon="2.391134">
        <ele>1295.435</ele>
        <time>2022-08-11T16:04:23Z</time>
      </trkpt>
      <trkpt lat="42.511370" lon="2.391148">
        <ele>1296.394</ele>
        <time>2022-08-11T16:04:29Z</time>
      </trkpt>
      <trkpt lat="42.511323" lon="2.391170">
        <ele>1297.617</ele>
        <time>2022-08-11T16:04:41Z</time>
      </trkpt>
      <trkpt lat="42.511275" lon="2.391186">
        <ele>1298.942</ele>
        <time>2022-08-11T16:04:48Z</time>
      </trkpt>
      <trkpt lat="42.511225" lon="2.391211">
        <ele>1300.883</ele>
        <time>2022-08-11T16:04:58Z</time>
      </trkpt>
      <trkpt lat="42.511183" lon="2.391238">
        <ele>1302.718</ele>
        <time>2022-08-11T16:05:01Z</time>
      </trkpt>
      <trkpt lat="42.511141" lon="2.391207">
        <ele>1304.298</ele>
        <time>2022-08-11T16:05:04Z</time>
      </trkpt>
      <trkpt lat="42.511095" lon="2.391201">
        <ele>1305.417</ele>
        <time>2022-08-11T16:05:21Z</time>
      </trkpt>
      <trkpt lat="42.511052" lon="2.391223">
        <ele>1306.409</ele>
        <time>2022-08-11T16:05:33Z</time>
      </trkpt>
      <trkpt lat="42.511005" lon="2.391200">
        <ele>1308.552</ele>
        <time>2022-08-11T16:05:45Z</time>
      </trkpt>
      <trkpt lat="42.510955" lon="2.391188">
        <ele>1310.892</ele>
        <time>2022-08-11T16:05:55Z</time>
      </trkpt>
      <trkpt lat="42.510921" lon="2.391233">
        <ele>1312.711</ele>
        <time>2022-08-11T16:06:02Z</time>
      </trkpt>
      <trkpt lat="42.510878" lon="2.391257">
        <ele>1314.824</ele>
        <time>2022-08-11T16:06:09Z</time>
      </trkpt>
      <trkpt lat="42.510833" lon="2.391289">
        <ele>1316.465</ele>
        <time>2022-08-11T16:06:17Z</time>
      </trkpt>
      <trkpt lat="42.510783" lon="2.391299">
        <ele>1317.494</ele>
        <time>2022-08-11T16:06:24Z</time>
      </trkpt>
      <trkpt lat="42.510748" lon="2.391342">
        <ele>1318.837</ele>
        <time>2022-08-11T16:06:45Z</time>
      </trkpt>
      <trkpt lat="42.510719" lon="2.391393">
        <ele>1320.692</ele>
        <time>2022-08-11T16:06:55Z</time>
      </trkpt>
      <trkpt lat="42.510741" lon="2.391446">
        <ele>1323.293</ele>
        <time>2022-08-11T16:07:03Z</time>
      </trkpt>
      <trkpt lat="42.510787" lon="2.391423">
        <ele>1326.044</ele>
        <time>2022-08-11T16:07:15Z</time>
      </trkpt>
      <trkpt lat="42.510824" lon="2.391476">
        <ele>1327.405</ele>
        <time>2022-08-11T16:07:28Z</time>
      </trkpt>
      <trkpt lat="42.510851" lon="2.391547">
        <ele>1329.015</ele>
        <time>2022-08-11T16:07:34Z</time>
      </trkpt>
      <trkpt lat="42.510842" lon="2.391617">
        <ele>1331.209</ele>
        <time>2022-08-11T16:07:47Z</time>
      </trkpt>
      <trkpt lat="42.510800" lon="2.391639">
        <ele>1332.985</ele>
        <time>2022-08-11T16:07:56Z</time>
      </trkpt>
      <trkpt lat="42.510754" lon="2.391625">
        <ele>1334.595</ele>
        <time>2022-08-11T16:08:11Z</time>
      </trkpt>
      <trkpt lat="42.510752" lon="2.391689">
        <ele>1336.594</ele>
        <time>2022-08-11T16:08:18Z</time>
      </trkpt>
      <trkpt lat="42.510714" lon="2.391731">
        <ele>1338.837</ele>
        <time>2022-08-11T16:08:22Z</time>
      </trkpt>
      <trkpt lat="42.510701" lon="2.391792">
        <ele>1340.698</ele>
        <time>2022-08-11T16:08:27Z</time>
      </trkpt>
      <trkpt lat="42.510654" lon="2.391779">
        <ele>1341.267</ele>
        <time>2022-08-11T16:08:49Z</time>
      </trkpt>
      <trkpt lat="42.510623" lon="2.391735">
        <ele>1342.250</ele>
        <time>2022-08-11T16:08:51Z</time>
      </trkpt>
      <trkpt lat="42.510667" lon="2.391763">
        <ele>1344.185</ele>
        <time>2022-08-11T16:09:07Z</time>
      </trkpt>
      <trkpt lat="42.510719" lon="2.391784">
        <ele>1345.526</ele>
        <time>2022-08-11T16:09:21Z</time>
      </trkpt>
      <trkpt lat="42.510756" lon="2.391824">
        <ele>1346.767</ele>
        <time>2022-08-11T16:09:28Z</time>
      </trkpt>
      <trkpt lat="42.510782" lon="2.391877">
        <ele>1348.781</ele>
        <time>2022-08-11T16:09:31Z</time>
      </trkpt>
      <trkpt lat="42.510815" lon="2.391922">
        <ele>1350.119</ele>
        <time>2022-08-11T16:09:38Z</time>
      </trkpt>
      <trkpt lat="42.510859" lon="2.391955">
        <ele>1350.509</ele>
        <time>2022-08-11T16:09:46Z</time>
      </trkpt>
      <trkpt lat="42.510906" lon="2.391951">
        <ele>1350.827</ele>
        <time>2022-08-11T16:10:02Z</time>
      </trkpt>
      <trkpt lat="42.510926" lon="2.392010">
        <ele>1351.057</ele>
        <time>2022-08-11T16:10:09Z</time>
      </trkpt>
      <trkpt lat="42.510977" lon="2.392014">
        <ele>1351.976</ele>
        <time>2022-08-11T16:10:15Z</time>
      </trkpt>
      <trkpt lat="42.511025" lon="2.391998">
        <ele>1353.879</ele>
        <time>2022-08-11T16:10:21Z</time>
      </trkpt>
      <trkpt lat="42.511055" lon="2.391946">
        <ele>1355.550</ele>
        <time>2022-08-11T16:10:30Z</time>
      </trkpt>
      <trkpt lat="42.511113" lon="2.391942">
        <ele>1356.459</ele>
        <time>2022-08-11T16:10:33Z</time>
      </trkpt>
      <trkpt lat="42.511159" lon="2.391928">
        <ele>1357.522</ele>
        <time>2022-08-11T16:10:40Z</time>
      </trkpt>
      <trkpt lat="42.511218" lon="2.391937">
        <ele>1358.767</ele>
        <time>2022-08-11T16:10:47Z</time>
      </trkpt>
      <trkpt lat="42.511272" lon="2.391927">
        <ele>1359.498</ele>
        <time>2022-08-11T16:10:51Z</time>
      </trkpt>
      <trkpt lat="42.511321" lon="2.391925">
        <ele>1360.636</ele>
        <time>2022-08-11T16:10:55Z</time>
      </trkpt>
      <trkpt lat="42.511371" lon="2.391928">
        <ele>1361.617</ele>
        <time>2022-08-11T16:10:59Z</time>
      </trkpt>
      <trkpt lat="42.511424" lon="2.391964">
        <ele>1362.118</ele>
        <time>2022-08-11T16:11:03Z</time>
      </trkpt>
      <trkpt lat="42.511470" lon="2.392002">
        <ele>1362.609</ele>
        <time>2022-08-11T16:11:06Z</time>
      </trkpt>
      <trkpt lat="42.511502" lon="2.392057">
        <ele>1363.114</ele>
        <time>2022-08-11T16:11:12Z</time>
      </trkpt>
      <trkpt lat="42.511539" lon="2.392097">
        <ele>1363.554</ele>
        <time>2022-08-11T16:11:15Z</time>
      </trkpt>
      <trkpt lat="42.511555" lon="2.392172">
        <ele>1364.663</ele>
        <time>2022-08-11T16:11:18Z</time>
      </trkpt>
      <trkpt lat="42.511543" lon="2.392244">
        <ele>1364.856</ele>
        <time>2022-08-11T16:11:22Z</time>
      </trkpt>
      <trkpt lat="42.511528" lon="2.392312">
        <ele>1365.387</ele>
        <time>2022-08-11T16:11:24Z</time>
      </trkpt>
      <trkpt lat="42.511509" lon="2.392386">
        <ele>1365.946</ele>
        <time>2022-08-11T16:11:27Z</time>
      </trkpt>
      <trkpt lat="42.511494" lon="2.392466">
        <ele>1366.359</ele>
        <time>2022-08-11T16:11:32Z</time>
      </trkpt>
      <trkpt lat="42.511496" lon="2.392538">
        <ele>1367.244</ele>
        <time>2022-08-11T16:11:51Z</time>
      </trkpt>
      <trkpt lat="42.511456" lon="2.392579">
        <ele>1368.645</ele>
        <time>2022-08-11T16:11:58Z</time>
      </trkpt>
      <trkpt lat="42.511406" lon="2.392549">
        <ele>1372.326</ele>
        <time>2022-08-11T16:12:25Z</time>
      </trkpt>
      <trkpt lat="42.511381" lon="2.392472">
        <ele>1373.647</ele>
        <time>2022-08-11T16:12:29Z</time>
      </trkpt>
      <trkpt lat="42.511369" lon="2.392410">
        <ele>1375.411</ele>
        <time>2022-08-11T16:12:33Z</time>
      </trkpt>
      <trkpt lat="42.511315" lon="2.392424">
        <ele>1377.209</ele>
        <time>2022-08-11T16:13:12Z</time>
      </trkpt>
      <trkpt lat="42.511270" lon="2.392448">
        <ele>1377.883</ele>
        <time>2022-08-11T16:13:16Z</time>
      </trkpt>
      <trkpt lat="42.511221" lon="2.392436">
        <ele>1381.693</ele>
        <time>2022-08-11T16:13:26Z</time>
      </trkpt>
      <trkpt lat="42.511179" lon="2.392384">
        <ele>1384.982</ele>
        <time>2022-08-11T16:13:32Z</time>
      </trkpt>
      <trkpt lat="42.511155" lon="2.392439">
        <ele>1386.045</ele>
        <time>2022-08-11T16:13:49Z</time>
      </trkpt>
      <trkpt lat="42.511165" lon="2.392508">
        <ele>1387.586</ele>
        <time>2022-08-11T16:13:57Z</time>
      </trkpt>
      <trkpt lat="42.511203" lon="2.392549">
        <ele>1389.585</ele>
        <time>2022-08-11T16:14:03Z</time>
      </trkpt>
      <trkpt lat="42.511245" lon="2.392590">
        <ele>1391.678</ele>
        <time>2022-08-11T16:14:07Z</time>
      </trkpt>
      <trkpt lat="42.511283" lon="2.392648">
        <ele>1392.383</ele>
        <time>2022-08-11T16:14:11Z</time>
      </trkpt>
      <trkpt lat="42.511311" lon="2.392696">
        <ele>1392.654</ele>
        <time>2022-08-11T16:14:14Z</time>
      </trkpt>
      <trkpt lat="42.511341" lon="2.392748">
        <ele>1393.362</ele>
        <time>2022-08-11T16:14:20Z</time>
      </trkpt>
      <trkpt lat="42.511379" lon="2.392804">
        <ele>1394.183</ele>
        <time>2022-08-11T16:14:23Z</time>
      </trkpt>
      <trkpt lat="42.511422" lon="2.392844">
        <ele>1394.911</ele>
        <time>2022-08-11T16:14:27Z</time>
      </trkpt>
      <trkpt lat="42.511409" lon="2.392904">
        <ele>1395.509</ele>
        <time>2022-08-11T16:14:35Z</time>
      </trkpt>
      <trkpt lat="42.511440" lon="2.392955">
        <ele>1395.867</ele>
        <time>2022-08-11T16:14:44Z</time>
      </trkpt>
      <trkpt lat="42.511447" lon="2.393017">
        <ele>1396.457</ele>
        <time>2022-08-11T16:15:07Z</time>
      </trkpt>
      <trkpt lat="42.511450" lon="2.393079">
        <ele>1397.736</ele>
        <time>2022-08-11T16:15:15Z</time>
      </trkpt>
      <trkpt lat="42.511493" lon="2.393115">
        <ele>1399.739</ele>
        <time>2022-08-11T16:15:32Z</time>
      </trkpt>
      <trkpt lat="42.511481" lon="2.393174">
        <ele>1401.780</ele>
        <time>2022-08-11T16:15:46Z</time>
      </trkpt>
      <trkpt lat="42.511436" lon="2.393206">
        <ele>1403.589</ele>
        <time>2022-08-11T16:16:12Z</time>
      </trkpt>
      <trkpt lat="42.511385" lon="2.393190">
        <ele>1406.322</ele>
        <time>2022-08-11T16:16:18Z</time>
      </trkpt>
      <trkpt lat="42.511339" lon="2.393180">
        <ele>1409.087</ele>
        <time>2022-08-11T16:16:21Z</time>
      </trkpt>
      <trkpt lat="42.511294" lon="2.393147">
        <ele>1410.488</ele>
        <time>2022-08-11T16:16:27Z</time>
      </trkpt>
      <trkpt lat="42.511243" lon="2.393138">
        <ele>1411.098</ele>
        <time>2022-08-11T16:16:31Z</time>
      </trkpt>
      <trkpt lat="42.511192" lon="2.393140">
        <ele>1411.215</ele>
        <time>2022-08-11T16:16:35Z</time>
      </trkpt>
      <trkpt lat="42.511142" lon="2.393130">
        <ele>1411.726</ele>
        <time>2022-08-11T16:16:42Z</time>
      </trkpt>
      <trkpt lat="42.511094" lon="2.393131">
        <ele>1412.509</ele>
        <time>2022-08-11T16:16:46Z</time>
      </trkpt>
      <trkpt lat="42.511048" lon="2.393131">
        <ele>1413.890</ele>
        <time>2022-08-11T16:16:51Z</time>
      </trkpt>
      <trkpt lat="42.511002" lon="2.393135">
        <ele>1414.930</ele>
        <time>2022-08-11T16:16:55Z</time>
      </trkpt>
      <trkpt lat="42.510953" lon="2.393127">
        <ele>1415.429</ele>
        <time>2022-08-11T16:17:00Z</time>
      </trkpt>
      <trkpt lat="42.510908" lon="2.393123">
        <ele>1416.052</ele>
        <time>2022-08-11T16:17:11Z</time>
      </trkpt>
      <trkpt lat="42.510881" lon="2.393174">
        <ele>1416.863</ele>
        <time>2022-08-11T16:17:17Z</time>
      </trkpt>
      <trkpt lat="42.510893" lon="2.393236">
        <ele>1418.482</ele>
        <time>2022-08-11T16:17:21Z</time>
      </trkpt>
      <trkpt lat="42.510941" lon="2.393265">
        <ele>1420.155</ele>
        <time>2022-08-11T16:17:25Z</time>
      </trkpt>
      <trkpt lat="42.510983" lon="2.393311">
        <ele>1420.750</ele>
        <time>2022-08-11T16:17:30Z</time>
      </trkpt>
      <trkpt lat="42.511037" lon="2.393311">
        <ele>1420.991</ele>
        <time>2022-08-11T16:17:38Z</time>
      </trkpt>
      <trkpt lat="42.511012" lon="2.393363">
        <ele>1421.323</ele>
        <time>2022-08-11T16:17:45Z</time>
      </trkpt>
      <trkpt lat="42.510970" lon="2.393388">
        <ele>1422.083</ele>
        <time>2022-08-11T16:17:54Z</time>
      </trkpt>
      <trkpt lat="42.510916" lon="2.393384">
        <ele>1422.811</ele>
        <time>2022-08-11T16:18:00Z</time>
      </trkpt>
      <trkpt lat="42.510885" lon="2.393433">
        <ele>1424.109</ele>
        <time>2022-08-11T16:18:09Z</time>
      </trkpt>
      <trkpt lat="42.510877" lon="2.393494">
        <ele>1425.563</ele>
        <time>2022-08-11T16:18:27Z</time>
      </trkpt>
      <trkpt lat="42.510842" lon="2.393452">
        <ele>1426.853</ele>
        <time>2022-08-11T16:18:44Z</time>
      </trkpt>
      <trkpt lat="42.510797" lon="2.393442">
        <ele>1428.332</ele>
        <time>2022-08-11T16:18:51Z</time>
      </trkpt>
      <trkpt lat="42.510749" lon="2.393417">
        <ele>1429.525</ele>
        <time>2022-08-11T16:18:59Z</time>
      </trkpt>
      <trkpt lat="42.510699" lon="2.393399">
        <ele>1430.426</ele>
        <time>2022-08-11T16:19:08Z</time>
      </trkpt>
      <trkpt lat="42.510651" lon="2.393428">
        <ele>1431.725</ele>
        <time>2022-08-11T16:19:19Z</time>
      </trkpt>
      <trkpt lat="42.510602" lon="2.393473">
        <ele>1432.958</ele>
        <time>2022-08-11T16:19:26Z</time>
      </trkpt>
      <trkpt lat="42.510555" lon="2.393496">
        <ele>1434.083</ele>
        <time>2022-08-11T16:19:30Z</time>
      </trkpt>
      <trkpt lat="42.510510" lon="2.393497">
        <ele>1435.034</ele>
        <time>2022-08-11T16:19:35Z</time>
      </trkpt>
      <trkpt lat="42.510462" lon="2.393491">
        <ele>1435.366</ele>
        <time>2022-08-11T16:19:41Z</time>
      </trkpt>
      <trkpt lat="42.510414" lon="2.393513">
        <ele>1435.529</ele>
        <time>2022-08-11T16:19:48Z</time>
      </trkpt>
      <trkpt lat="42.510360" lon="2.393553">
        <ele>1435.821</ele>
        <time>2022-08-11T16:19:53Z</time>
      </trkpt>
      <trkpt lat="42.510319" lon="2.393587">
        <ele>1436.809</ele>
        <time>2022-08-11T16:19:58Z</time>
      </trkpt>
      <trkpt lat="42.510275" lon="2.393610">
        <ele>1437.697</ele>
        <time>2022-08-11T16:20:08Z</time>
      </trkpt>
      <trkpt lat="42.510226" lon="2.393630">
        <ele>1438.087</ele>
        <time>2022-08-11T16:20:14Z</time>
      </trkpt>
      <trkpt lat="42.510182" lon="2.393611">
        <ele>1439.256</ele>
        <time>2022-08-11T16:20:19Z</time>
      </trkpt>
      <trkpt lat="42.510123" lon="2.393604">
        <ele>1440.579</ele>
        <time>2022-08-11T16:20:25Z</time>
      </trkpt>
      <trkpt lat="42.510075" lon="2.393606">
        <ele>1440.570</ele>
        <time>2022-08-11T16:20:29Z</time>
      </trkpt>
      <trkpt lat="42.510032" lon="2.393575">
        <ele>1440.529</ele>
        <time>2022-08-11T16:20:32Z</time>
      </trkpt>
      <trkpt lat="42.509983" lon="2.393570">
        <ele>1440.562</ele>
        <time>2022-08-11T16:20:36Z</time>
      </trkpt>
      <trkpt lat="42.509941" lon="2.393609">
        <ele>1439.897</ele>
        <time>2022-08-11T16:20:41Z</time>
      </trkpt>
      <trkpt lat="42.509893" lon="2.393622">
        <ele>1439.358</ele>
        <time>2022-08-11T16:20:46Z</time>
      </trkpt>
      <trkpt lat="42.509854" lon="2.393662">
        <ele>1438.872</ele>
        <time>2022-08-11T16:20:53Z</time>
      </trkpt>
      <trkpt lat="42.509845" lon="2.393722">
        <ele>1437.913</ele>
        <time>2022-08-11T16:21:00Z</time>
      </trkpt>
      <trkpt lat="42.509795" lon="2.393741">
        <ele>1437.414</ele>
        <time>2022-08-11T16:21:09Z</time>
      </trkpt>
      <trkpt lat="42.509799" lon="2.393804">
        <ele>1437.209</ele>
        <time>2022-08-11T16:21:19Z</time>
      </trkpt>
      <trkpt lat="42.509756" lon="2.393825">
        <ele>1437.228</ele>
        <time>2022-08-11T16:21:36Z</time>
      </trkpt>
      <trkpt lat="42.509726" lon="2.393873">
        <ele>1437.248</ele>
        <time>2022-08-11T16:21:52Z</time>
      </trkpt>
      <trkpt lat="42.509699" lon="2.393923">
        <ele>1437.337</ele>
        <time>2022-08-11T16:22:00Z</time>
      </trkpt>
      <trkpt lat="42.509664" lon="2.393968">
        <ele>1437.220</ele>
        <time>2022-08-11T16:22:04Z</time>
      </trkpt>
      <trkpt lat="42.509626" lon="2.394004">
        <ele>1437.111</ele>
        <time>2022-08-11T16:22:16Z</time>
      </trkpt>
      <trkpt lat="42.509576" lon="2.394029">
        <ele>1437.150</ele>
        <time>2022-08-11T16:22:21Z</time>
      </trkpt>
      <trkpt lat="42.509532" lon="2.394069">
        <ele>1436.653</ele>
        <time>2022-08-11T16:22:29Z</time>
      </trkpt>
      <trkpt lat="42.509503" lon="2.394123">
        <ele>1435.628</ele>
        <time>2022-08-11T16:22:37Z</time>
      </trkpt>
      <trkpt lat="42.509498" lon="2.394184">
        <ele>1434.619</ele>
        <time>2022-08-11T16:22:43Z</time>
      </trkpt>
      <trkpt lat="42.509482" lon="2.394262">
        <ele>1433.764</ele>
        <time>2022-08-11T16:22:48Z</time>
      </trkpt>
      <trkpt lat="42.509441" lon="2.394310">
        <ele>1432.806</ele>
        <time>2022-08-11T16:22:51Z</time>
      </trkpt>
      <trkpt lat="42.509414" lon="2.394374">
        <ele>1432.216</ele>
        <time>2022-08-11T16:22:57Z</time>
      </trkpt>
      <trkpt lat="42.509389" lon="2.394440">
        <ele>1431.809</ele>
        <time>2022-08-11T16:23:02Z</time>
      </trkpt>
      <trkpt lat="42.509353" lon="2.394490">
        <ele>1430.037</ele>
        <time>2022-08-11T16:23:10Z</time>
      </trkpt>
      <trkpt lat="42.509305" lon="2.394517">
        <ele>1429.417</ele>
        <time>2022-08-11T16:23:12Z</time>
      </trkpt>
      <trkpt lat="42.509278" lon="2.394568">
        <ele>1428.216</ele>
        <time>2022-08-11T16:23:15Z</time>
      </trkpt>
      <trkpt lat="42.509246" lon="2.394620">
        <ele>1427.489</ele>
        <time>2022-08-11T16:23:17Z</time>
      </trkpt>
      <trkpt lat="42.509207" lon="2.394654">
        <ele>1427.230</ele>
        <time>2022-08-11T16:23:20Z</time>
      </trkpt>
      <trkpt lat="42.509185" lon="2.394720">
        <ele>1427.089</ele>
        <time>2022-08-11T16:23:25Z</time>
      </trkpt>
      <trkpt lat="42.509165" lon="2.394775">
        <ele>1426.452</ele>
        <time>2022-08-11T16:23:30Z</time>
      </trkpt>
      <trkpt lat="42.509162" lon="2.394849">
        <ele>1425.947</ele>
        <time>2022-08-11T16:23:34Z</time>
      </trkpt>
      <trkpt lat="42.509137" lon="2.394905">
        <ele>1425.938</ele>
        <time>2022-08-11T16:23:47Z</time>
      </trkpt>
      <trkpt lat="42.509102" lon="2.394955">
        <ele>1425.996</ele>
        <time>2022-08-11T16:23:55Z</time>
      </trkpt>
      <trkpt lat="42.509088" lon="2.395024">
        <ele>1425.931</ele>
        <time>2022-08-11T16:23:58Z</time>
      </trkpt>
      <trkpt lat="42.509056" lon="2.395075">
        <ele>1426.224</ele>
        <time>2022-08-11T16:24:05Z</time>
      </trkpt>
      <trkpt lat="42.509054" lon="2.395153">
        <ele>1426.609</ele>
        <time>2022-08-11T16:24:12Z</time>
      </trkpt>
      <trkpt lat="42.509027" lon="2.395215">
        <ele>1426.890</ele>
        <time>2022-08-11T16:24:17Z</time>
      </trkpt>
      <trkpt lat="42.509014" lon="2.395280">
        <ele>1427.170</ele>
        <time>2022-08-11T16:24:19Z</time>
      </trkpt>
      <trkpt lat="42.509010" lon="2.395371">
        <ele>1427.369</ele>
        <time>2022-08-11T16:24:21Z</time>
      </trkpt>
      <trkpt lat="42.509000" lon="2.395438">
        <ele>1427.352</ele>
        <time>2022-08-11T16:24:24Z</time>
      </trkpt>
      <trkpt lat="42.508982" lon="2.395503">
        <ele>1427.333</ele>
        <time>2022-08-11T16:24:28Z</time>
      </trkpt>
      <trkpt lat="42.508966" lon="2.395573">
        <ele>1426.672</ele>
        <time>2022-08-11T16:24:31Z</time>
      </trkpt>
      <trkpt lat="42.508939" lon="2.395625">
        <ele>1426.375</ele>
        <time>2022-08-11T16:24:36Z</time>
      </trkpt>
      <trkpt lat="42.508909" lon="2.395671">
        <ele>1426.490</ele>
        <time>2022-08-11T16:24:42Z</time>
      </trkpt>
      <trkpt lat="42.508862" lon="2.395661">
        <ele>1426.431</ele>
        <time>2022-08-11T16:24:50Z</time>
      </trkpt>
      <trkpt lat="42.508815" lon="2.395630">
        <ele>1427.046</ele>
        <time>2022-08-11T16:24:57Z</time>
      </trkpt>
      <trkpt lat="42.508771" lon="2.395604">
        <ele>1427.988</ele>
        <time>2022-08-11T16:25:02Z</time>
      </trkpt>
      <trkpt lat="42.508799" lon="2.395654">
        <ele>1428.616</ele>
        <time>2022-08-11T16:25:14Z</time>
      </trkpt>
      <trkpt lat="42.508812" lon="2.395593">
        <ele>1430.009</ele>
        <time>2022-08-11T16:25:27Z</time>
      </trkpt>
      <trkpt lat="42.508764" lon="2.395573">
        <ele>1431.415</ele>
        <time>2022-08-11T16:25:35Z</time>
      </trkpt>
      <trkpt lat="42.508717" lon="2.395575">
        <ele>1433.655</ele>
        <time>2022-08-11T16:25:43Z</time>
      </trkpt>
      <trkpt lat="42.508658" lon="2.395562">
        <ele>1435.854</ele>
        <time>2022-08-11T16:25:49Z</time>
      </trkpt>
      <trkpt lat="42.508613" lon="2.395534">
        <ele>1437.277</ele>
        <time>2022-08-11T16:25:51Z</time>
      </trkpt>
      <trkpt lat="42.508556" lon="2.395511">
        <ele>1438.668</ele>
        <time>2022-08-11T16:25:53Z</time>
      </trkpt>
      <trkpt lat="42.508512" lon="2.395488">
        <ele>1439.327</ele>
        <time>2022-08-11T16:25:55Z</time>
      </trkpt>
      <trkpt lat="42.508479" lon="2.395534">
        <ele>1439.480</ele>
        <time>2022-08-11T16:25:59Z</time>
      </trkpt>
      <trkpt lat="42.508427" lon="2.395540">
        <ele>1440.185</ele>
        <time>2022-08-11T16:26:06Z</time>
      </trkpt>
      <trkpt lat="42.508378" lon="2.395536">
        <ele>1440.926</ele>
        <time>2022-08-11T16:26:12Z</time>
      </trkpt>
      <trkpt lat="42.508330" lon="2.395534">
        <ele>1441.361</ele>
        <time>2022-08-11T16:26:18Z</time>
      </trkpt>
      <trkpt lat="42.508285" lon="2.395542">
        <ele>1441.621</ele>
        <time>2022-08-11T16:26:22Z</time>
      </trkpt>
      <trkpt lat="42.508241" lon="2.395566">
        <ele>1441.813</ele>
        <time>2022-08-11T16:26:26Z</time>
      </trkpt>
      <trkpt lat="42.508193" lon="2.395573">
        <ele>1442.009</ele>
        <time>2022-08-11T16:26:34Z</time>
      </trkpt>
      <trkpt lat="42.508141" lon="2.395559">
        <ele>1442.377</ele>
        <time>2022-08-11T16:26:38Z</time>
      </trkpt>
      <trkpt lat="42.508089" lon="2.395537">
        <ele>1442.947</ele>
        <time>2022-08-11T16:26:42Z</time>
      </trkpt>
      <trkpt lat="42.508064" lon="2.395597">
        <ele>1443.366</ele>
        <time>2022-08-11T16:27:14Z</time>
      </trkpt>
      <trkpt lat="42.508011" lon="2.395603">
        <ele>1443.449</ele>
        <time>2022-08-11T16:27:17Z</time>
      </trkpt>
      <trkpt lat="42.507966" lon="2.395618">
        <ele>1443.720</ele>
        <time>2022-08-11T16:27:20Z</time>
      </trkpt>
      <trkpt lat="42.507920" lon="2.395630">
        <ele>1444.839</ele>
        <time>2022-08-11T16:27:23Z</time>
      </trkpt>
      <trkpt lat="42.507873" lon="2.395653">
        <ele>1445.152</ele>
        <time>2022-08-11T16:27:27Z</time>
      </trkpt>
      <trkpt lat="42.507829" lon="2.395637">
        <ele>1445.157</ele>
        <time>2022-08-11T16:27:32Z</time>
      </trkpt>
      <trkpt lat="42.507780" lon="2.395634">
        <ele>1444.568</ele>
        <time>2022-08-11T16:27:40Z</time>
      </trkpt>
      <trkpt lat="42.507734" lon="2.395642">
        <ele>1444.553</ele>
        <time>2022-08-11T16:27:46Z</time>
      </trkpt>
      <trkpt lat="42.507684" lon="2.395611">
        <ele>1444.604</ele>
        <time>2022-08-11T16:27:55Z</time>
      </trkpt>
      <trkpt lat="42.507627" lon="2.395607">
        <ele>1444.614</ele>
        <time>2022-08-11T16:28:01Z</time>
      </trkpt>
      <trkpt lat="42.507582" lon="2.395613">
        <ele>1444.709</ele>
        <time>2022-08-11T16:28:04Z</time>
      </trkpt>
      <trkpt lat="42.507521" lon="2.395621">
        <ele>1444.866</ele>
        <time>2022-08-11T16:28:07Z</time>
      </trkpt>
      <trkpt lat="42.507460" lon="2.395610">
        <ele>1444.886</ele>
        <time>2022-08-11T16:28:10Z</time>
      </trkpt>
      <trkpt lat="42.507400" lon="2.395627">
        <ele>1445.095</ele>
        <time>2022-08-11T16:28:13Z</time>
      </trkpt>
      <trkpt lat="42.507353" lon="2.395676">
        <ele>1445.128</ele>
        <time>2022-08-11T16:28:17Z</time>
      </trkpt>
      <trkpt lat="42.507302" lon="2.395712">
        <ele>1445.229</ele>
        <time>2022-08-11T16:28:20Z</time>
      </trkpt>
      <trkpt lat="42.507254" lon="2.395741">
        <ele>1445.328</ele>
        <time>2022-08-11T16:28:23Z</time>
      </trkpt>
      <trkpt lat="42.507203" lon="2.395766">
        <ele>1445.371</ele>
        <time>2022-08-11T16:28:26Z</time>
      </trkpt>
      <trkpt lat="42.507157" lon="2.395788">
        <ele>1445.536</ele>
        <time>2022-08-11T16:28:30Z</time>
      </trkpt>
      <trkpt lat="42.507122" lon="2.395832">
        <ele>1445.667</ele>
        <time>2022-08-11T16:28:35Z</time>
      </trkpt>
      <trkpt lat="42.507086" lon="2.395875">
        <ele>1445.924</ele>
        <time>2022-08-11T16:28:40Z</time>
      </trkpt>
      <trkpt lat="42.507043" lon="2.395893">
        <ele>1446.204</ele>
        <time>2022-08-11T16:28:45Z</time>
      </trkpt>
      <trkpt lat="42.506995" lon="2.395860">
        <ele>1446.314</ele>
        <time>2022-08-11T16:28:52Z</time>
      </trkpt>
      <trkpt lat="42.506957" lon="2.395808">
        <ele>1446.409</ele>
        <time>2022-08-11T16:29:00Z</time>
      </trkpt>
      <trkpt lat="42.506912" lon="2.395773">
        <ele>1446.513</ele>
        <time>2022-08-11T16:29:04Z</time>
      </trkpt>
      <trkpt lat="42.506868" lon="2.395756">
        <ele>1446.573</ele>
        <time>2022-08-11T16:29:09Z</time>
      </trkpt>
      <trkpt lat="42.506817" lon="2.395748">
        <ele>1446.682</ele>
        <time>2022-08-11T16:29:13Z</time>
      </trkpt>
      <trkpt lat="42.506762" lon="2.395773">
        <ele>1446.755</ele>
        <time>2022-08-11T16:29:18Z</time>
      </trkpt>
      <trkpt lat="42.506701" lon="2.395752">
        <ele>1446.986</ele>
        <time>2022-08-11T16:29:22Z</time>
      </trkpt>
      <trkpt lat="42.506656" lon="2.395725">
        <ele>1447.275</ele>
        <time>2022-08-11T16:29:26Z</time>
      </trkpt>
      <trkpt lat="42.506601" lon="2.395698">
        <ele>1447.798</ele>
        <time>2022-08-11T16:29:30Z</time>
      </trkpt>
      <trkpt lat="42.506542" lon="2.395653">
        <ele>1447.743</ele>
        <time>2022-08-11T16:29:33Z</time>
      </trkpt>
      <trkpt lat="42.506491" lon="2.395641">
        <ele>1448.014</ele>
        <time>2022-08-11T16:29:40Z</time>
      </trkpt>
      <trkpt lat="42.506441" lon="2.395641">
        <ele>1448.028</ele>
        <time>2022-08-11T16:29:46Z</time>
      </trkpt>
      <trkpt lat="42.506382" lon="2.395614">
        <ele>1448.089</ele>
        <time>2022-08-11T16:29:51Z</time>
      </trkpt>
      <trkpt lat="42.506345" lon="2.395547">
        <ele>1448.717</ele>
        <time>2022-08-11T16:29:53Z</time>
      </trkpt>
      <trkpt lat="42.506338" lon="2.395477">
        <ele>1448.809</ele>
        <time>2022-08-11T16:29:56Z</time>
      </trkpt>
      <trkpt lat="42.506336" lon="2.395406">
        <ele>1449.053</ele>
        <time>2022-08-11T16:30:00Z</time>
      </trkpt>
      <trkpt lat="42.506311" lon="2.395333">
        <ele>1449.083</ele>
        <time>2022-08-11T16:30:09Z</time>
      </trkpt>
      <trkpt lat="42.506326" lon="2.395267">
        <ele>1449.292</ele>
        <time>2022-08-11T16:30:13Z</time>
      </trkpt>
      <trkpt lat="42.506343" lon="2.395208">
        <ele>1449.595</ele>
        <time>2022-08-11T16:30:16Z</time>
      </trkpt>
      <trkpt lat="42.506275" lon="2.395192">
        <ele>1450.146</ele>
        <time>2022-08-11T16:30:33Z</time>
      </trkpt>
      <trkpt lat="42.506251" lon="2.395129">
        <ele>1450.495</ele>
        <time>2022-08-11T16:30:36Z</time>
      </trkpt>
      <trkpt lat="42.506222" lon="2.395079">
        <ele>1450.458</ele>
        <time>2022-08-11T16:30:38Z</time>
      </trkpt>
      <trkpt lat="42.506169" lon="2.395077">
        <ele>1450.463</ele>
        <time>2022-08-11T16:30:41Z</time>
      </trkpt>
      <trkpt lat="42.506121" lon="2.395078">
        <ele>1450.454</ele>
        <time>2022-08-11T16:30:46Z</time>
      </trkpt>
      <trkpt lat="42.506096" lon="2.395141">
        <ele>1450.422</ele>
        <time>2022-08-11T16:30:51Z</time>
      </trkpt>
      <trkpt lat="42.506060" lon="2.395179">
        <ele>1450.462</ele>
        <time>2022-08-11T16:30:56Z</time>
      </trkpt>
      <trkpt lat="42.506100" lon="2.395212">
        <ele>1450.408</ele>
        <time>2022-08-11T16:31:02Z</time>
      </trkpt>
      <trkpt lat="42.506149" lon="2.395219">
        <ele>1450.509</ele>
        <time>2022-08-11T16:31:08Z</time>
      </trkpt>
      <trkpt lat="42.506199" lon="2.395261">
        <ele>1450.873</ele>
        <time>2022-08-11T16:31:11Z</time>
      </trkpt>
      <trkpt lat="42.506232" lon="2.395322">
        <ele>1450.713</ele>
        <time>2022-08-11T16:31:13Z</time>
      </trkpt>
      <trkpt lat="42.506270" lon="2.395477">
        <ele>1452.892</ele>
        <time>2022-08-11T16:31:15Z</time>
      </trkpt>
      <trkpt lat="42.506276" lon="2.395537">
        <ele>1452.945</ele>
        <time>2022-08-11T16:31:17Z</time>
      </trkpt>
      <trkpt lat="42.506264" lon="2.395599">
        <ele>1453.096</ele>
        <time>2022-08-11T16:31:20Z</time>
      </trkpt>
      <trkpt lat="42.506271" lon="2.395677">
        <ele>1453.265</ele>
        <time>2022-08-11T16:31:23Z</time>
      </trkpt>
      <trkpt lat="42.506252" lon="2.395746">
        <ele>1453.268</ele>
        <time>2022-08-11T16:31:25Z</time>
      </trkpt>
      <trkpt lat="42.506273" lon="2.395829">
        <ele>1453.243</ele>
        <time>2022-08-11T16:31:27Z</time>
      </trkpt>
      <trkpt lat="42.506275" lon="2.395892">
        <ele>1453.254</ele>
        <time>2022-08-11T16:31:29Z</time>
      </trkpt>
      <trkpt lat="42.506239" lon="2.395963">
        <ele>1453.387</ele>
        <time>2022-08-11T16:31:34Z</time>
      </trkpt>
      <trkpt lat="42.506193" lon="2.396007">
        <ele>1453.342</ele>
        <time>2022-08-11T16:31:38Z</time>
      </trkpt>
      <trkpt lat="42.506177" lon="2.396064">
        <ele>1453.326</ele>
        <time>2022-08-11T16:31:40Z</time>
      </trkpt>
      <trkpt lat="42.506108" lon="2.396112">
        <ele>1453.309</ele>
        <time>2022-08-11T16:31:43Z</time>
      </trkpt>
      <trkpt lat="42.506067" lon="2.396151">
        <ele>1453.339</ele>
        <time>2022-08-11T16:31:51Z</time>
      </trkpt>
      <trkpt lat="42.506039" lon="2.396202">
        <ele>1453.489</ele>
        <time>2022-08-11T16:31:54Z</time>
      </trkpt>
      <trkpt lat="42.506009" lon="2.396263">
        <ele>1454.148</ele>
        <time>2022-08-11T16:31:58Z</time>
      </trkpt>
      <trkpt lat="42.505995" lon="2.396338">
        <ele>1455.071</ele>
        <time>2022-08-11T16:32:03Z</time>
      </trkpt>
      <trkpt lat="42.505996" lon="2.396415">
        <ele>1455.562</ele>
        <time>2022-08-11T16:32:08Z</time>
      </trkpt>
      <trkpt lat="42.505998" lon="2.396482">
        <ele>1456.111</ele>
        <time>2022-08-11T16:32:12Z</time>
      </trkpt>
      <trkpt lat="42.506013" lon="2.396549">
        <ele>1456.564</ele>
        <time>2022-08-11T16:32:16Z</time>
      </trkpt>
      <trkpt lat="42.506025" lon="2.396630">
        <ele>1457.549</ele>
        <time>2022-08-11T16:32:21Z</time>
      </trkpt>
      <trkpt lat="42.506039" lon="2.396567">
        <ele>1457.820</ele>
        <time>2022-08-11T16:32:31Z</time>
      </trkpt>
      <trkpt lat="42.506006" lon="2.396525">
        <ele>1458.657</ele>
        <time>2022-08-11T16:32:36Z</time>
      </trkpt>
      <trkpt lat="42.505977" lon="2.396478">
        <ele>1460.200</ele>
        <time>2022-08-11T16:32:44Z</time>
      </trkpt>
      <trkpt lat="42.505952" lon="2.396418">
        <ele>1461.920</ele>
        <time>2022-08-11T16:32:54Z</time>
      </trkpt>
      <trkpt lat="42.505912" lon="2.396464">
        <ele>1463.309</ele>
        <time>2022-08-11T16:33:04Z</time>
      </trkpt>
      <trkpt lat="42.505902" lon="2.396529">
        <ele>1465.066</ele>
        <time>2022-08-11T16:33:11Z</time>
      </trkpt>
      <trkpt lat="42.505896" lon="2.396590">
        <ele>1466.946</ele>
        <time>2022-08-11T16:33:19Z</time>
      </trkpt>
      <trkpt lat="42.505895" lon="2.396658">
        <ele>1468.875</ele>
        <time>2022-08-11T16:33:24Z</time>
      </trkpt>
      <trkpt lat="42.505847" lon="2.396654">
        <ele>1470.388</ele>
        <time>2022-08-11T16:33:43Z</time>
      </trkpt>
      <trkpt lat="42.505822" lon="2.396587">
        <ele>1471.359</ele>
        <time>2022-08-11T16:33:56Z</time>
      </trkpt>
      <trkpt lat="42.505792" lon="2.396537">
        <ele>1472.838</ele>
        <time>2022-08-11T16:34:01Z</time>
      </trkpt>
      <trkpt lat="42.505767" lon="2.396481">
        <ele>1475.271</ele>
        <time>2022-08-11T16:34:06Z</time>
      </trkpt>
      <trkpt lat="42.505720" lon="2.396483">
        <ele>1477.286</ele>
        <time>2022-08-11T16:34:18Z</time>
      </trkpt>
      <trkpt lat="42.505700" lon="2.396543">
        <ele>1478.397</ele>
        <time>2022-08-11T16:34:25Z</time>
      </trkpt>
      <trkpt lat="42.505709" lon="2.396618">
        <ele>1479.874</ele>
        <time>2022-08-11T16:34:31Z</time>
      </trkpt>
      <trkpt lat="42.505688" lon="2.396563">
        <ele>1481.356</ele>
        <time>2022-08-11T16:34:45Z</time>
      </trkpt>
      <trkpt lat="42.505659" lon="2.396501">
        <ele>1482.121</ele>
        <time>2022-08-11T16:34:53Z</time>
      </trkpt>
      <trkpt lat="42.505623" lon="2.396539">
        <ele>1483.809</ele>
        <time>2022-08-11T16:34:58Z</time>
      </trkpt>
      <trkpt lat="42.505590" lon="2.396497">
        <ele>1485.628</ele>
        <time>2022-08-11T16:35:21Z</time>
      </trkpt>
      <trkpt lat="42.505604" lon="2.396438">
        <ele>1486.878</ele>
        <time>2022-08-11T16:35:26Z</time>
      </trkpt>
      <trkpt lat="42.505593" lon="2.396373">
        <ele>1489.047</ele>
        <time>2022-08-11T16:35:29Z</time>
      </trkpt>
      <trkpt lat="42.505571" lon="2.396312">
        <ele>1490.960</ele>
        <time>2022-08-11T16:35:35Z</time>
      </trkpt>
      <trkpt lat="42.505543" lon="2.396261">
        <ele>1491.241</ele>
        <time>2022-08-11T16:35:43Z</time>
      </trkpt>
      <trkpt lat="42.505503" lon="2.396232">
        <ele>1491.410</ele>
        <time>2022-08-11T16:35:49Z</time>
      </trkpt>
      <trkpt lat="42.505454" lon="2.396221">
        <ele>1492.183</ele>
        <time>2022-08-11T16:36:01Z</time>
      </trkpt>
      <trkpt lat="42.505412" lon="2.396197">
        <ele>1493.448</ele>
        <time>2022-08-11T16:36:04Z</time>
      </trkpt>
      <trkpt lat="42.505373" lon="2.396149">
        <ele>1495.219</ele>
        <time>2022-08-11T16:36:09Z</time>
      </trkpt>
      <trkpt lat="42.505317" lon="2.396141">
        <ele>1496.223</ele>
        <time>2022-08-11T16:36:15Z</time>
      </trkpt>
      <trkpt lat="42.505271" lon="2.396138">
        <ele>1496.483</ele>
        <time>2022-08-11T16:36:20Z</time>
      </trkpt>
      <trkpt lat="42.505224" lon="2.396142">
        <ele>1496.611</ele>
        <time>2022-08-11T16:36:30Z</time>
      </trkpt>
      <trkpt lat="42.505178" lon="2.396156">
        <ele>1496.909</ele>
        <time>2022-08-11T16:36:34Z</time>
      </trkpt>
      <trkpt lat="42.505130" lon="2.396175">
        <ele>1496.933</ele>
        <time>2022-08-11T16:36:38Z</time>
      </trkpt>
      <trkpt lat="42.505079" lon="2.396183">
        <ele>1496.953</ele>
        <time>2022-08-11T16:36:42Z</time>
      </trkpt>
      <trkpt lat="42.505030" lon="2.396192">
        <ele>1497.162</ele>
        <time>2022-08-11T16:36:48Z</time>
      </trkpt>
      <trkpt lat="42.504981" lon="2.396209">
        <ele>1496.955</ele>
        <time>2022-08-11T16:36:52Z</time>
      </trkpt>
      <trkpt lat="42.504930" lon="2.396216">
        <ele>1496.716</ele>
        <time>2022-08-11T16:36:56Z</time>
      </trkpt>
      <trkpt lat="42.504894" lon="2.396177">
        <ele>1496.795</ele>
        <time>2022-08-11T16:36:59Z</time>
      </trkpt>
      <trkpt lat="42.504847" lon="2.396162">
        <ele>1496.958</ele>
        <time>2022-08-11T16:37:05Z</time>
      </trkpt>
      <trkpt lat="42.504795" lon="2.396177">
        <ele>1497.183</ele>
        <time>2022-08-11T16:37:10Z</time>
      </trkpt>
      <trkpt lat="42.504758" lon="2.396140">
        <ele>1497.174</ele>
        <time>2022-08-11T16:37:15Z</time>
      </trkpt>
      <trkpt lat="42.504712" lon="2.396119">
        <ele>1497.232</ele>
        <time>2022-08-11T16:37:18Z</time>
      </trkpt>
      <trkpt lat="42.504666" lon="2.396180">
        <ele>1497.892</ele>
        <time>2022-08-11T16:37:21Z</time>
      </trkpt>
      <trkpt lat="42.504624" lon="2.396215">
        <ele>1498.311</ele>
        <time>2022-08-11T16:37:23Z</time>
      </trkpt>
      <trkpt lat="42.504559" lon="2.396241">
        <ele>1498.409</ele>
        <time>2022-08-11T16:37:26Z</time>
      </trkpt>
      <trkpt lat="42.504508" lon="2.396270">
        <ele>1498.614</ele>
        <time>2022-08-11T16:37:30Z</time>
      </trkpt>
      <trkpt lat="42.504463" lon="2.396282">
        <ele>1498.884</ele>
        <time>2022-08-11T16:37:33Z</time>
      </trkpt>
      <trkpt lat="42.504440" lon="2.396335">
        <ele>1498.963</ele>
        <time>2022-08-11T16:37:38Z</time>
      </trkpt>
      <trkpt lat="42.504397" lon="2.396371">
        <ele>1499.266</ele>
        <time>2022-08-11T16:37:42Z</time>
      </trkpt>
      <trkpt lat="42.504354" lon="2.396426">
        <ele>1499.767</ele>
        <time>2022-08-11T16:37:45Z</time>
      </trkpt>
      <trkpt lat="42.504308" lon="2.396458">
        <ele>1500.186</ele>
        <time>2022-08-11T16:37:49Z</time>
      </trkpt>
      <trkpt lat="42.504263" lon="2.396487">
        <ele>1500.549</ele>
        <time>2022-08-11T16:37:54Z</time>
      </trkpt>
      <trkpt lat="42.504215" lon="2.396505">
        <ele>1500.724</ele>
        <time>2022-08-11T16:38:01Z</time>
      </trkpt>
      <trkpt lat="42.504192" lon="2.396565">
        <ele>1500.855</ele>
        <time>2022-08-11T16:38:09Z</time>
      </trkpt>
      <trkpt lat="42.504166" lon="2.396623">
        <ele>1501.047</ele>
        <time>2022-08-11T16:38:14Z</time>
      </trkpt>
      <trkpt lat="42.504126" lon="2.396671">
        <ele>1501.129</ele>
        <time>2022-08-11T16:38:23Z</time>
      </trkpt>
      <trkpt lat="42.504081" lon="2.396686">
        <ele>1501.521</ele>
        <time>2022-08-11T16:38:25Z</time>
      </trkpt>
      <trkpt lat="42.504031" lon="2.396719">
        <ele>1502.309</ele>
        <time>2022-08-11T16:38:30Z</time>
      </trkpt>
      <trkpt lat="42.503977" lon="2.396713">
        <ele>1502.955</ele>
        <time>2022-08-11T16:38:34Z</time>
      </trkpt>
      <trkpt lat="42.503918" lon="2.396750">
        <ele>1503.225</ele>
        <time>2022-08-11T16:38:43Z</time>
      </trkpt>
      <trkpt lat="42.503883" lon="2.396789">
        <ele>1503.314</ele>
        <time>2022-08-11T16:38:45Z</time>
      </trkpt>
      <trkpt lat="42.503835" lon="2.396804">
        <ele>1504.657</ele>
        <time>2022-08-11T16:38:48Z</time>
      </trkpt>
      <trkpt lat="42.503790" lon="2.396810">
        <ele>1504.648</ele>
        <time>2022-08-11T16:38:52Z</time>
      </trkpt>
      <trkpt lat="42.503745" lon="2.396833">
        <ele>1504.747</ele>
        <time>2022-08-11T16:38:56Z</time>
      </trkpt>
      <trkpt lat="42.503697" lon="2.396893">
        <ele>1504.960</ele>
        <time>2022-08-11T16:39:01Z</time>
      </trkpt>
      <trkpt lat="42.503643" lon="2.396927">
        <ele>1505.055</ele>
        <time>2022-08-11T16:39:09Z</time>
      </trkpt>
      <trkpt lat="42.503592" lon="2.396937">
        <ele>1505.876</ele>
        <time>2022-08-11T16:39:12Z</time>
      </trkpt>
      <trkpt lat="42.503567" lon="2.396997">
        <ele>1505.977</ele>
        <time>2022-08-11T16:39:19Z</time>
      </trkpt>
      <trkpt lat="42.503505" lon="2.397024">
        <ele>1506.261</ele>
        <time>2022-08-11T16:39:22Z</time>
      </trkpt>
      <trkpt lat="42.503458" lon="2.397043">
        <ele>1506.927</ele>
        <time>2022-08-11T16:39:24Z</time>
      </trkpt>
      <trkpt lat="42.503413" lon="2.397066">
        <ele>1507.309</ele>
        <time>2022-08-11T16:39:27Z</time>
      </trkpt>
      <trkpt lat="42.503356" lon="2.397088">
        <ele>1507.728</ele>
        <time>2022-08-11T16:39:34Z</time>
      </trkpt>
      <trkpt lat="42.503315" lon="2.397141">
        <ele>1507.848</ele>
        <time>2022-08-11T16:39:40Z</time>
      </trkpt>
      <trkpt lat="42.503273" lon="2.397183">
        <ele>1508.297</ele>
        <time>2022-08-11T16:39:43Z</time>
      </trkpt>
      <trkpt lat="42.503233" lon="2.397212">
        <ele>1508.710</ele>
        <time>2022-08-11T16:39:46Z</time>
      </trkpt>
      <trkpt lat="42.503179" lon="2.397246">
        <ele>1508.941</ele>
        <time>2022-08-11T16:39:49Z</time>
      </trkpt>
      <trkpt lat="42.503128" lon="2.397208">
        <ele>1509.090</ele>
        <time>2022-08-11T16:40:12Z</time>
      </trkpt>
      <trkpt lat="42.503076" lon="2.397252">
        <ele>1509.033</ele>
        <time>2022-08-11T16:40:18Z</time>
      </trkpt>
      <trkpt lat="42.503021" lon="2.397252">
        <ele>1512.078</ele>
        <time>2022-08-11T16:40:23Z</time>
      </trkpt>
      <trkpt lat="42.502973" lon="2.397265">
        <ele>1512.019</ele>
        <time>2022-08-11T16:40:26Z</time>
      </trkpt>
      <trkpt lat="42.502922" lon="2.397288">
        <ele>1512.036</ele>
        <time>2022-08-11T16:40:30Z</time>
      </trkpt>
      <trkpt lat="42.502907" lon="2.397348">
        <ele>1512.117</ele>
        <time>2022-08-11T16:40:44Z</time>
      </trkpt>
      <trkpt lat="42.502930" lon="2.397400">
        <ele>1512.718</ele>
        <time>2022-08-11T16:40:50Z</time>
      </trkpt>
      <trkpt lat="42.502971" lon="2.397451">
        <ele>1513.509</ele>
        <time>2022-08-11T16:41:02Z</time>
      </trkpt>
      <trkpt lat="42.502996" lon="2.397505">
        <ele>1513.664</ele>
        <time>2022-08-11T16:41:09Z</time>
      </trkpt>
      <trkpt lat="42.503022" lon="2.397561">
        <ele>1514.114</ele>
        <time>2022-08-11T16:41:15Z</time>
      </trkpt>
      <trkpt lat="42.503058" lon="2.397597">
        <ele>1515.093</ele>
        <time>2022-08-11T16:41:22Z</time>
      </trkpt>
      <trkpt lat="42.503069" lon="2.397658">
        <ele>1515.536</ele>
        <time>2022-08-11T16:41:27Z</time>
      </trkpt>
      <trkpt lat="42.503083" lon="2.397717">
        <ele>1516.737</ele>
        <time>2022-08-11T16:41:30Z</time>
      </trkpt>
      <trkpt lat="42.503107" lon="2.397772">
        <ele>1518.066</ele>
        <time>2022-08-11T16:41:34Z</time>
      </trkpt>
      <trkpt lat="42.503119" lon="2.397856">
        <ele>1518.329</ele>
        <time>2022-08-11T16:41:38Z</time>
      </trkpt>
      <trkpt lat="42.503121" lon="2.397927">
        <ele>1518.454</ele>
        <time>2022-08-11T16:41:41Z</time>
      </trkpt>
      <trkpt lat="42.503147" lon="2.397976">
        <ele>1518.645</ele>
        <time>2022-08-11T16:41:43Z</time>
      </trkpt>
      <trkpt lat="42.503173" lon="2.398029">
        <ele>1518.968</ele>
        <time>2022-08-11T16:41:47Z</time>
      </trkpt>
      <trkpt lat="42.503213" lon="2.398076">
        <ele>1519.342</ele>
        <time>2022-08-11T16:41:55Z</time>
      </trkpt>
      <trkpt lat="42.503232" lon="2.398133">
        <ele>1519.726</ele>
        <time>2022-08-11T16:42:03Z</time>
      </trkpt>
      <trkpt lat="42.503252" lon="2.398195">
        <ele>1520.009</ele>
        <time>2022-08-11T16:42:09Z</time>
      </trkpt>
      <trkpt lat="42.503249" lon="2.398262">
        <ele>1520.797</ele>
        <time>2022-08-11T16:42:11Z</time>
      </trkpt>
      <trkpt lat="42.503232" lon="2.398326">
        <ele>1521.867</ele>
        <time>2022-08-11T16:42:13Z</time>
      </trkpt>
      <trkpt lat="42.503265" lon="2.398375">
        <ele>1522.466</ele>
        <time>2022-08-11T16:42:21Z</time>
      </trkpt>
      <trkpt lat="42.503296" lon="2.398441">
        <ele>1522.699</ele>
        <time>2022-08-11T16:42:27Z</time>
      </trkpt>
      <trkpt lat="42.503330" lon="2.398499">
        <ele>1523.310</ele>
        <time>2022-08-11T16:42:30Z</time>
      </trkpt>
      <trkpt lat="42.503359" lon="2.398553">
        <ele>1523.969</ele>
        <time>2022-08-11T16:42:34Z</time>
      </trkpt>
      <trkpt lat="42.503378" lon="2.398610">
        <ele>1524.252</ele>
        <time>2022-08-11T16:42:37Z</time>
      </trkpt>
      <trkpt lat="42.503421" lon="2.398659">
        <ele>1524.427</ele>
        <time>2022-08-11T16:42:40Z</time>
      </trkpt>
      <trkpt lat="42.503460" lon="2.398705">
        <ele>1524.598</ele>
        <time>2022-08-11T16:42:45Z</time>
      </trkpt>
      <trkpt lat="42.503510" lon="2.398719">
        <ele>1524.739</ele>
        <time>2022-08-11T16:42:49Z</time>
      </trkpt>
      <trkpt lat="42.503553" lon="2.398740">
        <ele>1525.101</ele>
        <time>2022-08-11T16:42:57Z</time>
      </trkpt>
      <trkpt lat="42.503592" lon="2.398781">
        <ele>1525.421</ele>
        <time>2022-08-11T16:43:01Z</time>
      </trkpt>
      <trkpt lat="42.503627" lon="2.398827">
        <ele>1526.009</ele>
        <time>2022-08-11T16:43:07Z</time>
      </trkpt>
      <trkpt lat="42.503646" lon="2.398887">
        <ele>1526.974</ele>
        <time>2022-08-11T16:43:13Z</time>
      </trkpt>
      <trkpt lat="42.503657" lon="2.398956">
        <ele>1527.634</ele>
        <time>2022-08-11T16:43:20Z</time>
      </trkpt>
      <trkpt lat="42.503691" lon="2.399026">
        <ele>1528.333</ele>
        <time>2022-08-11T16:43:28Z</time>
      </trkpt>
      <trkpt lat="42.503723" lon="2.399094">
        <ele>1529.156</ele>
        <time>2022-08-11T16:43:31Z</time>
      </trkpt>
      <trkpt lat="42.503735" lon="2.399163">
        <ele>1531.657</ele>
        <time>2022-08-11T16:43:38Z</time>
      </trkpt>
      <trkpt lat="42.503757" lon="2.399225">
        <ele>1532.486</ele>
        <time>2022-08-11T16:43:42Z</time>
      </trkpt>
      <trkpt lat="42.503795" lon="2.399278">
        <ele>1533.279</ele>
        <time>2022-08-11T16:43:46Z</time>
      </trkpt>
      <trkpt lat="42.503823" lon="2.399331">
        <ele>1533.644</ele>
        <time>2022-08-11T16:43:49Z</time>
      </trkpt>
      <trkpt lat="42.503845" lon="2.399389">
        <ele>1534.175</ele>
        <time>2022-08-11T16:44:00Z</time>
      </trkpt>
      <trkpt lat="42.503841" lon="2.399462">
        <ele>1534.671</ele>
        <time>2022-08-11T16:44:04Z</time>
      </trkpt>
      <trkpt lat="42.503860" lon="2.399518">
        <ele>1536.141</ele>
        <time>2022-08-11T16:44:07Z</time>
      </trkpt>
      <trkpt lat="42.503881" lon="2.399587">
        <ele>1537.515</ele>
        <time>2022-08-11T16:44:12Z</time>
      </trkpt>
      <trkpt lat="42.503877" lon="2.399651">
        <ele>1538.209</ele>
        <time>2022-08-11T16:44:20Z</time>
      </trkpt>
      <trkpt lat="42.503833" lon="2.399688">
        <ele>1539.078</ele>
        <time>2022-08-11T16:44:25Z</time>
      </trkpt>
      <trkpt lat="42.503798" lon="2.399748">
        <ele>1539.768</ele>
        <time>2022-08-11T16:44:29Z</time>
      </trkpt>
      <trkpt lat="42.503759" lon="2.399798">
        <ele>1540.347</ele>
        <time>2022-08-11T16:44:33Z</time>
      </trkpt>
      <trkpt lat="42.503730" lon="2.399847">
        <ele>1541.130</ele>
        <time>2022-08-11T16:44:36Z</time>
      </trkpt>
      <trkpt lat="42.503697" lon="2.399892">
        <ele>1541.961</ele>
        <time>2022-08-11T16:44:40Z</time>
      </trkpt>
      <trkpt lat="42.503653" lon="2.399950">
        <ele>1542.550</ele>
        <time>2022-08-11T16:44:45Z</time>
      </trkpt>
      <trkpt lat="42.503635" lon="2.400010">
        <ele>1543.253</ele>
        <time>2022-08-11T16:44:47Z</time>
      </trkpt>
      <trkpt lat="42.503615" lon="2.400071">
        <ele>1543.918</ele>
        <time>2022-08-11T16:44:49Z</time>
      </trkpt>
      <trkpt lat="42.503592" lon="2.400143">
        <ele>1544.559</ele>
        <time>2022-08-11T16:44:52Z</time>
      </trkpt>
      <trkpt lat="42.503595" lon="2.400206">
        <ele>1545.151</ele>
        <time>2022-08-11T16:44:54Z</time>
      </trkpt>
      <trkpt lat="42.503550" lon="2.400191">
        <ele>1546.001</ele>
        <time>2022-08-11T16:45:04Z</time>
      </trkpt>
      <trkpt lat="42.503508" lon="2.400216">
        <ele>1546.411</ele>
        <time>2022-08-11T16:45:08Z</time>
      </trkpt>
      <trkpt lat="42.503459" lon="2.400237">
        <ele>1546.409</ele>
        <time>2022-08-11T16:45:15Z</time>
      </trkpt>
      <trkpt lat="42.503415" lon="2.400274">
        <ele>1546.736</ele>
        <time>2022-08-11T16:45:28Z</time>
      </trkpt>
      <trkpt lat="42.503363" lon="2.400285">
        <ele>1547.046</ele>
        <time>2022-08-11T16:45:32Z</time>
      </trkpt>
      <trkpt lat="42.503314" lon="2.400312">
        <ele>1548.055</ele>
        <time>2022-08-11T16:45:37Z</time>
      </trkpt>
      <trkpt lat="42.503277" lon="2.400370">
        <ele>1549.088</ele>
        <time>2022-08-11T16:45:43Z</time>
      </trkpt>
      <trkpt lat="42.503220" lon="2.400425">
        <ele>1550.729</ele>
        <time>2022-08-11T16:45:47Z</time>
      </trkpt>
      <trkpt lat="42.503178" lon="2.400483">
        <ele>1551.288</ele>
        <time>2022-08-11T16:45:51Z</time>
      </trkpt>
      <trkpt lat="42.503145" lon="2.400527">
        <ele>1551.281</ele>
        <time>2022-08-11T16:45:54Z</time>
      </trkpt>
      <trkpt lat="42.503105" lon="2.400561">
        <ele>1551.886</ele>
        <time>2022-08-11T16:45:57Z</time>
      </trkpt>
      <trkpt lat="42.503055" lon="2.400570">
        <ele>1552.167</ele>
        <time>2022-08-11T16:46:00Z</time>
      </trkpt>
      <trkpt lat="42.503021" lon="2.400623">
        <ele>1552.226</ele>
        <time>2022-08-11T16:46:04Z</time>
      </trkpt>
      <trkpt lat="42.502984" lon="2.400660">
        <ele>1552.347</ele>
        <time>2022-08-11T16:46:08Z</time>
      </trkpt>
      <trkpt lat="42.502960" lon="2.400729">
        <ele>1552.411</ele>
        <time>2022-08-11T16:46:16Z</time>
      </trkpt>
      <trkpt lat="42.502935" lon="2.400781">
        <ele>1552.509</ele>
        <time>2022-08-11T16:46:21Z</time>
      </trkpt>
      <trkpt lat="42.502890" lon="2.400834">
        <ele>1553.023</ele>
        <time>2022-08-11T16:46:24Z</time>
      </trkpt>
      <trkpt lat="42.502849" lon="2.400875">
        <ele>1553.963</ele>
        <time>2022-08-11T16:46:33Z</time>
      </trkpt>
      <trkpt lat="42.502795" lon="2.400923">
        <ele>1555.182</ele>
        <time>2022-08-11T16:46:39Z</time>
      </trkpt>
      <trkpt lat="42.502751" lon="2.400970">
        <ele>1556.955</ele>
        <time>2022-08-11T16:46:43Z</time>
      </trkpt>
      <trkpt lat="42.502757" lon="2.401031">
        <ele>1558.356</ele>
        <time>2022-08-11T16:46:49Z</time>
      </trkpt>
      <trkpt lat="42.502706" lon="2.401050">
        <ele>1559.275</ele>
        <time>2022-08-11T16:46:53Z</time>
      </trkpt>
      <trkpt lat="42.502662" lon="2.401095">
        <ele>1559.818</ele>
        <time>2022-08-11T16:46:58Z</time>
      </trkpt>
      <trkpt lat="42.502632" lon="2.401145">
        <ele>1560.193</ele>
        <time>2022-08-11T16:47:05Z</time>
      </trkpt>
      <trkpt lat="42.502599" lon="2.401190">
        <ele>1561.064</ele>
        <time>2022-08-11T16:47:09Z</time>
      </trkpt>
      <trkpt lat="42.502551" lon="2.401234">
        <ele>1562.253</ele>
        <time>2022-08-11T16:47:12Z</time>
      </trkpt>
      <trkpt lat="42.502514" lon="2.401282">
        <ele>1563.104</ele>
        <time>2022-08-11T16:47:15Z</time>
      </trkpt>
      <trkpt lat="42.502477" lon="2.401338">
        <ele>1563.714</ele>
        <time>2022-08-11T16:47:20Z</time>
      </trkpt>
      <trkpt lat="42.502439" lon="2.401384">
        <ele>1564.209</ele>
        <time>2022-08-11T16:47:28Z</time>
      </trkpt>
      <trkpt lat="42.502388" lon="2.401416">
        <ele>1564.826</ele>
        <time>2022-08-11T16:47:34Z</time>
      </trkpt>
      <trkpt lat="42.502340" lon="2.401431">
        <ele>1565.446</ele>
        <time>2022-08-11T16:47:38Z</time>
      </trkpt>
      <trkpt lat="42.502292" lon="2.401458">
        <ele>1565.995</ele>
        <time>2022-08-11T16:47:42Z</time>
      </trkpt>
      <trkpt lat="42.502246" lon="2.401500">
        <ele>1566.258</ele>
        <time>2022-08-11T16:47:47Z</time>
      </trkpt>
      <trkpt lat="42.502202" lon="2.401532">
        <ele>1566.449</ele>
        <time>2022-08-11T16:47:49Z</time>
      </trkpt>
      <trkpt lat="42.502155" lon="2.401581">
        <ele>1566.418</ele>
        <time>2022-08-11T16:47:51Z</time>
      </trkpt>
      <trkpt lat="42.502134" lon="2.401640">
        <ele>1566.441</ele>
        <time>2022-08-11T16:47:54Z</time>
      </trkpt>
      <trkpt lat="42.502105" lon="2.401692">
        <ele>1566.436</ele>
        <time>2022-08-11T16:47:59Z</time>
      </trkpt>
      <trkpt lat="42.502065" lon="2.401724">
        <ele>1566.517</ele>
        <time>2022-08-11T16:48:09Z</time>
      </trkpt>
      <trkpt lat="42.502086" lon="2.401797">
        <ele>1566.755</ele>
        <time>2022-08-11T16:48:24Z</time>
      </trkpt>
      <trkpt lat="42.502089" lon="2.401873">
        <ele>1567.707</ele>
        <time>2022-08-11T16:48:27Z</time>
      </trkpt>
      <trkpt lat="42.502065" lon="2.401931">
        <ele>1569.317</ele>
        <time>2022-08-11T16:48:32Z</time>
      </trkpt>
      <trkpt lat="42.502035" lon="2.402013">
        <ele>1570.709</ele>
        <time>2022-08-11T16:48:37Z</time>
      </trkpt>
      <trkpt lat="42.501982" lon="2.402012">
        <ele>1571.216</ele>
        <time>2022-08-11T16:48:41Z</time>
      </trkpt>
      <trkpt lat="42.501925" lon="2.402028">
        <ele>1571.636</ele>
        <time>2022-08-11T16:48:44Z</time>
      </trkpt>
      <trkpt lat="42.501873" lon="2.402061">
        <ele>1571.695</ele>
        <time>2022-08-11T16:48:48Z</time>
      </trkpt>
      <trkpt lat="42.501827" lon="2.402060">
        <ele>1571.718</ele>
        <time>2022-08-11T16:48:54Z</time>
      </trkpt>
      <trkpt lat="42.501793" lon="2.402123">
        <ele>1572.159</ele>
        <time>2022-08-11T16:48:57Z</time>
      </trkpt>
      <trkpt lat="42.501748" lon="2.402159">
        <ele>1572.988</ele>
        <time>2022-08-11T16:49:01Z</time>
      </trkpt>
      <trkpt lat="42.501708" lon="2.402201">
        <ele>1573.121</ele>
        <time>2022-08-11T16:49:05Z</time>
      </trkpt>
      <trkpt lat="42.501661" lon="2.402214">
        <ele>1573.546</ele>
        <time>2022-08-11T16:49:10Z</time>
      </trkpt>
      <trkpt lat="42.501603" lon="2.402206">
        <ele>1574.057</ele>
        <time>2022-08-11T16:49:13Z</time>
      </trkpt>
      <trkpt lat="42.501556" lon="2.402222">
        <ele>1574.857</ele>
        <time>2022-08-11T16:49:16Z</time>
      </trkpt>
      <trkpt lat="42.501508" lon="2.402236">
        <ele>1575.600</ele>
        <time>2022-08-11T16:49:22Z</time>
      </trkpt>
      <trkpt lat="42.501457" lon="2.402272">
        <ele>1576.120</ele>
        <time>2022-08-11T16:49:32Z</time>
      </trkpt>
      <trkpt lat="42.501415" lon="2.402325">
        <ele>1577.309</ele>
        <time>2022-08-11T16:49:38Z</time>
      </trkpt>
      <trkpt lat="42.501383" lon="2.402373">
        <ele>1578.096</ele>
        <time>2022-08-11T16:49:44Z</time>
      </trkpt>
      <trkpt lat="42.501425" lon="2.402351">
        <ele>1579.366</ele>
        <time>2022-08-11T16:49:56Z</time>
      </trkpt>
      <trkpt lat="42.501394" lon="2.402400">
        <ele>1580.475</ele>
        <time>2022-08-11T16:50:03Z</time>
      </trkpt>
      <trkpt lat="42.501347" lon="2.402440">
        <ele>1581.228</ele>
        <time>2022-08-11T16:50:10Z</time>
      </trkpt>
      <trkpt lat="42.501301" lon="2.402450">
        <ele>1582.349</ele>
        <time>2022-08-11T16:50:15Z</time>
      </trkpt>
      <trkpt lat="42.501260" lon="2.402496">
        <ele>1583.348</ele>
        <time>2022-08-11T16:50:21Z</time>
      </trkpt>
      <trkpt lat="42.501225" lon="2.402546">
        <ele>1583.831</ele>
        <time>2022-08-11T16:50:25Z</time>
      </trkpt>
      <trkpt lat="42.501181" lon="2.402571">
        <ele>1584.586</ele>
        <time>2022-08-11T16:50:31Z</time>
      </trkpt>
      <trkpt lat="42.501139" lon="2.402604">
        <ele>1585.237</ele>
        <time>2022-08-11T16:50:37Z</time>
      </trkpt>
      <trkpt lat="42.501091" lon="2.402642">
        <ele>1585.658</ele>
        <time>2022-08-11T16:50:40Z</time>
      </trkpt>
      <trkpt lat="42.501029" lon="2.402652">
        <ele>1585.852</ele>
        <time>2022-08-11T16:50:43Z</time>
      </trkpt>
      <trkpt lat="42.500976" lon="2.402642">
        <ele>1586.017</ele>
        <time>2022-08-11T16:50:48Z</time>
      </trkpt>
      <trkpt lat="42.500927" lon="2.402704">
        <ele>1586.309</ele>
        <time>2022-08-11T16:50:53Z</time>
      </trkpt>
      <trkpt lat="42.500887" lon="2.402737">
        <ele>1587.156</ele>
        <time>2022-08-11T16:50:55Z</time>
      </trkpt>
      <trkpt lat="42.500841" lon="2.402752">
        <ele>1587.316</ele>
        <time>2022-08-11T16:51:04Z</time>
      </trkpt>
      <trkpt lat="42.500789" lon="2.402761">
        <ele>1587.375</ele>
        <time>2022-08-11T16:51:09Z</time>
      </trkpt>
      <trkpt lat="42.500741" lon="2.402757">
        <ele>1588.078</ele>
        <time>2022-08-11T16:51:15Z</time>
      </trkpt>
      <trkpt lat="42.500690" lon="2.402773">
        <ele>1588.949</ele>
        <time>2022-08-11T16:51:18Z</time>
      </trkpt>
      <trkpt lat="42.500644" lon="2.402791">
        <ele>1589.328</ele>
        <time>2022-08-11T16:51:25Z</time>
      </trkpt>
      <trkpt lat="42.500592" lon="2.402842">
        <ele>1589.571</ele>
        <time>2022-08-11T16:51:30Z</time>
      </trkpt>
      <trkpt lat="42.500567" lon="2.402895">
        <ele>1589.846</ele>
        <time>2022-08-11T16:51:32Z</time>
      </trkpt>
      <trkpt lat="42.500518" lon="2.402980">
        <ele>1590.337</ele>
        <time>2022-08-11T16:51:34Z</time>
      </trkpt>
      <trkpt lat="42.500477" lon="2.403010">
        <ele>1590.339</ele>
        <time>2022-08-11T16:51:36Z</time>
      </trkpt>
      <trkpt lat="42.500436" lon="2.403047">
        <ele>1590.301</ele>
        <time>2022-08-11T16:51:43Z</time>
      </trkpt>
      <trkpt lat="42.500437" lon="2.403116">
        <ele>1590.321</ele>
        <time>2022-08-11T16:51:46Z</time>
      </trkpt>
      <trkpt lat="42.500407" lon="2.403174">
        <ele>1591.009</ele>
        <time>2022-08-11T16:51:49Z</time>
      </trkpt>
      <trkpt lat="42.500361" lon="2.403215">
        <ele>1591.154</ele>
        <time>2022-08-11T16:51:59Z</time>
      </trkpt>
      <trkpt lat="42.500310" lon="2.403222">
        <ele>1591.294</ele>
        <time>2022-08-11T16:52:08Z</time>
      </trkpt>
      <trkpt lat="42.500259" lon="2.403262">
        <ele>1591.233</ele>
        <time>2022-08-11T16:52:14Z</time>
      </trkpt>
      <trkpt lat="42.500232" lon="2.403316">
        <ele>1591.436</ele>
        <time>2022-08-11T16:52:16Z</time>
      </trkpt>
      <trkpt lat="42.500179" lon="2.403302">
        <ele>1591.697</ele>
        <time>2022-08-11T16:52:30Z</time>
      </trkpt>
      <trkpt lat="42.500141" lon="2.403334">
        <ele>1591.866</ele>
        <time>2022-08-11T16:52:52Z</time>
      </trkpt>
      <trkpt lat="42.500091" lon="2.403350">
        <ele>1592.899</ele>
        <time>2022-08-11T16:52:55Z</time>
      </trkpt>
      <trkpt lat="42.500038" lon="2.403375">
        <ele>1595.414</ele>
        <time>2022-08-11T16:53:03Z</time>
      </trkpt>
      <trkpt lat="42.499979" lon="2.403372">
        <ele>1597.255</ele>
        <time>2022-08-11T16:53:06Z</time>
      </trkpt>
      <trkpt lat="42.499932" lon="2.403383">
        <ele>1598.169</ele>
        <time>2022-08-11T16:53:08Z</time>
      </trkpt>
      <trkpt lat="42.499876" lon="2.403424">
        <ele>1599.004</ele>
        <time>2022-08-11T16:53:12Z</time>
      </trkpt>
      <trkpt lat="42.499831" lon="2.403455">
        <ele>1599.024</ele>
        <time>2022-08-11T16:53:16Z</time>
      </trkpt>
      <trkpt lat="42.499812" lon="2.403525">
        <ele>1599.009</ele>
        <time>2022-08-11T16:53:24Z</time>
      </trkpt>
      <trkpt lat="42.499810" lon="2.403587">
        <ele>1599.047</ele>
        <time>2022-08-11T16:53:27Z</time>
      </trkpt>
      <trkpt lat="42.499818" lon="2.403654">
        <ele>1598.917</ele>
        <time>2022-08-11T16:53:35Z</time>
      </trkpt>
      <trkpt lat="42.499826" lon="2.403730">
        <ele>1599.276</ele>
        <time>2022-08-11T16:53:41Z</time>
      </trkpt>
      <trkpt lat="42.499859" lon="2.403779">
        <ele>1599.239</ele>
        <time>2022-08-11T16:53:42Z</time>
      </trkpt>
      <trkpt lat="42.499902" lon="2.403840">
        <ele>1599.680</ele>
        <time>2022-08-11T16:53:44Z</time>
      </trkpt>
      <trkpt lat="42.499936" lon="2.403901">
        <ele>1600.519</ele>
        <time>2022-08-11T16:53:49Z</time>
      </trkpt>
      <trkpt lat="42.499951" lon="2.403965">
        <ele>1600.782</ele>
        <time>2022-08-11T16:53:55Z</time>
      </trkpt>
      <trkpt lat="42.499985" lon="2.404028">
        <ele>1601.597</ele>
        <time>2022-08-11T16:53:59Z</time>
      </trkpt>
      <trkpt lat="42.500020" lon="2.404070">
        <ele>1602.678</ele>
        <time>2022-08-11T16:54:02Z</time>
      </trkpt>
      <trkpt lat="42.500049" lon="2.404121">
        <ele>1602.923</ele>
        <time>2022-08-11T16:54:04Z</time>
      </trkpt>
      <trkpt lat="42.500050" lon="2.404188">
        <ele>1603.283</ele>
        <time>2022-08-11T16:54:07Z</time>
      </trkpt>
      <trkpt lat="42.500031" lon="2.404245">
        <ele>1603.311</ele>
        <time>2022-08-11T16:54:15Z</time>
      </trkpt>
      <trkpt lat="42.500077" lon="2.404250">
        <ele>1603.409</ele>
        <time>2022-08-11T16:54:23Z</time>
      </trkpt>
      <trkpt lat="42.500107" lon="2.404317">
        <ele>1603.953</ele>
        <time>2022-08-11T16:54:27Z</time>
      </trkpt>
      <trkpt lat="42.500143" lon="2.404371">
        <ele>1605.053</ele>
        <time>2022-08-11T16:54:29Z</time>
      </trkpt>
      <trkpt lat="42.500186" lon="2.404351">
        <ele>1606.152</ele>
        <time>2022-08-11T16:54:37Z</time>
      </trkpt>
      <trkpt lat="42.500231" lon="2.404374">
        <ele>1606.835</ele>
        <time>2022-08-11T16:54:41Z</time>
      </trkpt>
      <trkpt lat="42.500282" lon="2.404412">
        <ele>1607.726</ele>
        <time>2022-08-11T16:54:45Z</time>
      </trkpt>
      <trkpt lat="42.500328" lon="2.404444">
        <ele>1608.975</ele>
        <time>2022-08-11T16:54:49Z</time>
      </trkpt>
      <trkpt lat="42.500372" lon="2.404491">
        <ele>1609.788</ele>
        <time>2022-08-11T16:55:14Z</time>
      </trkpt>
      <trkpt lat="42.500396" lon="2.404551">
        <ele>1610.493</ele>
        <time>2022-08-11T16:55:17Z</time>
      </trkpt>
      <trkpt lat="42.500444" lon="2.404557">
        <ele>1612.644</ele>
        <time>2022-08-11T16:55:24Z</time>
      </trkpt>
      <trkpt lat="42.500472" lon="2.404611">
        <ele>1614.559</ele>
        <time>2022-08-11T16:55:32Z</time>
      </trkpt>
      <trkpt lat="42.500467" lon="2.404673">
        <ele>1614.903</ele>
        <time>2022-08-11T16:55:38Z</time>
      </trkpt>
      <trkpt lat="42.500453" lon="2.404741">
        <ele>1615.823</ele>
        <time>2022-08-11T16:55:43Z</time>
      </trkpt>
      <trkpt lat="42.500470" lon="2.404806">
        <ele>1616.809</ele>
        <time>2022-08-11T16:55:51Z</time>
      </trkpt>
      <trkpt lat="42.500500" lon="2.404860">
        <ele>1617.396</ele>
        <time>2022-08-11T16:55:53Z</time>
      </trkpt>
      <trkpt lat="42.500515" lon="2.404925">
        <ele>1618.366</ele>
        <time>2022-08-11T16:56:03Z</time>
      </trkpt>
      <trkpt lat="42.500533" lon="2.404984">
        <ele>1619.225</ele>
        <time>2022-08-11T16:56:07Z</time>
      </trkpt>
      <trkpt lat="42.500553" lon="2.405040">
        <ele>1619.668</ele>
        <time>2022-08-11T16:56:11Z</time>
      </trkpt>
      <trkpt lat="42.500592" lon="2.405093">
        <ele>1620.129</ele>
        <time>2022-08-11T16:56:16Z</time>
      </trkpt>
      <trkpt lat="42.500634" lon="2.405140">
        <ele>1621.128</ele>
        <time>2022-08-11T16:56:20Z</time>
      </trkpt>
      <trkpt lat="42.500667" lon="2.405187">
        <ele>1622.071</ele>
        <time>2022-08-11T16:56:23Z</time>
      </trkpt>
      <trkpt lat="42.500712" lon="2.405182">
        <ele>1622.566</ele>
        <time>2022-08-11T16:56:31Z</time>
      </trkpt>
      <trkpt lat="42.500725" lon="2.405253">
        <ele>1622.927</ele>
        <time>2022-08-11T16:56:35Z</time>
      </trkpt>
      <trkpt lat="42.500710" lon="2.405314">
        <ele>1623.442</ele>
        <time>2022-08-11T16:56:39Z</time>
      </trkpt>
      <trkpt lat="42.500725" lon="2.405381">
        <ele>1624.322</ele>
        <time>2022-08-11T16:56:44Z</time>
      </trkpt>
      <trkpt lat="42.500767" lon="2.405420">
        <ele>1624.814</ele>
        <time>2022-08-11T16:56:50Z</time>
      </trkpt>
      <trkpt lat="42.500796" lon="2.405474">
        <ele>1625.609</ele>
        <time>2022-08-11T16:56:54Z</time>
      </trkpt>
      <trkpt lat="42.500813" lon="2.405535">
        <ele>1626.475</ele>
        <time>2022-08-11T16:57:04Z</time>
      </trkpt>
      <trkpt lat="42.500828" lon="2.405594">
        <ele>1626.775</ele>
        <time>2022-08-11T16:57:09Z</time>
      </trkpt>
      <trkpt lat="42.500835" lon="2.405662">
        <ele>1627.694</ele>
        <time>2022-08-11T16:57:17Z</time>
      </trkpt>
      <trkpt lat="42.500869" lon="2.405721">
        <ele>1628.837</ele>
        <time>2022-08-11T16:57:33Z</time>
      </trkpt>
      <trkpt lat="42.500877" lon="2.405785">
        <ele>1630.088</ele>
        <time>2022-08-11T16:57:36Z</time>
      </trkpt>
      <trkpt lat="42.500873" lon="2.405849">
        <ele>1632.067</ele>
        <time>2022-08-11T16:57:46Z</time>
      </trkpt>
      <trkpt lat="42.500851" lon="2.405905">
        <ele>1633.680</ele>
        <time>2022-08-11T16:57:53Z</time>
      </trkpt>
      <trkpt lat="42.500826" lon="2.405957">
        <ele>1634.615</ele>
        <time>2022-08-11T16:58:07Z</time>
      </trkpt>
      <trkpt lat="42.500792" lon="2.406006">
        <ele>1635.946</ele>
        <time>2022-08-11T16:58:23Z</time>
      </trkpt>
      <trkpt lat="42.500755" lon="2.406042">
        <ele>1637.615</ele>
        <time>2022-08-11T16:58:30Z</time>
      </trkpt>
      <trkpt lat="42.500734" lon="2.406102">
        <ele>1639.865</ele>
        <time>2022-08-11T16:58:36Z</time>
      </trkpt>
      <trkpt lat="42.500709" lon="2.406163">
        <ele>1641.711</ele>
        <time>2022-08-11T16:58:43Z</time>
      </trkpt>
      <trkpt lat="42.500692" lon="2.406243">
        <ele>1642.609</ele>
        <time>2022-08-11T16:58:59Z</time>
      </trkpt>
      <trkpt lat="42.500705" lon="2.406324">
        <ele>1643.222</ele>
        <time>2022-08-11T16:59:02Z</time>
      </trkpt>
      <trkpt lat="42.500691" lon="2.406393">
        <ele>1646.312</ele>
        <time>2022-08-11T16:59:11Z</time>
      </trkpt>
      <trkpt lat="42.500692" lon="2.406457">
        <ele>1646.341</ele>
        <time>2022-08-11T16:59:18Z</time>
      </trkpt>
      <trkpt lat="42.500685" lon="2.406531">
        <ele>1648.044</ele>
        <time>2022-08-11T16:59:23Z</time>
      </trkpt>
      <trkpt lat="42.500679" lon="2.406593">
        <ele>1648.625</ele>
        <time>2022-08-11T16:59:30Z</time>
      </trkpt>
      <trkpt lat="42.500673" lon="2.406664">
        <ele>1649.554</ele>
        <time>2022-08-11T16:59:35Z</time>
      </trkpt>
      <trkpt lat="42.500666" lon="2.406730">
        <ele>1650.217</ele>
        <time>2022-08-11T16:59:39Z</time>
      </trkpt>
      <trkpt lat="42.500670" lon="2.406800">
        <ele>1650.992</ele>
        <time>2022-08-11T16:59:43Z</time>
      </trkpt>
      <trkpt lat="42.500665" lon="2.406861">
        <ele>1651.483</ele>
        <time>2022-08-11T16:59:52Z</time>
      </trkpt>
      <trkpt lat="42.500678" lon="2.406926">
        <ele>1652.146</ele>
        <time>2022-08-11T16:59:56Z</time>
      </trkpt>
      <trkpt lat="42.500693" lon="2.406985">
        <ele>1653.088</ele>
        <time>2022-08-11T16:59:59Z</time>
      </trkpt>
      <trkpt lat="42.500727" lon="2.407032">
        <ele>1653.716</ele>
        <time>2022-08-11T17:00:05Z</time>
      </trkpt>
      <trkpt lat="42.500749" lon="2.407094">
        <ele>1654.309</ele>
        <time>2022-08-11T17:00:08Z</time>
      </trkpt>
      <trkpt lat="42.500779" lon="2.407145">
        <ele>1654.715</ele>
        <time>2022-08-11T17:00:11Z</time>
      </trkpt>
      <trkpt lat="42.500805" lon="2.407210">
        <ele>1655.215</ele>
        <time>2022-08-11T17:00:16Z</time>
      </trkpt>
      <trkpt lat="42.500825" lon="2.407270">
        <ele>1655.724</ele>
        <time>2022-08-11T17:00:19Z</time>
      </trkpt>
      <trkpt lat="42.500852" lon="2.407329">
        <ele>1656.177</ele>
        <time>2022-08-11T17:00:26Z</time>
      </trkpt>
      <trkpt lat="42.500871" lon="2.407389">
        <ele>1656.218</ele>
        <time>2022-08-11T17:00:30Z</time>
      </trkpt>
      <trkpt lat="42.500896" lon="2.407459">
        <ele>1656.367</ele>
        <time>2022-08-11T17:00:33Z</time>
      </trkpt>
      <trkpt lat="42.500922" lon="2.407518">
        <ele>1656.520</ele>
        <time>2022-08-11T17:00:36Z</time>
      </trkpt>
      <trkpt lat="42.500961" lon="2.407571">
        <ele>1656.625</ele>
        <time>2022-08-11T17:00:40Z</time>
      </trkpt>
      <trkpt lat="42.500989" lon="2.407623">
        <ele>1656.686</ele>
        <time>2022-08-11T17:00:44Z</time>
      </trkpt>
      <trkpt lat="42.501027" lon="2.407668">
        <ele>1656.618</ele>
        <time>2022-08-11T17:00:47Z</time>
      </trkpt>
      <trkpt lat="42.501064" lon="2.407705">
        <ele>1656.698</ele>
        <time>2022-08-11T17:00:52Z</time>
      </trkpt>
      <trkpt lat="42.501103" lon="2.407742">
        <ele>1656.717</ele>
        <time>2022-08-11T17:00:56Z</time>
      </trkpt>
      <trkpt lat="42.501138" lon="2.407793">
        <ele>1657.409</ele>
        <time>2022-08-11T17:01:00Z</time>
      </trkpt>
      <trkpt lat="42.501179" lon="2.407838">
        <ele>1658.182</ele>
        <time>2022-08-11T17:01:05Z</time>
      </trkpt>
      <trkpt lat="42.501219" lon="2.407882">
        <ele>1658.462</ele>
        <time>2022-08-11T17:01:11Z</time>
      </trkpt>
      <trkpt lat="42.501266" lon="2.407907">
        <ele>1658.671</ele>
        <time>2022-08-11T17:01:16Z</time>
      </trkpt>
      <trkpt lat="42.501315" lon="2.407915">
        <ele>1658.644</ele>
        <time>2022-08-11T17:01:20Z</time>
      </trkpt>
      <trkpt lat="42.501366" lon="2.407923">
        <ele>1658.775</ele>
        <time>2022-08-11T17:01:24Z</time>
      </trkpt>
      <trkpt lat="42.501415" lon="2.407893">
        <ele>1658.734</ele>
        <time>2022-08-11T17:01:29Z</time>
      </trkpt>
      <trkpt lat="42.501459" lon="2.407868">
        <ele>1658.587</ele>
        <time>2022-08-11T17:01:32Z</time>
      </trkpt>
      <trkpt lat="42.501521" lon="2.407731">
        <ele>1706.671</ele>
        <time>2022-08-12T07:15:39Z</time>
      </trkpt>
      <trkpt lat="42.501477" lon="2.407758">
        <ele>1696.141</ele>
        <time>2022-08-12T07:15:51Z</time>
      </trkpt>
      <trkpt lat="42.501424" lon="2.407755">
        <ele>1685.615</ele>
        <time>2022-08-12T07:15:57Z</time>
      </trkpt>
      <trkpt lat="42.501479" lon="2.407775">
        <ele>1685.709</ele>
        <time>2022-08-12T07:16:12Z</time>
      </trkpt>
      <trkpt lat="42.501434" lon="2.407785">
        <ele>1685.678</ele>
        <time>2022-08-12T07:16:21Z</time>
      </trkpt>
      <trkpt lat="42.501423" lon="2.407851">
        <ele>1685.788</ele>
        <time>2022-08-12T07:16:29Z</time>
      </trkpt>
      <trkpt lat="42.501431" lon="2.407915">
        <ele>1685.727</ele>
        <time>2022-08-12T07:16:35Z</time>
      </trkpt>
      <trkpt lat="42.501389" lon="2.407952">
        <ele>1685.911</ele>
        <time>2022-08-12T07:16:41Z</time>
      </trkpt>
      <trkpt lat="42.501349" lon="2.407984">
        <ele>1686.649</ele>
        <time>2022-08-12T07:16:48Z</time>
      </trkpt>
      <trkpt lat="42.501308" lon="2.408045">
        <ele>1687.866</ele>
        <time>2022-08-12T07:16:53Z</time>
      </trkpt>
      <trkpt lat="42.501260" lon="2.408043">
        <ele>1688.883</ele>
        <time>2022-08-12T07:17:02Z</time>
      </trkpt>
      <trkpt lat="42.501213" lon="2.408075">
        <ele>1689.775</ele>
        <time>2022-08-12T07:17:08Z</time>
      </trkpt>
      <trkpt lat="42.501177" lon="2.408120">
        <ele>1690.738</ele>
        <time>2022-08-12T07:17:13Z</time>
      </trkpt>
      <trkpt lat="42.501135" lon="2.408161">
        <ele>1692.123</ele>
        <time>2022-08-12T07:17:17Z</time>
      </trkpt>
      <trkpt lat="42.501098" lon="2.408208">
        <ele>1693.483</ele>
        <time>2022-08-12T07:17:21Z</time>
      </trkpt>
      <trkpt lat="42.501059" lon="2.408243">
        <ele>1694.111</ele>
        <time>2022-08-12T07:17:25Z</time>
      </trkpt>
      <trkpt lat="42.501009" lon="2.408247">
        <ele>1694.709</ele>
        <time>2022-08-12T07:17:28Z</time>
      </trkpt>
      <trkpt lat="42.500965" lon="2.408279">
        <ele>1695.343</ele>
        <time>2022-08-12T07:17:32Z</time>
      </trkpt>
      <trkpt lat="42.500924" lon="2.408319">
        <ele>1696.063</ele>
        <time>2022-08-12T07:17:38Z</time>
      </trkpt>
      <trkpt lat="42.500890" lon="2.408277">
        <ele>1696.682</ele>
        <time>2022-08-12T07:17:43Z</time>
      </trkpt>
      <trkpt lat="42.500849" lon="2.408249">
        <ele>1697.436</ele>
        <time>2022-08-12T07:17:49Z</time>
      </trkpt>
      <trkpt lat="42.500800" lon="2.408232">
        <ele>1698.624</ele>
        <time>2022-08-12T07:17:58Z</time>
      </trkpt>
      <trkpt lat="42.500748" lon="2.408229">
        <ele>1699.681</ele>
        <time>2022-08-12T07:18:03Z</time>
      </trkpt>
      <trkpt lat="42.500702" lon="2.408242">
        <ele>1700.618</ele>
        <time>2022-08-12T07:18:08Z</time>
      </trkpt>
      <trkpt lat="42.500650" lon="2.408264">
        <ele>1701.990</ele>
        <time>2022-08-12T07:18:14Z</time>
      </trkpt>
      <trkpt lat="42.500607" lon="2.408311">
        <ele>1702.873</ele>
        <time>2022-08-12T07:18:20Z</time>
      </trkpt>
      <trkpt lat="42.500560" lon="2.408319">
        <ele>1703.943</ele>
        <time>2022-08-12T07:18:26Z</time>
      </trkpt>
      <trkpt lat="42.500515" lon="2.408346">
        <ele>1705.064</ele>
        <time>2022-08-12T07:18:34Z</time>
      </trkpt>
      <trkpt lat="42.500481" lon="2.408386">
        <ele>1705.710</ele>
        <time>2022-08-12T07:18:40Z</time>
      </trkpt>
      <trkpt lat="42.500458" lon="2.408445">
        <ele>1706.609</ele>
        <time>2022-08-12T07:18:45Z</time>
      </trkpt>
      <trkpt lat="42.500417" lon="2.408477">
        <ele>1707.935</ele>
        <time>2022-08-12T07:18:49Z</time>
      </trkpt>
      <trkpt lat="42.500368" lon="2.408516">
        <ele>1708.735</ele>
        <time>2022-08-12T07:18:54Z</time>
      </trkpt>
      <trkpt lat="42.500325" lon="2.408550">
        <ele>1709.564</ele>
        <time>2022-08-12T07:18:58Z</time>
      </trkpt>
      <trkpt lat="42.500283" lon="2.408614">
        <ele>1710.778</ele>
        <time>2022-08-12T07:19:02Z</time>
      </trkpt>
      <trkpt lat="42.500248" lon="2.408654">
        <ele>1711.536</ele>
        <time>2022-08-12T07:19:08Z</time>
      </trkpt>
      <trkpt lat="42.500200" lon="2.408677">
        <ele>1712.293</ele>
        <time>2022-08-12T07:19:14Z</time>
      </trkpt>
      <trkpt lat="42.500149" lon="2.408677">
        <ele>1712.620</ele>
        <time>2022-08-12T07:19:18Z</time>
      </trkpt>
      <trkpt lat="42.500137" lon="2.408737">
        <ele>1713.042</ele>
        <time>2022-08-12T07:19:43Z</time>
      </trkpt>
      <trkpt lat="42.500096" lon="2.408779">
        <ele>1713.535</ele>
        <time>2022-08-12T07:19:48Z</time>
      </trkpt>
      <trkpt lat="42.500051" lon="2.408799">
        <ele>1713.512</ele>
        <time>2022-08-12T07:19:53Z</time>
      </trkpt>
      <trkpt lat="42.500004" lon="2.408844">
        <ele>1713.532</ele>
        <time>2022-08-12T07:19:58Z</time>
      </trkpt>
      <trkpt lat="42.499953" lon="2.408847">
        <ele>1713.505</ele>
        <time>2022-08-12T07:20:03Z</time>
      </trkpt>
      <trkpt lat="42.499905" lon="2.408867">
        <ele>1713.109</ele>
        <time>2022-08-12T07:20:07Z</time>
      </trkpt>
      <trkpt lat="42.499866" lon="2.408905">
        <ele>1712.822</ele>
        <time>2022-08-12T07:20:10Z</time>
      </trkpt>
      <trkpt lat="42.499835" lon="2.408960">
        <ele>1712.642</ele>
        <time>2022-08-12T07:20:16Z</time>
      </trkpt>
      <trkpt lat="42.499795" lon="2.408999">
        <ele>1712.421</ele>
        <time>2022-08-12T07:20:20Z</time>
      </trkpt>
      <trkpt lat="42.499748" lon="2.409004">
        <ele>1712.115</ele>
        <time>2022-08-12T07:20:26Z</time>
      </trkpt>
      <trkpt lat="42.499699" lon="2.409011">
        <ele>1711.473</ele>
        <time>2022-08-12T07:20:35Z</time>
      </trkpt>
      <trkpt lat="42.499647" lon="2.409015">
        <ele>1710.860</ele>
        <time>2022-08-12T07:20:39Z</time>
      </trkpt>
      <trkpt lat="42.499595" lon="2.409034">
        <ele>1710.697</ele>
        <time>2022-08-12T07:20:43Z</time>
      </trkpt>
      <trkpt lat="42.499552" lon="2.409059">
        <ele>1710.569</ele>
        <time>2022-08-12T07:20:48Z</time>
      </trkpt>
      <trkpt lat="42.499502" lon="2.409051">
        <ele>1710.392</ele>
        <time>2022-08-12T07:20:57Z</time>
      </trkpt>
      <trkpt lat="42.499445" lon="2.409035">
        <ele>1710.125</ele>
        <time>2022-08-12T07:21:00Z</time>
      </trkpt>
      <trkpt lat="42.499389" lon="2.409003">
        <ele>1709.826</ele>
        <time>2022-08-12T07:21:05Z</time>
      </trkpt>
      <trkpt lat="42.499355" lon="2.408949">
        <ele>1709.808</ele>
        <time>2022-08-12T07:21:14Z</time>
      </trkpt>
      <trkpt lat="42.499309" lon="2.408935">
        <ele>1709.809</ele>
        <time>2022-08-12T07:21:21Z</time>
      </trkpt>
      <trkpt lat="42.499265" lon="2.408956">
        <ele>1709.793</ele>
        <time>2022-08-12T07:21:26Z</time>
      </trkpt>
      <trkpt lat="42.499240" lon="2.409027">
        <ele>1709.533</ele>
        <time>2022-08-12T07:21:35Z</time>
      </trkpt>
      <trkpt lat="42.499233" lon="2.409096">
        <ele>1709.432</ele>
        <time>2022-08-12T07:21:37Z</time>
      </trkpt>
      <trkpt lat="42.499225" lon="2.409163">
        <ele>1709.446</ele>
        <time>2022-08-12T07:21:40Z</time>
      </trkpt>
      <trkpt lat="42.499194" lon="2.409211">
        <ele>1709.214</ele>
        <time>2022-08-12T07:21:49Z</time>
      </trkpt>
      <trkpt lat="42.499150" lon="2.409198">
        <ele>1708.851</ele>
        <time>2022-08-12T07:21:55Z</time>
      </trkpt>
      <trkpt lat="42.499105" lon="2.409186">
        <ele>1708.888</ele>
        <time>2022-08-12T07:21:59Z</time>
      </trkpt>
      <trkpt lat="42.499061" lon="2.409209">
        <ele>1708.620</ele>
        <time>2022-08-12T07:22:06Z</time>
      </trkpt>
      <trkpt lat="42.499008" lon="2.409233">
        <ele>1708.593</ele>
        <time>2022-08-12T07:22:09Z</time>
      </trkpt>
      <trkpt lat="42.498956" lon="2.409234">
        <ele>1708.223</ele>
        <time>2022-08-12T07:22:13Z</time>
      </trkpt>
      <trkpt lat="42.498919" lon="2.409273">
        <ele>1708.083</ele>
        <time>2022-08-12T07:22:20Z</time>
      </trkpt>
      <trkpt lat="42.498882" lon="2.409311">
        <ele>1707.911</ele>
        <time>2022-08-12T07:22:25Z</time>
      </trkpt>
      <trkpt lat="42.498837" lon="2.409315">
        <ele>1707.609</ele>
        <time>2022-08-12T07:22:28Z</time>
      </trkpt>
      <trkpt lat="42.498787" lon="2.409309">
        <ele>1707.393</ele>
        <time>2022-08-12T07:22:35Z</time>
      </trkpt>
      <trkpt lat="42.498721" lon="2.409317">
        <ele>1707.263</ele>
        <time>2022-08-12T07:22:38Z</time>
      </trkpt>
      <trkpt lat="42.498649" lon="2.409384">
        <ele>1707.112</ele>
        <time>2022-08-12T07:22:41Z</time>
      </trkpt>
      <trkpt lat="42.498610" lon="2.409417">
        <ele>1707.316</ele>
        <time>2022-08-12T07:22:46Z</time>
      </trkpt>
      <trkpt lat="42.498563" lon="2.409443">
        <ele>1707.324</ele>
        <time>2022-08-12T07:22:49Z</time>
      </trkpt>
      <trkpt lat="42.498511" lon="2.409454">
        <ele>1707.211</ele>
        <time>2022-08-12T07:22:51Z</time>
      </trkpt>
      <trkpt lat="42.498464" lon="2.409472">
        <ele>1707.288</ele>
        <time>2022-08-12T07:22:54Z</time>
      </trkpt>
      <trkpt lat="42.498413" lon="2.409498">
        <ele>1707.250</ele>
        <time>2022-08-12T07:22:59Z</time>
      </trkpt>
      <trkpt lat="42.498353" lon="2.409514">
        <ele>1707.123</ele>
        <time>2022-08-12T07:23:03Z</time>
      </trkpt>
      <trkpt lat="42.498296" lon="2.409520">
        <ele>1706.822</ele>
        <time>2022-08-12T07:23:06Z</time>
      </trkpt>
      <trkpt lat="42.498250" lon="2.409546">
        <ele>1706.562</ele>
        <time>2022-08-12T07:23:09Z</time>
      </trkpt>
      <trkpt lat="42.498183" lon="2.409547">
        <ele>1706.508</ele>
        <time>2022-08-12T07:23:14Z</time>
      </trkpt>
      <trkpt lat="42.498138" lon="2.409567">
        <ele>1706.309</ele>
        <time>2022-08-12T07:23:16Z</time>
      </trkpt>
      <trkpt lat="42.498072" lon="2.409604">
        <ele>1706.313</ele>
        <time>2022-08-12T07:23:20Z</time>
      </trkpt>
      <trkpt lat="42.498031" lon="2.409635">
        <ele>1706.133</ele>
        <time>2022-08-12T07:23:23Z</time>
      </trkpt>
      <trkpt lat="42.498049" lon="2.409699">
        <ele>1706.192</ele>
        <time>2022-08-12T07:23:33Z</time>
      </trkpt>
      <trkpt lat="42.497990" lon="2.409720">
        <ele>1706.066</ele>
        <time>2022-08-12T07:23:36Z</time>
      </trkpt>
      <trkpt lat="42.497941" lon="2.409771">
        <ele>1706.044</ele>
        <time>2022-08-12T07:23:39Z</time>
      </trkpt>
      <trkpt lat="42.497909" lon="2.409831">
        <ele>1705.781</ele>
        <time>2022-08-12T07:23:47Z</time>
      </trkpt>
      <trkpt lat="42.497886" lon="2.409885">
        <ele>1705.448</ele>
        <time>2022-08-12T07:23:50Z</time>
      </trkpt>
      <trkpt lat="42.497926" lon="2.409956">
        <ele>1705.470</ele>
        <time>2022-08-12T07:23:53Z</time>
      </trkpt>
      <trkpt lat="42.497945" lon="2.410020">
        <ele>1705.293</ele>
        <time>2022-08-12T07:23:55Z</time>
      </trkpt>
      <trkpt lat="42.497966" lon="2.410084">
        <ele>1705.123</ele>
        <time>2022-08-12T07:23:58Z</time>
      </trkpt>
      <trkpt lat="42.497984" lon="2.410148">
        <ele>1705.083</ele>
        <time>2022-08-12T07:24:03Z</time>
      </trkpt>
      <trkpt lat="42.498019" lon="2.410223">
        <ele>1704.811</ele>
        <time>2022-08-12T07:24:07Z</time>
      </trkpt>
      <trkpt lat="42.497971" lon="2.410252">
        <ele>1704.709</ele>
        <time>2022-08-12T07:24:14Z</time>
      </trkpt>
      <trkpt lat="42.497923" lon="2.410261">
        <ele>1704.783</ele>
        <time>2022-08-12T07:24:17Z</time>
      </trkpt>
      <trkpt lat="42.497869" lon="2.410302">
        <ele>1704.363</ele>
        <time>2022-08-12T07:24:20Z</time>
      </trkpt>
      <trkpt lat="42.497810" lon="2.410306">
        <ele>1704.242</ele>
        <time>2022-08-12T07:24:22Z</time>
      </trkpt>
      <trkpt lat="42.497737" lon="2.410309">
        <ele>1704.176</ele>
        <time>2022-08-12T07:24:25Z</time>
      </trkpt>
      <trkpt lat="42.497695" lon="2.410351">
        <ele>1703.664</ele>
        <time>2022-08-12T07:24:27Z</time>
      </trkpt>
      <trkpt lat="42.497647" lon="2.410393">
        <ele>1703.641</ele>
        <time>2022-08-12T07:24:28Z</time>
      </trkpt>
      <trkpt lat="42.497608" lon="2.410430">
        <ele>1703.648</ele>
        <time>2022-08-12T07:24:30Z</time>
      </trkpt>
      <trkpt lat="42.497563" lon="2.410468">
        <ele>1703.630</ele>
        <time>2022-08-12T07:24:35Z</time>
      </trkpt>
      <trkpt lat="42.497529" lon="2.410524">
        <ele>1703.533</ele>
        <time>2022-08-12T07:24:38Z</time>
      </trkpt>
      <trkpt lat="42.497502" lon="2.410578">
        <ele>1703.343</ele>
        <time>2022-08-12T07:24:43Z</time>
      </trkpt>
      <trkpt lat="42.497493" lon="2.410655">
        <ele>1703.264</ele>
        <time>2022-08-12T07:24:47Z</time>
      </trkpt>
      <trkpt lat="42.497476" lon="2.410727">
        <ele>1703.110</ele>
        <time>2022-08-12T07:24:51Z</time>
      </trkpt>
      <trkpt lat="42.497476" lon="2.410791">
        <ele>1703.009</ele>
        <time>2022-08-12T07:24:54Z</time>
      </trkpt>
      <trkpt lat="42.497455" lon="2.410853">
        <ele>1702.995</ele>
        <time>2022-08-12T07:24:57Z</time>
      </trkpt>
      <trkpt lat="42.497417" lon="2.410909">
        <ele>1702.625</ele>
        <time>2022-08-12T07:25:00Z</time>
      </trkpt>
      <trkpt lat="42.497367" lon="2.410914">
        <ele>1702.644</ele>
        <time>2022-08-12T07:25:07Z</time>
      </trkpt>
      <trkpt lat="42.497337" lon="2.410960">
        <ele>1702.798</ele>
        <time>2022-08-12T07:25:09Z</time>
      </trkpt>
      <trkpt lat="42.497302" lon="2.411004">
        <ele>1702.496</ele>
        <time>2022-08-12T07:25:11Z</time>
      </trkpt>
      <trkpt lat="42.497257" lon="2.411049">
        <ele>1702.373</ele>
        <time>2022-08-12T07:25:15Z</time>
      </trkpt>
      <trkpt lat="42.497291" lon="2.411097">
        <ele>1702.350</ele>
        <time>2022-08-12T07:25:21Z</time>
      </trkpt>
      <trkpt lat="42.497285" lon="2.411167">
        <ele>1702.262</ele>
        <time>2022-08-12T07:25:34Z</time>
      </trkpt>
      <trkpt lat="42.497271" lon="2.411245">
        <ele>1702.145</ele>
        <time>2022-08-12T07:25:36Z</time>
      </trkpt>
      <trkpt lat="42.497262" lon="2.411329">
        <ele>1702.088</ele>
        <time>2022-08-12T07:25:38Z</time>
      </trkpt>
      <trkpt lat="42.497233" lon="2.411376">
        <ele>1702.024</ele>
        <time>2022-08-12T07:25:52Z</time>
      </trkpt>
      <trkpt lat="42.497190" lon="2.411328">
        <ele>1701.826</ele>
        <time>2022-08-12T07:25:57Z</time>
      </trkpt>
      <trkpt lat="42.497139" lon="2.411285">
        <ele>1700.609</ele>
        <time>2022-08-12T07:26:01Z</time>
      </trkpt>
      <trkpt lat="42.497110" lon="2.411234">
        <ele>1700.289</ele>
        <time>2022-08-12T07:26:05Z</time>
      </trkpt>
      <trkpt lat="42.497067" lon="2.411194">
        <ele>1700.079</ele>
        <time>2022-08-12T07:26:11Z</time>
      </trkpt>
      <trkpt lat="42.497016" lon="2.411150">
        <ele>1699.638</ele>
        <time>2022-08-12T07:26:16Z</time>
      </trkpt>
      <trkpt lat="42.496969" lon="2.411116">
        <ele>1699.282</ele>
        <time>2022-08-12T07:26:19Z</time>
      </trkpt>
      <trkpt lat="42.496925" lon="2.411088">
        <ele>1698.930</ele>
        <time>2022-08-12T07:26:22Z</time>
      </trkpt>
      <trkpt lat="42.496877" lon="2.411062">
        <ele>1698.517</ele>
        <time>2022-08-12T07:26:34Z</time>
      </trkpt>
      <trkpt lat="42.496835" lon="2.411021">
        <ele>1698.494</ele>
        <time>2022-08-12T07:26:39Z</time>
      </trkpt>
      <trkpt lat="42.496787" lon="2.410992">
        <ele>1698.246</ele>
        <time>2022-08-12T07:26:46Z</time>
      </trkpt>
      <trkpt lat="42.496745" lon="2.410944">
        <ele>1697.859</ele>
        <time>2022-08-12T07:26:50Z</time>
      </trkpt>
      <trkpt lat="42.496692" lon="2.410901">
        <ele>1696.745</ele>
        <time>2022-08-12T07:26:53Z</time>
      </trkpt>
      <trkpt lat="42.496649" lon="2.410868">
        <ele>1696.647</ele>
        <time>2022-08-12T07:26:56Z</time>
      </trkpt>
      <trkpt lat="42.496610" lon="2.410821">
        <ele>1695.911</ele>
        <time>2022-08-12T07:26:58Z</time>
      </trkpt>
      <trkpt lat="42.496556" lon="2.410794">
        <ele>1695.909</ele>
        <time>2022-08-12T07:27:01Z</time>
      </trkpt>
      <trkpt lat="42.496491" lon="2.410795">
        <ele>1695.975</ele>
        <time>2022-08-12T07:27:04Z</time>
      </trkpt>
      <trkpt lat="42.496441" lon="2.410773">
        <ele>1695.975</ele>
        <time>2022-08-12T07:27:06Z</time>
      </trkpt>
      <trkpt lat="42.496399" lon="2.410740">
        <ele>1695.594</ele>
        <time>2022-08-12T07:27:09Z</time>
      </trkpt>
      <trkpt lat="42.496345" lon="2.410730">
        <ele>1695.488</ele>
        <time>2022-08-12T07:27:13Z</time>
      </trkpt>
      <trkpt lat="42.496285" lon="2.410700">
        <ele>1695.346</ele>
        <time>2022-08-12T07:27:16Z</time>
      </trkpt>
      <trkpt lat="42.496239" lon="2.410683">
        <ele>1695.233</ele>
        <time>2022-08-12T07:27:18Z</time>
      </trkpt>
      <trkpt lat="42.496192" lon="2.410701">
        <ele>1695.150</ele>
        <time>2022-08-12T07:27:21Z</time>
      </trkpt>
      <trkpt lat="42.496112" lon="2.410726">
        <ele>1694.822</ele>
        <time>2022-08-12T07:27:25Z</time>
      </trkpt>
      <trkpt lat="42.496056" lon="2.410739">
        <ele>1694.755</ele>
        <time>2022-08-12T07:27:27Z</time>
      </trkpt>
      <trkpt lat="42.495983" lon="2.410764">
        <ele>1694.537</ele>
        <time>2022-08-12T07:27:31Z</time>
      </trkpt>
      <trkpt lat="42.495952" lon="2.410707">
        <ele>1694.349</ele>
        <time>2022-08-12T07:27:36Z</time>
      </trkpt>
      <trkpt lat="42.495897" lon="2.410707">
        <ele>1694.213</ele>
        <time>2022-08-12T07:27:40Z</time>
      </trkpt>
      <trkpt lat="42.495853" lon="2.410727">
        <ele>1694.109</ele>
        <time>2022-08-12T07:27:46Z</time>
      </trkpt>
      <trkpt lat="42.495807" lon="2.410723">
        <ele>1693.524</ele>
        <time>2022-08-12T07:27:49Z</time>
      </trkpt>
      <trkpt lat="42.495742" lon="2.410732">
        <ele>1693.434</ele>
        <time>2022-08-12T07:27:52Z</time>
      </trkpt>
      <trkpt lat="42.495696" lon="2.410734">
        <ele>1693.313</ele>
        <time>2022-08-12T07:27:54Z</time>
      </trkpt>
      <trkpt lat="42.495645" lon="2.410753">
        <ele>1693.227</ele>
        <time>2022-08-12T07:28:01Z</time>
      </trkpt>
      <trkpt lat="42.495596" lon="2.410781">
        <ele>1692.955</ele>
        <time>2022-08-12T07:28:06Z</time>
      </trkpt>
      <trkpt lat="42.495556" lon="2.410751">
        <ele>1692.462</ele>
        <time>2022-08-12T07:28:16Z</time>
      </trkpt>
      <trkpt lat="42.495505" lon="2.410770">
        <ele>1692.069</ele>
        <time>2022-08-12T07:28:23Z</time>
      </trkpt>
      <trkpt lat="42.495456" lon="2.410780">
        <ele>1691.431</ele>
        <time>2022-08-12T07:28:26Z</time>
      </trkpt>
      <trkpt lat="42.495412" lon="2.410805">
        <ele>1690.864</ele>
        <time>2022-08-12T07:28:29Z</time>
      </trkpt>
      <trkpt lat="42.495342" lon="2.410795">
        <ele>1690.719</ele>
        <time>2022-08-12T07:28:32Z</time>
      </trkpt>
      <trkpt lat="42.495298" lon="2.410768">
        <ele>1690.509</ele>
        <time>2022-08-12T07:28:34Z</time>
      </trkpt>
      <trkpt lat="42.495262" lon="2.410727">
        <ele>1690.319</ele>
        <time>2022-08-12T07:28:37Z</time>
      </trkpt>
      <trkpt lat="42.495214" lon="2.410729">
        <ele>1690.209</ele>
        <time>2022-08-12T07:28:46Z</time>
      </trkpt>
      <trkpt lat="42.495190" lon="2.410792">
        <ele>1690.282</ele>
        <time>2022-08-12T07:28:56Z</time>
      </trkpt>
      <trkpt lat="42.495142" lon="2.410823">
        <ele>1689.792</ele>
        <time>2022-08-12T07:29:03Z</time>
      </trkpt>
      <trkpt lat="42.495097" lon="2.410830">
        <ele>1689.021</ele>
        <time>2022-08-12T07:29:09Z</time>
      </trkpt>
      <trkpt lat="42.495029" lon="2.410856">
        <ele>1688.745</ele>
        <time>2022-08-12T07:29:12Z</time>
      </trkpt>
      <trkpt lat="42.494960" lon="2.410873">
        <ele>1688.293</ele>
        <time>2022-08-12T07:29:15Z</time>
      </trkpt>
      <trkpt lat="42.494904" lon="2.410899">
        <ele>1687.360</ele>
        <time>2022-08-12T07:29:17Z</time>
      </trkpt>
      <trkpt lat="42.494852" lon="2.410935">
        <ele>1686.557</ele>
        <time>2022-08-12T07:29:19Z</time>
      </trkpt>
      <trkpt lat="42.494803" lon="2.410941">
        <ele>1686.529</ele>
        <time>2022-08-12T07:29:22Z</time>
      </trkpt>
      <trkpt lat="42.494748" lon="2.410943">
        <ele>1686.472</ele>
        <time>2022-08-12T07:29:25Z</time>
      </trkpt>
      <trkpt lat="42.494684" lon="2.410969">
        <ele>1686.226</ele>
        <time>2022-08-12T07:29:28Z</time>
      </trkpt>
      <trkpt lat="42.494638" lon="2.410977">
        <ele>1686.047</ele>
        <time>2022-08-12T07:29:31Z</time>
      </trkpt>
      <trkpt lat="42.494646" lon="2.411062">
        <ele>1685.911</ele>
        <time>2022-08-12T07:29:35Z</time>
      </trkpt>
      <trkpt lat="42.494643" lon="2.411132">
        <ele>1685.809</ele>
        <time>2022-08-12T07:29:37Z</time>
      </trkpt>
      <trkpt lat="42.494665" lon="2.411213">
        <ele>1685.093</ele>
        <time>2022-08-12T07:29:40Z</time>
      </trkpt>
      <trkpt lat="42.494693" lon="2.411282">
        <ele>1684.563</ele>
        <time>2022-08-12T07:29:43Z</time>
      </trkpt>
      <trkpt lat="42.494735" lon="2.411352">
        <ele>1684.322</ele>
        <time>2022-08-12T07:29:46Z</time>
      </trkpt>
      <trkpt lat="42.494785" lon="2.411377">
        <ele>1684.336</ele>
        <time>2022-08-12T07:29:48Z</time>
      </trkpt>
      <trkpt lat="42.494834" lon="2.411422">
        <ele>1684.224</ele>
        <time>2022-08-12T07:29:50Z</time>
      </trkpt>
      <trkpt lat="42.494886" lon="2.411474">
        <ele>1684.211</ele>
        <time>2022-08-12T07:29:55Z</time>
      </trkpt>
      <trkpt lat="42.494943" lon="2.411510">
        <ele>1684.558</ele>
        <time>2022-08-12T07:29:58Z</time>
      </trkpt>
      <trkpt lat="42.494950" lon="2.411570">
        <ele>1684.540</ele>
        <time>2022-08-12T07:29:59Z</time>
      </trkpt>
      <trkpt lat="42.494942" lon="2.411650">
        <ele>1684.213</ele>
        <time>2022-08-12T07:30:01Z</time>
      </trkpt>
      <trkpt lat="42.494899" lon="2.411708">
        <ele>1684.711</ele>
        <time>2022-08-12T07:30:09Z</time>
      </trkpt>
      <trkpt lat="42.494855" lon="2.411757">
        <ele>1684.121</ele>
        <time>2022-08-12T07:30:17Z</time>
      </trkpt>
      <trkpt lat="42.494814" lon="2.411783">
        <ele>1684.103</ele>
        <time>2022-08-12T07:30:20Z</time>
      </trkpt>
      <trkpt lat="42.494752" lon="2.411810">
        <ele>1684.109</ele>
        <time>2022-08-12T07:30:25Z</time>
      </trkpt>
      <trkpt lat="42.494702" lon="2.411812">
        <ele>1684.822</ele>
        <time>2022-08-12T07:30:32Z</time>
      </trkpt>
      <trkpt lat="42.494734" lon="2.411858">
        <ele>1684.882</ele>
        <time>2022-08-12T07:30:45Z</time>
      </trkpt>
      <trkpt lat="42.494781" lon="2.411846">
        <ele>1685.311</ele>
        <time>2022-08-12T07:30:53Z</time>
      </trkpt>
      <trkpt lat="42.494790" lon="2.411784">
        <ele>1686.745</ele>
        <time>2022-08-12T07:31:00Z</time>
      </trkpt>
      <trkpt lat="42.494839" lon="2.411792">
        <ele>1688.123</ele>
        <time>2022-08-12T07:31:04Z</time>
      </trkpt>
      <trkpt lat="42.494892" lon="2.411803">
        <ele>1689.080</ele>
        <time>2022-08-12T07:31:11Z</time>
      </trkpt>
      <trkpt lat="42.494937" lon="2.411817">
        <ele>1689.617</ele>
        <time>2022-08-12T07:31:16Z</time>
      </trkpt>
      <trkpt lat="42.494983" lon="2.411834">
        <ele>1690.319</ele>
        <time>2022-08-12T07:31:21Z</time>
      </trkpt>
      <trkpt lat="42.495025" lon="2.411776">
        <ele>1691.252</ele>
        <time>2022-08-12T07:31:25Z</time>
      </trkpt>
      <trkpt lat="42.495082" lon="2.411763">
        <ele>1691.673</ele>
        <time>2022-08-12T07:31:28Z</time>
      </trkpt>
      <trkpt lat="42.495137" lon="2.411786">
        <ele>1692.185</ele>
        <time>2022-08-12T07:31:31Z</time>
      </trkpt>
      <trkpt lat="42.495184" lon="2.411809">
        <ele>1693.613</ele>
        <time>2022-08-12T07:31:34Z</time>
      </trkpt>
      <trkpt lat="42.495246" lon="2.411816">
        <ele>1693.809</ele>
        <time>2022-08-12T07:31:37Z</time>
      </trkpt>
      <trkpt lat="42.495296" lon="2.411809">
        <ele>1694.158</ele>
        <time>2022-08-12T07:31:40Z</time>
      </trkpt>
      <trkpt lat="42.495343" lon="2.411816">
        <ele>1694.348</ele>
        <time>2022-08-12T07:31:44Z</time>
      </trkpt>
      <trkpt lat="42.495398" lon="2.411819">
        <ele>1694.677</ele>
        <time>2022-08-12T07:31:48Z</time>
      </trkpt>
      <trkpt lat="42.495445" lon="2.411858">
        <ele>1695.061</ele>
        <time>2022-08-12T07:31:52Z</time>
      </trkpt>
      <trkpt lat="42.495423" lon="2.411920">
        <ele>1695.529</ele>
        <time>2022-08-12T07:31:56Z</time>
      </trkpt>
      <trkpt lat="42.495383" lon="2.411963">
        <ele>1696.036</ele>
        <time>2022-08-12T07:31:59Z</time>
      </trkpt>
      <trkpt lat="42.495372" lon="2.412024">
        <ele>1696.663</ele>
        <time>2022-08-12T07:32:07Z</time>
      </trkpt>
      <trkpt lat="42.495338" lon="2.412082">
        <ele>1697.475</ele>
        <time>2022-08-12T07:32:12Z</time>
      </trkpt>
      <trkpt lat="42.495323" lon="2.412140">
        <ele>1697.918</ele>
        <time>2022-08-12T07:32:17Z</time>
      </trkpt>
      <trkpt lat="42.495350" lon="2.412211">
        <ele>1698.312</ele>
        <time>2022-08-12T07:32:20Z</time>
      </trkpt>
      <trkpt lat="42.495383" lon="2.412271">
        <ele>1698.932</ele>
        <time>2022-08-12T07:32:24Z</time>
      </trkpt>
      <trkpt lat="42.495420" lon="2.412321">
        <ele>1699.205</ele>
        <time>2022-08-12T07:32:26Z</time>
      </trkpt>
      <trkpt lat="42.495463" lon="2.412376">
        <ele>1699.909</ele>
        <time>2022-08-12T07:32:30Z</time>
      </trkpt>
      <trkpt lat="42.495507" lon="2.412429">
        <ele>1700.342</ele>
        <time>2022-08-12T07:32:33Z</time>
      </trkpt>
      <trkpt lat="42.495527" lon="2.412489">
        <ele>1700.562</ele>
        <time>2022-08-12T07:32:41Z</time>
      </trkpt>
      <trkpt lat="42.495554" lon="2.412542">
        <ele>1700.731</ele>
        <time>2022-08-12T07:32:47Z</time>
      </trkpt>
      <trkpt lat="42.495588" lon="2.412583">
        <ele>1701.155</ele>
        <time>2022-08-12T07:32:52Z</time>
      </trkpt>
      <trkpt lat="42.495560" lon="2.412665">
        <ele>1702.213</ele>
        <time>2022-08-12T07:32:58Z</time>
      </trkpt>
      <trkpt lat="42.495524" lon="2.412720">
        <ele>1703.160</ele>
        <time>2022-08-12T07:33:01Z</time>
      </trkpt>
      <trkpt lat="42.495562" lon="2.412770">
        <ele>1703.467</ele>
        <time>2022-08-12T07:33:06Z</time>
      </trkpt>
      <trkpt lat="42.495553" lon="2.412848">
        <ele>1704.329</ele>
        <time>2022-08-12T07:33:10Z</time>
      </trkpt>
      <trkpt lat="42.495541" lon="2.412911">
        <ele>1705.052</ele>
        <time>2022-08-12T07:33:21Z</time>
      </trkpt>
      <trkpt lat="42.495553" lon="2.412975">
        <ele>1705.293</ele>
        <time>2022-08-12T07:33:25Z</time>
      </trkpt>
      <trkpt lat="42.495566" lon="2.413039">
        <ele>1706.165</ele>
        <time>2022-08-12T07:33:30Z</time>
      </trkpt>
      <trkpt lat="42.495549" lon="2.413109">
        <ele>1707.121</ele>
        <time>2022-08-12T07:33:33Z</time>
      </trkpt>
      <trkpt lat="42.495604" lon="2.413160">
        <ele>1707.409</ele>
        <time>2022-08-12T07:33:38Z</time>
      </trkpt>
      <trkpt lat="42.495671" lon="2.413180">
        <ele>1708.420</ele>
        <time>2022-08-12T07:33:40Z</time>
      </trkpt>
      <trkpt lat="42.495729" lon="2.413193">
        <ele>1708.450</ele>
        <time>2022-08-12T07:33:42Z</time>
      </trkpt>
      <trkpt lat="42.495777" lon="2.413204">
        <ele>1708.649</ele>
        <time>2022-08-12T07:33:44Z</time>
      </trkpt>
      <trkpt lat="42.495809" lon="2.413251">
        <ele>1708.693</ele>
        <time>2022-08-12T07:33:46Z</time>
      </trkpt>
      <trkpt lat="42.495810" lon="2.413317">
        <ele>1709.531</ele>
        <time>2022-08-12T07:33:51Z</time>
      </trkpt>
      <trkpt lat="42.495803" lon="2.413380">
        <ele>1709.758</ele>
        <time>2022-08-12T07:33:57Z</time>
      </trkpt>
      <trkpt lat="42.495797" lon="2.413447">
        <ele>1710.195</ele>
        <time>2022-08-12T07:34:02Z</time>
      </trkpt>
      <trkpt lat="42.495846" lon="2.413486">
        <ele>1710.347</ele>
        <time>2022-08-12T07:34:09Z</time>
      </trkpt>
      <trkpt lat="42.495900" lon="2.413480">
        <ele>1710.670</ele>
        <time>2022-08-12T07:34:13Z</time>
      </trkpt>
      <trkpt lat="42.495944" lon="2.413514">
        <ele>1711.644</ele>
        <time>2022-08-12T07:34:16Z</time>
      </trkpt>
      <trkpt lat="42.495963" lon="2.413596">
        <ele>1712.605</ele>
        <time>2022-08-12T07:34:19Z</time>
      </trkpt>
      <trkpt lat="42.495992" lon="2.413651">
        <ele>1712.915</ele>
        <time>2022-08-12T07:34:23Z</time>
      </trkpt>
      <trkpt lat="42.496018" lon="2.413703">
        <ele>1713.209</ele>
        <time>2022-08-12T07:34:31Z</time>
      </trkpt>
      <trkpt lat="42.496061" lon="2.413740">
        <ele>1713.555</ele>
        <time>2022-08-12T07:34:46Z</time>
      </trkpt>
      <trkpt lat="42.496078" lon="2.413801">
        <ele>1714.265</ele>
        <time>2022-08-12T07:34:52Z</time>
      </trkpt>
      <trkpt lat="42.496095" lon="2.413868">
        <ele>1715.674</ele>
        <time>2022-08-12T07:34:56Z</time>
      </trkpt>
      <trkpt lat="42.496086" lon="2.413935">
        <ele>1716.548</ele>
        <time>2022-08-12T07:35:00Z</time>
      </trkpt>
      <trkpt lat="42.496074" lon="2.414001">
        <ele>1717.226</ele>
        <time>2022-08-12T07:35:03Z</time>
      </trkpt>
      <trkpt lat="42.496033" lon="2.414050">
        <ele>1717.993</ele>
        <time>2022-08-12T07:35:07Z</time>
      </trkpt>
      <trkpt lat="42.496005" lon="2.414102">
        <ele>1718.380</ele>
        <time>2022-08-12T07:35:10Z</time>
      </trkpt>
      <trkpt lat="42.495982" lon="2.414172">
        <ele>1718.662</ele>
        <time>2022-08-12T07:35:15Z</time>
      </trkpt>
      <trkpt lat="42.495971" lon="2.414239">
        <ele>1718.935</ele>
        <time>2022-08-12T07:35:20Z</time>
      </trkpt>
      <trkpt lat="42.495956" lon="2.414312">
        <ele>1719.355</ele>
        <time>2022-08-12T07:35:23Z</time>
      </trkpt>
      <trkpt lat="42.495920" lon="2.414360">
        <ele>1719.507</ele>
        <time>2022-08-12T07:35:26Z</time>
      </trkpt>
      <trkpt lat="42.495918" lon="2.414457">
        <ele>1719.817</ele>
        <time>2022-08-12T07:35:36Z</time>
      </trkpt>
      <trkpt lat="42.495944" lon="2.414527">
        <ele>1720.209</ele>
        <time>2022-08-12T07:35:41Z</time>
      </trkpt>
      <trkpt lat="42.495990" lon="2.414544">
        <ele>1721.916</ele>
        <time>2022-08-12T07:35:45Z</time>
      </trkpt>
      <trkpt lat="42.496041" lon="2.414545">
        <ele>1721.996</ele>
        <time>2022-08-12T07:35:49Z</time>
      </trkpt>
      <trkpt lat="42.496092" lon="2.414589">
        <ele>1722.055</ele>
        <time>2022-08-12T07:35:54Z</time>
      </trkpt>
      <trkpt lat="42.496149" lon="2.414583">
        <ele>1723.249</ele>
        <time>2022-08-12T07:35:56Z</time>
      </trkpt>
      <trkpt lat="42.496197" lon="2.414597">
        <ele>1723.397</ele>
        <time>2022-08-12T07:35:59Z</time>
      </trkpt>
      <trkpt lat="42.496258" lon="2.414645">
        <ele>1723.944</ele>
        <time>2022-08-12T07:36:02Z</time>
      </trkpt>
      <trkpt lat="42.496284" lon="2.414695">
        <ele>1724.181</ele>
        <time>2022-08-12T07:36:09Z</time>
      </trkpt>
      <trkpt lat="42.496326" lon="2.414732">
        <ele>1724.463</ele>
        <time>2022-08-12T07:36:13Z</time>
      </trkpt>
      <trkpt lat="42.496361" lon="2.414784">
        <ele>1725.186</ele>
        <time>2022-08-12T07:36:17Z</time>
      </trkpt>
      <trkpt lat="42.496372" lon="2.414849">
        <ele>1725.962</ele>
        <time>2022-08-12T07:36:22Z</time>
      </trkpt>
      <trkpt lat="42.496364" lon="2.414918">
        <ele>1726.283</ele>
        <time>2022-08-12T07:36:29Z</time>
      </trkpt>
      <trkpt lat="42.496368" lon="2.414993">
        <ele>1726.911</ele>
        <time>2022-08-12T07:36:37Z</time>
      </trkpt>
      <trkpt lat="42.496416" lon="2.415057">
        <ele>1728.009</ele>
        <time>2022-08-12T07:36:40Z</time>
      </trkpt>
      <trkpt lat="42.496480" lon="2.415118">
        <ele>1729.397</ele>
        <time>2022-08-12T07:36:42Z</time>
      </trkpt>
      <trkpt lat="42.496530" lon="2.415189">
        <ele>1729.577</ele>
        <time>2022-08-12T07:36:44Z</time>
      </trkpt>
      <trkpt lat="42.496582" lon="2.415258">
        <ele>1729.676</ele>
        <time>2022-08-12T07:36:47Z</time>
      </trkpt>
      <trkpt lat="42.496629" lon="2.415308">
        <ele>1729.750</ele>
        <time>2022-08-12T07:36:49Z</time>
      </trkpt>
      <trkpt lat="42.496671" lon="2.415335">
        <ele>1729.868</ele>
        <time>2022-08-12T07:36:52Z</time>
      </trkpt>
      <trkpt lat="42.496733" lon="2.415370">
        <ele>1730.195</ele>
        <time>2022-08-12T07:36:56Z</time>
      </trkpt>
      <trkpt lat="42.496767" lon="2.415420">
        <ele>1730.452</ele>
        <time>2022-08-12T07:36:59Z</time>
      </trkpt>
      <trkpt lat="42.496797" lon="2.415467">
        <ele>1730.534</ele>
        <time>2022-08-12T07:37:03Z</time>
      </trkpt>
      <trkpt lat="42.496798" lon="2.415528">
        <ele>1731.097</ele>
        <time>2022-08-12T07:37:05Z</time>
      </trkpt>
      <trkpt lat="42.496779" lon="2.415592">
        <ele>1731.738</ele>
        <time>2022-08-12T07:37:08Z</time>
      </trkpt>
      <trkpt lat="42.496792" lon="2.415654">
        <ele>1732.070</ele>
        <time>2022-08-12T07:37:16Z</time>
      </trkpt>
      <trkpt lat="42.496798" lon="2.415717">
        <ele>1732.317</ele>
        <time>2022-08-12T07:37:20Z</time>
      </trkpt>
      <trkpt lat="42.496814" lon="2.415795">
        <ele>1732.709</ele>
        <time>2022-08-12T07:37:26Z</time>
      </trkpt>
      <trkpt lat="42.496772" lon="2.415826">
        <ele>1733.374</ele>
        <time>2022-08-12T07:37:29Z</time>
      </trkpt>
      <trkpt lat="42.496811" lon="2.415786">
        <ele>1734.124</ele>
        <time>2022-08-12T07:37:41Z</time>
      </trkpt>
      <trkpt lat="42.496878" lon="2.415809">
        <ele>1734.543</ele>
        <time>2022-08-12T07:37:44Z</time>
      </trkpt>
      <trkpt lat="42.496921" lon="2.415851">
        <ele>1735.427</ele>
        <time>2022-08-12T07:37:46Z</time>
      </trkpt>
      <trkpt lat="42.496923" lon="2.415912">
        <ele>1735.775</ele>
        <time>2022-08-12T07:37:53Z</time>
      </trkpt>
      <trkpt lat="42.496862" lon="2.415910">
        <ele>1736.052</ele>
        <time>2022-08-12T07:37:58Z</time>
      </trkpt>
      <trkpt lat="42.496821" lon="2.415940">
        <ele>1737.399</ele>
        <time>2022-08-12T07:38:00Z</time>
      </trkpt>
      <trkpt lat="42.496788" lon="2.415998">
        <ele>1737.671</ele>
        <time>2022-08-12T07:38:04Z</time>
      </trkpt>
      <trkpt lat="42.496762" lon="2.416057">
        <ele>1737.914</ele>
        <time>2022-08-12T07:38:07Z</time>
      </trkpt>
      <trkpt lat="42.496731" lon="2.416107">
        <ele>1737.949</ele>
        <time>2022-08-12T07:38:13Z</time>
      </trkpt>
      <trkpt lat="42.496682" lon="2.416142">
        <ele>1738.002</ele>
        <time>2022-08-12T07:38:17Z</time>
      </trkpt>
      <trkpt lat="42.496735" lon="2.416140">
        <ele>1738.922</ele>
        <time>2022-08-12T07:38:24Z</time>
      </trkpt>
      <trkpt lat="42.496782" lon="2.416154">
        <ele>1739.809</ele>
        <time>2022-08-12T07:38:29Z</time>
      </trkpt>
      <trkpt lat="42.496845" lon="2.416158">
        <ele>1740.435</ele>
        <time>2022-08-12T07:38:32Z</time>
      </trkpt>
      <trkpt lat="42.496895" lon="2.416191">
        <ele>1741.725</ele>
        <time>2022-08-12T07:38:35Z</time>
      </trkpt>
      <trkpt lat="42.496939" lon="2.416208">
        <ele>1741.914</ele>
        <time>2022-08-12T07:38:39Z</time>
      </trkpt>
      <trkpt lat="42.496994" lon="2.416218">
        <ele>1742.298</ele>
        <time>2022-08-12T07:38:41Z</time>
      </trkpt>
      <trkpt lat="42.497041" lon="2.416212">
        <ele>1742.336</ele>
        <time>2022-08-12T07:38:43Z</time>
      </trkpt>
      <trkpt lat="42.497091" lon="2.416234">
        <ele>1742.623</ele>
        <time>2022-08-12T07:38:46Z</time>
      </trkpt>
      <trkpt lat="42.497115" lon="2.416286">
        <ele>1743.060</ele>
        <time>2022-08-12T07:38:48Z</time>
      </trkpt>
      <trkpt lat="42.497118" lon="2.416348">
        <ele>1743.252</ele>
        <time>2022-08-12T07:38:50Z</time>
      </trkpt>
      <trkpt lat="42.497099" lon="2.416409">
        <ele>1743.315</ele>
        <time>2022-08-12T07:38:56Z</time>
      </trkpt>
      <trkpt lat="42.497072" lon="2.416475">
        <ele>1743.748</ele>
        <time>2022-08-12T07:39:02Z</time>
      </trkpt>
      <trkpt lat="42.497088" lon="2.416541">
        <ele>1744.261</ele>
        <time>2022-08-12T07:39:07Z</time>
      </trkpt>
      <trkpt lat="42.497106" lon="2.416604">
        <ele>1745.017</ele>
        <time>2022-08-12T07:39:12Z</time>
      </trkpt>
      <trkpt lat="42.497087" lon="2.416681">
        <ele>1745.909</ele>
        <time>2022-08-12T07:39:15Z</time>
      </trkpt>
      <trkpt lat="42.497070" lon="2.416746">
        <ele>1746.475</ele>
        <time>2022-08-12T07:39:19Z</time>
      </trkpt>
      <trkpt lat="42.497114" lon="2.416769">
        <ele>1746.835</ele>
        <time>2022-08-12T07:39:26Z</time>
      </trkpt>
      <trkpt lat="42.497194" lon="2.416799">
        <ele>1747.114</ele>
        <time>2022-08-12T07:39:28Z</time>
      </trkpt>
      <trkpt lat="42.497238" lon="2.416812">
        <ele>1748.498</ele>
        <time>2022-08-12T07:39:29Z</time>
      </trkpt>
      <trkpt lat="42.497284" lon="2.416829">
        <ele>1748.416</ele>
        <time>2022-08-12T07:39:30Z</time>
      </trkpt>
      <trkpt lat="42.497334" lon="2.416842">
        <ele>1748.493</ele>
        <time>2022-08-12T07:39:31Z</time>
      </trkpt>
      <trkpt lat="42.497399" lon="2.416858">
        <ele>1748.440</ele>
        <time>2022-08-12T07:39:33Z</time>
      </trkpt>
      <trkpt lat="42.497468" lon="2.416861">
        <ele>1748.662</ele>
        <time>2022-08-12T07:39:35Z</time>
      </trkpt>
      <trkpt lat="42.497513" lon="2.416882">
        <ele>1748.865</ele>
        <time>2022-08-12T07:39:38Z</time>
      </trkpt>
      <trkpt lat="42.497567" lon="2.416922">
        <ele>1749.023</ele>
        <time>2022-08-12T07:39:40Z</time>
      </trkpt>
      <trkpt lat="42.497608" lon="2.416882">
        <ele>1749.183</ele>
        <time>2022-08-12T07:39:44Z</time>
      </trkpt>
      <trkpt lat="42.497557" lon="2.416824">
        <ele>1749.411</ele>
        <time>2022-08-12T07:39:47Z</time>
      </trkpt>
      <trkpt lat="42.497508" lon="2.416800">
        <ele>1749.609</ele>
        <time>2022-08-12T07:39:50Z</time>
      </trkpt>
      <trkpt lat="42.497447" lon="2.416738">
        <ele>1749.893</ele>
        <time>2022-08-12T07:39:53Z</time>
      </trkpt>
      <trkpt lat="42.497449" lon="2.416813">
        <ele>1750.563</ele>
        <time>2022-08-12T07:39:59Z</time>
      </trkpt>
      <trkpt lat="42.497467" lon="2.416912">
        <ele>1751.512</ele>
        <time>2022-08-12T07:40:02Z</time>
      </trkpt>
      <trkpt lat="42.497429" lon="2.416986">
        <ele>1751.956</ele>
        <time>2022-08-12T07:40:05Z</time>
      </trkpt>
      <trkpt lat="42.497384" lon="2.417032">
        <ele>1752.144</ele>
        <time>2022-08-12T07:40:08Z</time>
      </trkpt>
      <trkpt lat="42.497375" lon="2.417110">
        <ele>1752.211</ele>
        <time>2022-08-12T07:40:16Z</time>
      </trkpt>
      <trkpt lat="42.497372" lon="2.417176">
        <ele>1752.258</ele>
        <time>2022-08-12T07:40:20Z</time>
      </trkpt>
      <trkpt lat="42.497353" lon="2.417251">
        <ele>1753.410</ele>
        <time>2022-08-12T07:40:25Z</time>
      </trkpt>
      <trkpt lat="42.497364" lon="2.417315">
        <ele>1753.783</ele>
        <time>2022-08-12T07:40:31Z</time>
      </trkpt>
      <trkpt lat="42.497387" lon="2.417383">
        <ele>1754.417</ele>
        <time>2022-08-12T07:40:36Z</time>
      </trkpt>
      <trkpt lat="42.497398" lon="2.417444">
        <ele>1755.287</ele>
        <time>2022-08-12T07:40:38Z</time>
      </trkpt>
      <trkpt lat="42.497403" lon="2.417515">
        <ele>1755.715</ele>
        <time>2022-08-12T07:40:43Z</time>
      </trkpt>
      <trkpt lat="42.497390" lon="2.417581">
        <ele>1756.109</ele>
        <time>2022-08-12T07:40:47Z</time>
      </trkpt>
      <trkpt lat="42.497358" lon="2.417625">
        <ele>1756.672</ele>
        <time>2022-08-12T07:40:50Z</time>
      </trkpt>
      <trkpt lat="42.497310" lon="2.417648">
        <ele>1757.332</ele>
        <time>2022-08-12T07:40:53Z</time>
      </trkpt>
      <trkpt lat="42.497267" lon="2.417670">
        <ele>1757.741</ele>
        <time>2022-08-12T07:40:55Z</time>
      </trkpt>
      <trkpt lat="42.497226" lon="2.417702">
        <ele>1758.075</ele>
        <time>2022-08-12T07:40:57Z</time>
      </trkpt>
      <trkpt lat="42.497218" lon="2.417767">
        <ele>1758.533</ele>
        <time>2022-08-12T07:41:00Z</time>
      </trkpt>
      <trkpt lat="42.497223" lon="2.417839">
        <ele>1758.950</ele>
        <time>2022-08-12T07:41:02Z</time>
      </trkpt>
      <trkpt lat="42.497208" lon="2.417900">
        <ele>1759.187</ele>
        <time>2022-08-12T07:41:04Z</time>
      </trkpt>
      <trkpt lat="42.497196" lon="2.417975">
        <ele>1759.229</ele>
        <time>2022-08-12T07:41:07Z</time>
      </trkpt>
      <trkpt lat="42.497210" lon="2.418037">
        <ele>1759.522</ele>
        <time>2022-08-12T07:41:13Z</time>
      </trkpt>
      <trkpt lat="42.497217" lon="2.418100">
        <ele>1759.931</ele>
        <time>2022-08-12T07:41:21Z</time>
      </trkpt>
      <trkpt lat="42.497176" lon="2.418142">
        <ele>1760.261</ele>
        <time>2022-08-12T07:41:27Z</time>
      </trkpt>
      <trkpt lat="42.497130" lon="2.418161">
        <ele>1761.207</ele>
        <time>2022-08-12T07:41:30Z</time>
      </trkpt>
      <trkpt lat="42.497153" lon="2.418220">
        <ele>1762.309</ele>
        <time>2022-08-12T07:41:39Z</time>
      </trkpt>
      <trkpt lat="42.497147" lon="2.418292">
        <ele>1762.754</ele>
        <time>2022-08-12T07:41:46Z</time>
      </trkpt>
      <trkpt lat="42.497127" lon="2.418367">
        <ele>1763.724</ele>
        <time>2022-08-12T07:41:55Z</time>
      </trkpt>
      <trkpt lat="42.497090" lon="2.418409">
        <ele>1764.843</ele>
        <time>2022-08-12T07:41:58Z</time>
      </trkpt>
      <trkpt lat="42.497074" lon="2.418338">
        <ele>1765.847</ele>
        <time>2022-08-12T07:42:16Z</time>
      </trkpt>
      <trkpt lat="42.497053" lon="2.418281">
        <ele>1766.545</ele>
        <time>2022-08-12T07:42:20Z</time>
      </trkpt>
      <trkpt lat="42.497045" lon="2.418220">
        <ele>1767.572</ele>
        <time>2022-08-12T07:42:26Z</time>
      </trkpt>
      <trkpt lat="42.497053" lon="2.418158">
        <ele>1768.939</ele>
        <time>2022-08-12T07:42:32Z</time>
      </trkpt>
      <trkpt lat="42.497091" lon="2.418096">
        <ele>1769.711</ele>
        <time>2022-08-12T07:42:43Z</time>
      </trkpt>
      <trkpt lat="42.497123" lon="2.418048">
        <ele>1770.124</ele>
        <time>2022-08-12T07:42:49Z</time>
      </trkpt>
      <trkpt lat="42.497162" lon="2.418000">
        <ele>1770.932</ele>
        <time>2022-08-12T07:42:53Z</time>
      </trkpt>
      <trkpt lat="42.497192" lon="2.417941">
        <ele>1771.992</ele>
        <time>2022-08-12T07:42:58Z</time>
      </trkpt>
      <trkpt lat="42.497201" lon="2.417871">
        <ele>1772.611</ele>
        <time>2022-08-12T07:43:01Z</time>
      </trkpt>
      <trkpt lat="42.497200" lon="2.417805">
        <ele>1773.009</ele>
        <time>2022-08-12T07:43:05Z</time>
      </trkpt>
      <trkpt lat="42.497163" lon="2.417762">
        <ele>1773.374</ele>
        <time>2022-08-12T07:43:12Z</time>
      </trkpt>
      <trkpt lat="42.497147" lon="2.417692">
        <ele>1773.654</ele>
        <time>2022-08-12T07:43:18Z</time>
      </trkpt>
      <trkpt lat="42.497109" lon="2.417738">
        <ele>1774.413</ele>
        <time>2022-08-12T07:43:29Z</time>
      </trkpt>
      <trkpt lat="42.497102" lon="2.417816">
        <ele>1775.547</ele>
        <time>2022-08-12T07:43:36Z</time>
      </trkpt>
      <trkpt lat="42.497151" lon="2.417842">
        <ele>1776.495</ele>
        <time>2022-08-12T07:43:41Z</time>
      </trkpt>
      <trkpt lat="42.497157" lon="2.417909">
        <ele>1777.442</ele>
        <time>2022-08-12T07:43:49Z</time>
      </trkpt>
      <trkpt lat="42.497115" lon="2.417940">
        <ele>1778.499</ele>
        <time>2022-08-12T07:43:55Z</time>
      </trkpt>
      <trkpt lat="42.497114" lon="2.418002">
        <ele>1779.111</ele>
        <time>2022-08-12T07:43:58Z</time>
      </trkpt>
      <trkpt lat="42.497092" lon="2.418065">
        <ele>1779.884</ele>
        <time>2022-08-12T07:44:02Z</time>
      </trkpt>
      <trkpt lat="42.497066" lon="2.418123">
        <ele>1780.535</ele>
        <time>2022-08-12T07:44:08Z</time>
      </trkpt>
      <trkpt lat="42.497085" lon="2.418182">
        <ele>1780.986</ele>
        <time>2022-08-12T07:44:20Z</time>
      </trkpt>
      <trkpt lat="42.497076" lon="2.418244">
        <ele>1781.514</ele>
        <time>2022-08-12T07:44:30Z</time>
      </trkpt>
      <trkpt lat="42.497029" lon="2.418260">
        <ele>1782.709</ele>
        <time>2022-08-12T07:44:34Z</time>
      </trkpt>
      <trkpt lat="42.496985" lon="2.418274">
        <ele>1784.394</ele>
        <time>2022-08-12T07:44:37Z</time>
      </trkpt>
      <trkpt lat="42.497001" lon="2.418342">
        <ele>1785.574</ele>
        <time>2022-08-12T07:44:46Z</time>
      </trkpt>
      <trkpt lat="42.496957" lon="2.418385">
        <ele>1786.023</ele>
        <time>2022-08-12T07:44:48Z</time>
      </trkpt>
      <trkpt lat="42.496919" lon="2.418422">
        <ele>1786.667</ele>
        <time>2022-08-12T07:44:58Z</time>
      </trkpt>
      <trkpt lat="42.496886" lon="2.418469">
        <ele>1787.385</ele>
        <time>2022-08-12T07:45:03Z</time>
      </trkpt>
      <trkpt lat="42.496831" lon="2.418528">
        <ele>1789.192</ele>
        <time>2022-08-12T07:45:07Z</time>
      </trkpt>
      <trkpt lat="42.496792" lon="2.418613">
        <ele>1790.059</ele>
        <time>2022-08-12T07:45:10Z</time>
      </trkpt>
      <trkpt lat="42.496759" lon="2.418667">
        <ele>1790.451</ele>
        <time>2022-08-12T07:45:14Z</time>
      </trkpt>
      <trkpt lat="42.496724" lon="2.418723">
        <ele>1790.864</ele>
        <time>2022-08-12T07:45:19Z</time>
      </trkpt>
      <trkpt lat="42.496676" lon="2.418759">
        <ele>1791.047</ele>
        <time>2022-08-12T07:45:31Z</time>
      </trkpt>
      <trkpt lat="42.496636" lon="2.418791">
        <ele>1791.529</ele>
        <time>2022-08-12T07:45:36Z</time>
      </trkpt>
      <trkpt lat="42.496595" lon="2.418840">
        <ele>1792.121</ele>
        <time>2022-08-12T07:45:41Z</time>
      </trkpt>
      <trkpt lat="42.496551" lon="2.418888">
        <ele>1793.209</ele>
        <time>2022-08-12T07:45:44Z</time>
      </trkpt>
      <trkpt lat="42.496514" lon="2.418924">
        <ele>1793.995</ele>
        <time>2022-08-12T07:45:47Z</time>
      </trkpt>
      <trkpt lat="42.496476" lon="2.418969">
        <ele>1794.525</ele>
        <time>2022-08-12T07:45:50Z</time>
      </trkpt>
      <trkpt lat="42.496448" lon="2.419020">
        <ele>1795.064</ele>
        <time>2022-08-12T07:45:56Z</time>
      </trkpt>
      <trkpt lat="42.496424" lon="2.419096">
        <ele>1795.288</ele>
        <time>2022-08-12T07:46:06Z</time>
      </trkpt>
      <trkpt lat="42.496389" lon="2.419150">
        <ele>1795.626</ele>
        <time>2022-08-12T07:46:09Z</time>
      </trkpt>
      <trkpt lat="42.496362" lon="2.419209">
        <ele>1796.483</ele>
        <time>2022-08-12T07:46:15Z</time>
      </trkpt>
      <trkpt lat="42.496313" lon="2.419249">
        <ele>1797.970</ele>
        <time>2022-08-12T07:46:19Z</time>
      </trkpt>
      <trkpt lat="42.496257" lon="2.419291">
        <ele>1798.232</ele>
        <time>2022-08-12T07:46:23Z</time>
      </trkpt>
      <trkpt lat="42.496206" lon="2.419321">
        <ele>1798.515</ele>
        <time>2022-08-12T07:46:31Z</time>
      </trkpt>
      <trkpt lat="42.496205" lon="2.419383">
        <ele>1799.052</ele>
        <time>2022-08-12T07:46:53Z</time>
      </trkpt>
      <trkpt lat="42.496172" lon="2.419431">
        <ele>1799.653</ele>
        <time>2022-08-12T07:47:01Z</time>
      </trkpt>
      <trkpt lat="42.496146" lon="2.419485">
        <ele>1801.308</ele>
        <time>2022-08-12T07:47:05Z</time>
      </trkpt>
      <trkpt lat="42.496114" lon="2.419544">
        <ele>1803.709</ele>
        <time>2022-08-12T07:47:09Z</time>
      </trkpt>
      <trkpt lat="42.496067" lon="2.419596">
        <ele>1804.616</ele>
        <time>2022-08-12T07:47:12Z</time>
      </trkpt>
      <trkpt lat="42.496034" lon="2.419643">
        <ele>1804.856</ele>
        <time>2022-08-12T07:47:15Z</time>
      </trkpt>
      <trkpt lat="42.496001" lon="2.419698">
        <ele>1804.825</ele>
        <time>2022-08-12T07:47:21Z</time>
      </trkpt>
      <trkpt lat="42.495990" lon="2.419765">
        <ele>1804.819</ele>
        <time>2022-08-12T07:47:26Z</time>
      </trkpt>
      <trkpt lat="42.495967" lon="2.419848">
        <ele>1805.637</ele>
        <time>2022-08-12T07:47:31Z</time>
      </trkpt>
      <trkpt lat="42.495971" lon="2.419920">
        <ele>1805.794</ele>
        <time>2022-08-12T07:47:42Z</time>
      </trkpt>
      <trkpt lat="42.496021" lon="2.419947">
        <ele>1806.041</ele>
        <time>2022-08-12T07:47:49Z</time>
      </trkpt>
      <trkpt lat="42.496055" lon="2.420001">
        <ele>1807.663</ele>
        <time>2022-08-12T07:47:56Z</time>
      </trkpt>
      <trkpt lat="42.496105" lon="2.420003">
        <ele>1808.546</ele>
        <time>2022-08-12T07:48:00Z</time>
      </trkpt>
      <trkpt lat="42.496136" lon="2.419939">
        <ele>1809.141</ele>
        <time>2022-08-12T07:48:16Z</time>
      </trkpt>
      <trkpt lat="42.496190" lon="2.419919">
        <ele>1809.981</ele>
        <time>2022-08-12T07:48:23Z</time>
      </trkpt>
      <trkpt lat="42.496151" lon="2.419884">
        <ele>1810.409</ele>
        <time>2022-08-12T07:48:33Z</time>
      </trkpt>
      <trkpt lat="42.496205" lon="2.419864">
        <ele>1811.509</ele>
        <time>2022-08-12T07:48:40Z</time>
      </trkpt>
      <trkpt lat="42.496253" lon="2.419828">
        <ele>1813.315</ele>
        <time>2022-08-12T07:48:43Z</time>
      </trkpt>
      <trkpt lat="42.496307" lon="2.419829">
        <ele>1813.825</ele>
        <time>2022-08-12T07:48:46Z</time>
      </trkpt>
      <trkpt lat="42.496361" lon="2.419820">
        <ele>1814.414</ele>
        <time>2022-08-12T07:48:54Z</time>
      </trkpt>
      <trkpt lat="42.496361" lon="2.419756">
        <ele>1814.888</ele>
        <time>2022-08-12T07:49:06Z</time>
      </trkpt>
      <trkpt lat="42.496339" lon="2.419688">
        <ele>1815.686</ele>
        <time>2022-08-12T07:49:09Z</time>
      </trkpt>
      <trkpt lat="42.496291" lon="2.419678">
        <ele>1816.833</ele>
        <time>2022-08-12T07:49:15Z</time>
      </trkpt>
      <trkpt lat="42.496340" lon="2.419670">
        <ele>1817.560</ele>
        <time>2022-08-12T07:49:23Z</time>
      </trkpt>
      <trkpt lat="42.496330" lon="2.419737">
        <ele>1817.962</ele>
        <time>2022-08-12T07:49:31Z</time>
      </trkpt>
      <trkpt lat="42.496364" lon="2.419790">
        <ele>1818.745</ele>
        <time>2022-08-12T07:49:35Z</time>
      </trkpt>
      <trkpt lat="42.496369" lon="2.419874">
        <ele>1819.683</ele>
        <time>2022-08-12T07:49:41Z</time>
      </trkpt>
      <trkpt lat="42.496370" lon="2.419937">
        <ele>1820.225</ele>
        <time>2022-08-12T07:49:44Z</time>
      </trkpt>
      <trkpt lat="42.496402" lon="2.419985">
        <ele>1820.817</ele>
        <time>2022-08-12T07:49:47Z</time>
      </trkpt>
      <trkpt lat="42.496426" lon="2.420055">
        <ele>1821.409</ele>
        <time>2022-08-12T07:49:53Z</time>
      </trkpt>
      <trkpt lat="42.496425" lon="2.420130">
        <ele>1821.659</ele>
        <time>2022-08-12T07:49:56Z</time>
      </trkpt>
      <trkpt lat="42.496470" lon="2.420161">
        <ele>1822.239</ele>
        <time>2022-08-12T07:50:12Z</time>
      </trkpt>
      <trkpt lat="42.496508" lon="2.420127">
        <ele>1823.118</ele>
        <time>2022-08-12T07:50:18Z</time>
      </trkpt>
      <trkpt lat="42.496553" lon="2.420146">
        <ele>1824.472</ele>
        <time>2022-08-12T07:50:28Z</time>
      </trkpt>
      <trkpt lat="42.496594" lon="2.420177">
        <ele>1825.570</ele>
        <time>2022-08-12T07:50:31Z</time>
      </trkpt>
      <trkpt lat="42.496627" lon="2.420227">
        <ele>1826.477</ele>
        <time>2022-08-12T07:50:35Z</time>
      </trkpt>
      <trkpt lat="42.496638" lon="2.420294">
        <ele>1827.374</ele>
        <time>2022-08-12T07:50:40Z</time>
      </trkpt>
      <trkpt lat="42.496641" lon="2.420376">
        <ele>1827.796</ele>
        <time>2022-08-12T07:50:42Z</time>
      </trkpt>
      <trkpt lat="42.496670" lon="2.420455">
        <ele>1828.689</ele>
        <time>2022-08-12T07:50:46Z</time>
      </trkpt>
      <trkpt lat="42.496700" lon="2.420504">
        <ele>1828.983</ele>
        <time>2022-08-12T07:50:48Z</time>
      </trkpt>
      <trkpt lat="42.496744" lon="2.420539">
        <ele>1829.425</ele>
        <time>2022-08-12T07:50:50Z</time>
      </trkpt>
      <trkpt lat="42.496798" lon="2.420563">
        <ele>1829.417</ele>
        <time>2022-08-12T07:50:52Z</time>
      </trkpt>
      <trkpt lat="42.496842" lon="2.420589">
        <ele>1829.809</ele>
        <time>2022-08-12T07:50:54Z</time>
      </trkpt>
      <trkpt lat="42.496889" lon="2.420610">
        <ele>1830.339</ele>
        <time>2022-08-12T07:50:58Z</time>
      </trkpt>
      <trkpt lat="42.496938" lon="2.420598">
        <ele>1830.549</ele>
        <time>2022-08-12T07:51:01Z</time>
      </trkpt>
      <trkpt lat="42.496992" lon="2.420662">
        <ele>1831.278</ele>
        <time>2022-08-12T07:51:11Z</time>
      </trkpt>
      <trkpt lat="42.497041" lon="2.420687">
        <ele>1831.622</ele>
        <time>2022-08-12T07:51:15Z</time>
      </trkpt>
      <trkpt lat="42.497076" lon="2.420735">
        <ele>1832.290</ele>
        <time>2022-08-12T07:51:19Z</time>
      </trkpt>
      <trkpt lat="42.497119" lon="2.420785">
        <ele>1832.657</ele>
        <time>2022-08-12T07:51:24Z</time>
      </trkpt>
      <trkpt lat="42.497180" lon="2.420802">
        <ele>1833.014</ele>
        <time>2022-08-12T07:51:28Z</time>
      </trkpt>
      <trkpt lat="42.497238" lon="2.420814">
        <ele>1833.366</ele>
        <time>2022-08-12T07:51:32Z</time>
      </trkpt>
      <trkpt lat="42.497286" lon="2.420810">
        <ele>1833.789</ele>
        <time>2022-08-12T07:51:34Z</time>
      </trkpt>
      <trkpt lat="42.497340" lon="2.420802">
        <ele>1834.545</ele>
        <time>2022-08-12T07:51:36Z</time>
      </trkpt>
      <trkpt lat="42.497398" lon="2.420798">
        <ele>1834.647</ele>
        <time>2022-08-12T07:51:39Z</time>
      </trkpt>
      <trkpt lat="42.497454" lon="2.420786">
        <ele>1835.011</ele>
        <time>2022-08-12T07:52:01Z</time>
      </trkpt>
      <trkpt lat="42.497501" lon="2.420765">
        <ele>1835.209</ele>
        <time>2022-08-12T07:52:06Z</time>
      </trkpt>
      <trkpt lat="42.497548" lon="2.420770">
        <ele>1836.975</ele>
        <time>2022-08-12T07:52:09Z</time>
      </trkpt>
      <trkpt lat="42.497596" lon="2.420794">
        <ele>1838.635</ele>
        <time>2022-08-12T07:52:12Z</time>
      </trkpt>
      <trkpt lat="42.497602" lon="2.420855">
        <ele>1838.924</ele>
        <time>2022-08-12T07:52:17Z</time>
      </trkpt>
      <trkpt lat="42.497627" lon="2.420908">
        <ele>1839.158</ele>
        <time>2022-08-12T07:52:21Z</time>
      </trkpt>
      <trkpt lat="42.497677" lon="2.420923">
        <ele>1839.316</ele>
        <time>2022-08-12T07:52:24Z</time>
      </trkpt>
      <trkpt lat="42.497722" lon="2.420916">
        <ele>1839.363</ele>
        <time>2022-08-12T07:52:29Z</time>
      </trkpt>
      <trkpt lat="42.497771" lon="2.420904">
        <ele>1839.460</ele>
        <time>2022-08-12T07:52:34Z</time>
      </trkpt>
      <trkpt lat="42.497816" lon="2.420927">
        <ele>1839.822</ele>
        <time>2022-08-12T07:52:41Z</time>
      </trkpt>
      <trkpt lat="42.497864" lon="2.420898">
        <ele>1840.465</ele>
        <time>2022-08-12T07:52:44Z</time>
      </trkpt>
      <trkpt lat="42.497917" lon="2.420912">
        <ele>1841.223</ele>
        <time>2022-08-12T07:52:46Z</time>
      </trkpt>
      <trkpt lat="42.497958" lon="2.420948">
        <ele>1841.983</ele>
        <time>2022-08-12T07:52:52Z</time>
      </trkpt>
      <trkpt lat="42.498006" lon="2.420966">
        <ele>1842.211</ele>
        <time>2022-08-12T07:52:58Z</time>
      </trkpt>
      <trkpt lat="42.498019" lon="2.421026">
        <ele>1842.709</ele>
        <time>2022-08-12T07:53:01Z</time>
      </trkpt>
      <trkpt lat="42.498032" lon="2.421109">
        <ele>1843.333</ele>
        <time>2022-08-12T07:53:04Z</time>
      </trkpt>
      <trkpt lat="42.498035" lon="2.421183">
        <ele>1843.833</ele>
        <time>2022-08-12T07:53:08Z</time>
      </trkpt>
      <trkpt lat="42.498039" lon="2.421244">
        <ele>1844.112</ele>
        <time>2022-08-12T07:53:11Z</time>
      </trkpt>
      <trkpt lat="42.498096" lon="2.421251">
        <ele>1844.376</ele>
        <time>2022-08-12T07:53:18Z</time>
      </trkpt>
      <trkpt lat="42.498147" lon="2.421296">
        <ele>1845.224</ele>
        <time>2022-08-12T07:53:21Z</time>
      </trkpt>
      <trkpt lat="42.498194" lon="2.421312">
        <ele>1845.351</ele>
        <time>2022-08-12T07:53:27Z</time>
      </trkpt>
      <trkpt lat="42.498240" lon="2.421323">
        <ele>1845.658</ele>
        <time>2022-08-12T07:53:34Z</time>
      </trkpt>
      <trkpt lat="42.498274" lon="2.421366">
        <ele>1846.120</ele>
        <time>2022-08-12T07:53:40Z</time>
      </trkpt>
      <trkpt lat="42.498246" lon="2.421425">
        <ele>1846.483</ele>
        <time>2022-08-12T07:53:49Z</time>
      </trkpt>
      <trkpt lat="42.498211" lon="2.421478">
        <ele>1846.782</ele>
        <time>2022-08-12T07:53:58Z</time>
      </trkpt>
      <trkpt lat="42.498203" lon="2.421546">
        <ele>1847.443</ele>
        <time>2022-08-12T07:54:03Z</time>
      </trkpt>
      <trkpt lat="42.498197" lon="2.421616">
        <ele>1848.317</ele>
        <time>2022-08-12T07:54:14Z</time>
      </trkpt>
      <trkpt lat="42.498188" lon="2.421680">
        <ele>1848.909</ele>
        <time>2022-08-12T07:54:20Z</time>
      </trkpt>
      <trkpt lat="42.498196" lon="2.421754">
        <ele>1849.669</ele>
        <time>2022-08-12T07:54:25Z</time>
      </trkpt>
      <trkpt lat="42.498203" lon="2.421815">
        <ele>1850.649</ele>
        <time>2022-08-12T07:54:29Z</time>
      </trkpt>
      <trkpt lat="42.498196" lon="2.421886">
        <ele>1851.338</ele>
        <time>2022-08-12T07:54:33Z</time>
      </trkpt>
      <trkpt lat="42.498169" lon="2.421949">
        <ele>1851.552</ele>
        <time>2022-08-12T07:54:36Z</time>
      </trkpt>
      <trkpt lat="42.498150" lon="2.422014">
        <ele>1852.160</ele>
        <time>2022-08-12T07:54:44Z</time>
      </trkpt>
      <trkpt lat="42.498139" lon="2.422081">
        <ele>1852.747</ele>
        <time>2022-08-12T07:54:51Z</time>
      </trkpt>
      <trkpt lat="42.498119" lon="2.422141">
        <ele>1853.054</ele>
        <time>2022-08-12T07:54:57Z</time>
      </trkpt>
      <trkpt lat="42.498135" lon="2.422200">
        <ele>1853.916</ele>
        <time>2022-08-12T07:55:02Z</time>
      </trkpt>
      <trkpt lat="42.498151" lon="2.422267">
        <ele>1854.759</ele>
        <time>2022-08-12T07:55:08Z</time>
      </trkpt>
      <trkpt lat="42.498189" lon="2.422318">
        <ele>1855.059</ele>
        <time>2022-08-12T07:55:16Z</time>
      </trkpt>
      <trkpt lat="42.498208" lon="2.422374">
        <ele>1855.803</ele>
        <time>2022-08-12T07:55:24Z</time>
      </trkpt>
      <trkpt lat="42.498233" lon="2.422454">
        <ele>1856.823</ele>
        <time>2022-08-12T07:55:28Z</time>
      </trkpt>
      <trkpt lat="42.498267" lon="2.422508">
        <ele>1857.609</ele>
        <time>2022-08-12T07:55:31Z</time>
      </trkpt>
      <trkpt lat="42.498320" lon="2.422516">
        <ele>1858.266</ele>
        <time>2022-08-12T07:55:39Z</time>
      </trkpt>
      <trkpt lat="42.498307" lon="2.422598">
        <ele>1858.696</ele>
        <time>2022-08-12T07:55:44Z</time>
      </trkpt>
      <trkpt lat="42.498308" lon="2.422665">
        <ele>1859.635</ele>
        <time>2022-08-12T07:55:46Z</time>
      </trkpt>
      <trkpt lat="42.498299" lon="2.422748">
        <ele>1860.019</ele>
        <time>2022-08-12T07:55:50Z</time>
      </trkpt>
      <trkpt lat="42.498309" lon="2.422810">
        <ele>1860.167</ele>
        <time>2022-08-12T07:55:54Z</time>
      </trkpt>
      <trkpt lat="42.498341" lon="2.422853">
        <ele>1860.234</ele>
        <time>2022-08-12T07:55:56Z</time>
      </trkpt>
      <trkpt lat="42.498389" lon="2.422885">
        <ele>1860.381</ele>
        <time>2022-08-12T07:55:59Z</time>
      </trkpt>
      <trkpt lat="42.498440" lon="2.422905">
        <ele>1860.593</ele>
        <time>2022-08-12T07:56:01Z</time>
      </trkpt>
      <trkpt lat="42.498492" lon="2.422924">
        <ele>1860.996</ele>
        <time>2022-08-12T07:56:03Z</time>
      </trkpt>
      <trkpt lat="42.498527" lon="2.422963">
        <ele>1861.581</ele>
        <time>2022-08-12T07:56:06Z</time>
      </trkpt>
      <trkpt lat="42.498544" lon="2.423037">
        <ele>1861.861</ele>
        <time>2022-08-12T07:56:10Z</time>
      </trkpt>
      <trkpt lat="42.498516" lon="2.423094">
        <ele>1862.017</ele>
        <time>2022-08-12T07:56:14Z</time>
      </trkpt>
      <trkpt lat="42.498500" lon="2.423169">
        <ele>1862.509</ele>
        <time>2022-08-12T07:56:17Z</time>
      </trkpt>
      <trkpt lat="42.498496" lon="2.423232">
        <ele>1862.959</ele>
        <time>2022-08-12T07:56:21Z</time>
      </trkpt>
      <trkpt lat="42.498493" lon="2.423299">
        <ele>1863.279</ele>
        <time>2022-08-12T07:56:34Z</time>
      </trkpt>
      <trkpt lat="42.498452" lon="2.423369">
        <ele>1864.168</ele>
        <time>2022-08-12T07:56:37Z</time>
      </trkpt>
      <trkpt lat="42.498432" lon="2.423424">
        <ele>1864.772</ele>
        <time>2022-08-12T07:56:39Z</time>
      </trkpt>
      <trkpt lat="42.498404" lon="2.423477">
        <ele>1865.460</ele>
        <time>2022-08-12T07:56:41Z</time>
      </trkpt>
      <trkpt lat="42.498398" lon="2.423542">
        <ele>1866.027</ele>
        <time>2022-08-12T07:56:44Z</time>
      </trkpt>
      <trkpt lat="42.498400" lon="2.423604">
        <ele>1866.514</ele>
        <time>2022-08-12T07:56:48Z</time>
      </trkpt>
      <trkpt lat="42.498423" lon="2.423658">
        <ele>1866.626</ele>
        <time>2022-08-12T07:56:54Z</time>
      </trkpt>
      <trkpt lat="42.498473" lon="2.423683">
        <ele>1866.739</ele>
        <time>2022-08-12T07:56:58Z</time>
      </trkpt>
      <trkpt lat="42.498481" lon="2.423746">
        <ele>1867.284</ele>
        <time>2022-08-12T07:57:06Z</time>
      </trkpt>
      <trkpt lat="42.498454" lon="2.423801">
        <ele>1867.907</ele>
        <time>2022-08-12T07:57:23Z</time>
      </trkpt>
      <trkpt lat="42.498472" lon="2.423857">
        <ele>1868.517</ele>
        <time>2022-08-12T07:57:28Z</time>
      </trkpt>
      <trkpt lat="42.498500" lon="2.423923">
        <ele>1869.309</ele>
        <time>2022-08-12T07:57:33Z</time>
      </trkpt>
      <trkpt lat="42.498522" lon="2.423979">
        <ele>1870.059</ele>
        <time>2022-08-12T07:57:37Z</time>
      </trkpt>
      <trkpt lat="42.498544" lon="2.424044">
        <ele>1870.469</ele>
        <time>2022-08-12T07:57:43Z</time>
      </trkpt>
      <trkpt lat="42.498505" lon="2.424096">
        <ele>1870.428</ele>
        <time>2022-08-12T07:57:49Z</time>
      </trkpt>
      <trkpt lat="42.498456" lon="2.424163">
        <ele>1871.062</ele>
        <time>2022-08-12T07:57:51Z</time>
      </trkpt>
      <trkpt lat="42.498450" lon="2.424235">
        <ele>1871.180</ele>
        <time>2022-08-12T07:58:04Z</time>
      </trkpt>
      <trkpt lat="42.498501" lon="2.424284">
        <ele>1871.387</ele>
        <time>2022-08-12T07:58:08Z</time>
      </trkpt>
      <trkpt lat="42.498530" lon="2.424331">
        <ele>1872.684</ele>
        <time>2022-08-12T07:58:10Z</time>
      </trkpt>
      <trkpt lat="42.498484" lon="2.424368">
        <ele>1873.086</ele>
        <time>2022-08-12T07:58:13Z</time>
      </trkpt>
      <trkpt lat="42.498480" lon="2.424445">
        <ele>1873.139</ele>
        <time>2022-08-12T07:58:18Z</time>
      </trkpt>
      <trkpt lat="42.498463" lon="2.424502">
        <ele>1873.256</ele>
        <time>2022-08-12T07:58:23Z</time>
      </trkpt>
      <trkpt lat="42.498444" lon="2.424558">
        <ele>1873.759</ele>
        <time>2022-08-12T07:58:25Z</time>
      </trkpt>
      <trkpt lat="42.498431" lon="2.424617">
        <ele>1874.314</ele>
        <time>2022-08-12T07:58:30Z</time>
      </trkpt>
      <trkpt lat="42.498394" lon="2.424658">
        <ele>1874.609</ele>
        <time>2022-08-12T07:58:36Z</time>
      </trkpt>
      <trkpt lat="42.498356" lon="2.424699">
        <ele>1874.776</ele>
        <time>2022-08-12T07:58:40Z</time>
      </trkpt>
      <trkpt lat="42.498368" lon="2.424784">
        <ele>1875.136</ele>
        <time>2022-08-12T07:58:49Z</time>
      </trkpt>
      <trkpt lat="42.498371" lon="2.424851">
        <ele>1875.735</ele>
        <time>2022-08-12T07:59:00Z</time>
      </trkpt>
      <trkpt lat="42.498342" lon="2.424901">
        <ele>1876.419</ele>
        <time>2022-08-12T07:59:04Z</time>
      </trkpt>
      <trkpt lat="42.498315" lon="2.424960">
        <ele>1877.317</ele>
        <time>2022-08-12T07:59:10Z</time>
      </trkpt>
      <trkpt lat="42.498325" lon="2.425023">
        <ele>1878.124</ele>
        <time>2022-08-12T07:59:15Z</time>
      </trkpt>
      <trkpt lat="42.498330" lon="2.425086">
        <ele>1878.631</ele>
        <time>2022-08-12T07:59:19Z</time>
      </trkpt>
      <trkpt lat="42.498306" lon="2.425141">
        <ele>1879.293</ele>
        <time>2022-08-12T07:59:23Z</time>
      </trkpt>
      <trkpt lat="42.498280" lon="2.425192">
        <ele>1879.856</ele>
        <time>2022-08-12T07:59:26Z</time>
      </trkpt>
      <trkpt lat="42.498310" lon="2.425259">
        <ele>1880.143</ele>
        <time>2022-08-12T07:59:36Z</time>
      </trkpt>
      <trkpt lat="42.498333" lon="2.425320">
        <ele>1880.764</ele>
        <time>2022-08-12T07:59:41Z</time>
      </trkpt>
      <trkpt lat="42.498345" lon="2.425379">
        <ele>1881.410</ele>
        <time>2022-08-12T07:59:44Z</time>
      </trkpt>
      <trkpt lat="42.498395" lon="2.425409">
        <ele>1882.109</ele>
        <time>2022-08-12T07:59:47Z</time>
      </trkpt>
      <trkpt lat="42.498452" lon="2.425467">
        <ele>1882.745</ele>
        <time>2022-08-12T07:59:49Z</time>
      </trkpt>
      <trkpt lat="42.498487" lon="2.425509">
        <ele>1882.995</ele>
        <time>2022-08-12T07:59:55Z</time>
      </trkpt>
      <trkpt lat="42.498531" lon="2.425525">
        <ele>1883.414</ele>
        <time>2022-08-12T08:00:00Z</time>
      </trkpt>
      <trkpt lat="42.498485" lon="2.425571">
        <ele>1883.878</ele>
        <time>2022-08-12T08:00:05Z</time>
      </trkpt>
      <trkpt lat="42.498471" lon="2.425629">
        <ele>1884.256</ele>
        <time>2022-08-12T08:00:11Z</time>
      </trkpt>
      <trkpt lat="42.498481" lon="2.425705">
        <ele>1884.913</ele>
        <time>2022-08-12T08:00:15Z</time>
      </trkpt>
      <trkpt lat="42.498509" lon="2.425767">
        <ele>1885.320</ele>
        <time>2022-08-12T08:00:23Z</time>
      </trkpt>
      <trkpt lat="42.498541" lon="2.425831">
        <ele>1885.772</ele>
        <time>2022-08-12T08:00:27Z</time>
      </trkpt>
      <trkpt lat="42.498502" lon="2.425863">
        <ele>1885.965</ele>
        <time>2022-08-12T08:00:38Z</time>
      </trkpt>
      <trkpt lat="42.498533" lon="2.425920">
        <ele>1886.184</ele>
        <time>2022-08-12T08:00:43Z</time>
      </trkpt>
      <trkpt lat="42.498530" lon="2.425991">
        <ele>1886.807</ele>
        <time>2022-08-12T08:00:48Z</time>
      </trkpt>
      <trkpt lat="42.498552" lon="2.426050">
        <ele>1887.617</ele>
        <time>2022-08-12T08:00:51Z</time>
      </trkpt>
      <trkpt lat="42.498564" lon="2.426128">
        <ele>1887.909</ele>
        <time>2022-08-12T08:00:56Z</time>
      </trkpt>
      <trkpt lat="42.498520" lon="2.426171">
        <ele>1888.449</ele>
        <time>2022-08-12T08:00:59Z</time>
      </trkpt>
      <trkpt lat="42.498491" lon="2.426229">
        <ele>1888.859</ele>
        <time>2022-08-12T08:01:02Z</time>
      </trkpt>
      <trkpt lat="42.498507" lon="2.426294">
        <ele>1889.128</ele>
        <time>2022-08-12T08:01:07Z</time>
      </trkpt>
      <trkpt lat="42.498543" lon="2.426349">
        <ele>1889.832</ele>
        <time>2022-08-12T08:01:11Z</time>
      </trkpt>
      <trkpt lat="42.498580" lon="2.426404">
        <ele>1890.040</ele>
        <time>2022-08-12T08:01:14Z</time>
      </trkpt>
      <trkpt lat="42.498595" lon="2.426464">
        <ele>1890.317</ele>
        <time>2022-08-12T08:01:18Z</time>
      </trkpt>
      <trkpt lat="42.498572" lon="2.426526">
        <ele>1890.644</ele>
        <time>2022-08-12T08:01:23Z</time>
      </trkpt>
      <trkpt lat="42.498504" lon="2.426591">
        <ele>1891.326</ele>
        <time>2022-08-12T08:01:31Z</time>
      </trkpt>
      <trkpt lat="42.498514" lon="2.426654">
        <ele>1891.949</ele>
        <time>2022-08-12T08:01:43Z</time>
      </trkpt>
      <trkpt lat="42.498477" lon="2.426710">
        <ele>1892.314</ele>
        <time>2022-08-12T08:01:53Z</time>
      </trkpt>
      <trkpt lat="42.498466" lon="2.426771">
        <ele>1893.954</ele>
        <time>2022-08-12T08:01:57Z</time>
      </trkpt>
      <trkpt lat="42.498509" lon="2.426813">
        <ele>1894.509</ele>
        <time>2022-08-12T08:02:03Z</time>
      </trkpt>
      <trkpt lat="42.498557" lon="2.426850">
        <ele>1894.509</ele>
        <time>2022-08-12T08:02:13Z</time>
      </trkpt>
      <trkpt lat="42.498577" lon="2.426907">
        <ele>1895.012</ele>
        <time>2022-08-12T08:02:15Z</time>
      </trkpt>
      <trkpt lat="42.498608" lon="2.426965">
        <ele>1896.152</ele>
        <time>2022-08-12T08:02:18Z</time>
      </trkpt>
      <trkpt lat="42.498613" lon="2.427037">
        <ele>1896.851</ele>
        <time>2022-08-12T08:02:21Z</time>
      </trkpt>
      <trkpt lat="42.498637" lon="2.427110">
        <ele>1896.915</ele>
        <time>2022-08-12T08:02:24Z</time>
      </trkpt>
      <trkpt lat="42.498682" lon="2.427157">
        <ele>1897.393</ele>
        <time>2022-08-12T08:02:27Z</time>
      </trkpt>
      <trkpt lat="42.498729" lon="2.427197">
        <ele>1897.910</ele>
        <time>2022-08-12T08:02:32Z</time>
      </trkpt>
      <trkpt lat="42.498759" lon="2.427245">
        <ele>1897.947</ele>
        <time>2022-08-12T08:02:38Z</time>
      </trkpt>
      <trkpt lat="42.498752" lon="2.427313">
        <ele>1898.019</ele>
        <time>2022-08-12T08:02:46Z</time>
      </trkpt>
      <trkpt lat="42.498779" lon="2.427372">
        <ele>1898.492</ele>
        <time>2022-08-12T08:02:51Z</time>
      </trkpt>
      <trkpt lat="42.498790" lon="2.427443">
        <ele>1899.124</ele>
        <time>2022-08-12T08:02:54Z</time>
      </trkpt>
      <trkpt lat="42.498798" lon="2.427505">
        <ele>1899.704</ele>
        <time>2022-08-12T08:02:58Z</time>
      </trkpt>
      <trkpt lat="42.498809" lon="2.427568">
        <ele>1900.314</ele>
        <time>2022-08-12T08:03:03Z</time>
      </trkpt>
      <trkpt lat="42.498818" lon="2.427636">
        <ele>1900.809</ele>
        <time>2022-08-12T08:03:07Z</time>
      </trkpt>
      <trkpt lat="42.498839" lon="2.427691">
        <ele>1900.953</ele>
        <time>2022-08-12T08:03:13Z</time>
      </trkpt>
      <trkpt lat="42.498848" lon="2.427751">
        <ele>1901.293</ele>
        <time>2022-08-12T08:03:18Z</time>
      </trkpt>
      <trkpt lat="42.498858" lon="2.427811">
        <ele>1901.912</ele>
        <time>2022-08-12T08:03:24Z</time>
      </trkpt>
      <trkpt lat="42.498868" lon="2.427877">
        <ele>1902.416</ele>
        <time>2022-08-12T08:03:28Z</time>
      </trkpt>
      <trkpt lat="42.498887" lon="2.427940">
        <ele>1902.794</ele>
        <time>2022-08-12T08:03:32Z</time>
      </trkpt>
      <trkpt lat="42.498910" lon="2.428001">
        <ele>1903.111</ele>
        <time>2022-08-12T08:03:38Z</time>
      </trkpt>
      <trkpt lat="42.498928" lon="2.428059">
        <ele>1903.518</ele>
        <time>2022-08-12T08:03:43Z</time>
      </trkpt>
      <trkpt lat="42.498932" lon="2.428126">
        <ele>1903.770</ele>
        <time>2022-08-12T08:03:48Z</time>
      </trkpt>
      <trkpt lat="42.498913" lon="2.428191">
        <ele>1903.883</ele>
        <time>2022-08-12T08:03:52Z</time>
      </trkpt>
      <trkpt lat="42.498916" lon="2.428257">
        <ele>1903.924</ele>
        <time>2022-08-12T08:04:00Z</time>
      </trkpt>
      <trkpt lat="42.498915" lon="2.428331">
        <ele>1904.004</ele>
        <time>2022-08-12T08:04:05Z</time>
      </trkpt>
      <trkpt lat="42.498909" lon="2.428393">
        <ele>1904.514</ele>
        <time>2022-08-12T08:04:08Z</time>
      </trkpt>
      <trkpt lat="42.498911" lon="2.428456">
        <ele>1905.109</ele>
        <time>2022-08-12T08:04:14Z</time>
      </trkpt>
      <trkpt lat="42.498900" lon="2.428529">
        <ele>1905.393</ele>
        <time>2022-08-12T08:04:20Z</time>
      </trkpt>
      <trkpt lat="42.498888" lon="2.428602">
        <ele>1905.493</ele>
        <time>2022-08-12T08:04:25Z</time>
      </trkpt>
      <trkpt lat="42.498873" lon="2.428663">
        <ele>1905.682</ele>
        <time>2022-08-12T08:04:35Z</time>
      </trkpt>
      <trkpt lat="42.498887" lon="2.428737">
        <ele>1906.066</ele>
        <time>2022-08-12T08:04:43Z</time>
      </trkpt>
      <trkpt lat="42.498922" lon="2.428789">
        <ele>1906.784</ele>
        <time>2022-08-12T08:04:47Z</time>
      </trkpt>
      <trkpt lat="42.498939" lon="2.428847">
        <ele>1907.251</ele>
        <time>2022-08-12T08:04:51Z</time>
      </trkpt>
      <trkpt lat="42.498960" lon="2.428901">
        <ele>1907.538</ele>
        <time>2022-08-12T08:04:55Z</time>
      </trkpt>
      <trkpt lat="42.498990" lon="2.428950">
        <ele>1907.840</ele>
        <time>2022-08-12T08:04:59Z</time>
      </trkpt>
      <trkpt lat="42.499030" lon="2.428999">
        <ele>1908.153</ele>
        <time>2022-08-12T08:05:04Z</time>
      </trkpt>
      <trkpt lat="42.499073" lon="2.429026">
        <ele>1908.498</ele>
        <time>2022-08-12T08:05:09Z</time>
      </trkpt>
      <trkpt lat="42.499093" lon="2.429087">
        <ele>1908.515</ele>
        <time>2022-08-12T08:05:14Z</time>
      </trkpt>
      <trkpt lat="42.499101" lon="2.429163">
        <ele>1908.726</ele>
        <time>2022-08-12T08:05:18Z</time>
      </trkpt>
      <trkpt lat="42.499089" lon="2.429225">
        <ele>1908.809</ele>
        <time>2022-08-12T08:05:26Z</time>
      </trkpt>
      <trkpt lat="42.499075" lon="2.429284">
        <ele>1908.980</ele>
        <time>2022-08-12T08:05:30Z</time>
      </trkpt>
      <trkpt lat="42.499049" lon="2.429336">
        <ele>1909.070</ele>
        <time>2022-08-12T08:05:45Z</time>
      </trkpt>
      <trkpt lat="42.499012" lon="2.429385">
        <ele>1909.139</ele>
        <time>2022-08-12T08:05:52Z</time>
      </trkpt>
      <trkpt lat="42.499003" lon="2.429452">
        <ele>1910.483</ele>
        <time>2022-08-12T08:06:05Z</time>
      </trkpt>
      <trkpt lat="42.498994" lon="2.429521">
        <ele>1911.741</ele>
        <time>2022-08-12T08:06:10Z</time>
      </trkpt>
      <trkpt lat="42.498968" lon="2.429573">
        <ele>1911.788</ele>
        <time>2022-08-12T08:06:13Z</time>
      </trkpt>
      <trkpt lat="42.498963" lon="2.429638">
        <ele>1911.815</ele>
        <time>2022-08-12T08:06:19Z</time>
      </trkpt>
      <trkpt lat="42.498926" lon="2.429688">
        <ele>1911.927</ele>
        <time>2022-08-12T08:06:22Z</time>
      </trkpt>
      <trkpt lat="42.498888" lon="2.429732">
        <ele>1912.050</ele>
        <time>2022-08-12T08:06:29Z</time>
      </trkpt>
      <trkpt lat="42.498854" lon="2.429773">
        <ele>1912.563</ele>
        <time>2022-08-12T08:06:35Z</time>
      </trkpt>
      <trkpt lat="42.498864" lon="2.429835">
        <ele>1913.444</ele>
        <time>2022-08-12T08:06:41Z</time>
      </trkpt>
      <trkpt lat="42.498905" lon="2.429869">
        <ele>1914.418</ele>
        <time>2022-08-12T08:06:46Z</time>
      </trkpt>
      <trkpt lat="42.498916" lon="2.429937">
        <ele>1915.409</ele>
        <time>2022-08-12T08:06:52Z</time>
      </trkpt>
      <trkpt lat="42.498900" lon="2.430008">
        <ele>1915.717</ele>
        <time>2022-08-12T08:06:55Z</time>
      </trkpt>
      <trkpt lat="42.498890" lon="2.430076">
        <ele>1915.997</ele>
        <time>2022-08-12T08:06:58Z</time>
      </trkpt>
      <trkpt lat="42.498877" lon="2.430141">
        <ele>1916.166</ele>
        <time>2022-08-12T08:07:03Z</time>
      </trkpt>
      <trkpt lat="42.498925" lon="2.430151">
        <ele>1916.190</ele>
        <time>2022-08-12T08:07:15Z</time>
      </trkpt>
      <trkpt lat="42.498962" lon="2.430199">
        <ele>1916.188</ele>
        <time>2022-08-12T08:07:21Z</time>
      </trkpt>
      <trkpt lat="42.499010" lon="2.430213">
        <ele>1916.115</ele>
        <time>2022-08-12T08:07:27Z</time>
      </trkpt>
      <trkpt lat="42.499048" lon="2.430252">
        <ele>1916.072</ele>
        <time>2022-08-12T08:07:31Z</time>
      </trkpt>
      <trkpt lat="42.499102" lon="2.430307">
        <ele>1916.194</ele>
        <time>2022-08-12T08:07:34Z</time>
      </trkpt>
      <trkpt lat="42.499150" lon="2.430334">
        <ele>1916.197</ele>
        <time>2022-08-12T08:07:37Z</time>
      </trkpt>
      <trkpt lat="42.499199" lon="2.430361">
        <ele>1916.336</ele>
        <time>2022-08-12T08:07:40Z</time>
      </trkpt>
      <trkpt lat="42.499263" lon="2.430378">
        <ele>1916.417</ele>
        <time>2022-08-12T08:07:43Z</time>
      </trkpt>
      <trkpt lat="42.499301" lon="2.430423">
        <ele>1916.618</ele>
        <time>2022-08-12T08:07:46Z</time>
      </trkpt>
      <trkpt lat="42.499350" lon="2.430435">
        <ele>1916.609</ele>
        <time>2022-08-12T08:07:58Z</time>
      </trkpt>
      <trkpt lat="42.499392" lon="2.430466">
        <ele>1916.694</ele>
        <time>2022-08-12T08:08:00Z</time>
      </trkpt>
      <trkpt lat="42.499457" lon="2.430507">
        <ele>1916.684</ele>
        <time>2022-08-12T08:08:04Z</time>
      </trkpt>
      <trkpt lat="42.499529" lon="2.430525">
        <ele>1916.953</ele>
        <time>2022-08-12T08:08:07Z</time>
      </trkpt>
      <trkpt lat="42.499581" lon="2.430550">
        <ele>1917.337</ele>
        <time>2022-08-12T08:08:09Z</time>
      </trkpt>
      <trkpt lat="42.499626" lon="2.430538">
        <ele>1917.315</ele>
        <time>2022-08-12T08:08:11Z</time>
      </trkpt>
      <trkpt lat="42.499605" lon="2.430603">
        <ele>1917.322</ele>
        <time>2022-08-12T08:08:14Z</time>
      </trkpt>
      <trkpt lat="42.499620" lon="2.430679">
        <ele>1917.359</ele>
        <time>2022-08-12T08:08:21Z</time>
      </trkpt>
      <trkpt lat="42.499648" lon="2.430758">
        <ele>1917.141</ele>
        <time>2022-08-12T08:08:23Z</time>
      </trkpt>
      <trkpt lat="42.499681" lon="2.430819">
        <ele>1917.114</ele>
        <time>2022-08-12T08:08:26Z</time>
      </trkpt>
      <trkpt lat="42.499690" lon="2.430916">
        <ele>1917.196</ele>
        <time>2022-08-12T08:08:32Z</time>
      </trkpt>
      <trkpt lat="42.499645" lon="2.430963">
        <ele>1917.131</ele>
        <time>2022-08-12T08:08:36Z</time>
      </trkpt>
      <trkpt lat="42.499609" lon="2.431008">
        <ele>1917.524</ele>
        <time>2022-08-12T08:08:39Z</time>
      </trkpt>
      <trkpt lat="42.499583" lon="2.431059">
        <ele>1918.009</ele>
        <time>2022-08-12T08:08:45Z</time>
      </trkpt>
      <trkpt lat="42.499567" lon="2.431116">
        <ele>1918.130</ele>
        <time>2022-08-12T08:08:49Z</time>
      </trkpt>
      <trkpt lat="42.499548" lon="2.431175">
        <ele>1918.230</ele>
        <time>2022-08-12T08:08:52Z</time>
      </trkpt>
      <trkpt lat="42.499543" lon="2.431237">
        <ele>1918.549</ele>
        <time>2022-08-12T08:08:56Z</time>
      </trkpt>
      <trkpt lat="42.499551" lon="2.431302">
        <ele>1918.873</ele>
        <time>2022-08-12T08:09:00Z</time>
      </trkpt>
      <trkpt lat="42.499547" lon="2.431374">
        <ele>1919.071</ele>
        <time>2022-08-12T08:09:06Z</time>
      </trkpt>
      <trkpt lat="42.499507" lon="2.431419">
        <ele>1919.028</ele>
        <time>2022-08-12T08:09:12Z</time>
      </trkpt>
      <trkpt lat="42.499487" lon="2.431483">
        <ele>1919.055</ele>
        <time>2022-08-12T08:09:20Z</time>
      </trkpt>
      <trkpt lat="42.499506" lon="2.431554">
        <ele>1918.997</ele>
        <time>2022-08-12T08:09:28Z</time>
      </trkpt>
      <trkpt lat="42.499515" lon="2.431624">
        <ele>1918.680</ele>
        <time>2022-08-12T08:09:31Z</time>
      </trkpt>
      <trkpt lat="42.499527" lon="2.431684">
        <ele>1917.947</ele>
        <time>2022-08-12T08:09:35Z</time>
      </trkpt>
      <trkpt lat="42.499524" lon="2.431749">
        <ele>1917.429</ele>
        <time>2022-08-12T08:09:42Z</time>
      </trkpt>
      <trkpt lat="42.499526" lon="2.431816">
        <ele>1917.221</ele>
        <time>2022-08-12T08:09:50Z</time>
      </trkpt>
      <trkpt lat="42.499538" lon="2.431882">
        <ele>1917.209</ele>
        <time>2022-08-12T08:09:57Z</time>
      </trkpt>
      <trkpt lat="42.499509" lon="2.431931">
        <ele>1917.455</ele>
        <time>2022-08-12T08:10:01Z</time>
      </trkpt>
      <trkpt lat="42.499494" lon="2.431996">
        <ele>1917.635</ele>
        <time>2022-08-12T08:10:06Z</time>
      </trkpt>
      <trkpt lat="42.499496" lon="2.432067">
        <ele>1918.084</ele>
        <time>2022-08-12T08:10:13Z</time>
      </trkpt>
      <trkpt lat="42.499488" lon="2.432135">
        <ele>1918.248</ele>
        <time>2022-08-12T08:10:18Z</time>
      </trkpt>
      <trkpt lat="42.499476" lon="2.432201">
        <ele>1918.386</ele>
        <time>2022-08-12T08:10:23Z</time>
      </trkpt>
      <trkpt lat="42.499473" lon="2.432270">
        <ele>1918.273</ele>
        <time>2022-08-12T08:10:29Z</time>
      </trkpt>
      <trkpt lat="42.499491" lon="2.432330">
        <ele>1918.280</ele>
        <time>2022-08-12T08:10:35Z</time>
      </trkpt>
      <trkpt lat="42.499468" lon="2.432391">
        <ele>1917.852</ele>
        <time>2022-08-12T08:10:49Z</time>
      </trkpt>
      <trkpt lat="42.499504" lon="2.432449">
        <ele>1917.435</ele>
        <time>2022-08-12T08:10:57Z</time>
      </trkpt>
      <trkpt lat="42.499526" lon="2.432506">
        <ele>1917.439</ele>
        <time>2022-08-12T08:11:13Z</time>
      </trkpt>
      <trkpt lat="42.499572" lon="2.432523">
        <ele>1917.401</ele>
        <time>2022-08-12T08:11:20Z</time>
      </trkpt>
      <trkpt lat="42.499565" lon="2.432599">
        <ele>1917.921</ele>
        <time>2022-08-12T08:11:28Z</time>
      </trkpt>
      <trkpt lat="42.499561" lon="2.432670">
        <ele>1918.609</ele>
        <time>2022-08-12T08:11:32Z</time>
      </trkpt>
      <trkpt lat="42.499576" lon="2.432737">
        <ele>1919.464</ele>
        <time>2022-08-12T08:11:42Z</time>
      </trkpt>
      <trkpt lat="42.499602" lon="2.432788">
        <ele>1920.324</ele>
        <time>2022-08-12T08:11:49Z</time>
      </trkpt>
      <trkpt lat="42.499627" lon="2.432846">
        <ele>1921.773</ele>
        <time>2022-08-12T08:11:55Z</time>
      </trkpt>
      <trkpt lat="42.499648" lon="2.432909">
        <ele>1923.287</ele>
        <time>2022-08-12T08:12:01Z</time>
      </trkpt>
      <trkpt lat="42.499700" lon="2.432930">
        <ele>1923.855</ele>
        <time>2022-08-12T08:12:07Z</time>
      </trkpt>
      <trkpt lat="42.499732" lon="2.432989">
        <ele>1924.422</ele>
        <time>2022-08-12T08:12:11Z</time>
      </trkpt>
      <trkpt lat="42.499744" lon="2.433059">
        <ele>1925.249</ele>
        <time>2022-08-12T08:12:15Z</time>
      </trkpt>
      <trkpt lat="42.499734" lon="2.433123">
        <ele>1925.681</ele>
        <time>2022-08-12T08:12:20Z</time>
      </trkpt>
      <trkpt lat="42.499727" lon="2.433192">
        <ele>1926.044</ele>
        <time>2022-08-12T08:12:24Z</time>
      </trkpt>
      <trkpt lat="42.499719" lon="2.433258">
        <ele>1926.493</ele>
        <time>2022-08-12T08:12:31Z</time>
      </trkpt>
      <trkpt lat="42.499733" lon="2.433318">
        <ele>1926.665</ele>
        <time>2022-08-12T08:12:37Z</time>
      </trkpt>
      <trkpt lat="42.499741" lon="2.433379">
        <ele>1927.021</ele>
        <time>2022-08-12T08:12:44Z</time>
      </trkpt>
      <trkpt lat="42.499763" lon="2.433441">
        <ele>1927.709</ele>
        <time>2022-08-12T08:12:48Z</time>
      </trkpt>
      <trkpt lat="42.499778" lon="2.433513">
        <ele>1928.540</ele>
        <time>2022-08-12T08:12:52Z</time>
      </trkpt>
      <trkpt lat="42.499785" lon="2.433577">
        <ele>1929.180</ele>
        <time>2022-08-12T08:12:57Z</time>
      </trkpt>
      <trkpt lat="42.499780" lon="2.433647">
        <ele>1929.349</ele>
        <time>2022-08-12T08:13:03Z</time>
      </trkpt>
      <trkpt lat="42.499790" lon="2.433714">
        <ele>1929.993</ele>
        <time>2022-08-12T08:13:09Z</time>
      </trkpt>
      <trkpt lat="42.499790" lon="2.433776">
        <ele>1930.891</ele>
        <time>2022-08-12T08:13:14Z</time>
      </trkpt>
      <trkpt lat="42.499777" lon="2.433841">
        <ele>1931.288</ele>
        <time>2022-08-12T08:13:20Z</time>
      </trkpt>
      <trkpt lat="42.499757" lon="2.433904">
        <ele>1931.375</ele>
        <time>2022-08-12T08:13:28Z</time>
      </trkpt>
      <trkpt lat="42.499738" lon="2.433966">
        <ele>1931.917</ele>
        <time>2022-08-12T08:13:33Z</time>
      </trkpt>
      <trkpt lat="42.499722" lon="2.434023">
        <ele>1932.760</ele>
        <time>2022-08-12T08:13:45Z</time>
      </trkpt>
      <trkpt lat="42.499748" lon="2.434096">
        <ele>1933.397</ele>
        <time>2022-08-12T08:13:51Z</time>
      </trkpt>
      <trkpt lat="42.499771" lon="2.434160">
        <ele>1933.923</ele>
        <time>2022-08-12T08:13:57Z</time>
      </trkpt>
      <trkpt lat="42.499782" lon="2.434229">
        <ele>1934.425</ele>
        <time>2022-08-12T08:14:01Z</time>
      </trkpt>
      <trkpt lat="42.499807" lon="2.434294">
        <ele>1935.209</ele>
        <time>2022-08-12T08:14:07Z</time>
      </trkpt>
      <trkpt lat="42.499837" lon="2.434341">
        <ele>1936.060</ele>
        <time>2022-08-12T08:14:12Z</time>
      </trkpt>
      <trkpt lat="42.499848" lon="2.434412">
        <ele>1936.370</ele>
        <time>2022-08-12T08:14:17Z</time>
      </trkpt>
      <trkpt lat="42.499869" lon="2.434472">
        <ele>1936.979</ele>
        <time>2022-08-12T08:14:21Z</time>
      </trkpt>
      <trkpt lat="42.499884" lon="2.434530">
        <ele>1937.733</ele>
        <time>2022-08-12T08:14:26Z</time>
      </trkpt>
      <trkpt lat="42.499916" lon="2.434580">
        <ele>1938.191</ele>
        <time>2022-08-12T08:14:31Z</time>
      </trkpt>
      <trkpt lat="42.499932" lon="2.434652">
        <ele>1938.688</ele>
        <time>2022-08-12T08:14:38Z</time>
      </trkpt>
      <trkpt lat="42.499936" lon="2.434715">
        <ele>1939.025</ele>
        <time>2022-08-12T08:14:43Z</time>
      </trkpt>
      <trkpt lat="42.499942" lon="2.434779">
        <ele>1939.457</ele>
        <time>2022-08-12T08:14:49Z</time>
      </trkpt>
      <trkpt lat="42.499930" lon="2.434841">
        <ele>1939.880</ele>
        <time>2022-08-12T08:14:56Z</time>
      </trkpt>
      <trkpt lat="42.499930" lon="2.434908">
        <ele>1940.779</ele>
        <time>2022-08-12T08:15:03Z</time>
      </trkpt>
      <trkpt lat="42.499941" lon="2.434976">
        <ele>1941.705</ele>
        <time>2022-08-12T08:15:11Z</time>
      </trkpt>
      <trkpt lat="42.499949" lon="2.435045">
        <ele>1942.025</ele>
        <time>2022-08-12T08:15:16Z</time>
      </trkpt>
      <trkpt lat="42.499940" lon="2.435107">
        <ele>1942.309</ele>
        <time>2022-08-12T08:15:28Z</time>
      </trkpt>
      <trkpt lat="42.499925" lon="2.435169">
        <ele>1942.528</ele>
        <time>2022-08-12T08:15:31Z</time>
      </trkpt>
      <trkpt lat="42.499920" lon="2.435233">
        <ele>1942.838</ele>
        <time>2022-08-12T08:15:39Z</time>
      </trkpt>
      <trkpt lat="42.499909" lon="2.435308">
        <ele>1943.317</ele>
        <time>2022-08-12T08:15:44Z</time>
      </trkpt>
      <trkpt lat="42.499890" lon="2.435368">
        <ele>1943.611</ele>
        <time>2022-08-12T08:15:50Z</time>
      </trkpt>
      <trkpt lat="42.499861" lon="2.435428">
        <ele>1943.899</ele>
        <time>2022-08-12T08:15:54Z</time>
      </trkpt>
      <trkpt lat="42.499862" lon="2.435491">
        <ele>1944.196</ele>
        <time>2022-08-12T08:15:58Z</time>
      </trkpt>
      <trkpt lat="42.499870" lon="2.435574">
        <ele>1944.423</ele>
        <time>2022-08-12T08:16:03Z</time>
      </trkpt>
      <trkpt lat="42.499861" lon="2.435642">
        <ele>1944.785</ele>
        <time>2022-08-12T08:16:08Z</time>
      </trkpt>
      <trkpt lat="42.499848" lon="2.435707">
        <ele>1944.998</ele>
        <time>2022-08-12T08:16:12Z</time>
      </trkpt>
      <trkpt lat="42.499829" lon="2.435779">
        <ele>1945.213</ele>
        <time>2022-08-12T08:16:16Z</time>
      </trkpt>
      <trkpt lat="42.499804" lon="2.435846">
        <ele>1945.643</ele>
        <time>2022-08-12T08:16:22Z</time>
      </trkpt>
      <trkpt lat="42.499786" lon="2.435914">
        <ele>1945.607</ele>
        <time>2022-08-12T08:16:28Z</time>
      </trkpt>
      <trkpt lat="42.499754" lon="2.435978">
        <ele>1946.109</ele>
        <time>2022-08-12T08:16:34Z</time>
      </trkpt>
      <trkpt lat="42.499746" lon="2.436042">
        <ele>1946.842</ele>
        <time>2022-08-12T08:16:38Z</time>
      </trkpt>
      <trkpt lat="42.499752" lon="2.436107">
        <ele>1946.832</ele>
        <time>2022-08-12T08:16:47Z</time>
      </trkpt>
      <trkpt lat="42.499768" lon="2.436166">
        <ele>1947.191</ele>
        <time>2022-08-12T08:16:55Z</time>
      </trkpt>
      <trkpt lat="42.499799" lon="2.436223">
        <ele>1947.545</ele>
        <time>2022-08-12T08:16:59Z</time>
      </trkpt>
      <trkpt lat="42.499816" lon="2.436280">
        <ele>1947.723</ele>
        <time>2022-08-12T08:17:04Z</time>
      </trkpt>
      <trkpt lat="42.499827" lon="2.436343">
        <ele>1947.930</ele>
        <time>2022-08-12T08:17:09Z</time>
      </trkpt>
      <trkpt lat="42.499823" lon="2.436422">
        <ele>1948.217</ele>
        <time>2022-08-12T08:17:13Z</time>
      </trkpt>
      <trkpt lat="42.499810" lon="2.436482">
        <ele>1948.419</ele>
        <time>2022-08-12T08:17:18Z</time>
      </trkpt>
      <trkpt lat="42.499833" lon="2.436547">
        <ele>1948.872</ele>
        <time>2022-08-12T08:17:24Z</time>
      </trkpt>
      <trkpt lat="42.499860" lon="2.436606">
        <ele>1949.374</ele>
        <time>2022-08-12T08:17:31Z</time>
      </trkpt>
      <trkpt lat="42.499894" lon="2.436660">
        <ele>1949.556</ele>
        <time>2022-08-12T08:17:38Z</time>
      </trkpt>
      <trkpt lat="42.499886" lon="2.436728">
        <ele>1950.021</ele>
        <time>2022-08-12T08:17:44Z</time>
      </trkpt>
      <trkpt lat="42.499853" lon="2.436772">
        <ele>1950.509</ele>
        <time>2022-08-12T08:17:50Z</time>
      </trkpt>
      <trkpt lat="42.499842" lon="2.436835">
        <ele>1950.648</ele>
        <time>2022-08-12T08:17:53Z</time>
      </trkpt>
      <trkpt lat="42.499849" lon="2.436899">
        <ele>1950.688</ele>
        <time>2022-08-12T08:17:57Z</time>
      </trkpt>
      <trkpt lat="42.499842" lon="2.436963">
        <ele>1950.687</ele>
        <time>2022-08-12T08:18:01Z</time>
      </trkpt>
      <trkpt lat="42.499815" lon="2.437017">
        <ele>1950.641</ele>
        <time>2022-08-12T08:18:06Z</time>
      </trkpt>
      <trkpt lat="42.499811" lon="2.437085">
        <ele>1950.629</ele>
        <time>2022-08-12T08:18:10Z</time>
      </trkpt>
      <trkpt lat="42.499796" lon="2.437151">
        <ele>1950.696</ele>
        <time>2022-08-12T08:18:13Z</time>
      </trkpt>
      <trkpt lat="42.499782" lon="2.437214">
        <ele>1950.613</ele>
        <time>2022-08-12T08:18:16Z</time>
      </trkpt>
      <trkpt lat="42.499796" lon="2.437277">
        <ele>1950.665</ele>
        <time>2022-08-12T08:18:24Z</time>
      </trkpt>
      <trkpt lat="42.499781" lon="2.437337">
        <ele>1950.698</ele>
        <time>2022-08-12T08:18:29Z</time>
      </trkpt>
      <trkpt lat="42.499786" lon="2.437404">
        <ele>1950.823</ele>
        <time>2022-08-12T08:18:32Z</time>
      </trkpt>
      <trkpt lat="42.499808" lon="2.437462">
        <ele>1951.283</ele>
        <time>2022-08-12T08:18:38Z</time>
      </trkpt>
      <trkpt lat="42.499828" lon="2.437526">
        <ele>1951.611</ele>
        <time>2022-08-12T08:18:45Z</time>
      </trkpt>
      <trkpt lat="42.499803" lon="2.437589">
        <ele>1951.609</ele>
        <time>2022-08-12T08:18:48Z</time>
      </trkpt>
      <trkpt lat="42.499767" lon="2.437629">
        <ele>1951.663</ele>
        <time>2022-08-12T08:18:51Z</time>
      </trkpt>
      <trkpt lat="42.499738" lon="2.437678">
        <ele>1951.643</ele>
        <time>2022-08-12T08:18:56Z</time>
      </trkpt>
      <trkpt lat="42.499721" lon="2.437743">
        <ele>1951.692</ele>
        <time>2022-08-12T08:19:04Z</time>
      </trkpt>
      <trkpt lat="42.499712" lon="2.437810">
        <ele>1951.626</ele>
        <time>2022-08-12T08:19:08Z</time>
      </trkpt>
      <trkpt lat="42.499684" lon="2.437873">
        <ele>1951.644</ele>
        <time>2022-08-12T08:19:12Z</time>
      </trkpt>
      <trkpt lat="42.499665" lon="2.437945">
        <ele>1951.791</ele>
        <time>2022-08-12T08:19:17Z</time>
      </trkpt>
      <trkpt lat="42.499665" lon="2.438009">
        <ele>1951.888</ele>
        <time>2022-08-12T08:19:23Z</time>
      </trkpt>
      <trkpt lat="42.499675" lon="2.438076">
        <ele>1951.980</ele>
        <time>2022-08-12T08:19:29Z</time>
      </trkpt>
      <trkpt lat="42.499685" lon="2.438137">
        <ele>1952.193</ele>
        <time>2022-08-12T08:19:32Z</time>
      </trkpt>
      <trkpt lat="42.499680" lon="2.438200">
        <ele>1952.384</ele>
        <time>2022-08-12T08:19:38Z</time>
      </trkpt>
      <trkpt lat="42.499674" lon="2.438261">
        <ele>1952.307</ele>
        <time>2022-08-12T08:19:44Z</time>
      </trkpt>
      <trkpt lat="42.499637" lon="2.438310">
        <ele>1952.317</ele>
        <time>2022-08-12T08:19:49Z</time>
      </trkpt>
      <trkpt lat="42.499611" lon="2.438381">
        <ele>1952.209</ele>
        <time>2022-08-12T08:19:54Z</time>
      </trkpt>
      <trkpt lat="42.499571" lon="2.438433">
        <ele>1952.079</ele>
        <time>2022-08-12T08:19:58Z</time>
      </trkpt>
      <trkpt lat="42.499550" lon="2.438499">
        <ele>1951.679</ele>
        <time>2022-08-12T08:20:02Z</time>
      </trkpt>
      <trkpt lat="42.499526" lon="2.438562">
        <ele>1951.358</ele>
        <time>2022-08-12T08:20:05Z</time>
      </trkpt>
      <trkpt lat="42.499494" lon="2.438620">
        <ele>1951.242</ele>
        <time>2022-08-12T08:20:08Z</time>
      </trkpt>
      <trkpt lat="42.499483" lon="2.438687">
        <ele>1951.270</ele>
        <time>2022-08-12T08:20:22Z</time>
      </trkpt>
      <trkpt lat="42.499458" lon="2.438738">
        <ele>1951.367</ele>
        <time>2022-08-12T08:20:27Z</time>
      </trkpt>
      <trkpt lat="42.499432" lon="2.438808">
        <ele>1951.814</ele>
        <time>2022-08-12T08:20:39Z</time>
      </trkpt>
      <trkpt lat="42.499406" lon="2.438882">
        <ele>1952.626</ele>
        <time>2022-08-12T08:20:43Z</time>
      </trkpt>
      <trkpt lat="42.499395" lon="2.438944">
        <ele>1952.629</ele>
        <time>2022-08-12T08:20:48Z</time>
      </trkpt>
      <trkpt lat="42.499402" lon="2.439006">
        <ele>1952.694</ele>
        <time>2022-08-12T08:20:55Z</time>
      </trkpt>
      <trkpt lat="42.499414" lon="2.439080">
        <ele>1952.257</ele>
        <time>2022-08-12T08:21:07Z</time>
      </trkpt>
      <trkpt lat="42.499401" lon="2.439144">
        <ele>1951.422</ele>
        <time>2022-08-12T08:21:09Z</time>
      </trkpt>
      <trkpt lat="42.499377" lon="2.439196">
        <ele>1950.009</ele>
        <time>2022-08-12T08:21:11Z</time>
      </trkpt>
      <trkpt lat="42.499347" lon="2.439254">
        <ele>1949.510</ele>
        <time>2022-08-12T08:21:15Z</time>
      </trkpt>
      <trkpt lat="42.499390" lon="2.439226">
        <ele>1949.360</ele>
        <time>2022-08-12T08:21:26Z</time>
      </trkpt>
      <trkpt lat="42.499436" lon="2.439280">
        <ele>1949.199</ele>
        <time>2022-08-12T08:21:32Z</time>
      </trkpt>
      <trkpt lat="42.499481" lon="2.439301">
        <ele>1949.153</ele>
        <time>2022-08-12T08:21:37Z</time>
      </trkpt>
      <trkpt lat="42.499517" lon="2.439337">
        <ele>1948.581</ele>
        <time>2022-08-12T08:21:44Z</time>
      </trkpt>
      <trkpt lat="42.499554" lon="2.439385">
        <ele>1947.478</ele>
        <time>2022-08-12T08:21:50Z</time>
      </trkpt>
      <trkpt lat="42.499575" lon="2.439454">
        <ele>1946.175</ele>
        <time>2022-08-12T08:21:54Z</time>
      </trkpt>
      <trkpt lat="42.499560" lon="2.439512">
        <ele>1945.297</ele>
        <time>2022-08-12T08:21:56Z</time>
      </trkpt>
      <trkpt lat="42.499603" lon="2.439542">
        <ele>1944.770</ele>
        <time>2022-08-12T08:22:14Z</time>
      </trkpt>
      <trkpt lat="42.499654" lon="2.439550">
        <ele>1944.381</ele>
        <time>2022-08-12T08:22:21Z</time>
      </trkpt>
      <trkpt lat="42.499701" lon="2.439575">
        <ele>1943.361</ele>
        <time>2022-08-12T08:22:35Z</time>
      </trkpt>
      <trkpt lat="42.499704" lon="2.439641">
        <ele>1942.217</ele>
        <time>2022-08-12T08:22:40Z</time>
      </trkpt>
      <trkpt lat="42.499758" lon="2.439659">
        <ele>1942.209</ele>
        <time>2022-08-12T08:22:50Z</time>
      </trkpt>
      <trkpt lat="42.499807" lon="2.439676">
        <ele>1942.239</ele>
        <time>2022-08-12T08:22:55Z</time>
      </trkpt>
      <trkpt lat="42.499854" lon="2.439671">
        <ele>1942.799</ele>
        <time>2022-08-12T08:23:06Z</time>
      </trkpt>
      <trkpt lat="42.499901" lon="2.439657">
        <ele>1943.258</ele>
        <time>2022-08-12T08:23:15Z</time>
      </trkpt>
      <trkpt lat="42.499938" lon="2.439621">
        <ele>1943.772</ele>
        <time>2022-08-12T08:23:30Z</time>
      </trkpt>
      <trkpt lat="42.499994" lon="2.439621">
        <ele>1945.050</ele>
        <time>2022-08-12T08:23:37Z</time>
      </trkpt>
      <trkpt lat="42.500053" lon="2.439639">
        <ele>1946.487</ele>
        <time>2022-08-12T08:23:41Z</time>
      </trkpt>
      <trkpt lat="42.500088" lon="2.439689">
        <ele>1947.894</ele>
        <time>2022-08-12T08:23:45Z</time>
      </trkpt>
      <trkpt lat="42.500120" lon="2.439734">
        <ele>1949.026</ele>
        <time>2022-08-12T08:23:49Z</time>
      </trkpt>
      <trkpt lat="42.500168" lon="2.439754">
        <ele>1949.679</ele>
        <time>2022-08-12T08:23:53Z</time>
      </trkpt>
      <trkpt lat="42.500212" lon="2.439719">
        <ele>1950.413</ele>
        <time>2022-08-12T08:24:00Z</time>
      </trkpt>
      <trkpt lat="42.500260" lon="2.439690">
        <ele>1951.243</ele>
        <time>2022-08-12T08:24:04Z</time>
      </trkpt>
      <trkpt lat="42.500305" lon="2.439709">
        <ele>1951.707</ele>
        <time>2022-08-12T08:24:07Z</time>
      </trkpt>
      <trkpt lat="42.500296" lon="2.439646">
        <ele>1951.909</ele>
        <time>2022-08-12T08:24:13Z</time>
      </trkpt>
      <trkpt lat="42.500307" lon="2.439584">
        <ele>1952.732</ele>
        <time>2022-08-12T08:24:17Z</time>
      </trkpt>
      <trkpt lat="42.500281" lon="2.439499">
        <ele>1953.622</ele>
        <time>2022-08-12T08:24:20Z</time>
      </trkpt>
      <trkpt lat="42.500285" lon="2.439416">
        <ele>1953.861</ele>
        <time>2022-08-12T08:24:25Z</time>
      </trkpt>
      <trkpt lat="42.500272" lon="2.439342">
        <ele>1953.815</ele>
        <time>2022-08-12T08:24:29Z</time>
      </trkpt>
      <trkpt lat="42.500258" lon="2.439273">
        <ele>1954.113</ele>
        <time>2022-08-12T08:24:33Z</time>
      </trkpt>
      <trkpt lat="42.500284" lon="2.439216">
        <ele>1954.360</ele>
        <time>2022-08-12T08:24:41Z</time>
      </trkpt>
      <trkpt lat="42.500326" lon="2.439172">
        <ele>1954.617</ele>
        <time>2022-08-12T08:24:44Z</time>
      </trkpt>
      <trkpt lat="42.500353" lon="2.439117">
        <ele>1954.659</ele>
        <time>2022-08-12T08:24:46Z</time>
      </trkpt>
      <trkpt lat="42.500395" lon="2.439083">
        <ele>1954.632</ele>
        <time>2022-08-12T08:24:51Z</time>
      </trkpt>
      <trkpt lat="42.500439" lon="2.439050">
        <ele>1954.752</ele>
        <time>2022-08-12T08:24:55Z</time>
      </trkpt>
      <trkpt lat="42.500480" lon="2.439012">
        <ele>1954.853</ele>
        <time>2022-08-12T08:25:00Z</time>
      </trkpt>
      <trkpt lat="42.500512" lon="2.438960">
        <ele>1954.808</ele>
        <time>2022-08-12T08:25:03Z</time>
      </trkpt>
      <trkpt lat="42.500541" lon="2.438912">
        <ele>1954.909</ele>
        <time>2022-08-12T08:25:05Z</time>
      </trkpt>
      <trkpt lat="42.500560" lon="2.438855">
        <ele>1955.076</ele>
        <time>2022-08-12T08:25:09Z</time>
      </trkpt>
      <trkpt lat="42.500585" lon="2.438796">
        <ele>1955.116</ele>
        <time>2022-08-12T08:25:14Z</time>
      </trkpt>
      <trkpt lat="42.500607" lon="2.438740">
        <ele>1955.335</ele>
        <time>2022-08-12T08:25:20Z</time>
      </trkpt>
      <trkpt lat="42.500629" lon="2.438675">
        <ele>1955.759</ele>
        <time>2022-08-12T08:25:26Z</time>
      </trkpt>
      <trkpt lat="42.500651" lon="2.438619">
        <ele>1956.077</ele>
        <time>2022-08-12T08:25:30Z</time>
      </trkpt>
      <trkpt lat="42.500667" lon="2.438558">
        <ele>1956.114</ele>
        <time>2022-08-12T08:25:33Z</time>
      </trkpt>
      <trkpt lat="42.500694" lon="2.438508">
        <ele>1956.371</ele>
        <time>2022-08-12T08:25:38Z</time>
      </trkpt>
      <trkpt lat="42.500705" lon="2.438439">
        <ele>1956.873</ele>
        <time>2022-08-12T08:25:44Z</time>
      </trkpt>
      <trkpt lat="42.500716" lon="2.438375">
        <ele>1957.396</ele>
        <time>2022-08-12T08:25:51Z</time>
      </trkpt>
      <trkpt lat="42.500744" lon="2.438325">
        <ele>1958.171</ele>
        <time>2022-08-12T08:25:55Z</time>
      </trkpt>
      <trkpt lat="42.500786" lon="2.438280">
        <ele>1958.941</ele>
        <time>2022-08-12T08:26:00Z</time>
      </trkpt>
      <trkpt lat="42.500828" lon="2.438244">
        <ele>1959.015</ele>
        <time>2022-08-12T08:26:04Z</time>
      </trkpt>
      <trkpt lat="42.500866" lon="2.438207">
        <ele>1959.509</ele>
        <time>2022-08-12T08:26:08Z</time>
      </trkpt>
      <trkpt lat="42.500907" lon="2.438174">
        <ele>1960.058</ele>
        <time>2022-08-12T08:26:15Z</time>
      </trkpt>
      <trkpt lat="42.500948" lon="2.438128">
        <ele>1960.188</ele>
        <time>2022-08-12T08:26:19Z</time>
      </trkpt>
      <trkpt lat="42.500994" lon="2.438106">
        <ele>1960.427</ele>
        <time>2022-08-12T08:26:24Z</time>
      </trkpt>
      <trkpt lat="42.501043" lon="2.438072">
        <ele>1960.841</ele>
        <time>2022-08-12T08:26:32Z</time>
      </trkpt>
      <trkpt lat="42.501099" lon="2.438036">
        <ele>1961.319</ele>
        <time>2022-08-12T08:26:38Z</time>
      </trkpt>
      <trkpt lat="42.501153" lon="2.438035">
        <ele>1962.376</ele>
        <time>2022-08-12T08:26:43Z</time>
      </trkpt>
      <trkpt lat="42.501199" lon="2.438031">
        <ele>1962.443</ele>
        <time>2022-08-12T08:26:47Z</time>
      </trkpt>
      <trkpt lat="42.501248" lon="2.438018">
        <ele>1962.535</ele>
        <time>2022-08-12T08:26:52Z</time>
      </trkpt>
      <trkpt lat="42.501293" lon="2.438003">
        <ele>1962.948</ele>
        <time>2022-08-12T08:26:56Z</time>
      </trkpt>
      <trkpt lat="42.501338" lon="2.437991">
        <ele>1963.451</ele>
        <time>2022-08-12T08:27:02Z</time>
      </trkpt>
      <trkpt lat="42.501389" lon="2.437972">
        <ele>1963.701</ele>
        <time>2022-08-12T08:27:08Z</time>
      </trkpt>
      <trkpt lat="42.501439" lon="2.437937">
        <ele>1964.011</ele>
        <time>2022-08-12T08:27:13Z</time>
      </trkpt>
      <trkpt lat="42.501483" lon="2.437912">
        <ele>1964.109</ele>
        <time>2022-08-12T08:27:18Z</time>
      </trkpt>
      <trkpt lat="42.501531" lon="2.437887">
        <ele>1964.366</ele>
        <time>2022-08-12T08:27:22Z</time>
      </trkpt>
      <trkpt lat="42.501568" lon="2.437844">
        <ele>1964.886</ele>
        <time>2022-08-12T08:27:27Z</time>
      </trkpt>
      <trkpt lat="42.501604" lon="2.437803">
        <ele>1965.185</ele>
        <time>2022-08-12T08:27:32Z</time>
      </trkpt>
      <trkpt lat="42.501643" lon="2.437756">
        <ele>1965.249</ele>
        <time>2022-08-12T08:27:39Z</time>
      </trkpt>
      <trkpt lat="42.501685" lon="2.437717">
        <ele>1965.537</ele>
        <time>2022-08-12T08:27:43Z</time>
      </trkpt>
      <trkpt lat="42.501719" lon="2.437675">
        <ele>1966.014</ele>
        <time>2022-08-12T08:27:47Z</time>
      </trkpt>
      <trkpt lat="42.501752" lon="2.437622">
        <ele>1966.271</ele>
        <time>2022-08-12T08:27:52Z</time>
      </trkpt>
      <trkpt lat="42.501789" lon="2.437580">
        <ele>1966.493</ele>
        <time>2022-08-12T08:27:58Z</time>
      </trkpt>
      <trkpt lat="42.501826" lon="2.437529">
        <ele>1966.876</ele>
        <time>2022-08-12T08:28:03Z</time>
      </trkpt>
      <trkpt lat="42.501867" lon="2.437491">
        <ele>1967.317</ele>
        <time>2022-08-12T08:28:08Z</time>
      </trkpt>
      <trkpt lat="42.501890" lon="2.437436">
        <ele>1967.787</ele>
        <time>2022-08-12T08:28:13Z</time>
      </trkpt>
      <trkpt lat="42.501924" lon="2.437394">
        <ele>1967.915</ele>
        <time>2022-08-12T08:28:19Z</time>
      </trkpt>
      <trkpt lat="42.501953" lon="2.437331">
        <ele>1968.509</ele>
        <time>2022-08-12T08:28:23Z</time>
      </trkpt>
      <trkpt lat="42.501998" lon="2.437308">
        <ele>1969.292</ele>
        <time>2022-08-12T08:28:29Z</time>
      </trkpt>
      <trkpt lat="42.502056" lon="2.437302">
        <ele>1969.442</ele>
        <time>2022-08-12T08:28:34Z</time>
      </trkpt>
      <trkpt lat="42.502108" lon="2.437318">
        <ele>1969.971</ele>
        <time>2022-08-12T08:28:39Z</time>
      </trkpt>
      <trkpt lat="42.502163" lon="2.437304">
        <ele>1970.435</ele>
        <time>2022-08-12T08:28:43Z</time>
      </trkpt>
      <trkpt lat="42.502217" lon="2.437297">
        <ele>1970.793</ele>
        <time>2022-08-12T08:28:46Z</time>
      </trkpt>
      <trkpt lat="42.502263" lon="2.437319">
        <ele>1971.160</ele>
        <time>2022-08-12T08:28:50Z</time>
      </trkpt>
      <trkpt lat="42.502318" lon="2.437313">
        <ele>1971.227</ele>
        <time>2022-08-12T08:28:56Z</time>
      </trkpt>
      <trkpt lat="42.502360" lon="2.437287">
        <ele>1971.529</ele>
        <time>2022-08-12T08:29:02Z</time>
      </trkpt>
      <trkpt lat="42.502404" lon="2.437273">
        <ele>1971.752</ele>
        <time>2022-08-12T08:29:06Z</time>
      </trkpt>
      <trkpt lat="42.502452" lon="2.437274">
        <ele>1972.381</ele>
        <time>2022-08-12T08:29:09Z</time>
      </trkpt>
      <trkpt lat="42.502496" lon="2.437285">
        <ele>1972.661</ele>
        <time>2022-08-12T08:29:13Z</time>
      </trkpt>
      <trkpt lat="42.502546" lon="2.437280">
        <ele>1972.617</ele>
        <time>2022-08-12T08:29:19Z</time>
      </trkpt>
      <trkpt lat="42.502558" lon="2.437217">
        <ele>1972.809</ele>
        <time>2022-08-12T08:29:29Z</time>
      </trkpt>
      <trkpt lat="42.502554" lon="2.437154">
        <ele>1972.899</ele>
        <time>2022-08-12T08:29:34Z</time>
      </trkpt>
      <trkpt lat="42.502575" lon="2.437090">
        <ele>1973.799</ele>
        <time>2022-08-12T08:29:40Z</time>
      </trkpt>
      <trkpt lat="42.502569" lon="2.437021">
        <ele>1975.538</ele>
        <time>2022-08-12T08:29:44Z</time>
      </trkpt>
      <trkpt lat="42.502572" lon="2.436954">
        <ele>1976.842</ele>
        <time>2022-08-12T08:29:52Z</time>
      </trkpt>
      <trkpt lat="42.502581" lon="2.436884">
        <ele>1977.230</ele>
        <time>2022-08-12T08:29:58Z</time>
      </trkpt>
      <trkpt lat="42.502580" lon="2.436816">
        <ele>1977.857</ele>
        <time>2022-08-12T08:30:04Z</time>
      </trkpt>
      <trkpt lat="42.502602" lon="2.436751">
        <ele>1978.544</ele>
        <time>2022-08-12T08:30:08Z</time>
      </trkpt>
      <trkpt lat="42.502627" lon="2.436681">
        <ele>1978.926</ele>
        <time>2022-08-12T08:30:12Z</time>
      </trkpt>
      <trkpt lat="42.502654" lon="2.436618">
        <ele>1979.329</ele>
        <time>2022-08-12T08:30:19Z</time>
      </trkpt>
      <trkpt lat="42.502686" lon="2.436565">
        <ele>1979.991</ele>
        <time>2022-08-12T08:30:24Z</time>
      </trkpt>
      <trkpt lat="42.502726" lon="2.436524">
        <ele>1980.381</ele>
        <time>2022-08-12T08:30:28Z</time>
      </trkpt>
      <trkpt lat="42.502748" lon="2.436468">
        <ele>1980.619</ele>
        <time>2022-08-12T08:30:35Z</time>
      </trkpt>
      <trkpt lat="42.502765" lon="2.436408">
        <ele>1981.009</ele>
        <time>2022-08-12T08:30:40Z</time>
      </trkpt>
      <trkpt lat="42.502753" lon="2.436341">
        <ele>1981.490</ele>
        <time>2022-08-12T08:30:43Z</time>
      </trkpt>
      <trkpt lat="42.502762" lon="2.436273">
        <ele>1981.840</ele>
        <time>2022-08-12T08:30:50Z</time>
      </trkpt>
      <trkpt lat="42.502770" lon="2.436205">
        <ele>1982.239</ele>
        <time>2022-08-12T08:30:55Z</time>
      </trkpt>
      <trkpt lat="42.502815" lon="2.436173">
        <ele>1982.743</ele>
        <time>2022-08-12T08:31:00Z</time>
      </trkpt>
      <trkpt lat="42.502839" lon="2.436114">
        <ele>1983.331</ele>
        <time>2022-08-12T08:31:04Z</time>
      </trkpt>
      <trkpt lat="42.502872" lon="2.436056">
        <ele>1983.688</ele>
        <time>2022-08-12T08:31:09Z</time>
      </trkpt>
      <trkpt lat="42.502907" lon="2.436018">
        <ele>1983.935</ele>
        <time>2022-08-12T08:31:13Z</time>
      </trkpt>
      <trkpt lat="42.502961" lon="2.435999">
        <ele>1984.537</ele>
        <time>2022-08-12T08:31:18Z</time>
      </trkpt>
      <trkpt lat="42.503003" lon="2.435950">
        <ele>1985.070</ele>
        <time>2022-08-12T08:31:23Z</time>
      </trkpt>
      <trkpt lat="42.503027" lon="2.435876">
        <ele>1985.512</ele>
        <time>2022-08-12T08:31:28Z</time>
      </trkpt>
      <trkpt lat="42.503046" lon="2.435816">
        <ele>1985.532</ele>
        <time>2022-08-12T08:31:32Z</time>
      </trkpt>
      <trkpt lat="42.503042" lon="2.435748">
        <ele>1985.605</ele>
        <time>2022-08-12T08:31:35Z</time>
      </trkpt>
      <trkpt lat="42.503048" lon="2.435686">
        <ele>1985.909</ele>
        <time>2022-08-12T08:31:39Z</time>
      </trkpt>
      <trkpt lat="42.503087" lon="2.435647">
        <ele>1986.392</ele>
        <time>2022-08-12T08:31:43Z</time>
      </trkpt>
      <trkpt lat="42.503118" lon="2.435591">
        <ele>1986.722</ele>
        <time>2022-08-12T08:31:48Z</time>
      </trkpt>
      <trkpt lat="42.503141" lon="2.435522">
        <ele>1986.921</ele>
        <time>2022-08-12T08:31:53Z</time>
      </trkpt>
      <trkpt lat="42.503164" lon="2.435468">
        <ele>1987.065</ele>
        <time>2022-08-12T08:31:57Z</time>
      </trkpt>
      <trkpt lat="42.503184" lon="2.435404">
        <ele>1987.173</ele>
        <time>2022-08-12T08:32:02Z</time>
      </trkpt>
      <trkpt lat="42.503227" lon="2.435362">
        <ele>1987.710</ele>
        <time>2022-08-12T08:32:09Z</time>
      </trkpt>
      <trkpt lat="42.503245" lon="2.435299">
        <ele>1988.397</ele>
        <time>2022-08-12T08:32:17Z</time>
      </trkpt>
      <trkpt lat="42.503282" lon="2.435251">
        <ele>1988.729</ele>
        <time>2022-08-12T08:32:22Z</time>
      </trkpt>
      <trkpt lat="42.503312" lon="2.435204">
        <ele>1989.432</ele>
        <time>2022-08-12T08:32:26Z</time>
      </trkpt>
      <trkpt lat="42.503317" lon="2.435141">
        <ele>1990.014</ele>
        <time>2022-08-12T08:32:30Z</time>
      </trkpt>
      <trkpt lat="42.503328" lon="2.435074">
        <ele>1990.554</ele>
        <time>2022-08-12T08:32:36Z</time>
      </trkpt>
      <trkpt lat="42.503344" lon="2.435005">
        <ele>1990.809</ele>
        <time>2022-08-12T08:32:42Z</time>
      </trkpt>
      <trkpt lat="42.503362" lon="2.434944">
        <ele>1991.309</ele>
        <time>2022-08-12T08:32:50Z</time>
      </trkpt>
      <trkpt lat="42.503370" lon="2.435018">
        <ele>1991.852</ele>
        <time>2022-08-12T08:33:18Z</time>
      </trkpt>
      <trkpt lat="42.503363" lon="2.435085">
        <ele>1992.372</ele>
        <time>2022-08-12T08:33:23Z</time>
      </trkpt>
      <trkpt lat="42.503376" lon="2.435159">
        <ele>1993.311</ele>
        <time>2022-08-12T08:33:30Z</time>
      </trkpt>
      <trkpt lat="42.503380" lon="2.435220">
        <ele>1994.055</ele>
        <time>2022-08-12T08:33:36Z</time>
      </trkpt>
      <trkpt lat="42.503393" lon="2.435279">
        <ele>1994.583</ele>
        <time>2022-08-12T08:33:41Z</time>
      </trkpt>
      <trkpt lat="42.503398" lon="2.435367">
        <ele>1995.260</ele>
        <time>2022-08-12T08:33:45Z</time>
      </trkpt>
      <trkpt lat="42.503406" lon="2.435428">
        <ele>1995.847</ele>
        <time>2022-08-12T08:33:50Z</time>
      </trkpt>
      <trkpt lat="42.503393" lon="2.435500">
        <ele>1996.319</ele>
        <time>2022-08-12T08:33:55Z</time>
      </trkpt>
      <trkpt lat="42.503373" lon="2.435558">
        <ele>1996.832</ele>
        <time>2022-08-12T08:34:00Z</time>
      </trkpt>
      <trkpt lat="42.503363" lon="2.435623">
        <ele>1997.215</ele>
        <time>2022-08-12T08:34:04Z</time>
      </trkpt>
      <trkpt lat="42.503379" lon="2.435686">
        <ele>1997.465</ele>
        <time>2022-08-12T08:34:10Z</time>
      </trkpt>
      <trkpt lat="42.503371" lon="2.435746">
        <ele>1997.611</ele>
        <time>2022-08-12T08:34:17Z</time>
      </trkpt>
      <trkpt lat="42.503373" lon="2.435813">
        <ele>1998.109</ele>
        <time>2022-08-12T08:34:23Z</time>
      </trkpt>
      <trkpt lat="42.503381" lon="2.435882">
        <ele>1998.942</ele>
        <time>2022-08-12T08:34:31Z</time>
      </trkpt>
      <trkpt lat="42.503366" lon="2.435954">
        <ele>1999.432</ele>
        <time>2022-08-12T08:34:36Z</time>
      </trkpt>
      <trkpt lat="42.503375" lon="2.436019">
        <ele>2000.251</ele>
        <time>2022-08-12T08:34:41Z</time>
      </trkpt>
      <trkpt lat="42.503370" lon="2.436092">
        <ele>2000.955</ele>
        <time>2022-08-12T08:34:46Z</time>
      </trkpt>
      <trkpt lat="42.503357" lon="2.436158">
        <ele>2001.293</ele>
        <time>2022-08-12T08:34:51Z</time>
      </trkpt>
      <trkpt lat="42.503355" lon="2.436221">
        <ele>2001.870</ele>
        <time>2022-08-12T08:34:58Z</time>
      </trkpt>
      <trkpt lat="42.503362" lon="2.436294">
        <ele>2002.367</ele>
        <time>2022-08-12T08:35:05Z</time>
      </trkpt>
      <trkpt lat="42.503367" lon="2.436382">
        <ele>2002.919</ele>
        <time>2022-08-12T08:35:09Z</time>
      </trkpt>
      <trkpt lat="42.503339" lon="2.436439">
        <ele>2003.442</ele>
        <time>2022-08-12T08:35:14Z</time>
      </trkpt>
      <trkpt lat="42.503314" lon="2.436494">
        <ele>2004.324</ele>
        <time>2022-08-12T08:35:20Z</time>
      </trkpt>
      <trkpt lat="42.503300" lon="2.436569">
        <ele>2005.104</ele>
        <time>2022-08-12T08:35:25Z</time>
      </trkpt>
      <trkpt lat="42.503289" lon="2.436630">
        <ele>2005.514</ele>
        <time>2022-08-12T08:35:29Z</time>
      </trkpt>
      <trkpt lat="42.503277" lon="2.436704">
        <ele>2006.109</ele>
        <time>2022-08-12T08:35:34Z</time>
      </trkpt>
      <trkpt lat="42.503251" lon="2.436770">
        <ele>2006.733</ele>
        <time>2022-08-12T08:35:40Z</time>
      </trkpt>
      <trkpt lat="42.503229" lon="2.436834">
        <ele>2007.263</ele>
        <time>2022-08-12T08:35:47Z</time>
      </trkpt>
      <trkpt lat="42.503208" lon="2.436903">
        <ele>2007.762</ele>
        <time>2022-08-12T08:35:52Z</time>
      </trkpt>
      <trkpt lat="42.503186" lon="2.436961">
        <ele>2008.356</ele>
        <time>2022-08-12T08:35:55Z</time>
      </trkpt>
      <trkpt lat="42.503162" lon="2.437016">
        <ele>2008.994</ele>
        <time>2022-08-12T08:35:59Z</time>
      </trkpt>
      <trkpt lat="42.503139" lon="2.437084">
        <ele>2009.241</ele>
        <time>2022-08-12T08:36:05Z</time>
      </trkpt>
      <trkpt lat="42.503138" lon="2.437155">
        <ele>2009.548</ele>
        <time>2022-08-12T08:36:10Z</time>
      </trkpt>
      <trkpt lat="42.503154" lon="2.437228">
        <ele>2010.240</ele>
        <time>2022-08-12T08:36:15Z</time>
      </trkpt>
      <trkpt lat="42.503172" lon="2.437299">
        <ele>2010.793</ele>
        <time>2022-08-12T08:36:20Z</time>
      </trkpt>
      <trkpt lat="42.503209" lon="2.437337">
        <ele>2011.136</ele>
        <time>2022-08-12T08:36:26Z</time>
      </trkpt>
      <trkpt lat="42.503255" lon="2.437371">
        <ele>2011.717</ele>
        <time>2022-08-12T08:36:31Z</time>
      </trkpt>
      <trkpt lat="42.503271" lon="2.437434">
        <ele>2012.118</ele>
        <time>2022-08-12T08:36:36Z</time>
      </trkpt>
      <trkpt lat="42.503276" lon="2.437505">
        <ele>2012.409</ele>
        <time>2022-08-12T08:36:39Z</time>
      </trkpt>
      <trkpt lat="42.503281" lon="2.437582">
        <ele>2012.874</ele>
        <time>2022-08-12T08:36:42Z</time>
      </trkpt>
      <trkpt lat="42.503328" lon="2.437627">
        <ele>2013.044</ele>
        <time>2022-08-12T08:36:47Z</time>
      </trkpt>
      <trkpt lat="42.503358" lon="2.437680">
        <ele>2013.143</ele>
        <time>2022-08-12T08:36:51Z</time>
      </trkpt>
      <trkpt lat="42.503423" lon="2.437710">
        <ele>2013.437</ele>
        <time>2022-08-12T08:36:55Z</time>
      </trkpt>
      <trkpt lat="42.503433" lon="2.437774">
        <ele>2013.595</ele>
        <time>2022-08-12T08:36:59Z</time>
      </trkpt>
      <trkpt lat="42.503413" lon="2.437846">
        <ele>2013.892</ele>
        <time>2022-08-12T08:37:04Z</time>
      </trkpt>
      <trkpt lat="42.503459" lon="2.437889">
        <ele>2013.959</ele>
        <time>2022-08-12T08:37:10Z</time>
      </trkpt>
      <trkpt lat="42.503507" lon="2.437879">
        <ele>2014.271</ele>
        <time>2022-08-12T08:37:12Z</time>
      </trkpt>
      <trkpt lat="42.503552" lon="2.437890">
        <ele>2014.254</ele>
        <time>2022-08-12T08:37:15Z</time>
      </trkpt>
      <trkpt lat="42.503541" lon="2.437968">
        <ele>2014.535</ele>
        <time>2022-08-12T08:37:28Z</time>
      </trkpt>
      <trkpt lat="42.503562" lon="2.438033">
        <ele>2015.086</ele>
        <time>2022-08-12T08:37:32Z</time>
      </trkpt>
      <trkpt lat="42.503554" lon="2.438113">
        <ele>2015.614</ele>
        <time>2022-08-12T08:37:36Z</time>
      </trkpt>
      <trkpt lat="42.503588" lon="2.438174">
        <ele>2016.709</ele>
        <time>2022-08-12T08:37:42Z</time>
      </trkpt>
      <trkpt lat="42.503597" lon="2.438244">
        <ele>2016.854</ele>
        <time>2022-08-12T08:37:46Z</time>
      </trkpt>
      <trkpt lat="42.503565" lon="2.438307">
        <ele>2017.224</ele>
        <time>2022-08-12T08:37:50Z</time>
      </trkpt>
      <trkpt lat="42.503579" lon="2.438374">
        <ele>2017.423</ele>
        <time>2022-08-12T08:37:52Z</time>
      </trkpt>
      <trkpt lat="42.503583" lon="2.438441">
        <ele>2017.527</ele>
        <time>2022-08-12T08:37:56Z</time>
      </trkpt>
      <trkpt lat="42.503565" lon="2.438505">
        <ele>2017.685</ele>
        <time>2022-08-12T08:37:59Z</time>
      </trkpt>
      <trkpt lat="42.503541" lon="2.438570">
        <ele>2017.832</ele>
        <time>2022-08-12T08:38:03Z</time>
      </trkpt>
      <trkpt lat="42.503517" lon="2.438625">
        <ele>2018.069</ele>
        <time>2022-08-12T08:38:07Z</time>
      </trkpt>
      <trkpt lat="42.503482" lon="2.438683">
        <ele>2018.231</ele>
        <time>2022-08-12T08:38:14Z</time>
      </trkpt>
      <trkpt lat="42.503466" lon="2.438741">
        <ele>2018.664</ele>
        <time>2022-08-12T08:38:19Z</time>
      </trkpt>
      <trkpt lat="42.503431" lon="2.438782">
        <ele>2019.282</ele>
        <time>2022-08-12T08:38:25Z</time>
      </trkpt>
      <trkpt lat="42.503381" lon="2.438828">
        <ele>2019.743</ele>
        <time>2022-08-12T08:38:32Z</time>
      </trkpt>
      <trkpt lat="42.503328" lon="2.438816">
        <ele>2020.017</ele>
        <time>2022-08-12T08:38:38Z</time>
      </trkpt>
      <trkpt lat="42.503290" lon="2.438780">
        <ele>2020.409</ele>
        <time>2022-08-12T08:38:43Z</time>
      </trkpt>
      <trkpt lat="42.503239" lon="2.438751">
        <ele>2021.059</ele>
        <time>2022-08-12T08:38:48Z</time>
      </trkpt>
      <trkpt lat="42.503189" lon="2.438757">
        <ele>2021.649</ele>
        <time>2022-08-12T08:38:52Z</time>
      </trkpt>
      <trkpt lat="42.503140" lon="2.438741">
        <ele>2022.038</ele>
        <time>2022-08-12T08:38:59Z</time>
      </trkpt>
      <trkpt lat="42.503098" lon="2.438719">
        <ele>2022.492</ele>
        <time>2022-08-12T08:39:04Z</time>
      </trkpt>
      <trkpt lat="42.503053" lon="2.438678">
        <ele>2022.880</ele>
        <time>2022-08-12T08:39:09Z</time>
      </trkpt>
      <trkpt lat="42.503011" lon="2.438647">
        <ele>2023.237</ele>
        <time>2022-08-12T08:39:14Z</time>
      </trkpt>
      <trkpt lat="42.502958" lon="2.438671">
        <ele>2023.644</ele>
        <time>2022-08-12T08:39:19Z</time>
      </trkpt>
      <trkpt lat="42.502911" lon="2.438682">
        <ele>2024.246</ele>
        <time>2022-08-12T08:39:24Z</time>
      </trkpt>
      <trkpt lat="42.502865" lon="2.438694">
        <ele>2024.949</ele>
        <time>2022-08-12T08:39:29Z</time>
      </trkpt>
      <trkpt lat="42.502822" lon="2.438741">
        <ele>2025.317</ele>
        <time>2022-08-12T08:39:33Z</time>
      </trkpt>
      <trkpt lat="42.502812" lon="2.438807">
        <ele>2025.887</ele>
        <time>2022-08-12T08:39:39Z</time>
      </trkpt>
      <trkpt lat="42.502812" lon="2.438868">
        <ele>2026.115</ele>
        <time>2022-08-12T08:39:43Z</time>
      </trkpt>
      <trkpt lat="42.502811" lon="2.438932">
        <ele>2026.509</ele>
        <time>2022-08-12T08:39:48Z</time>
      </trkpt>
      <trkpt lat="42.502805" lon="2.438997">
        <ele>2027.092</ele>
        <time>2022-08-12T08:39:53Z</time>
      </trkpt>
      <trkpt lat="42.502820" lon="2.439068">
        <ele>2027.212</ele>
        <time>2022-08-12T08:40:00Z</time>
      </trkpt>
      <trkpt lat="42.502820" lon="2.439140">
        <ele>2027.561</ele>
        <time>2022-08-12T08:40:06Z</time>
      </trkpt>
      <trkpt lat="42.502833" lon="2.439212">
        <ele>2028.215</ele>
        <time>2022-08-12T08:40:11Z</time>
      </trkpt>
      <trkpt lat="42.502825" lon="2.439272">
        <ele>2028.873</ele>
        <time>2022-08-12T08:40:15Z</time>
      </trkpt>
      <trkpt lat="42.502844" lon="2.439348">
        <ele>2029.550</ele>
        <time>2022-08-12T08:40:19Z</time>
      </trkpt>
      <trkpt lat="42.502847" lon="2.439415">
        <ele>2030.177</ele>
        <time>2022-08-12T08:40:25Z</time>
      </trkpt>
      <trkpt lat="42.502863" lon="2.439481">
        <ele>2030.369</ele>
        <time>2022-08-12T08:40:32Z</time>
      </trkpt>
      <trkpt lat="42.502854" lon="2.439545">
        <ele>2030.852</ele>
        <time>2022-08-12T08:40:38Z</time>
      </trkpt>
      <trkpt lat="42.502877" lon="2.439609">
        <ele>2031.365</ele>
        <time>2022-08-12T08:40:43Z</time>
      </trkpt>
      <trkpt lat="42.502878" lon="2.439674">
        <ele>2031.668</ele>
        <time>2022-08-12T08:40:48Z</time>
      </trkpt>
      <trkpt lat="42.502908" lon="2.439734">
        <ele>2032.314</ele>
        <time>2022-08-12T08:40:51Z</time>
      </trkpt>
      <trkpt lat="42.502919" lon="2.439800">
        <ele>2032.909</ele>
        <time>2022-08-12T08:40:58Z</time>
      </trkpt>
      <trkpt lat="42.502932" lon="2.439859">
        <ele>2033.067</ele>
        <time>2022-08-12T08:41:04Z</time>
      </trkpt>
      <trkpt lat="42.502916" lon="2.439920">
        <ele>2033.757</ele>
        <time>2022-08-12T08:41:09Z</time>
      </trkpt>
      <trkpt lat="42.502914" lon="2.439985">
        <ele>2034.446</ele>
        <time>2022-08-12T08:41:16Z</time>
      </trkpt>
      <trkpt lat="42.502906" lon="2.440050">
        <ele>2034.890</ele>
        <time>2022-08-12T08:41:21Z</time>
      </trkpt>
      <trkpt lat="42.502899" lon="2.440120">
        <ele>2035.748</ele>
        <time>2022-08-12T08:41:28Z</time>
      </trkpt>
      <trkpt lat="42.502887" lon="2.440192">
        <ele>2036.355</ele>
        <time>2022-08-12T08:41:34Z</time>
      </trkpt>
      <trkpt lat="42.502878" lon="2.440267">
        <ele>2036.882</ele>
        <time>2022-08-12T08:41:40Z</time>
      </trkpt>
      <trkpt lat="42.502879" lon="2.440331">
        <ele>2037.544</ele>
        <time>2022-08-12T08:41:44Z</time>
      </trkpt>
      <trkpt lat="42.502860" lon="2.440389">
        <ele>2038.027</ele>
        <time>2022-08-12T08:41:48Z</time>
      </trkpt>
      <trkpt lat="42.502855" lon="2.440450">
        <ele>2038.494</ele>
        <time>2022-08-12T08:41:52Z</time>
      </trkpt>
      <trkpt lat="42.502818" lon="2.440497">
        <ele>2038.857</ele>
        <time>2022-08-12T08:41:57Z</time>
      </trkpt>
      <trkpt lat="42.502792" lon="2.440559">
        <ele>2039.222</ele>
        <time>2022-08-12T08:42:04Z</time>
      </trkpt>
      <trkpt lat="42.502746" lon="2.440570">
        <ele>2039.709</ele>
        <time>2022-08-12T08:42:11Z</time>
      </trkpt>
      <trkpt lat="42.502700" lon="2.440610">
        <ele>2040.050</ele>
        <time>2022-08-12T08:42:17Z</time>
      </trkpt>
      <trkpt lat="42.502674" lon="2.440677">
        <ele>2040.710</ele>
        <time>2022-08-12T08:42:22Z</time>
      </trkpt>
      <trkpt lat="42.502648" lon="2.440730">
        <ele>2041.489</ele>
        <time>2022-08-12T08:42:28Z</time>
      </trkpt>
      <trkpt lat="42.502606" lon="2.440763">
        <ele>2041.673</ele>
        <time>2022-08-12T08:42:33Z</time>
      </trkpt>
      <trkpt lat="42.502594" lon="2.440826">
        <ele>2042.261</ele>
        <time>2022-08-12T08:42:38Z</time>
      </trkpt>
      <trkpt lat="42.502580" lon="2.440896">
        <ele>2042.898</ele>
        <time>2022-08-12T08:42:44Z</time>
      </trkpt>
      <trkpt lat="42.502598" lon="2.440952">
        <ele>2043.045</ele>
        <time>2022-08-12T08:42:49Z</time>
      </trkpt>
      <trkpt lat="42.502602" lon="2.441016">
        <ele>2043.617</ele>
        <time>2022-08-12T08:42:56Z</time>
      </trkpt>
      <trkpt lat="42.502587" lon="2.441084">
        <ele>2044.320</ele>
        <time>2022-08-12T08:43:01Z</time>
      </trkpt>
      <trkpt lat="42.502575" lon="2.441150">
        <ele>2044.633</ele>
        <time>2022-08-12T08:43:06Z</time>
      </trkpt>
      <trkpt lat="42.502569" lon="2.441224">
        <ele>2045.223</ele>
        <time>2022-08-12T08:43:12Z</time>
      </trkpt>
      <trkpt lat="42.502539" lon="2.441271">
        <ele>2045.915</ele>
        <time>2022-08-12T08:43:20Z</time>
      </trkpt>
      <trkpt lat="42.502510" lon="2.441326">
        <ele>2046.309</ele>
        <time>2022-08-12T08:43:25Z</time>
      </trkpt>
      <trkpt lat="42.502508" lon="2.441391">
        <ele>2047.114</ele>
        <time>2022-08-12T08:43:29Z</time>
      </trkpt>
      <trkpt lat="42.502478" lon="2.441456">
        <ele>2047.884</ele>
        <time>2022-08-12T08:43:36Z</time>
      </trkpt>
      <trkpt lat="42.502448" lon="2.441507">
        <ele>2048.323</ele>
        <time>2022-08-12T08:43:40Z</time>
      </trkpt>
      <trkpt lat="42.502421" lon="2.441560">
        <ele>2048.987</ele>
        <time>2022-08-12T08:43:48Z</time>
      </trkpt>
      <trkpt lat="42.502428" lon="2.441636">
        <ele>2049.325</ele>
        <time>2022-08-12T08:43:57Z</time>
      </trkpt>
      <trkpt lat="42.502430" lon="2.441697">
        <ele>2050.192</ele>
        <time>2022-08-12T08:44:01Z</time>
      </trkpt>
      <trkpt lat="42.502427" lon="2.441772">
        <ele>2051.179</ele>
        <time>2022-08-12T08:44:06Z</time>
      </trkpt>
      <trkpt lat="42.502429" lon="2.441834">
        <ele>2051.721</ele>
        <time>2022-08-12T08:44:10Z</time>
      </trkpt>
      <trkpt lat="42.502414" lon="2.441895">
        <ele>2052.334</ele>
        <time>2022-08-12T08:44:17Z</time>
      </trkpt>
      <trkpt lat="42.502406" lon="2.441961">
        <ele>2052.865</ele>
        <time>2022-08-12T08:44:22Z</time>
      </trkpt>
      <trkpt lat="42.502391" lon="2.442025">
        <ele>2053.368</ele>
        <time>2022-08-12T08:44:27Z</time>
      </trkpt>
      <trkpt lat="42.502382" lon="2.442091">
        <ele>2054.114</ele>
        <time>2022-08-12T08:44:38Z</time>
      </trkpt>
      <trkpt lat="42.502394" lon="2.442156">
        <ele>2054.609</ele>
        <time>2022-08-12T08:44:47Z</time>
      </trkpt>
      <trkpt lat="42.502389" lon="2.442223">
        <ele>2055.587</ele>
        <time>2022-08-12T08:44:52Z</time>
      </trkpt>
      <trkpt lat="42.502384" lon="2.442289">
        <ele>2056.827</ele>
        <time>2022-08-12T08:44:58Z</time>
      </trkpt>
      <trkpt lat="42.502381" lon="2.442355">
        <ele>2057.526</ele>
        <time>2022-08-12T08:45:02Z</time>
      </trkpt>
      <trkpt lat="42.502395" lon="2.442414">
        <ele>2058.250</ele>
        <time>2022-08-12T08:45:09Z</time>
      </trkpt>
      <trkpt lat="42.502414" lon="2.442474">
        <ele>2058.988</ele>
        <time>2022-08-12T08:45:17Z</time>
      </trkpt>
      <trkpt lat="42.502431" lon="2.442542">
        <ele>2059.745</ele>
        <time>2022-08-12T08:45:23Z</time>
      </trkpt>
      <trkpt lat="42.502462" lon="2.442592">
        <ele>2060.832</ele>
        <time>2022-08-12T08:45:29Z</time>
      </trkpt>
      <trkpt lat="42.502503" lon="2.442620">
        <ele>2061.794</ele>
        <time>2022-08-12T08:45:32Z</time>
      </trkpt>
      <trkpt lat="42.502541" lon="2.442675">
        <ele>2062.497</ele>
        <time>2022-08-12T08:45:36Z</time>
      </trkpt>
      <trkpt lat="42.502575" lon="2.442740">
        <ele>2062.998</ele>
        <time>2022-08-12T08:45:43Z</time>
      </trkpt>
      <trkpt lat="42.502600" lon="2.442792">
        <ele>2063.315</ele>
        <time>2022-08-12T08:45:49Z</time>
      </trkpt>
      <trkpt lat="42.502607" lon="2.442863">
        <ele>2064.026</ele>
        <time>2022-08-12T08:45:57Z</time>
      </trkpt>
      <trkpt lat="42.502630" lon="2.442920">
        <ele>2064.809</ele>
        <time>2022-08-12T08:46:02Z</time>
      </trkpt>
      <trkpt lat="42.502648" lon="2.442989">
        <ele>2065.760</ele>
        <time>2022-08-12T08:46:07Z</time>
      </trkpt>
      <trkpt lat="42.502670" lon="2.443055">
        <ele>2066.440</ele>
        <time>2022-08-12T08:46:13Z</time>
      </trkpt>
      <trkpt lat="42.502694" lon="2.443112">
        <ele>2066.979</ele>
        <time>2022-08-12T08:46:20Z</time>
      </trkpt>
      <trkpt lat="42.502719" lon="2.443169">
        <ele>2067.673</ele>
        <time>2022-08-12T08:46:25Z</time>
      </trkpt>
      <trkpt lat="42.502744" lon="2.443226">
        <ele>2068.751</ele>
        <time>2022-08-12T08:46:31Z</time>
      </trkpt>
      <trkpt lat="42.502799" lon="2.443263">
        <ele>2069.548</ele>
        <time>2022-08-12T08:46:39Z</time>
      </trkpt>
      <trkpt lat="42.502831" lon="2.443315">
        <ele>2070.045</ele>
        <time>2022-08-12T08:46:45Z</time>
      </trkpt>
      <trkpt lat="42.502850" lon="2.443376">
        <ele>2070.787</ele>
        <time>2022-08-12T08:46:51Z</time>
      </trkpt>
      <trkpt lat="42.502880" lon="2.443436">
        <ele>2071.660</ele>
        <time>2022-08-12T08:46:56Z</time>
      </trkpt>
      <trkpt lat="42.502909" lon="2.443487">
        <ele>2072.372</ele>
        <time>2022-08-12T08:47:02Z</time>
      </trkpt>
      <trkpt lat="42.502932" lon="2.443543">
        <ele>2072.813</ele>
        <time>2022-08-12T08:47:05Z</time>
      </trkpt>
      <trkpt lat="42.502977" lon="2.443568">
        <ele>2073.214</ele>
        <time>2022-08-12T08:47:11Z</time>
      </trkpt>
      <trkpt lat="42.503012" lon="2.443617">
        <ele>2073.609</ele>
        <time>2022-08-12T08:47:15Z</time>
      </trkpt>
      <trkpt lat="42.503056" lon="2.443642">
        <ele>2074.038</ele>
        <time>2022-08-12T08:47:21Z</time>
      </trkpt>
      <trkpt lat="42.503087" lon="2.443687">
        <ele>2074.328</ele>
        <time>2022-08-12T08:47:25Z</time>
      </trkpt>
      <trkpt lat="42.503136" lon="2.443716">
        <ele>2074.817</ele>
        <time>2022-08-12T08:47:29Z</time>
      </trkpt>
      <trkpt lat="42.503173" lon="2.443755">
        <ele>2075.461</ele>
        <time>2022-08-12T08:47:35Z</time>
      </trkpt>
      <trkpt lat="42.503210" lon="2.443798">
        <ele>2075.779</ele>
        <time>2022-08-12T08:47:39Z</time>
      </trkpt>
      <trkpt lat="42.503251" lon="2.443839">
        <ele>2075.976</ele>
        <time>2022-08-12T08:47:42Z</time>
      </trkpt>
      <trkpt lat="42.503254" lon="2.443911">
        <ele>2076.283</ele>
        <time>2022-08-12T08:47:45Z</time>
      </trkpt>
      <trkpt lat="42.503254" lon="2.443978">
        <ele>2076.785</ele>
        <time>2022-08-12T08:47:50Z</time>
      </trkpt>
      <trkpt lat="42.503298" lon="2.443998">
        <ele>2077.158</ele>
        <time>2022-08-12T08:47:54Z</time>
      </trkpt>
      <trkpt lat="42.503351" lon="2.443990">
        <ele>2077.577</ele>
        <time>2022-08-12T08:47:56Z</time>
      </trkpt>
      <trkpt lat="42.503401" lon="2.444032">
        <ele>2078.061</ele>
        <time>2022-08-12T08:47:59Z</time>
      </trkpt>
      <trkpt lat="42.503444" lon="2.444066">
        <ele>2078.227</ele>
        <time>2022-08-12T08:48:03Z</time>
      </trkpt>
      <trkpt lat="42.503484" lon="2.444109">
        <ele>2078.409</ele>
        <time>2022-08-12T08:48:12Z</time>
      </trkpt>
      <trkpt lat="42.503491" lon="2.444175">
        <ele>2078.748</ele>
        <time>2022-08-12T08:48:16Z</time>
      </trkpt>
      <trkpt lat="42.503511" lon="2.444238">
        <ele>2079.438</ele>
        <time>2022-08-12T08:48:22Z</time>
      </trkpt>
      <trkpt lat="42.503512" lon="2.444301">
        <ele>2080.137</ele>
        <time>2022-08-12T08:48:28Z</time>
      </trkpt>
      <trkpt lat="42.503538" lon="2.444357">
        <ele>2080.591</ele>
        <time>2022-08-12T08:48:36Z</time>
      </trkpt>
      <trkpt lat="42.503573" lon="2.444409">
        <ele>2081.269</ele>
        <time>2022-08-12T08:48:42Z</time>
      </trkpt>
      <trkpt lat="42.503586" lon="2.444483">
        <ele>2081.856</ele>
        <time>2022-08-12T08:48:49Z</time>
      </trkpt>
      <trkpt lat="42.503612" lon="2.444533">
        <ele>2082.133</ele>
        <time>2022-08-12T08:48:53Z</time>
      </trkpt>
      <trkpt lat="42.503671" lon="2.444565">
        <ele>2082.655</ele>
        <time>2022-08-12T08:48:58Z</time>
      </trkpt>
      <trkpt lat="42.503699" lon="2.444616">
        <ele>2083.428</ele>
        <time>2022-08-12T08:49:03Z</time>
      </trkpt>
      <trkpt lat="42.503731" lon="2.444665">
        <ele>2083.773</ele>
        <time>2022-08-12T08:49:07Z</time>
      </trkpt>
      <trkpt lat="42.503770" lon="2.444701">
        <ele>2083.885</ele>
        <time>2022-08-12T08:49:13Z</time>
      </trkpt>
      <trkpt lat="42.503785" lon="2.444767">
        <ele>2084.313</ele>
        <time>2022-08-12T08:49:18Z</time>
      </trkpt>
      <trkpt lat="42.503812" lon="2.444817">
        <ele>2085.009</ele>
        <time>2022-08-12T08:49:21Z</time>
      </trkpt>
      <trkpt lat="42.503831" lon="2.444891">
        <ele>2085.338</ele>
        <time>2022-08-12T08:49:25Z</time>
      </trkpt>
      <trkpt lat="42.503829" lon="2.444959">
        <ele>2085.518</ele>
        <time>2022-08-12T08:49:31Z</time>
      </trkpt>
      <trkpt lat="42.503827" lon="2.445023">
        <ele>2086.027</ele>
        <time>2022-08-12T08:49:38Z</time>
      </trkpt>
      <trkpt lat="42.503839" lon="2.445089">
        <ele>2086.711</ele>
        <time>2022-08-12T08:49:43Z</time>
      </trkpt>
      <trkpt lat="42.503856" lon="2.445150">
        <ele>2087.229</ele>
        <time>2022-08-12T08:49:54Z</time>
      </trkpt>
      <trkpt lat="42.503806" lon="2.445164">
        <ele>2087.666</ele>
        <time>2022-08-12T08:50:02Z</time>
      </trkpt>
      <trkpt lat="42.503852" lon="2.445193">
        <ele>2087.773</ele>
        <time>2022-08-12T08:50:07Z</time>
      </trkpt>
      <trkpt lat="42.503896" lon="2.445165">
        <ele>2088.015</ele>
        <time>2022-08-12T08:50:14Z</time>
      </trkpt>
      <trkpt lat="42.503913" lon="2.445226">
        <ele>2088.268</ele>
        <time>2022-08-12T08:50:28Z</time>
      </trkpt>
      <trkpt lat="42.503953" lon="2.445282">
        <ele>2088.271</ele>
        <time>2022-08-12T08:50:39Z</time>
      </trkpt>
      <trkpt lat="42.503974" lon="2.445354">
        <ele>2088.241</ele>
        <time>2022-08-12T08:50:43Z</time>
      </trkpt>
      <trkpt lat="42.503990" lon="2.445429">
        <ele>2088.415</ele>
        <time>2022-08-12T08:50:49Z</time>
      </trkpt>
      <trkpt lat="42.504018" lon="2.445485">
        <ele>2088.809</ele>
        <time>2022-08-12T08:50:58Z</time>
      </trkpt>
      <trkpt lat="42.504018" lon="2.445565">
        <ele>2089.928</ele>
        <time>2022-08-12T08:51:06Z</time>
      </trkpt>
      <trkpt lat="42.504036" lon="2.445622">
        <ele>2090.718</ele>
        <time>2022-08-12T08:51:11Z</time>
      </trkpt>
      <trkpt lat="42.504041" lon="2.445702">
        <ele>2091.447</ele>
        <time>2022-08-12T08:51:17Z</time>
      </trkpt>
      <trkpt lat="42.504032" lon="2.445768">
        <ele>2091.721</ele>
        <time>2022-08-12T08:51:22Z</time>
      </trkpt>
      <trkpt lat="42.504032" lon="2.445831">
        <ele>2092.429</ele>
        <time>2022-08-12T08:51:26Z</time>
      </trkpt>
      <trkpt lat="42.504052" lon="2.445900">
        <ele>2093.096</ele>
        <time>2022-08-12T08:51:32Z</time>
      </trkpt>
      <trkpt lat="42.504065" lon="2.445978">
        <ele>2093.263</ele>
        <time>2022-08-12T08:51:36Z</time>
      </trkpt>
      <trkpt lat="42.504064" lon="2.446040">
        <ele>2093.675</ele>
        <time>2022-08-12T08:51:40Z</time>
      </trkpt>
      <trkpt lat="42.504086" lon="2.446098">
        <ele>2094.338</ele>
        <time>2022-08-12T08:51:44Z</time>
      </trkpt>
      <trkpt lat="42.504119" lon="2.446151">
        <ele>2095.055</ele>
        <time>2022-08-12T08:51:50Z</time>
      </trkpt>
      <trkpt lat="42.504150" lon="2.446209">
        <ele>2095.607</ele>
        <time>2022-08-12T08:51:54Z</time>
      </trkpt>
      <trkpt lat="42.504210" lon="2.446210">
        <ele>2096.417</ele>
        <time>2022-08-12T08:51:58Z</time>
      </trkpt>
      <trkpt lat="42.504252" lon="2.446246">
        <ele>2097.209</ele>
        <time>2022-08-12T08:52:05Z</time>
      </trkpt>
      <trkpt lat="42.504290" lon="2.446283">
        <ele>2097.836</ele>
        <time>2022-08-12T08:52:11Z</time>
      </trkpt>
      <trkpt lat="42.504336" lon="2.446314">
        <ele>2098.576</ele>
        <time>2022-08-12T08:52:24Z</time>
      </trkpt>
      <trkpt lat="42.504386" lon="2.446340">
        <ele>2099.135</ele>
        <time>2022-08-12T08:52:30Z</time>
      </trkpt>
      <trkpt lat="42.504411" lon="2.446396">
        <ele>2100.689</ele>
        <time>2022-08-12T08:52:37Z</time>
      </trkpt>
      <trkpt lat="42.504421" lon="2.446462">
        <ele>2102.127</ele>
        <time>2022-08-12T08:52:43Z</time>
      </trkpt>
      <trkpt lat="42.504435" lon="2.446529">
        <ele>2102.684</ele>
        <time>2022-08-12T08:52:47Z</time>
      </trkpt>
      <trkpt lat="42.504459" lon="2.446591">
        <ele>2103.661</ele>
        <time>2022-08-12T08:52:52Z</time>
      </trkpt>
      <trkpt lat="42.504456" lon="2.446653">
        <ele>2104.533</ele>
        <time>2022-08-12T08:52:58Z</time>
      </trkpt>
      <trkpt lat="42.504461" lon="2.446718">
        <ele>2104.856</ele>
        <time>2022-08-12T08:53:02Z</time>
      </trkpt>
      <trkpt lat="42.504473" lon="2.446790">
        <ele>2105.312</ele>
        <time>2022-08-12T08:53:06Z</time>
      </trkpt>
      <trkpt lat="42.504485" lon="2.446848">
        <ele>2105.832</ele>
        <time>2022-08-12T08:53:10Z</time>
      </trkpt>
      <trkpt lat="42.504478" lon="2.446919">
        <ele>2106.005</ele>
        <time>2022-08-12T08:53:16Z</time>
      </trkpt>
      <trkpt lat="42.504492" lon="2.446990">
        <ele>2106.509</ele>
        <time>2022-08-12T08:53:21Z</time>
      </trkpt>
      <trkpt lat="42.504482" lon="2.447050">
        <ele>2107.032</ele>
        <time>2022-08-12T08:53:28Z</time>
      </trkpt>
      <trkpt lat="42.504491" lon="2.447125">
        <ele>2107.222</ele>
        <time>2022-08-12T08:53:34Z</time>
      </trkpt>
      <trkpt lat="42.504507" lon="2.447195">
        <ele>2107.711</ele>
        <time>2022-08-12T08:53:40Z</time>
      </trkpt>
      <trkpt lat="42.504528" lon="2.447256">
        <ele>2108.315</ele>
        <time>2022-08-12T08:53:43Z</time>
      </trkpt>
      <trkpt lat="42.504544" lon="2.447319">
        <ele>2108.993</ele>
        <time>2022-08-12T08:53:49Z</time>
      </trkpt>
      <trkpt lat="42.504575" lon="2.447374">
        <ele>2109.690</ele>
        <time>2022-08-12T08:53:54Z</time>
      </trkpt>
      <trkpt lat="42.504584" lon="2.447434">
        <ele>2110.047</ele>
        <time>2022-08-12T08:54:02Z</time>
      </trkpt>
      <trkpt lat="42.504599" lon="2.447500">
        <ele>2110.469</ele>
        <time>2022-08-12T08:54:07Z</time>
      </trkpt>
      <trkpt lat="42.504628" lon="2.447562">
        <ele>2111.282</ele>
        <time>2022-08-12T08:54:12Z</time>
      </trkpt>
      <trkpt lat="42.504676" lon="2.447599">
        <ele>2112.121</ele>
        <time>2022-08-12T08:54:17Z</time>
      </trkpt>
      <trkpt lat="42.504709" lon="2.447647">
        <ele>2112.841</ele>
        <time>2022-08-12T08:54:21Z</time>
      </trkpt>
      <trkpt lat="42.504742" lon="2.447696">
        <ele>2113.605</ele>
        <time>2022-08-12T08:54:26Z</time>
      </trkpt>
      <trkpt lat="42.504779" lon="2.447755">
        <ele>2114.309</ele>
        <time>2022-08-12T08:54:31Z</time>
      </trkpt>
      <trkpt lat="42.504811" lon="2.447801">
        <ele>2114.853</ele>
        <time>2022-08-12T08:54:37Z</time>
      </trkpt>
      <trkpt lat="42.504823" lon="2.447861">
        <ele>2115.543</ele>
        <time>2022-08-12T08:54:44Z</time>
      </trkpt>
      <trkpt lat="42.504865" lon="2.447913">
        <ele>2116.092</ele>
        <time>2022-08-12T08:54:51Z</time>
      </trkpt>
      <trkpt lat="42.504905" lon="2.447959">
        <ele>2116.566</ele>
        <time>2022-08-12T08:54:57Z</time>
      </trkpt>
      <trkpt lat="42.504918" lon="2.448030">
        <ele>2117.464</ele>
        <time>2022-08-12T08:55:04Z</time>
      </trkpt>
      <trkpt lat="42.504965" lon="2.448068">
        <ele>2118.371</ele>
        <time>2022-08-12T08:55:09Z</time>
      </trkpt>
      <trkpt lat="42.505013" lon="2.448092">
        <ele>2119.218</ele>
        <time>2022-08-12T08:55:13Z</time>
      </trkpt>
      <trkpt lat="42.505067" lon="2.448131">
        <ele>2120.480</ele>
        <time>2022-08-12T08:55:17Z</time>
      </trkpt>
      <trkpt lat="42.505073" lon="2.448196">
        <ele>2120.693</ele>
        <time>2022-08-12T08:55:22Z</time>
      </trkpt>
      <trkpt lat="42.505121" lon="2.448204">
        <ele>2121.275</ele>
        <time>2022-08-12T08:55:29Z</time>
      </trkpt>
      <trkpt lat="42.505171" lon="2.448249">
        <ele>2122.228</ele>
        <time>2022-08-12T08:55:37Z</time>
      </trkpt>
      <trkpt lat="42.505204" lon="2.448300">
        <ele>2123.420</ele>
        <time>2022-08-12T08:55:41Z</time>
      </trkpt>
      <trkpt lat="42.505224" lon="2.448359">
        <ele>2124.609</ele>
        <time>2022-08-12T08:55:48Z</time>
      </trkpt>
      <trkpt lat="42.505241" lon="2.448417">
        <ele>2125.458</ele>
        <time>2022-08-12T08:55:56Z</time>
      </trkpt>
      <trkpt lat="42.505271" lon="2.448473">
        <ele>2125.838</ele>
        <time>2022-08-12T08:56:02Z</time>
      </trkpt>
      <trkpt lat="42.505281" lon="2.448536">
        <ele>2126.947</ele>
        <time>2022-08-12T08:56:10Z</time>
      </trkpt>
      <trkpt lat="42.505309" lon="2.448590">
        <ele>2128.171</ele>
        <time>2022-08-12T08:56:16Z</time>
      </trkpt>
      <trkpt lat="42.505308" lon="2.448657">
        <ele>2129.179</ele>
        <time>2022-08-12T08:56:21Z</time>
      </trkpt>
      <trkpt lat="42.505336" lon="2.448717">
        <ele>2130.216</ele>
        <time>2022-08-12T08:56:28Z</time>
      </trkpt>
      <trkpt lat="42.505355" lon="2.448777">
        <ele>2130.773</ele>
        <time>2022-08-12T08:56:33Z</time>
      </trkpt>
      <trkpt lat="42.505384" lon="2.448828">
        <ele>2131.255</ele>
        <time>2022-08-12T08:56:40Z</time>
      </trkpt>
      <trkpt lat="42.505413" lon="2.448877">
        <ele>2132.328</ele>
        <time>2022-08-12T08:56:45Z</time>
      </trkpt>
      <trkpt lat="42.505454" lon="2.448921">
        <ele>2133.038</ele>
        <time>2022-08-12T08:56:52Z</time>
      </trkpt>
      <trkpt lat="42.505493" lon="2.448963">
        <ele>2133.670</ele>
        <time>2022-08-12T08:56:58Z</time>
      </trkpt>
      <trkpt lat="42.505534" lon="2.448994">
        <ele>2134.817</ele>
        <time>2022-08-12T08:57:04Z</time>
      </trkpt>
      <trkpt lat="42.505556" lon="2.449064">
        <ele>2135.609</ele>
        <time>2022-08-12T08:57:09Z</time>
      </trkpt>
      <trkpt lat="42.505552" lon="2.449128">
        <ele>2136.354</ele>
        <time>2022-08-12T08:57:13Z</time>
      </trkpt>
      <trkpt lat="42.505546" lon="2.449193">
        <ele>2137.384</ele>
        <time>2022-08-12T08:57:18Z</time>
      </trkpt>
      <trkpt lat="42.505559" lon="2.449263">
        <ele>2137.893</ele>
        <time>2022-08-12T08:57:25Z</time>
      </trkpt>
      <trkpt lat="42.505570" lon="2.449324">
        <ele>2138.177</ele>
        <time>2022-08-12T08:57:31Z</time>
      </trkpt>
      <trkpt lat="42.505613" lon="2.449360">
        <ele>2138.915</ele>
        <time>2022-08-12T08:57:37Z</time>
      </trkpt>
      <trkpt lat="42.505627" lon="2.449422">
        <ele>2140.152</ele>
        <time>2022-08-12T08:57:46Z</time>
      </trkpt>
      <trkpt lat="42.505653" lon="2.449474">
        <ele>2141.559</ele>
        <time>2022-08-12T08:57:52Z</time>
      </trkpt>
      <trkpt lat="42.505648" lon="2.449543">
        <ele>2143.011</ele>
        <time>2022-08-12T08:57:56Z</time>
      </trkpt>
      <trkpt lat="42.505639" lon="2.449605">
        <ele>2144.534</ele>
        <time>2022-08-12T08:58:01Z</time>
      </trkpt>
      <trkpt lat="42.505665" lon="2.449656">
        <ele>2145.351</ele>
        <time>2022-08-12T08:58:07Z</time>
      </trkpt>
      <trkpt lat="42.505706" lon="2.449700">
        <ele>2145.801</ele>
        <time>2022-08-12T08:58:16Z</time>
      </trkpt>
      <trkpt lat="42.505739" lon="2.449755">
        <ele>2146.511</ele>
        <time>2022-08-12T08:58:24Z</time>
      </trkpt>
      <trkpt lat="42.505791" lon="2.449760">
        <ele>2147.709</ele>
        <time>2022-08-12T08:58:30Z</time>
      </trkpt>
      <trkpt lat="42.505837" lon="2.449762">
        <ele>2149.386</ele>
        <time>2022-08-12T08:58:35Z</time>
      </trkpt>
      <trkpt lat="42.505873" lon="2.449813">
        <ele>2150.476</ele>
        <time>2022-08-12T08:58:46Z</time>
      </trkpt>
      <trkpt lat="42.505920" lon="2.449829">
        <ele>2151.215</ele>
        <time>2022-08-12T08:58:51Z</time>
      </trkpt>
      <trkpt lat="42.505967" lon="2.449871">
        <ele>2152.459</ele>
        <time>2022-08-12T08:58:59Z</time>
      </trkpt>
      <trkpt lat="42.505990" lon="2.449942">
        <ele>2153.647</ele>
        <time>2022-08-12T08:59:06Z</time>
      </trkpt>
      <trkpt lat="42.506018" lon="2.450000">
        <ele>2154.264</ele>
        <time>2022-08-12T08:59:13Z</time>
      </trkpt>
      <trkpt lat="42.506047" lon="2.450048">
        <ele>2155.421</ele>
        <time>2022-08-12T08:59:24Z</time>
      </trkpt>
      <trkpt lat="42.506093" lon="2.450046">
        <ele>2157.093</ele>
        <time>2022-08-12T08:59:31Z</time>
      </trkpt>
      <trkpt lat="42.506115" lon="2.450103">
        <ele>2158.516</ele>
        <time>2022-08-12T08:59:46Z</time>
      </trkpt>
      <trkpt lat="42.506102" lon="2.450163">
        <ele>2159.524</ele>
        <time>2022-08-12T08:59:50Z</time>
      </trkpt>
      <trkpt lat="42.506148" lon="2.450181">
        <ele>2160.904</ele>
        <time>2022-08-12T09:00:00Z</time>
      </trkpt>
      <trkpt lat="42.506197" lon="2.450207">
        <ele>2162.214</ele>
        <time>2022-08-12T09:00:09Z</time>
      </trkpt>
      <trkpt lat="42.506203" lon="2.450272">
        <ele>2163.109</ele>
        <time>2022-08-12T09:00:17Z</time>
      </trkpt>
      <trkpt lat="42.506241" lon="2.450325">
        <ele>2164.723</ele>
        <time>2022-08-12T09:00:25Z</time>
      </trkpt>
      <trkpt lat="42.506263" lon="2.450379">
        <ele>2166.193</ele>
        <time>2022-08-12T09:00:31Z</time>
      </trkpt>
      <trkpt lat="42.506300" lon="2.450437">
        <ele>2167.332</ele>
        <time>2022-08-12T09:00:38Z</time>
      </trkpt>
      <trkpt lat="42.506320" lon="2.450495">
        <ele>2168.426</ele>
        <time>2022-08-12T09:00:44Z</time>
      </trkpt>
      <trkpt lat="42.506341" lon="2.450551">
        <ele>2169.754</ele>
        <time>2022-08-12T09:00:52Z</time>
      </trkpt>
      <trkpt lat="42.506365" lon="2.450609">
        <ele>2170.751</ele>
        <time>2022-08-12T09:01:00Z</time>
      </trkpt>
      <trkpt lat="42.506393" lon="2.450669">
        <ele>2171.998</ele>
        <time>2022-08-12T09:01:05Z</time>
      </trkpt>
      <trkpt lat="42.506422" lon="2.450729">
        <ele>2173.670</ele>
        <time>2022-08-12T09:01:13Z</time>
      </trkpt>
      <trkpt lat="42.506464" lon="2.450768">
        <ele>2174.633</ele>
        <time>2022-08-12T09:01:22Z</time>
      </trkpt>
      <trkpt lat="42.506501" lon="2.450811">
        <ele>2175.453</ele>
        <time>2022-08-12T09:01:30Z</time>
      </trkpt>
      <trkpt lat="42.506507" lon="2.450876">
        <ele>2176.704</ele>
        <time>2022-08-12T09:01:35Z</time>
      </trkpt>
      <trkpt lat="42.506537" lon="2.450923">
        <ele>2178.414</ele>
        <time>2022-08-12T09:01:42Z</time>
      </trkpt>
      <trkpt lat="42.506562" lon="2.450977">
        <ele>2179.509</ele>
        <time>2022-08-12T09:01:52Z</time>
      </trkpt>
      <trkpt lat="42.506602" lon="2.451006">
        <ele>2180.096</ele>
        <time>2022-08-12T09:01:59Z</time>
      </trkpt>
      <trkpt lat="42.506623" lon="2.451063">
        <ele>2181.346</ele>
        <time>2022-08-12T09:02:10Z</time>
      </trkpt>
      <trkpt lat="42.506653" lon="2.451113">
        <ele>2182.865</ele>
        <time>2022-08-12T09:02:24Z</time>
      </trkpt>
      <trkpt lat="42.506681" lon="2.451171">
        <ele>2184.139</ele>
        <time>2022-08-12T09:02:30Z</time>
      </trkpt>
      <trkpt lat="42.506715" lon="2.451223">
        <ele>2185.877</ele>
        <time>2022-08-12T09:02:39Z</time>
      </trkpt>
      <trkpt lat="42.506742" lon="2.451292">
        <ele>2187.214</ele>
        <time>2022-08-12T09:02:46Z</time>
      </trkpt>
      <trkpt lat="42.506765" lon="2.451347">
        <ele>2188.211</ele>
        <time>2022-08-12T09:02:57Z</time>
      </trkpt>
      <trkpt lat="42.506799" lon="2.451395">
        <ele>2188.923</ele>
        <time>2022-08-12T09:03:02Z</time>
      </trkpt>
      <trkpt lat="42.506844" lon="2.451409">
        <ele>2190.126</ele>
        <time>2022-08-12T09:03:15Z</time>
      </trkpt>
      <trkpt lat="42.506873" lon="2.451466">
        <ele>2191.543</ele>
        <time>2022-08-12T09:03:25Z</time>
      </trkpt>
      <trkpt lat="42.506920" lon="2.451479">
        <ele>2193.064</ele>
        <time>2022-08-12T09:03:32Z</time>
      </trkpt>
      <trkpt lat="42.506942" lon="2.451536">
        <ele>2194.810</ele>
        <time>2022-08-12T09:03:45Z</time>
      </trkpt>
      <trkpt lat="42.506988" lon="2.451561">
        <ele>2195.909</ele>
        <time>2022-08-12T09:03:54Z</time>
      </trkpt>
      <trkpt lat="42.507000" lon="2.451634">
        <ele>2197.365</ele>
        <time>2022-08-12T09:04:03Z</time>
      </trkpt>
      <trkpt lat="42.507012" lon="2.451703">
        <ele>2198.975</ele>
        <time>2022-08-12T09:04:09Z</time>
      </trkpt>
      <trkpt lat="42.507034" lon="2.451764">
        <ele>2200.464</ele>
        <time>2022-08-12T09:04:16Z</time>
      </trkpt>
      <trkpt lat="42.507062" lon="2.451823">
        <ele>2201.348</ele>
        <time>2022-08-12T09:04:22Z</time>
      </trkpt>
      <trkpt lat="42.507092" lon="2.451870">
        <ele>2202.356</ele>
        <time>2022-08-12T09:04:30Z</time>
      </trkpt>
      <trkpt lat="42.507114" lon="2.451923">
        <ele>2203.563</ele>
        <time>2022-08-12T09:04:37Z</time>
      </trkpt>
      <trkpt lat="42.507158" lon="2.451950">
        <ele>2204.320</ele>
        <time>2022-08-12T09:04:44Z</time>
      </trkpt>
      <trkpt lat="42.507200" lon="2.451977">
        <ele>2205.412</ele>
        <time>2022-08-12T09:04:52Z</time>
      </trkpt>
      <trkpt lat="42.507245" lon="2.451992">
        <ele>2206.665</ele>
        <time>2022-08-12T09:05:01Z</time>
      </trkpt>
      <trkpt lat="42.507256" lon="2.452056">
        <ele>2207.476</ele>
        <time>2022-08-12T09:05:12Z</time>
      </trkpt>
      <trkpt lat="42.507282" lon="2.452109">
        <ele>2208.690</ele>
        <time>2022-08-12T09:05:17Z</time>
      </trkpt>
      <trkpt lat="42.507318" lon="2.452150">
        <ele>2210.219</ele>
        <time>2022-08-12T09:05:24Z</time>
      </trkpt>
      <trkpt lat="42.507361" lon="2.452181">
        <ele>2211.309</ele>
        <time>2022-08-12T09:05:33Z</time>
      </trkpt>
      <trkpt lat="42.507409" lon="2.452205">
        <ele>2212.078</ele>
        <time>2022-08-12T09:05:40Z</time>
      </trkpt>
      <trkpt lat="42.507435" lon="2.452266">
        <ele>2213.098</ele>
        <time>2022-08-12T09:05:49Z</time>
      </trkpt>
      <trkpt lat="42.507458" lon="2.452319">
        <ele>2214.247</ele>
        <time>2022-08-12T09:05:53Z</time>
      </trkpt>
      <trkpt lat="42.507505" lon="2.452343">
        <ele>2215.351</ele>
        <time>2022-08-12T09:06:07Z</time>
      </trkpt>
      <trkpt lat="42.507516" lon="2.452406">
        <ele>2216.259</ele>
        <time>2022-08-12T09:06:16Z</time>
      </trkpt>
      <trkpt lat="42.507557" lon="2.452439">
        <ele>2217.496</ele>
        <time>2022-08-12T09:06:26Z</time>
      </trkpt>
      <trkpt lat="42.507600" lon="2.452470">
        <ele>2218.843</ele>
        <time>2022-08-12T09:06:32Z</time>
      </trkpt>
      <trkpt lat="42.507610" lon="2.452545">
        <ele>2220.295</ele>
        <time>2022-08-12T09:06:40Z</time>
      </trkpt>
      <trkpt lat="42.507625" lon="2.452606">
        <ele>2221.218</ele>
        <time>2022-08-12T09:06:44Z</time>
      </trkpt>
      <trkpt lat="42.507646" lon="2.452664">
        <ele>2222.162</ele>
        <time>2022-08-12T09:06:49Z</time>
      </trkpt>
      <trkpt lat="42.507654" lon="2.452728">
        <ele>2222.983</ele>
        <time>2022-08-12T09:06:55Z</time>
      </trkpt>
      <trkpt lat="42.507654" lon="2.452798">
        <ele>2223.411</ele>
        <time>2022-08-12T09:07:01Z</time>
      </trkpt>
      <trkpt lat="42.507677" lon="2.452851">
        <ele>2223.909</ele>
        <time>2022-08-12T09:07:08Z</time>
      </trkpt>
      <trkpt lat="42.507693" lon="2.452919">
        <ele>2224.017</ele>
        <time>2022-08-12T09:07:12Z</time>
      </trkpt>
      <trkpt lat="42.507724" lon="2.452967">
        <ele>2224.237</ele>
        <time>2022-08-12T09:07:16Z</time>
      </trkpt>
      <trkpt lat="42.507762" lon="2.453023">
        <ele>2224.566</ele>
        <time>2022-08-12T09:07:23Z</time>
      </trkpt>
      <trkpt lat="42.507795" lon="2.453069">
        <ele>2224.720</ele>
        <time>2022-08-12T09:07:30Z</time>
      </trkpt>
      <trkpt lat="42.507823" lon="2.453127">
        <ele>2225.018</ele>
        <time>2022-08-12T09:07:41Z</time>
      </trkpt>
      <trkpt lat="42.507870" lon="2.453163">
        <ele>2225.675</ele>
        <time>2022-08-12T09:07:45Z</time>
      </trkpt>
      <trkpt lat="42.507908" lon="2.453208">
        <ele>2226.992</ele>
        <time>2022-08-12T09:07:52Z</time>
      </trkpt>
      <trkpt lat="42.507950" lon="2.453244">
        <ele>2227.974</ele>
        <time>2022-08-12T09:07:59Z</time>
      </trkpt>
      <trkpt lat="42.507996" lon="2.453263">
        <ele>2228.297</ele>
        <time>2022-08-12T09:08:05Z</time>
      </trkpt>
      <trkpt lat="42.508026" lon="2.453312">
        <ele>2228.877</ele>
        <time>2022-08-12T09:08:10Z</time>
      </trkpt>
      <trkpt lat="42.508073" lon="2.453338">
        <ele>2229.461</ele>
        <time>2022-08-12T09:08:15Z</time>
      </trkpt>
      <trkpt lat="42.508115" lon="2.453369">
        <ele>2229.727</ele>
        <time>2022-08-12T09:08:22Z</time>
      </trkpt>
      <trkpt lat="42.508151" lon="2.453417">
        <ele>2230.109</ele>
        <time>2022-08-12T09:08:28Z</time>
      </trkpt>
      <trkpt lat="42.508164" lon="2.453482">
        <ele>2230.828</ele>
        <time>2022-08-12T09:08:35Z</time>
      </trkpt>
      <trkpt lat="42.508204" lon="2.453539">
        <ele>2231.328</ele>
        <time>2022-08-12T09:08:40Z</time>
      </trkpt>
      <trkpt lat="42.508241" lon="2.453595">
        <ele>2231.857</ele>
        <time>2022-08-12T09:08:44Z</time>
      </trkpt>
      <trkpt lat="42.508274" lon="2.453638">
        <ele>2232.231</ele>
        <time>2022-08-12T09:08:51Z</time>
      </trkpt>
      <trkpt lat="42.508300" lon="2.453691">
        <ele>2232.499</ele>
        <time>2022-08-12T09:08:55Z</time>
      </trkpt>
      <trkpt lat="42.508306" lon="2.453754">
        <ele>2232.846</ele>
        <time>2022-08-12T09:09:00Z</time>
      </trkpt>
      <trkpt lat="42.508325" lon="2.453822">
        <ele>2233.523</ele>
        <time>2022-08-12T09:09:04Z</time>
      </trkpt>
      <trkpt lat="42.508348" lon="2.453884">
        <ele>2234.065</ele>
        <time>2022-08-12T09:09:10Z</time>
      </trkpt>
      <trkpt lat="42.508367" lon="2.453942">
        <ele>2234.258</ele>
        <time>2022-08-12T09:09:17Z</time>
      </trkpt>
      <trkpt lat="42.508315" lon="2.453944">
        <ele>2234.384</ele>
        <time>2022-08-12T09:09:36Z</time>
      </trkpt>
      <trkpt lat="42.508269" lon="2.453941">
        <ele>2234.407</ele>
        <time>2022-08-12T09:09:41Z</time>
      </trkpt>
      <trkpt lat="42.508216" lon="2.453943">
        <ele>2234.717</ele>
        <time>2022-08-12T09:09:52Z</time>
      </trkpt>
      <trkpt lat="42.508165" lon="2.453927">
        <ele>2235.109</ele>
        <time>2022-08-12T09:09:56Z</time>
      </trkpt>
      <trkpt lat="42.508113" lon="2.453909">
        <ele>2235.339</ele>
        <time>2022-08-12T09:10:02Z</time>
      </trkpt>
      <trkpt lat="42.508068" lon="2.453890">
        <ele>2235.629</ele>
        <time>2022-08-12T09:10:09Z</time>
      </trkpt>
      <trkpt lat="42.508022" lon="2.453893">
        <ele>2235.968</ele>
        <time>2022-08-12T09:10:17Z</time>
      </trkpt>
      <trkpt lat="42.507986" lon="2.453944">
        <ele>2235.922</ele>
        <time>2022-08-12T09:10:23Z</time>
      </trkpt>
      <trkpt lat="42.507970" lon="2.454004">
        <ele>2236.410</ele>
        <time>2022-08-12T09:10:27Z</time>
      </trkpt>
      <trkpt lat="42.507950" lon="2.454071">
        <ele>2237.137</ele>
        <time>2022-08-12T09:10:33Z</time>
      </trkpt>
      <trkpt lat="42.507931" lon="2.454136">
        <ele>2237.494</ele>
        <time>2022-08-12T09:10:37Z</time>
      </trkpt>
      <trkpt lat="42.507901" lon="2.454184">
        <ele>2237.726</ele>
        <time>2022-08-12T09:10:44Z</time>
      </trkpt>
      <trkpt lat="42.507884" lon="2.454244">
        <ele>2238.259</ele>
        <time>2022-08-12T09:10:50Z</time>
      </trkpt>
      <trkpt lat="42.507868" lon="2.454312">
        <ele>2238.849</ele>
        <time>2022-08-12T09:10:55Z</time>
      </trkpt>
      <trkpt lat="42.507859" lon="2.454389">
        <ele>2239.402</ele>
        <time>2022-08-12T09:10:59Z</time>
      </trkpt>
      <trkpt lat="42.507838" lon="2.454465">
        <ele>2239.822</ele>
        <time>2022-08-12T09:11:05Z</time>
      </trkpt>
      <trkpt lat="42.507809" lon="2.454524">
        <ele>2240.409</ele>
        <time>2022-08-12T09:11:11Z</time>
      </trkpt>
      <trkpt lat="42.507784" lon="2.454591">
        <ele>2241.155</ele>
        <time>2022-08-12T09:11:18Z</time>
      </trkpt>
      <trkpt lat="42.507753" lon="2.454641">
        <ele>2241.655</ele>
        <time>2022-08-12T09:11:23Z</time>
      </trkpt>
      <trkpt lat="42.507722" lon="2.454703">
        <ele>2242.314</ele>
        <time>2022-08-12T09:11:28Z</time>
      </trkpt>
      <trkpt lat="42.507713" lon="2.454765">
        <ele>2242.468</ele>
        <time>2022-08-12T09:11:33Z</time>
      </trkpt>
      <trkpt lat="42.507693" lon="2.454839">
        <ele>2242.926</ele>
        <time>2022-08-12T09:11:38Z</time>
      </trkpt>
      <trkpt lat="42.507678" lon="2.454907">
        <ele>2243.313</ele>
        <time>2022-08-12T09:11:44Z</time>
      </trkpt>
      <trkpt lat="42.507658" lon="2.454964">
        <ele>2243.640</ele>
        <time>2022-08-12T09:11:50Z</time>
      </trkpt>
      <trkpt lat="42.507633" lon="2.455026">
        <ele>2244.052</ele>
        <time>2022-08-12T09:11:57Z</time>
      </trkpt>
      <trkpt lat="42.507608" lon="2.455080">
        <ele>2244.545</ele>
        <time>2022-08-12T09:12:05Z</time>
      </trkpt>
      <trkpt lat="42.507562" lon="2.455118">
        <ele>2245.495</ele>
        <time>2022-08-12T09:12:11Z</time>
      </trkpt>
      <trkpt lat="42.507532" lon="2.455169">
        <ele>2246.549</ele>
        <time>2022-08-12T09:12:15Z</time>
      </trkpt>
      <trkpt lat="42.507497" lon="2.455216">
        <ele>2247.223</ele>
        <time>2022-08-12T09:12:20Z</time>
      </trkpt>
      <trkpt lat="42.507462" lon="2.455274">
        <ele>2247.509</ele>
        <time>2022-08-12T09:12:24Z</time>
      </trkpt>
      <trkpt lat="42.507449" lon="2.455342">
        <ele>2247.870</ele>
        <time>2022-08-12T09:12:28Z</time>
      </trkpt>
      <trkpt lat="42.507429" lon="2.455412">
        <ele>2248.290</ele>
        <time>2022-08-12T09:12:36Z</time>
      </trkpt>
      <trkpt lat="42.507431" lon="2.455474">
        <ele>2248.559</ele>
        <time>2022-08-12T09:12:40Z</time>
      </trkpt>
      <trkpt lat="42.507455" lon="2.455533">
        <ele>2249.013</ele>
        <time>2022-08-12T09:12:48Z</time>
      </trkpt>
      <trkpt lat="42.507475" lon="2.455588">
        <ele>2249.591</ele>
        <time>2022-08-12T09:12:52Z</time>
      </trkpt>
      <trkpt lat="42.507498" lon="2.455642">
        <ele>2249.878</ele>
        <time>2022-08-12T09:12:57Z</time>
      </trkpt>
      <trkpt lat="42.507519" lon="2.455702">
        <ele>2250.485</ele>
        <time>2022-08-12T09:13:03Z</time>
      </trkpt>
      <trkpt lat="42.507518" lon="2.455767">
        <ele>2251.267</ele>
        <time>2022-08-12T09:13:09Z</time>
      </trkpt>
      <trkpt lat="42.507532" lon="2.455831">
        <ele>2251.880</ele>
        <time>2022-08-12T09:13:15Z</time>
      </trkpt>
      <trkpt lat="42.507534" lon="2.455894">
        <ele>2252.277</ele>
        <time>2022-08-12T09:13:21Z</time>
      </trkpt>
      <trkpt lat="42.507544" lon="2.455958">
        <ele>2252.861</ele>
        <time>2022-08-12T09:13:27Z</time>
      </trkpt>
      <trkpt lat="42.507568" lon="2.456021">
        <ele>2253.527</ele>
        <time>2022-08-12T09:13:31Z</time>
      </trkpt>
      <trkpt lat="42.507581" lon="2.456092">
        <ele>2254.409</ele>
        <time>2022-08-12T09:13:40Z</time>
      </trkpt>
      <trkpt lat="42.507587" lon="2.456162">
        <ele>2255.298</ele>
        <time>2022-08-12T09:13:47Z</time>
      </trkpt>
      <trkpt lat="42.507571" lon="2.456235">
        <ele>2255.918</ele>
        <time>2022-08-12T09:13:57Z</time>
      </trkpt>
      <trkpt lat="42.507563" lon="2.456303">
        <ele>2256.927</ele>
        <time>2022-08-12T09:14:02Z</time>
      </trkpt>
      <trkpt lat="42.507562" lon="2.456376">
        <ele>2257.991</ele>
        <time>2022-08-12T09:14:09Z</time>
      </trkpt>
      <trkpt lat="42.507542" lon="2.456439">
        <ele>2258.569</ele>
        <time>2022-08-12T09:14:14Z</time>
      </trkpt>
      <trkpt lat="42.507559" lon="2.456510">
        <ele>2259.356</ele>
        <time>2022-08-12T09:14:18Z</time>
      </trkpt>
      <trkpt lat="42.507556" lon="2.456571">
        <ele>2260.163</ele>
        <time>2022-08-12T09:14:23Z</time>
      </trkpt>
      <trkpt lat="42.507557" lon="2.456634">
        <ele>2260.435</ele>
        <time>2022-08-12T09:14:30Z</time>
      </trkpt>
      <trkpt lat="42.507570" lon="2.456695">
        <ele>2260.848</ele>
        <time>2022-08-12T09:14:37Z</time>
      </trkpt>
      <trkpt lat="42.507572" lon="2.456757">
        <ele>2261.622</ele>
        <time>2022-08-12T09:14:42Z</time>
      </trkpt>
      <trkpt lat="42.507586" lon="2.456820">
        <ele>2262.762</ele>
        <time>2022-08-12T09:14:49Z</time>
      </trkpt>
      <trkpt lat="42.507612" lon="2.456875">
        <ele>2263.608</ele>
        <time>2022-08-12T09:14:55Z</time>
      </trkpt>
      <trkpt lat="42.507650" lon="2.456833">
        <ele>2264.509</ele>
        <time>2022-08-12T09:15:02Z</time>
      </trkpt>
      <trkpt lat="42.507651" lon="2.456768">
        <ele>2265.173</ele>
        <time>2022-08-12T09:15:29Z</time>
      </trkpt>
      <trkpt lat="42.507667" lon="2.456707">
        <ele>2265.493</ele>
        <time>2022-08-12T09:15:33Z</time>
      </trkpt>
      <trkpt lat="42.507692" lon="2.456646">
        <ele>2266.082</ele>
        <time>2022-08-12T09:15:38Z</time>
      </trkpt>
      <trkpt lat="42.507725" lon="2.456578">
        <ele>2266.516</ele>
        <time>2022-08-12T09:15:43Z</time>
      </trkpt>
      <trkpt lat="42.507774" lon="2.456539">
        <ele>2266.874</ele>
        <time>2022-08-12T09:15:51Z</time>
      </trkpt>
      <trkpt lat="42.507815" lon="2.456508">
        <ele>2267.131</ele>
        <time>2022-08-12T09:15:54Z</time>
      </trkpt>
      <trkpt lat="42.507854" lon="2.456465">
        <ele>2267.488</ele>
        <time>2022-08-12T09:15:58Z</time>
      </trkpt>
      <trkpt lat="42.507896" lon="2.456439">
        <ele>2267.610</ele>
        <time>2022-08-12T09:16:02Z</time>
      </trkpt>
      <trkpt lat="42.507950" lon="2.456403">
        <ele>2267.733</ele>
        <time>2022-08-12T09:16:07Z</time>
      </trkpt>
      <trkpt lat="42.507998" lon="2.456396">
        <ele>2267.878</ele>
        <time>2022-08-12T09:16:11Z</time>
      </trkpt>
      <trkpt lat="42.508045" lon="2.456385">
        <ele>2268.333</ele>
        <time>2022-08-12T09:16:16Z</time>
      </trkpt>
      <trkpt lat="42.508098" lon="2.456405">
        <ele>2268.826</ele>
        <time>2022-08-12T09:16:22Z</time>
      </trkpt>
      <trkpt lat="42.508155" lon="2.456420">
        <ele>2269.309</ele>
        <time>2022-08-12T09:16:28Z</time>
      </trkpt>
      <trkpt lat="42.508204" lon="2.456456">
        <ele>2269.958</ele>
        <time>2022-08-12T09:16:33Z</time>
      </trkpt>
      <trkpt lat="42.508251" lon="2.456461">
        <ele>2270.448</ele>
        <time>2022-08-12T09:16:39Z</time>
      </trkpt>
      <trkpt lat="42.508294" lon="2.456485">
        <ele>2270.867</ele>
        <time>2022-08-12T09:16:42Z</time>
      </trkpt>
      <trkpt lat="42.508315" lon="2.456546">
        <ele>2271.381</ele>
        <time>2022-08-12T09:16:57Z</time>
      </trkpt>
      <trkpt lat="42.508354" lon="2.456588">
        <ele>2271.959</ele>
        <time>2022-08-12T09:17:01Z</time>
      </trkpt>
      <trkpt lat="42.508379" lon="2.456650">
        <ele>2272.676</ele>
        <time>2022-08-12T09:17:06Z</time>
      </trkpt>
      <trkpt lat="42.508390" lon="2.456718">
        <ele>2273.173</ele>
        <time>2022-08-12T09:17:10Z</time>
      </trkpt>
      <trkpt lat="42.508419" lon="2.456772">
        <ele>2273.335</ele>
        <time>2022-08-12T09:17:14Z</time>
      </trkpt>
      <trkpt lat="42.508454" lon="2.456822">
        <ele>2273.718</ele>
        <time>2022-08-12T09:17:19Z</time>
      </trkpt>
      <trkpt lat="42.508484" lon="2.456876">
        <ele>2274.065</ele>
        <time>2022-08-12T09:17:24Z</time>
      </trkpt>
      <trkpt lat="42.508533" lon="2.456908">
        <ele>2274.268</ele>
        <time>2022-08-12T09:17:30Z</time>
      </trkpt>
      <trkpt lat="42.508570" lon="2.456946">
        <ele>2274.514</ele>
        <time>2022-08-12T09:17:35Z</time>
      </trkpt>
      <trkpt lat="42.508614" lon="2.456996">
        <ele>2274.909</ele>
        <time>2022-08-12T09:17:41Z</time>
      </trkpt>
      <trkpt lat="42.508654" lon="2.457028">
        <ele>2275.397</ele>
        <time>2022-08-12T09:17:45Z</time>
      </trkpt>
      <trkpt lat="42.508700" lon="2.457033">
        <ele>2275.637</ele>
        <time>2022-08-12T09:17:49Z</time>
      </trkpt>
      <trkpt lat="42.508747" lon="2.457022">
        <ele>2275.846</ele>
        <time>2022-08-12T09:17:54Z</time>
      </trkpt>
      <trkpt lat="42.508781" lon="2.457067">
        <ele>2276.170</ele>
        <time>2022-08-12T09:18:00Z</time>
      </trkpt>
      <trkpt lat="42.508806" lon="2.457118">
        <ele>2276.538</ele>
        <time>2022-08-12T09:18:04Z</time>
      </trkpt>
      <trkpt lat="42.508841" lon="2.457166">
        <ele>2277.245</ele>
        <time>2022-08-12T09:18:09Z</time>
      </trkpt>
      <trkpt lat="42.508879" lon="2.457212">
        <ele>2278.142</ele>
        <time>2022-08-12T09:18:16Z</time>
      </trkpt>
      <trkpt lat="42.508907" lon="2.457263">
        <ele>2278.854</ele>
        <time>2022-08-12T09:18:28Z</time>
      </trkpt>
      <trkpt lat="42.508937" lon="2.457320">
        <ele>2279.947</ele>
        <time>2022-08-12T09:18:38Z</time>
      </trkpt>
      <trkpt lat="42.508975" lon="2.457360">
        <ele>2281.826</ele>
        <time>2022-08-12T09:18:46Z</time>
      </trkpt>
      <trkpt lat="42.508997" lon="2.457417">
        <ele>2283.547</ele>
        <time>2022-08-12T09:18:51Z</time>
      </trkpt>
      <trkpt lat="42.509025" lon="2.457467">
        <ele>2285.111</ele>
        <time>2022-08-12T09:18:57Z</time>
      </trkpt>
      <trkpt lat="42.509053" lon="2.457518">
        <ele>2286.309</ele>
        <time>2022-08-12T09:19:03Z</time>
      </trkpt>
      <trkpt lat="42.509070" lon="2.457575">
        <ele>2287.083</ele>
        <time>2022-08-12T09:19:17Z</time>
      </trkpt>
      <trkpt lat="42.509094" lon="2.457635">
        <ele>2287.853</ele>
        <time>2022-08-12T09:19:24Z</time>
      </trkpt>
      <trkpt lat="42.509130" lon="2.457677">
        <ele>2289.322</ele>
        <time>2022-08-12T09:19:34Z</time>
      </trkpt>
      <trkpt lat="42.509171" lon="2.457722">
        <ele>2291.046</ele>
        <time>2022-08-12T09:19:43Z</time>
      </trkpt>
      <trkpt lat="42.509207" lon="2.457762">
        <ele>2292.764</ele>
        <time>2022-08-12T09:19:51Z</time>
      </trkpt>
      <trkpt lat="42.509251" lon="2.457795">
        <ele>2294.171</ele>
        <time>2022-08-12T09:19:57Z</time>
      </trkpt>
      <trkpt lat="42.509307" lon="2.457796">
        <ele>2295.148</ele>
        <time>2022-08-12T09:20:04Z</time>
      </trkpt>
      <trkpt lat="42.509348" lon="2.457826">
        <ele>2296.070</ele>
        <time>2022-08-12T09:20:10Z</time>
      </trkpt>
      <trkpt lat="42.509334" lon="2.457893">
        <ele>2296.743</ele>
        <time>2022-08-12T09:20:15Z</time>
      </trkpt>
      <trkpt lat="42.509335" lon="2.457958">
        <ele>2297.453</ele>
        <time>2022-08-12T09:20:20Z</time>
      </trkpt>
      <trkpt lat="42.509374" lon="2.457998">
        <ele>2298.004</ele>
        <time>2022-08-12T09:20:25Z</time>
      </trkpt>
      <trkpt lat="42.509417" lon="2.458024">
        <ele>2298.514</ele>
        <time>2022-08-12T09:20:33Z</time>
      </trkpt>
      <trkpt lat="42.509408" lon="2.458092">
        <ele>2299.009</ele>
        <time>2022-08-12T09:20:40Z</time>
      </trkpt>
      <trkpt lat="42.509392" lon="2.458163">
        <ele>2299.886</ele>
        <time>2022-08-12T09:20:44Z</time>
      </trkpt>
      <trkpt lat="42.509412" lon="2.458229">
        <ele>2300.746</ele>
        <time>2022-08-12T09:20:49Z</time>
      </trkpt>
      <trkpt lat="42.509455" lon="2.458276">
        <ele>2301.475</ele>
        <time>2022-08-12T09:21:00Z</time>
      </trkpt>
      <trkpt lat="42.509514" lon="2.458292">
        <ele>2302.659</ele>
        <time>2022-08-12T09:21:04Z</time>
      </trkpt>
      <trkpt lat="42.509561" lon="2.458267">
        <ele>2303.087</ele>
        <time>2022-08-12T09:21:08Z</time>
      </trkpt>
      <trkpt lat="42.509599" lon="2.458233">
        <ele>2303.114</ele>
        <time>2022-08-12T09:21:13Z</time>
      </trkpt>
      <trkpt lat="42.509633" lon="2.458184">
        <ele>2303.581</ele>
        <time>2022-08-12T09:21:21Z</time>
      </trkpt>
      <trkpt lat="42.509681" lon="2.458181">
        <ele>2304.073</ele>
        <time>2022-08-12T09:21:28Z</time>
      </trkpt>
      <trkpt lat="42.509733" lon="2.458203">
        <ele>2304.396</ele>
        <time>2022-08-12T09:21:34Z</time>
      </trkpt>
      <trkpt lat="42.509770" lon="2.458251">
        <ele>2304.816</ele>
        <time>2022-08-12T09:21:39Z</time>
      </trkpt>
      <trkpt lat="42.509810" lon="2.458296">
        <ele>2305.576</ele>
        <time>2022-08-12T09:21:44Z</time>
      </trkpt>
      <trkpt lat="42.509844" lon="2.458345">
        <ele>2306.113</ele>
        <time>2022-08-12T09:21:51Z</time>
      </trkpt>
      <trkpt lat="42.509889" lon="2.458376">
        <ele>2306.509</ele>
        <time>2022-08-12T09:21:59Z</time>
      </trkpt>
      <trkpt lat="42.509924" lon="2.458426">
        <ele>2307.382</ele>
        <time>2022-08-12T09:22:04Z</time>
      </trkpt>
      <trkpt lat="42.509969" lon="2.458456">
        <ele>2308.412</ele>
        <time>2022-08-12T09:22:12Z</time>
      </trkpt>
      <trkpt lat="42.510004" lon="2.458499">
        <ele>2309.391</ele>
        <time>2022-08-12T09:22:18Z</time>
      </trkpt>
      <trkpt lat="42.510049" lon="2.458526">
        <ele>2310.455</ele>
        <time>2022-08-12T09:22:24Z</time>
      </trkpt>
      <trkpt lat="42.510085" lon="2.458563">
        <ele>2311.333</ele>
        <time>2022-08-12T09:22:29Z</time>
      </trkpt>
      <trkpt lat="42.510114" lon="2.458621">
        <ele>2311.880</ele>
        <time>2022-08-12T09:22:35Z</time>
      </trkpt>
      <trkpt lat="42.510149" lon="2.458661">
        <ele>2312.267</ele>
        <time>2022-08-12T09:22:40Z</time>
      </trkpt>
      <trkpt lat="42.510100" lon="2.458676">
        <ele>2312.889</ele>
        <time>2022-08-12T09:23:10Z</time>
      </trkpt>
      <trkpt lat="42.510049" lon="2.458689">
        <ele>2313.652</ele>
        <time>2022-08-12T09:23:14Z</time>
      </trkpt>
      <trkpt lat="42.510011" lon="2.458652">
        <ele>2314.092</ele>
        <time>2022-08-12T09:23:39Z</time>
      </trkpt>
      <trkpt lat="42.510021" lon="2.458588">
        <ele>2314.373</ele>
        <time>2022-08-12T09:23:42Z</time>
      </trkpt>
      <trkpt lat="42.509979" lon="2.458619">
        <ele>2314.620</ele>
        <time>2022-08-12T09:23:58Z</time>
      </trkpt>
      <trkpt lat="42.510016" lon="2.458674">
        <ele>2314.809</ele>
        <time>2022-08-12T09:24:15Z</time>
      </trkpt>
      <trkpt lat="42.510039" lon="2.458727">
        <ele>2314.950</ele>
        <time>2022-08-12T09:24:27Z</time>
      </trkpt>
      <trkpt lat="42.510079" lon="2.458756">
        <ele>2314.880</ele>
        <time>2022-08-12T09:24:57Z</time>
      </trkpt>
      <trkpt lat="42.510095" lon="2.458696">
        <ele>2314.979</ele>
        <time>2022-08-12T09:26:10Z</time>
      </trkpt>
      <trkpt lat="42.510125" lon="2.458741">
        <ele>2314.923</ele>
        <time>2022-08-12T09:27:17Z</time>
      </trkpt>
      <trkpt lat="42.510166" lon="2.458708">
        <ele>2314.811</ele>
        <time>2022-08-12T09:28:18Z</time>
      </trkpt>
      <trkpt lat="42.510203" lon="2.458744">
        <ele>2314.818</ele>
        <time>2022-08-12T09:28:40Z</time>
      </trkpt>
      <trkpt lat="42.510240" lon="2.458798">
        <ele>2314.895</ele>
        <time>2022-08-12T09:28:46Z</time>
      </trkpt>
      <trkpt lat="42.510254" lon="2.458863">
        <ele>2314.947</ele>
        <time>2022-08-12T09:28:49Z</time>
      </trkpt>
      <trkpt lat="42.510283" lon="2.458924">
        <ele>2314.910</ele>
        <time>2022-08-12T09:28:55Z</time>
      </trkpt>
      <trkpt lat="42.510341" lon="2.458936">
        <ele>2315.154</ele>
        <time>2022-08-12T09:29:03Z</time>
      </trkpt>
      <trkpt lat="42.510395" lon="2.458944">
        <ele>2315.856</ele>
        <time>2022-08-12T09:29:09Z</time>
      </trkpt>
      <trkpt lat="42.510454" lon="2.458924">
        <ele>2316.411</ele>
        <time>2022-08-12T09:29:16Z</time>
      </trkpt>
      <trkpt lat="42.510502" lon="2.458946">
        <ele>2316.909</ele>
        <time>2022-08-12T09:29:20Z</time>
      </trkpt>
      <trkpt lat="42.510546" lon="2.458964">
        <ele>2317.436</ele>
        <time>2022-08-12T09:29:24Z</time>
      </trkpt>
      <trkpt lat="42.510602" lon="2.458963">
        <ele>2317.546</ele>
        <time>2022-08-12T09:29:29Z</time>
      </trkpt>
      <trkpt lat="42.510653" lon="2.458968">
        <ele>2317.815</ele>
        <time>2022-08-12T09:29:33Z</time>
      </trkpt>
      <trkpt lat="42.510694" lon="2.459003">
        <ele>2318.269</ele>
        <time>2022-08-12T09:29:37Z</time>
      </trkpt>
      <trkpt lat="42.510738" lon="2.458984">
        <ele>2318.527</ele>
        <time>2022-08-12T09:29:42Z</time>
      </trkpt>
      <trkpt lat="42.510778" lon="2.459021">
        <ele>2318.824</ele>
        <time>2022-08-12T09:29:50Z</time>
      </trkpt>
      <trkpt lat="42.510823" lon="2.459039">
        <ele>2319.241</ele>
        <time>2022-08-12T09:29:57Z</time>
      </trkpt>
      <trkpt lat="42.510867" lon="2.459066">
        <ele>2320.163</ele>
        <time>2022-08-12T09:30:03Z</time>
      </trkpt>
      <trkpt lat="42.510913" lon="2.459100">
        <ele>2320.846</ele>
        <time>2022-08-12T09:30:10Z</time>
      </trkpt>
      <trkpt lat="42.510960" lon="2.459116">
        <ele>2321.075</ele>
        <time>2022-08-12T09:30:15Z</time>
      </trkpt>
      <trkpt lat="42.511013" lon="2.459105">
        <ele>2321.528</ele>
        <time>2022-08-12T09:30:26Z</time>
      </trkpt>
      <trkpt lat="42.511063" lon="2.459091">
        <ele>2322.220</ele>
        <time>2022-08-12T09:30:34Z</time>
      </trkpt>
      <trkpt lat="42.511112" lon="2.459074">
        <ele>2323.409</ele>
        <time>2022-08-12T09:30:38Z</time>
      </trkpt>
      <trkpt lat="42.511158" lon="2.459037">
        <ele>2324.548</ele>
        <time>2022-08-12T09:30:43Z</time>
      </trkpt>
      <trkpt lat="42.511193" lon="2.458992">
        <ele>2325.048</ele>
        <time>2022-08-12T09:30:47Z</time>
      </trkpt>
      <trkpt lat="42.511219" lon="2.458930">
        <ele>2325.297</ele>
        <time>2022-08-12T09:30:51Z</time>
      </trkpt>
      <trkpt lat="42.511232" lon="2.458871">
        <ele>2325.431</ele>
        <time>2022-08-12T09:30:56Z</time>
      </trkpt>
      <trkpt lat="42.511239" lon="2.458793">
        <ele>2325.619</ele>
        <time>2022-08-12T09:31:01Z</time>
      </trkpt>
      <trkpt lat="42.511256" lon="2.458720">
        <ele>2326.166</ele>
        <time>2022-08-12T09:31:06Z</time>
      </trkpt>
      <trkpt lat="42.511277" lon="2.458666">
        <ele>2326.743</ele>
        <time>2022-08-12T09:31:11Z</time>
      </trkpt>
      <trkpt lat="42.511319" lon="2.458636">
        <ele>2327.235</ele>
        <time>2022-08-12T09:31:18Z</time>
      </trkpt>
      <trkpt lat="42.511365" lon="2.458625">
        <ele>2327.678</ele>
        <time>2022-08-12T09:31:23Z</time>
      </trkpt>
      <trkpt lat="42.511410" lon="2.458612">
        <ele>2327.876</ele>
        <time>2022-08-12T09:31:28Z</time>
      </trkpt>
      <trkpt lat="42.511458" lon="2.458597">
        <ele>2328.290</ele>
        <time>2022-08-12T09:31:34Z</time>
      </trkpt>
      <trkpt lat="42.511508" lon="2.458600">
        <ele>2329.019</ele>
        <time>2022-08-12T09:31:41Z</time>
      </trkpt>
      <trkpt lat="42.511562" lon="2.458576">
        <ele>2329.909</ele>
        <time>2022-08-12T09:31:47Z</time>
      </trkpt>
      <trkpt lat="42.511606" lon="2.458602">
        <ele>2330.668</ele>
        <time>2022-08-12T09:31:53Z</time>
      </trkpt>
      <trkpt lat="42.511633" lon="2.458656">
        <ele>2331.588</ele>
        <time>2022-08-12T09:31:59Z</time>
      </trkpt>
      <trkpt lat="42.511650" lon="2.458713">
        <ele>2332.397</ele>
        <time>2022-08-12T09:32:06Z</time>
      </trkpt>
      <trkpt lat="42.511687" lon="2.458760">
        <ele>2333.421</ele>
        <time>2022-08-12T09:32:11Z</time>
      </trkpt>
      <trkpt lat="42.511733" lon="2.458790">
        <ele>2334.649</ele>
        <time>2022-08-12T09:32:20Z</time>
      </trkpt>
      <trkpt lat="42.511757" lon="2.458842">
        <ele>2335.316</ele>
        <time>2022-08-12T09:32:27Z</time>
      </trkpt>
      <trkpt lat="42.511797" lon="2.458876">
        <ele>2336.113</ele>
        <time>2022-08-12T09:32:32Z</time>
      </trkpt>
      <trkpt lat="42.511850" lon="2.458882">
        <ele>2337.195</ele>
        <time>2022-08-12T09:32:37Z</time>
      </trkpt>
      <trkpt lat="42.511897" lon="2.458878">
        <ele>2338.298</ele>
        <time>2022-08-12T09:32:43Z</time>
      </trkpt>
      <trkpt lat="42.511944" lon="2.458890">
        <ele>2339.021</ele>
        <time>2022-08-12T09:32:47Z</time>
      </trkpt>
      <trkpt lat="42.511988" lon="2.458926">
        <ele>2339.441</ele>
        <time>2022-08-12T09:32:53Z</time>
      </trkpt>
      <trkpt lat="42.512030" lon="2.458950">
        <ele>2340.005</ele>
        <time>2022-08-12T09:32:57Z</time>
      </trkpt>
      <trkpt lat="42.512076" lon="2.458971">
        <ele>2340.709</ele>
        <time>2022-08-12T09:33:07Z</time>
      </trkpt>
      <trkpt lat="42.512129" lon="2.458977">
        <ele>2341.223</ele>
        <time>2022-08-12T09:33:14Z</time>
      </trkpt>
      <trkpt lat="42.512179" lon="2.458978">
        <ele>2342.063</ele>
        <time>2022-08-12T09:33:20Z</time>
      </trkpt>
      <trkpt lat="42.512228" lon="2.458960">
        <ele>2343.172</ele>
        <time>2022-08-12T09:33:25Z</time>
      </trkpt>
      <trkpt lat="42.512277" lon="2.458966">
        <ele>2344.066</ele>
        <time>2022-08-12T09:33:31Z</time>
      </trkpt>
      <trkpt lat="42.512325" lon="2.458949">
        <ele>2344.794</ele>
        <time>2022-08-12T09:33:38Z</time>
      </trkpt>
      <trkpt lat="42.512358" lon="2.458907">
        <ele>2345.641</ele>
        <time>2022-08-12T09:33:43Z</time>
      </trkpt>
      <trkpt lat="42.512377" lon="2.458849">
        <ele>2346.668</ele>
        <time>2022-08-12T09:33:51Z</time>
      </trkpt>
      <trkpt lat="42.512421" lon="2.458805">
        <ele>2347.280</ele>
        <time>2022-08-12T09:33:59Z</time>
      </trkpt>
      <trkpt lat="42.512453" lon="2.458756">
        <ele>2348.283</ele>
        <time>2022-08-12T09:34:04Z</time>
      </trkpt>
      <trkpt lat="42.512482" lon="2.458707">
        <ele>2349.773</ele>
        <time>2022-08-12T09:34:09Z</time>
      </trkpt>
      <trkpt lat="42.512471" lon="2.458775">
        <ele>2350.485</ele>
        <time>2022-08-12T09:34:20Z</time>
      </trkpt>
      <trkpt lat="42.512482" lon="2.458835">
        <ele>2350.813</ele>
        <time>2022-08-12T09:34:27Z</time>
      </trkpt>
      <trkpt lat="42.512470" lon="2.458903">
        <ele>2351.309</ele>
        <time>2022-08-12T09:34:33Z</time>
      </trkpt>
      <trkpt lat="42.512455" lon="2.458970">
        <ele>2351.638</ele>
        <time>2022-08-12T09:34:39Z</time>
      </trkpt>
      <trkpt lat="42.512403" lon="2.459020">
        <ele>2351.758</ele>
        <time>2022-08-12T09:34:45Z</time>
      </trkpt>
      <trkpt lat="42.512365" lon="2.459059">
        <ele>2351.867</ele>
        <time>2022-08-12T09:34:51Z</time>
      </trkpt>
      <trkpt lat="42.512334" lon="2.459122">
        <ele>2352.461</ele>
        <time>2022-08-12T09:34:58Z</time>
      </trkpt>
      <trkpt lat="42.512292" lon="2.459159">
        <ele>2352.829</ele>
        <time>2022-08-12T09:35:03Z</time>
      </trkpt>
      <trkpt lat="42.512263" lon="2.459206">
        <ele>2353.156</ele>
        <time>2022-08-12T09:35:08Z</time>
      </trkpt>
      <trkpt lat="42.512237" lon="2.459257">
        <ele>2353.663</ele>
        <time>2022-08-12T09:35:11Z</time>
      </trkpt>
      <trkpt lat="42.512203" lon="2.459301">
        <ele>2354.115</ele>
        <time>2022-08-12T09:35:15Z</time>
      </trkpt>
      <trkpt lat="42.512168" lon="2.459349">
        <ele>2354.678</ele>
        <time>2022-08-12T09:35:18Z</time>
      </trkpt>
      <trkpt lat="42.512166" lon="2.459414">
        <ele>2354.991</ele>
        <time>2022-08-12T09:35:25Z</time>
      </trkpt>
      <trkpt lat="42.512145" lon="2.459472">
        <ele>2355.581</ele>
        <time>2022-08-12T09:35:31Z</time>
      </trkpt>
      <trkpt lat="42.512132" lon="2.459540">
        <ele>2356.519</ele>
        <time>2022-08-12T09:35:40Z</time>
      </trkpt>
      <trkpt lat="42.512115" lon="2.459609">
        <ele>2357.209</ele>
        <time>2022-08-12T09:35:46Z</time>
      </trkpt>
      <trkpt lat="42.512073" lon="2.459640">
        <ele>2358.120</ele>
        <time>2022-08-12T09:35:52Z</time>
      </trkpt>
      <trkpt lat="42.512049" lon="2.459698">
        <ele>2359.090</ele>
        <time>2022-08-12T09:35:56Z</time>
      </trkpt>
      <trkpt lat="42.512025" lon="2.459755">
        <ele>2359.459</ele>
        <time>2022-08-12T09:36:01Z</time>
      </trkpt>
      <trkpt lat="42.511977" lon="2.459791">
        <ele>2359.633</ele>
        <time>2022-08-12T09:36:07Z</time>
      </trkpt>
      <trkpt lat="42.511964" lon="2.459855">
        <ele>2359.981</ele>
        <time>2022-08-12T09:36:20Z</time>
      </trkpt>
      <trkpt lat="42.511944" lon="2.459934">
        <ele>2360.578</ele>
        <time>2022-08-12T09:36:25Z</time>
      </trkpt>
      <trkpt lat="42.511921" lon="2.459991">
        <ele>2361.515</ele>
        <time>2022-08-12T09:36:31Z</time>
      </trkpt>
      <trkpt lat="42.511896" lon="2.460052">
        <ele>2362.497</ele>
        <time>2022-08-12T09:36:36Z</time>
      </trkpt>
      <trkpt lat="42.511848" lon="2.460088">
        <ele>2363.190</ele>
        <time>2022-08-12T09:36:43Z</time>
      </trkpt>
      <trkpt lat="42.511814" lon="2.460133">
        <ele>2364.011</ele>
        <time>2022-08-12T09:36:49Z</time>
      </trkpt>
      <trkpt lat="42.511778" lon="2.460176">
        <ele>2364.721</ele>
        <time>2022-08-12T09:36:54Z</time>
      </trkpt>
      <trkpt lat="42.511760" lon="2.460239">
        <ele>2365.103</ele>
        <time>2022-08-12T09:37:03Z</time>
      </trkpt>
      <trkpt lat="42.511750" lon="2.460300">
        <ele>2365.209</ele>
        <time>2022-08-12T09:37:07Z</time>
      </trkpt>
      <trkpt lat="42.511720" lon="2.460354">
        <ele>2366.232</ele>
        <time>2022-08-12T09:37:16Z</time>
      </trkpt>
      <trkpt lat="42.511685" lon="2.460395">
        <ele>2367.132</ele>
        <time>2022-08-12T09:37:21Z</time>
      </trkpt>
      <trkpt lat="42.511648" lon="2.460434">
        <ele>2367.381</ele>
        <time>2022-08-12T09:37:29Z</time>
      </trkpt>
      <trkpt lat="42.511697" lon="2.460440">
        <ele>2368.085</ele>
        <time>2022-08-12T09:37:52Z</time>
      </trkpt>
      <trkpt lat="42.511744" lon="2.460405">
        <ele>2368.973</ele>
        <time>2022-08-12T09:37:57Z</time>
      </trkpt>
      <trkpt lat="42.511774" lon="2.460345">
        <ele>2370.040</ele>
        <time>2022-08-12T09:38:02Z</time>
      </trkpt>
      <trkpt lat="42.511814" lon="2.460307">
        <ele>2370.947</ele>
        <time>2022-08-12T09:38:07Z</time>
      </trkpt>
      <trkpt lat="42.511862" lon="2.460293">
        <ele>2371.339</ele>
        <time>2022-08-12T09:38:13Z</time>
      </trkpt>
      <trkpt lat="42.511913" lon="2.460294">
        <ele>2371.972</ele>
        <time>2022-08-12T09:38:19Z</time>
      </trkpt>
      <trkpt lat="42.511957" lon="2.460260">
        <ele>2372.981</ele>
        <time>2022-08-12T09:38:24Z</time>
      </trkpt>
      <trkpt lat="42.512002" lon="2.460246">
        <ele>2373.661</ele>
        <time>2022-08-12T09:38:31Z</time>
      </trkpt>
      <trkpt lat="42.512052" lon="2.460264">
        <ele>2373.917</ele>
        <time>2022-08-12T09:38:37Z</time>
      </trkpt>
      <trkpt lat="42.512106" lon="2.460285">
        <ele>2374.209</ele>
        <time>2022-08-12T09:38:48Z</time>
      </trkpt>
      <trkpt lat="42.512155" lon="2.460251">
        <ele>2374.679</ele>
        <time>2022-08-12T09:38:55Z</time>
      </trkpt>
      <trkpt lat="42.512188" lon="2.460206">
        <ele>2376.339</ele>
        <time>2022-08-12T09:39:00Z</time>
      </trkpt>
      <trkpt lat="42.512212" lon="2.460142">
        <ele>2377.978</ele>
        <time>2022-08-12T09:39:05Z</time>
      </trkpt>
      <trkpt lat="42.512253" lon="2.460105">
        <ele>2378.862</ele>
        <time>2022-08-12T09:39:10Z</time>
      </trkpt>
      <trkpt lat="42.512304" lon="2.460085">
        <ele>2379.650</ele>
        <time>2022-08-12T09:39:14Z</time>
      </trkpt>
      <trkpt lat="42.512354" lon="2.460065">
        <ele>2379.847</ele>
        <time>2022-08-12T09:39:18Z</time>
      </trkpt>
      <trkpt lat="42.512410" lon="2.460039">
        <ele>2379.924</ele>
        <time>2022-08-12T09:39:24Z</time>
      </trkpt>
      <trkpt lat="42.512451" lon="2.459994">
        <ele>2380.246</ele>
        <time>2022-08-12T09:39:29Z</time>
      </trkpt>
      <trkpt lat="42.512508" lon="2.459988">
        <ele>2381.559</ele>
        <time>2022-08-12T09:39:36Z</time>
      </trkpt>
      <trkpt lat="42.512553" lon="2.459981">
        <ele>2382.094</ele>
        <time>2022-08-12T09:39:44Z</time>
      </trkpt>
      <trkpt lat="42.512604" lon="2.459948">
        <ele>2383.257</ele>
        <time>2022-08-12T09:39:50Z</time>
      </trkpt>
      <trkpt lat="42.512641" lon="2.459910">
        <ele>2384.222</ele>
        <time>2022-08-12T09:39:55Z</time>
      </trkpt>
      <trkpt lat="42.512686" lon="2.459886">
        <ele>2385.509</ele>
        <time>2022-08-12T09:40:02Z</time>
      </trkpt>
      <trkpt lat="42.512735" lon="2.459888">
        <ele>2386.250</ele>
        <time>2022-08-12T09:40:09Z</time>
      </trkpt>
      <trkpt lat="42.512781" lon="2.459906">
        <ele>2387.180</ele>
        <time>2022-08-12T09:40:16Z</time>
      </trkpt>
      <trkpt lat="42.512833" lon="2.459912">
        <ele>2388.279</ele>
        <time>2022-08-12T09:40:23Z</time>
      </trkpt>
      <trkpt lat="42.512784" lon="2.459938">
        <ele>2389.323</ele>
        <time>2022-08-12T09:40:32Z</time>
      </trkpt>
      <trkpt lat="42.512743" lon="2.459976">
        <ele>2390.331</ele>
        <time>2022-08-12T09:40:38Z</time>
      </trkpt>
      <trkpt lat="42.512696" lon="2.459977">
        <ele>2391.328</ele>
        <time>2022-08-12T09:40:43Z</time>
      </trkpt>
      <trkpt lat="42.512648" lon="2.460005">
        <ele>2392.035</ele>
        <time>2022-08-12T09:40:48Z</time>
      </trkpt>
      <trkpt lat="42.512623" lon="2.460073">
        <ele>2392.787</ele>
        <time>2022-08-12T09:40:54Z</time>
      </trkpt>
      <trkpt lat="42.512596" lon="2.460154">
        <ele>2393.520</ele>
        <time>2022-08-12T09:41:00Z</time>
      </trkpt>
      <trkpt lat="42.512589" lon="2.460215">
        <ele>2393.834</ele>
        <time>2022-08-12T09:41:06Z</time>
      </trkpt>
      <trkpt lat="42.512619" lon="2.460270">
        <ele>2395.355</ele>
        <time>2022-08-12T09:41:19Z</time>
      </trkpt>
      <trkpt lat="42.512667" lon="2.460265">
        <ele>2395.810</ele>
        <time>2022-08-12T09:41:35Z</time>
      </trkpt>
      <trkpt lat="42.512712" lon="2.460253">
        <ele>2397.509</ele>
        <time>2022-08-12T09:41:42Z</time>
      </trkpt>
      <trkpt lat="42.512756" lon="2.460229">
        <ele>2400.144</ele>
        <time>2022-08-12T09:41:47Z</time>
      </trkpt>
      <trkpt lat="42.512807" lon="2.460208">
        <ele>2402.184</ele>
        <time>2022-08-12T09:41:54Z</time>
      </trkpt>
      <trkpt lat="42.512856" lon="2.460194">
        <ele>2402.843</ele>
        <time>2022-08-12T09:42:02Z</time>
      </trkpt>
      <trkpt lat="42.512905" lon="2.460176">
        <ele>2403.637</ele>
        <time>2022-08-12T09:42:11Z</time>
      </trkpt>
      <trkpt lat="42.512947" lon="2.460203">
        <ele>2404.715</ele>
        <time>2022-08-12T09:42:20Z</time>
      </trkpt>
      <trkpt lat="42.512986" lon="2.460246">
        <ele>2405.632</ele>
        <time>2022-08-12T09:42:27Z</time>
      </trkpt>
      <trkpt lat="42.513008" lon="2.460189">
        <ele>2406.879</ele>
        <time>2022-08-12T09:42:43Z</time>
      </trkpt>
      <trkpt lat="42.513018" lon="2.460250">
        <ele>2408.081</ele>
        <time>2022-08-12T09:43:03Z</time>
      </trkpt>
      <trkpt lat="42.512994" lon="2.460302">
        <ele>2410.214</ele>
        <time>2022-08-12T09:43:11Z</time>
      </trkpt>
      <trkpt lat="42.512946" lon="2.460335">
        <ele>2413.082</ele>
        <time>2022-08-12T09:43:19Z</time>
      </trkpt>
      <trkpt lat="42.512913" lon="2.460382">
        <ele>2414.843</ele>
        <time>2022-08-12T09:43:24Z</time>
      </trkpt>
      <trkpt lat="42.512868" lon="2.460417">
        <ele>2415.917</ele>
        <time>2022-08-12T09:43:29Z</time>
      </trkpt>
      <trkpt lat="42.512815" lon="2.460428">
        <ele>2416.509</ele>
        <time>2022-08-12T09:43:36Z</time>
      </trkpt>
      <trkpt lat="42.512776" lon="2.460470">
        <ele>2417.459</ele>
        <time>2022-08-12T09:43:43Z</time>
      </trkpt>
      <trkpt lat="42.512761" lon="2.460530">
        <ele>2418.629</ele>
        <time>2022-08-12T09:43:55Z</time>
      </trkpt>
      <trkpt lat="42.512715" lon="2.460549">
        <ele>2419.458</ele>
        <time>2022-08-12T09:44:01Z</time>
      </trkpt>
      <trkpt lat="42.512738" lon="2.460619">
        <ele>2420.952</ele>
        <time>2022-08-12T09:44:12Z</time>
      </trkpt>
      <trkpt lat="42.512734" lon="2.460684">
        <ele>2422.420</ele>
        <time>2022-08-12T09:44:25Z</time>
      </trkpt>
      <trkpt lat="42.512689" lon="2.460719">
        <ele>2423.997</ele>
        <time>2022-08-12T09:44:38Z</time>
      </trkpt>
      <trkpt lat="42.512650" lon="2.460764">
        <ele>2426.324</ele>
        <time>2022-08-12T09:44:44Z</time>
      </trkpt>
      <trkpt lat="42.512622" lon="2.460824">
        <ele>2428.466</ele>
        <time>2022-08-12T09:44:53Z</time>
      </trkpt>
      <trkpt lat="42.512572" lon="2.460823">
        <ele>2429.369</ele>
        <time>2022-08-12T09:44:58Z</time>
      </trkpt>
      <trkpt lat="42.512529" lon="2.460850">
        <ele>2429.775</ele>
        <time>2022-08-12T09:45:07Z</time>
      </trkpt>
      <trkpt lat="42.512493" lon="2.460893">
        <ele>2430.028</ele>
        <time>2022-08-12T09:45:14Z</time>
      </trkpt>
      <trkpt lat="42.512459" lon="2.460948">
        <ele>2430.620</ele>
        <time>2022-08-12T09:45:19Z</time>
      </trkpt>
      <trkpt lat="42.512408" lon="2.460960">
        <ele>2431.209</ele>
        <time>2022-08-12T09:45:24Z</time>
      </trkpt>
      <trkpt lat="42.512381" lon="2.461013">
        <ele>2431.528</ele>
        <time>2022-08-12T09:45:30Z</time>
      </trkpt>
      <trkpt lat="42.512356" lon="2.461077">
        <ele>2432.228</ele>
        <time>2022-08-12T09:45:35Z</time>
      </trkpt>
      <trkpt lat="42.512398" lon="2.461111">
        <ele>2432.737</ele>
        <time>2022-08-12T09:45:47Z</time>
      </trkpt>
      <trkpt lat="42.512443" lon="2.461112">
        <ele>2432.711</ele>
        <time>2022-08-12T09:45:55Z</time>
      </trkpt>
      <trkpt lat="42.512492" lon="2.461092">
        <ele>2433.879</ele>
        <time>2022-08-12T09:46:04Z</time>
      </trkpt>
      <trkpt lat="42.512538" lon="2.461113">
        <ele>2435.616</ele>
        <time>2022-08-12T09:46:09Z</time>
      </trkpt>
      <trkpt lat="42.512593" lon="2.461100">
        <ele>2437.173</ele>
        <time>2022-08-12T09:46:17Z</time>
      </trkpt>
      <trkpt lat="42.512641" lon="2.461095">
        <ele>2438.025</ele>
        <time>2022-08-12T09:46:24Z</time>
      </trkpt>
      <trkpt lat="42.512682" lon="2.461069">
        <ele>2438.758</ele>
        <time>2022-08-12T09:46:47Z</time>
      </trkpt>
      <trkpt lat="42.512727" lon="2.461061">
        <ele>2439.784</ele>
        <time>2022-08-12T09:47:00Z</time>
      </trkpt>
      <trkpt lat="42.512781" lon="2.461081">
        <ele>2442.007</ele>
        <time>2022-08-12T09:47:06Z</time>
      </trkpt>
      <trkpt lat="42.512821" lon="2.461050">
        <ele>2445.117</ele>
        <time>2022-08-12T09:47:18Z</time>
      </trkpt>
      <trkpt lat="42.512805" lon="2.461113">
        <ele>2446.909</ele>
        <time>2022-08-12T09:47:29Z</time>
      </trkpt>
      <trkpt lat="42.512807" lon="2.461178">
        <ele>2448.419</ele>
        <time>2022-08-12T09:47:44Z</time>
      </trkpt>
      <trkpt lat="42.512766" lon="2.461212">
        <ele>2450.479</ele>
        <time>2022-08-12T09:47:55Z</time>
      </trkpt>
      <trkpt lat="42.512734" lon="2.461260">
        <ele>2452.738</ele>
        <time>2022-08-12T09:48:02Z</time>
      </trkpt>
      <trkpt lat="42.512702" lon="2.461310">
        <ele>2454.932</ele>
        <time>2022-08-12T09:48:14Z</time>
      </trkpt>
      <trkpt lat="42.512662" lon="2.461349">
        <ele>2456.330</ele>
        <time>2022-08-12T09:48:27Z</time>
      </trkpt>
      <trkpt lat="42.512661" lon="2.461412">
        <ele>2457.327</ele>
        <time>2022-08-12T09:48:33Z</time>
      </trkpt>
      <trkpt lat="42.512631" lon="2.461468">
        <ele>2458.984</ele>
        <time>2022-08-12T09:48:42Z</time>
      </trkpt>
      <trkpt lat="42.512581" lon="2.461480">
        <ele>2460.356</ele>
        <time>2022-08-12T09:48:47Z</time>
      </trkpt>
      <trkpt lat="42.512544" lon="2.461520">
        <ele>2461.659</ele>
        <time>2022-08-12T09:48:53Z</time>
      </trkpt>
      <trkpt lat="42.512507" lon="2.461556">
        <ele>2462.884</ele>
        <time>2022-08-12T09:48:58Z</time>
      </trkpt>
      <trkpt lat="42.512480" lon="2.461614">
        <ele>2463.407</ele>
        <time>2022-08-12T09:49:03Z</time>
      </trkpt>
      <trkpt lat="42.512456" lon="2.461672">
        <ele>2463.817</ele>
        <time>2022-08-12T09:49:10Z</time>
      </trkpt>
      <trkpt lat="42.512404" lon="2.461691">
        <ele>2463.909</ele>
        <time>2022-08-12T09:49:16Z</time>
      </trkpt>
      <trkpt lat="42.512353" lon="2.461705">
        <ele>2464.669</ele>
        <time>2022-08-12T09:49:22Z</time>
      </trkpt>
      <trkpt lat="42.512301" lon="2.461689">
        <ele>2465.849</ele>
        <time>2022-08-12T09:49:27Z</time>
      </trkpt>
      <trkpt lat="42.512252" lon="2.461682">
        <ele>2466.538</ele>
        <time>2022-08-12T09:49:31Z</time>
      </trkpt>
      <trkpt lat="42.512205" lon="2.461693">
        <ele>2467.152</ele>
        <time>2022-08-12T09:49:37Z</time>
      </trkpt>
      <trkpt lat="42.512162" lon="2.461724">
        <ele>2467.680</ele>
        <time>2022-08-12T09:49:42Z</time>
      </trkpt>
      <trkpt lat="42.512126" lon="2.461770">
        <ele>2467.917</ele>
        <time>2022-08-12T09:49:47Z</time>
      </trkpt>
      <trkpt lat="42.512084" lon="2.461793">
        <ele>2468.484</ele>
        <time>2022-08-12T09:49:55Z</time>
      </trkpt>
      <trkpt lat="42.512039" lon="2.461833">
        <ele>2469.076</ele>
        <time>2022-08-12T09:50:03Z</time>
      </trkpt>
      <trkpt lat="42.511987" lon="2.461855">
        <ele>2469.959</ele>
        <time>2022-08-12T09:50:12Z</time>
      </trkpt>
      <trkpt lat="42.511947" lon="2.461891">
        <ele>2471.147</ele>
        <time>2022-08-12T09:50:18Z</time>
      </trkpt>
      <trkpt lat="42.511991" lon="2.461916">
        <ele>2472.329</ele>
        <time>2022-08-12T09:50:29Z</time>
      </trkpt>
      <trkpt lat="42.512033" lon="2.461889">
        <ele>2473.121</ele>
        <time>2022-08-12T09:50:32Z</time>
      </trkpt>
      <trkpt lat="42.512082" lon="2.461877">
        <ele>2474.009</ele>
        <time>2022-08-12T09:50:37Z</time>
      </trkpt>
      <trkpt lat="42.512131" lon="2.461903">
        <ele>2474.845</ele>
        <time>2022-08-12T09:50:44Z</time>
      </trkpt>
      <trkpt lat="42.512178" lon="2.461905">
        <ele>2475.075</ele>
        <time>2022-08-12T09:50:51Z</time>
      </trkpt>
      <trkpt lat="42.512217" lon="2.461954">
        <ele>2475.614</ele>
        <time>2022-08-12T09:51:00Z</time>
      </trkpt>
      <trkpt lat="42.512260" lon="2.461933">
        <ele>2476.658</ele>
        <time>2022-08-12T09:51:09Z</time>
      </trkpt>
      <trkpt lat="42.512307" lon="2.461928">
        <ele>2478.286</ele>
        <time>2022-08-12T09:51:13Z</time>
      </trkpt>
      <trkpt lat="42.512362" lon="2.461935">
        <ele>2479.493</ele>
        <time>2022-08-12T09:51:17Z</time>
      </trkpt>
      <trkpt lat="42.512410" lon="2.461934">
        <ele>2480.090</ele>
        <time>2022-08-12T09:51:24Z</time>
      </trkpt>
      <trkpt lat="42.512460" lon="2.461925">
        <ele>2480.612</ele>
        <time>2022-08-12T09:51:36Z</time>
      </trkpt>
      <trkpt lat="42.512504" lon="2.461913">
        <ele>2480.995</ele>
        <time>2022-08-12T09:51:45Z</time>
      </trkpt>
      <trkpt lat="42.512556" lon="2.461921">
        <ele>2481.458</ele>
        <time>2022-08-12T09:51:49Z</time>
      </trkpt>
      <trkpt lat="42.512608" lon="2.461921">
        <ele>2482.452</ele>
        <time>2022-08-12T09:51:54Z</time>
      </trkpt>
      <trkpt lat="42.512651" lon="2.461889">
        <ele>2483.117</ele>
        <time>2022-08-12T09:51:59Z</time>
      </trkpt>
      <trkpt lat="42.512695" lon="2.461858">
        <ele>2483.409</ele>
        <time>2022-08-12T09:52:04Z</time>
      </trkpt>
      <trkpt lat="42.512744" lon="2.461852">
        <ele>2484.096</ele>
        <time>2022-08-12T09:52:09Z</time>
      </trkpt>
      <trkpt lat="42.512789" lon="2.461844">
        <ele>2485.026</ele>
        <time>2022-08-12T09:52:14Z</time>
      </trkpt>
      <trkpt lat="42.512838" lon="2.461838">
        <ele>2485.985</ele>
        <time>2022-08-12T09:52:28Z</time>
      </trkpt>
      <trkpt lat="42.512888" lon="2.461846">
        <ele>2486.539</ele>
        <time>2022-08-12T09:52:40Z</time>
      </trkpt>
      <trkpt lat="42.512937" lon="2.461849">
        <ele>2488.087</ele>
        <time>2022-08-12T09:52:48Z</time>
      </trkpt>
      <trkpt lat="42.512964" lon="2.461793">
        <ele>2489.444</ele>
        <time>2022-08-12T09:52:55Z</time>
      </trkpt>
      <trkpt lat="42.513010" lon="2.461765">
        <ele>2489.761</ele>
        <time>2022-08-12T09:53:19Z</time>
      </trkpt>
      <trkpt lat="42.513067" lon="2.461756">
        <ele>2490.283</ele>
        <time>2022-08-12T09:53:25Z</time>
      </trkpt>
      <trkpt lat="42.513111" lon="2.461738">
        <ele>2490.536</ele>
        <time>2022-08-12T09:53:31Z</time>
      </trkpt>
      <trkpt lat="42.513158" lon="2.461704">
        <ele>2491.196</ele>
        <time>2022-08-12T09:53:36Z</time>
      </trkpt>
      <trkpt lat="42.513198" lon="2.461666">
        <ele>2492.131</ele>
        <time>2022-08-12T09:53:43Z</time>
      </trkpt>
      <trkpt lat="42.513250" lon="2.461648">
        <ele>2492.924</ele>
        <time>2022-08-12T09:53:49Z</time>
      </trkpt>
      <trkpt lat="42.513299" lon="2.461645">
        <ele>2493.909</ele>
        <time>2022-08-12T09:53:57Z</time>
      </trkpt>
      <trkpt lat="42.513349" lon="2.461686">
        <ele>2494.960</ele>
        <time>2022-08-12T09:54:03Z</time>
      </trkpt>
      <trkpt lat="42.513395" lon="2.461687">
        <ele>2495.730</ele>
        <time>2022-08-12T09:54:08Z</time>
      </trkpt>
      <trkpt lat="42.513429" lon="2.461645">
        <ele>2496.719</ele>
        <time>2022-08-12T09:54:14Z</time>
      </trkpt>
      <trkpt lat="42.513472" lon="2.461619">
        <ele>2497.643</ele>
        <time>2022-08-12T09:54:57Z</time>
      </trkpt>
      <trkpt lat="42.513522" lon="2.461574">
        <ele>2498.291</ele>
        <time>2022-08-12T09:55:02Z</time>
      </trkpt>
      <trkpt lat="42.513546" lon="2.461519">
        <ele>2499.038</ele>
        <time>2022-08-12T09:55:05Z</time>
      </trkpt>
      <trkpt lat="42.513572" lon="2.461465">
        <ele>2499.675</ele>
        <time>2022-08-12T09:55:10Z</time>
      </trkpt>
      <trkpt lat="42.513594" lon="2.461402">
        <ele>2499.947</ele>
        <time>2022-08-12T09:55:14Z</time>
      </trkpt>
      <trkpt lat="42.513633" lon="2.461352">
        <ele>2500.250</ele>
        <time>2022-08-12T09:55:22Z</time>
      </trkpt>
      <trkpt lat="42.513642" lon="2.461285">
        <ele>2500.686</ele>
        <time>2022-08-12T09:55:29Z</time>
      </trkpt>
      <trkpt lat="42.513669" lon="2.461228">
        <ele>2501.560</ele>
        <time>2022-08-12T09:55:35Z</time>
      </trkpt>
      <trkpt lat="42.513713" lon="2.461210">
        <ele>2502.926</ele>
        <time>2022-08-12T09:55:43Z</time>
      </trkpt>
      <trkpt lat="42.513750" lon="2.461165">
        <ele>2503.709</ele>
        <time>2022-08-12T09:55:48Z</time>
      </trkpt>
      <trkpt lat="42.513790" lon="2.461123">
        <ele>2504.899</ele>
        <time>2022-08-12T09:55:56Z</time>
      </trkpt>
      <trkpt lat="42.513822" lon="2.461071">
        <ele>2505.989</ele>
        <time>2022-08-12T09:56:04Z</time>
      </trkpt>
      <trkpt lat="42.513865" lon="2.461052">
        <ele>2506.638</ele>
        <time>2022-08-12T09:56:18Z</time>
      </trkpt>
      <trkpt lat="42.513911" lon="2.461041">
        <ele>2507.682</ele>
        <time>2022-08-12T09:56:27Z</time>
      </trkpt>
      <trkpt lat="42.513957" lon="2.461068">
        <ele>2508.780</ele>
        <time>2022-08-12T09:56:38Z</time>
      </trkpt>
      <trkpt lat="42.514001" lon="2.461093">
        <ele>2509.847</ele>
        <time>2022-08-12T09:56:49Z</time>
      </trkpt>
      <trkpt lat="42.514047" lon="2.461114">
        <ele>2510.614</ele>
        <time>2022-08-12T09:56:53Z</time>
      </trkpt>
      <trkpt lat="42.514090" lon="2.461144">
        <ele>2511.976</ele>
        <time>2022-08-12T09:57:09Z</time>
      </trkpt>
      <trkpt lat="42.514132" lon="2.461121">
        <ele>2513.169</ele>
        <time>2022-08-12T09:57:17Z</time>
      </trkpt>
      <trkpt lat="42.514164" lon="2.461073">
        <ele>2514.748</ele>
        <time>2022-08-12T09:57:29Z</time>
      </trkpt>
      <trkpt lat="42.514217" lon="2.461073">
        <ele>2516.161</ele>
        <time>2022-08-12T09:57:35Z</time>
      </trkpt>
      <trkpt lat="42.514272" lon="2.461042">
        <ele>2516.117</ele>
        <time>2022-08-12T09:57:39Z</time>
      </trkpt>
      <trkpt lat="42.514322" lon="2.461026">
        <ele>2516.109</ele>
        <time>2022-08-12T09:57:44Z</time>
      </trkpt>
      <trkpt lat="42.514360" lon="2.460983">
        <ele>2516.595</ele>
        <time>2022-08-12T09:57:49Z</time>
      </trkpt>
      <trkpt lat="42.514396" lon="2.460947">
        <ele>2516.225</ele>
        <time>2022-08-12T09:57:54Z</time>
      </trkpt>
      <trkpt lat="42.514423" lon="2.460893">
        <ele>2516.224</ele>
        <time>2022-08-12T09:58:02Z</time>
      </trkpt>
      <trkpt lat="42.514468" lon="2.460877">
        <ele>2516.548</ele>
        <time>2022-08-12T09:58:17Z</time>
      </trkpt>
      <trkpt lat="42.514497" lon="2.460826">
        <ele>2517.126</ele>
        <time>2022-08-12T09:58:27Z</time>
      </trkpt>
      <trkpt lat="42.514540" lon="2.460854">
        <ele>2519.413</ele>
        <time>2022-08-12T09:58:34Z</time>
      </trkpt>
      <trkpt lat="42.514570" lon="2.460804">
        <ele>2521.330</ele>
        <time>2022-08-12T09:58:42Z</time>
      </trkpt>
      <trkpt lat="42.514609" lon="2.460764">
        <ele>2521.982</ele>
        <time>2022-08-12T09:58:52Z</time>
      </trkpt>
      <trkpt lat="42.514652" lon="2.460720">
        <ele>2523.225</ele>
        <time>2022-08-12T09:58:56Z</time>
      </trkpt>
      <trkpt lat="42.514696" lon="2.460705">
        <ele>2524.059</ele>
        <time>2022-08-12T09:59:02Z</time>
      </trkpt>
      <trkpt lat="42.514742" lon="2.460687">
        <ele>2524.203</ele>
        <time>2022-08-12T09:59:15Z</time>
      </trkpt>
      <trkpt lat="42.514773" lon="2.460636">
        <ele>2524.423</ele>
        <time>2022-08-12T09:59:22Z</time>
      </trkpt>
      <trkpt lat="42.514808" lon="2.460590">
        <ele>2525.609</ele>
        <time>2022-08-12T09:59:26Z</time>
      </trkpt>
      <trkpt lat="42.514823" lon="2.460533">
        <ele>2527.096</ele>
        <time>2022-08-12T09:59:40Z</time>
      </trkpt>
      <trkpt lat="42.514854" lon="2.460478">
        <ele>2527.256</ele>
        <time>2022-08-12T09:59:58Z</time>
      </trkpt>
      <trkpt lat="42.514843" lon="2.460415">
        <ele>2527.945</ele>
        <time>2022-08-12T10:00:07Z</time>
      </trkpt>
      <trkpt lat="42.514885" lon="2.460380">
        <ele>2529.519</ele>
        <time>2022-08-12T10:00:14Z</time>
      </trkpt>
      <trkpt lat="42.514923" lon="2.460344">
        <ele>2530.637</ele>
        <time>2022-08-12T10:00:18Z</time>
      </trkpt>
      <trkpt lat="42.514974" lon="2.460309">
        <ele>2531.024</ele>
        <time>2022-08-12T10:00:23Z</time>
      </trkpt>
      <trkpt lat="42.515020" lon="2.460275">
        <ele>2531.141</ele>
        <time>2022-08-12T10:00:28Z</time>
      </trkpt>
      <trkpt lat="42.515065" lon="2.460241">
        <ele>2531.173</ele>
        <time>2022-08-12T10:00:42Z</time>
      </trkpt>
      <trkpt lat="42.515105" lon="2.460198">
        <ele>2531.236</ele>
        <time>2022-08-12T10:00:50Z</time>
      </trkpt>
      <trkpt lat="42.515121" lon="2.460140">
        <ele>2531.626</ele>
        <time>2022-08-12T10:01:08Z</time>
      </trkpt>
      <trkpt lat="42.515166" lon="2.460125">
        <ele>2532.347</ele>
        <time>2022-08-12T10:01:21Z</time>
      </trkpt>
      <trkpt lat="42.515216" lon="2.460091">
        <ele>2534.111</ele>
        <time>2022-08-12T10:01:26Z</time>
      </trkpt>
      <trkpt lat="42.515255" lon="2.460038">
        <ele>2536.009</ele>
        <time>2022-08-12T10:01:35Z</time>
      </trkpt>
      <trkpt lat="42.515273" lon="2.459980">
        <ele>2536.683</ele>
        <time>2022-08-12T10:01:43Z</time>
      </trkpt>
      <trkpt lat="42.515317" lon="2.459948">
        <ele>2537.083</ele>
        <time>2022-08-12T10:01:52Z</time>
      </trkpt>
      <trkpt lat="42.515353" lon="2.459904">
        <ele>2537.712</ele>
        <time>2022-08-12T10:02:00Z</time>
      </trkpt>
      <trkpt lat="42.515395" lon="2.459856">
        <ele>2537.636</ele>
        <time>2022-08-12T10:02:05Z</time>
      </trkpt>
      <trkpt lat="42.515427" lon="2.459807">
        <ele>2538.454</ele>
        <time>2022-08-12T10:02:15Z</time>
      </trkpt>
      <trkpt lat="42.515474" lon="2.459784">
        <ele>2538.721</ele>
        <time>2022-08-12T10:02:24Z</time>
      </trkpt>
      <trkpt lat="42.515511" lon="2.459744">
        <ele>2540.248</ele>
        <time>2022-08-12T10:02:33Z</time>
      </trkpt>
      <trkpt lat="42.515510" lon="2.459682">
        <ele>2541.770</ele>
        <time>2022-08-12T10:02:43Z</time>
      </trkpt>
      <trkpt lat="42.515551" lon="2.459650">
        <ele>2542.033</ele>
        <time>2022-08-12T10:02:50Z</time>
      </trkpt>
      <trkpt lat="42.515584" lon="2.459605">
        <ele>2542.953</ele>
        <time>2022-08-12T10:02:54Z</time>
      </trkpt>
      <trkpt lat="42.515611" lon="2.459552">
        <ele>2544.004</ele>
        <time>2022-08-12T10:03:08Z</time>
      </trkpt>
      <trkpt lat="42.515653" lon="2.459520">
        <ele>2544.814</ele>
        <time>2022-08-12T10:03:17Z</time>
      </trkpt>
      <trkpt lat="42.515684" lon="2.459473">
        <ele>2545.309</ele>
        <time>2022-08-12T10:03:25Z</time>
      </trkpt>
      <trkpt lat="42.515722" lon="2.459436">
        <ele>2546.226</ele>
        <time>2022-08-12T10:03:50Z</time>
      </trkpt>
      <trkpt lat="42.515766" lon="2.459410">
        <ele>2547.476</ele>
        <time>2022-08-12T10:04:03Z</time>
      </trkpt>
      <trkpt lat="42.515816" lon="2.459380">
        <ele>2548.695</ele>
        <time>2022-08-12T10:04:10Z</time>
      </trkpt>
      <trkpt lat="42.515849" lon="2.459338">
        <ele>2549.829</ele>
        <time>2022-08-12T10:04:13Z</time>
      </trkpt>
      <trkpt lat="42.515881" lon="2.459286">
        <ele>2551.287</ele>
        <time>2022-08-12T10:04:18Z</time>
      </trkpt>
      <trkpt lat="42.515920" lon="2.459252">
        <ele>2551.664</ele>
        <time>2022-08-12T10:04:24Z</time>
      </trkpt>
      <trkpt lat="42.515967" lon="2.459200">
        <ele>2552.151</ele>
        <time>2022-08-12T10:04:29Z</time>
      </trkpt>
      <trkpt lat="42.515996" lon="2.459142">
        <ele>2552.953</ele>
        <time>2022-08-12T10:04:35Z</time>
      </trkpt>
      <trkpt lat="42.516034" lon="2.459097">
        <ele>2553.666</ele>
        <time>2022-08-12T10:04:41Z</time>
      </trkpt>
      <trkpt lat="42.516057" lon="2.459039">
        <ele>2554.349</ele>
        <time>2022-08-12T10:04:48Z</time>
      </trkpt>
      <trkpt lat="42.516097" lon="2.459003">
        <ele>2554.602</ele>
        <time>2022-08-12T10:04:55Z</time>
      </trkpt>
      <trkpt lat="42.516141" lon="2.458980">
        <ele>2555.722</ele>
        <time>2022-08-12T10:05:19Z</time>
      </trkpt>
      <trkpt lat="42.516168" lon="2.458920">
        <ele>2557.109</ele>
        <time>2022-08-12T10:05:31Z</time>
      </trkpt>
      <trkpt lat="42.516213" lon="2.458917">
        <ele>2558.895</ele>
        <time>2022-08-12T10:05:43Z</time>
      </trkpt>
      <trkpt lat="42.516254" lon="2.458945">
        <ele>2560.295</ele>
        <time>2022-08-12T10:05:51Z</time>
      </trkpt>
      <trkpt lat="42.516292" lon="2.458906">
        <ele>2561.284</ele>
        <time>2022-08-12T10:05:56Z</time>
      </trkpt>
      <trkpt lat="42.516321" lon="2.458852">
        <ele>2562.568</ele>
        <time>2022-08-12T10:06:04Z</time>
      </trkpt>
      <trkpt lat="42.516351" lon="2.458805">
        <ele>2563.186</ele>
        <time>2022-08-12T10:06:12Z</time>
      </trkpt>
      <trkpt lat="42.516401" lon="2.458784">
        <ele>2563.973</ele>
        <time>2022-08-12T10:06:18Z</time>
      </trkpt>
      <trkpt lat="42.516429" lon="2.458734">
        <ele>2565.170</ele>
        <time>2022-08-12T10:06:22Z</time>
      </trkpt>
      <trkpt lat="42.516437" lon="2.458665">
        <ele>2565.872</ele>
        <time>2022-08-12T10:06:30Z</time>
      </trkpt>
      <trkpt lat="42.516471" lon="2.458604">
        <ele>2566.255</ele>
        <time>2022-08-12T10:06:52Z</time>
      </trkpt>
      <trkpt lat="42.516489" lon="2.458545">
        <ele>2566.746</ele>
        <time>2022-08-12T10:06:57Z</time>
      </trkpt>
      <trkpt lat="42.516504" lon="2.458486">
        <ele>2568.588</ele>
        <time>2022-08-12T10:07:09Z</time>
      </trkpt>
      <trkpt lat="42.516520" lon="2.458422">
        <ele>2569.916</ele>
        <time>2022-08-12T10:07:15Z</time>
      </trkpt>
      <trkpt lat="42.516548" lon="2.458371">
        <ele>2570.309</ele>
        <time>2022-08-12T10:07:20Z</time>
      </trkpt>
      <trkpt lat="42.516585" lon="2.458336">
        <ele>2570.385</ele>
        <time>2022-08-12T10:07:33Z</time>
      </trkpt>
      <trkpt lat="42.516624" lon="2.458302">
        <ele>2570.385</ele>
        <time>2022-08-12T10:07:43Z</time>
      </trkpt>
      <trkpt lat="42.516660" lon="2.458258">
        <ele>2571.074</ele>
        <time>2022-08-12T10:07:58Z</time>
      </trkpt>
      <trkpt lat="42.516682" lon="2.458196">
        <ele>2572.448</ele>
        <time>2022-08-12T10:08:03Z</time>
      </trkpt>
      <trkpt lat="42.516718" lon="2.458155">
        <ele>2573.726</ele>
        <time>2022-08-12T10:08:07Z</time>
      </trkpt>
      <trkpt lat="42.516761" lon="2.458126">
        <ele>2574.483</ele>
        <time>2022-08-12T10:08:12Z</time>
      </trkpt>
      <trkpt lat="42.516797" lon="2.458087">
        <ele>2574.520</ele>
        <time>2022-08-12T10:08:18Z</time>
      </trkpt>
      <trkpt lat="42.516839" lon="2.458055">
        <ele>2574.692</ele>
        <time>2022-08-12T10:08:25Z</time>
      </trkpt>
      <trkpt lat="42.516873" lon="2.458014">
        <ele>2575.245</ele>
        <time>2022-08-12T10:08:38Z</time>
      </trkpt>
      <trkpt lat="42.516906" lon="2.457967">
        <ele>2576.195</ele>
        <time>2022-08-12T10:08:44Z</time>
      </trkpt>
      <trkpt lat="42.516950" lon="2.457940">
        <ele>2577.749</ele>
        <time>2022-08-12T10:08:51Z</time>
      </trkpt>
      <trkpt lat="42.516977" lon="2.457885">
        <ele>2579.523</ele>
        <time>2022-08-12T10:09:01Z</time>
      </trkpt>
      <trkpt lat="42.517030" lon="2.457879">
        <ele>2580.309</ele>
        <time>2022-08-12T10:09:08Z</time>
      </trkpt>
      <trkpt lat="42.517054" lon="2.457824">
        <ele>2581.760</ele>
        <time>2022-08-12T10:09:19Z</time>
      </trkpt>
      <trkpt lat="42.517080" lon="2.457757">
        <ele>2582.870</ele>
        <time>2022-08-12T10:09:24Z</time>
      </trkpt>
      <trkpt lat="42.517111" lon="2.457703">
        <ele>2583.069</ele>
        <time>2022-08-12T10:09:29Z</time>
      </trkpt>
      <trkpt lat="42.517154" lon="2.457672">
        <ele>2583.493</ele>
        <time>2022-08-12T10:09:37Z</time>
      </trkpt>
      <trkpt lat="42.517186" lon="2.457629">
        <ele>2583.771</ele>
        <time>2022-08-12T10:09:40Z</time>
      </trkpt>
      <trkpt lat="42.517220" lon="2.457572">
        <ele>2583.988</ele>
        <time>2022-08-12T10:09:45Z</time>
      </trkpt>
      <trkpt lat="42.517259" lon="2.457537">
        <ele>2584.245</ele>
        <time>2022-08-12T10:09:54Z</time>
      </trkpt>
      <trkpt lat="42.517278" lon="2.457478">
        <ele>2584.817</ele>
        <time>2022-08-12T10:10:08Z</time>
      </trkpt>
      <trkpt lat="42.517318" lon="2.457440">
        <ele>2585.560</ele>
        <time>2022-08-12T10:10:13Z</time>
      </trkpt>
      <trkpt lat="42.517357" lon="2.457403">
        <ele>2585.955</ele>
        <time>2022-08-12T10:10:18Z</time>
      </trkpt>
      <trkpt lat="42.517402" lon="2.457378">
        <ele>2586.607</ele>
        <time>2022-08-12T10:10:30Z</time>
      </trkpt>
      <trkpt lat="42.517441" lon="2.457340">
        <ele>2587.217</ele>
        <time>2022-08-12T10:10:38Z</time>
      </trkpt>
      <trkpt lat="42.517469" lon="2.457285">
        <ele>2588.609</ele>
        <time>2022-08-12T10:10:48Z</time>
      </trkpt>
      <trkpt lat="42.517514" lon="2.457256">
        <ele>2590.896</ele>
        <time>2022-08-12T10:10:56Z</time>
      </trkpt>
      <trkpt lat="42.517557" lon="2.457239">
        <ele>2591.926</ele>
        <time>2022-08-12T10:11:05Z</time>
      </trkpt>
      <trkpt lat="42.517605" lon="2.457245">
        <ele>2592.475</ele>
        <time>2022-08-12T10:11:13Z</time>
      </trkpt>
      <trkpt lat="42.517637" lon="2.457197">
        <ele>2593.349</ele>
        <time>2022-08-12T10:11:27Z</time>
      </trkpt>
      <trkpt lat="42.517653" lon="2.457136">
        <ele>2594.737</ele>
        <time>2022-08-12T10:11:47Z</time>
      </trkpt>
      <trkpt lat="42.517676" lon="2.457082">
        <ele>2596.644</ele>
        <time>2022-08-12T10:11:54Z</time>
      </trkpt>
      <trkpt lat="42.517720" lon="2.457106">
        <ele>2598.071</ele>
        <time>2022-08-12T10:12:31Z</time>
      </trkpt>
      <trkpt lat="42.517766" lon="2.457093">
        <ele>2598.493</ele>
        <time>2022-08-12T10:12:42Z</time>
      </trkpt>
      <trkpt lat="42.517802" lon="2.457039">
        <ele>2600.616</ele>
        <time>2022-08-12T10:12:56Z</time>
      </trkpt>
      <trkpt lat="42.517844" lon="2.456994">
        <ele>2602.924</ele>
        <time>2022-08-12T10:13:06Z</time>
      </trkpt>
      <trkpt lat="42.517879" lon="2.456955">
        <ele>2604.004</ele>
        <time>2022-08-12T10:13:30Z</time>
      </trkpt>
      <trkpt lat="42.517900" lon="2.456894">
        <ele>2605.114</ele>
        <time>2022-08-12T10:13:45Z</time>
      </trkpt>
      <trkpt lat="42.517952" lon="2.456895">
        <ele>2605.509</ele>
        <time>2022-08-12T10:14:16Z</time>
      </trkpt>
      <trkpt lat="42.517994" lon="2.456937">
        <ele>2606.533</ele>
        <time>2022-08-12T10:14:32Z</time>
      </trkpt>
      <trkpt lat="42.518047" lon="2.456916">
        <ele>2608.373</ele>
        <time>2022-08-12T10:14:41Z</time>
      </trkpt>
      <trkpt lat="42.518087" lon="2.456881">
        <ele>2611.222</ele>
        <time>2022-08-12T10:14:53Z</time>
      </trkpt>
      <trkpt lat="42.518123" lon="2.456837">
        <ele>2613.176</ele>
        <time>2022-08-12T10:15:19Z</time>
      </trkpt>
      <trkpt lat="42.518166" lon="2.456863">
        <ele>2614.724</ele>
        <time>2022-08-12T10:15:35Z</time>
      </trkpt>
      <trkpt lat="42.518126" lon="2.456831">
        <ele>2617.851</ele>
        <time>2022-08-12T10:16:01Z</time>
      </trkpt>
      <trkpt lat="42.518147" lon="2.456773">
        <ele>2620.258</ele>
        <time>2022-08-12T10:16:10Z</time>
      </trkpt>
      <trkpt lat="42.518167" lon="2.456827">
        <ele>2621.770</ele>
        <time>2022-08-12T10:16:43Z</time>
      </trkpt>
      <trkpt lat="42.518163" lon="2.456890">
        <ele>2623.283</ele>
        <time>2022-08-12T10:17:04Z</time>
      </trkpt>
      <trkpt lat="42.518195" lon="2.456841">
        <ele>2625.675</ele>
        <time>2022-08-12T10:17:48Z</time>
      </trkpt>
      <trkpt lat="42.518244" lon="2.456860">
        <ele>2628.828</ele>
        <time>2022-08-12T10:18:11Z</time>
      </trkpt>
      <trkpt lat="42.518291" lon="2.456862">
        <ele>2631.520</ele>
        <time>2022-08-12T10:18:26Z</time>
      </trkpt>
      <trkpt lat="42.518337" lon="2.456874">
        <ele>2632.809</ele>
        <time>2022-08-12T10:18:37Z</time>
      </trkpt>
      <trkpt lat="42.518371" lon="2.456824">
        <ele>2634.318</ele>
        <time>2022-08-12T10:18:46Z</time>
      </trkpt>
      <trkpt lat="42.518351" lon="2.456767">
        <ele>2636.278</ele>
        <time>2022-08-12T10:18:59Z</time>
      </trkpt>
      <trkpt lat="42.518389" lon="2.456726">
        <ele>2637.777</ele>
        <time>2022-08-12T10:19:21Z</time>
      </trkpt>
      <trkpt lat="42.518442" lon="2.456752">
        <ele>2639.091</ele>
        <time>2022-08-12T10:20:20Z</time>
      </trkpt>
      <trkpt lat="42.518479" lon="2.456788">
        <ele>2640.259</ele>
        <time>2022-08-12T10:21:01Z</time>
      </trkpt>
      <trkpt lat="42.518469" lon="2.456847">
        <ele>2641.236</ele>
        <time>2022-08-12T10:21:08Z</time>
      </trkpt>
      <trkpt lat="42.518498" lon="2.456894">
        <ele>2643.953</ele>
        <time>2022-08-12T10:21:19Z</time>
      </trkpt>
      <trkpt lat="42.518537" lon="2.456938">
        <ele>2646.625</ele>
        <time>2022-08-12T10:21:25Z</time>
      </trkpt>
      <trkpt lat="42.518518" lon="2.456994">
        <ele>2647.928</ele>
        <time>2022-08-12T10:21:35Z</time>
      </trkpt>
      <trkpt lat="42.518546" lon="2.456945">
        <ele>2649.037</ele>
        <time>2022-08-12T10:22:17Z</time>
      </trkpt>
      <trkpt lat="42.518562" lon="2.456878">
        <ele>2649.549</ele>
        <time>2022-08-12T10:22:59Z</time>
      </trkpt>
      <trkpt lat="42.518581" lon="2.456820">
        <ele>2653.013</ele>
        <time>2022-08-12T10:23:16Z</time>
      </trkpt>
      <trkpt lat="42.518616" lon="2.456866">
        <ele>2657.409</ele>
        <time>2022-08-12T10:23:32Z</time>
      </trkpt>
      <trkpt lat="42.518655" lon="2.456903">
        <ele>2660.364</ele>
        <time>2022-08-12T10:23:56Z</time>
      </trkpt>
      <trkpt lat="42.518625" lon="2.456962">
        <ele>2662.754</ele>
        <time>2022-08-12T10:24:21Z</time>
      </trkpt>
      <trkpt lat="42.518579" lon="2.456979">
        <ele>2663.853</ele>
        <time>2022-08-12T10:24:47Z</time>
      </trkpt>
      <trkpt lat="42.518601" lon="2.457036">
        <ele>2665.537</ele>
        <time>2022-08-12T10:25:01Z</time>
      </trkpt>
      <trkpt lat="42.518654" lon="2.457039">
        <ele>2667.385</ele>
        <time>2022-08-12T10:25:14Z</time>
      </trkpt>
      <trkpt lat="42.518657" lon="2.456973">
        <ele>2667.922</ele>
        <time>2022-08-12T10:25:21Z</time>
      </trkpt>
      <trkpt lat="42.518702" lon="2.456959">
        <ele>2669.829</ele>
        <time>2022-08-12T10:25:33Z</time>
      </trkpt>
      <trkpt lat="42.518747" lon="2.456975">
        <ele>2672.631</ele>
        <time>2022-08-12T10:25:54Z</time>
      </trkpt>
      <trkpt lat="42.518769" lon="2.456914">
        <ele>2673.754</ele>
        <time>2022-08-12T10:26:03Z</time>
      </trkpt>
      <trkpt lat="42.518780" lon="2.456850">
        <ele>2675.488</ele>
        <time>2022-08-12T10:26:54Z</time>
      </trkpt>
      <trkpt lat="42.518824" lon="2.456869">
        <ele>2678.524</ele>
        <time>2022-08-12T10:27:22Z</time>
      </trkpt>
      <trkpt lat="42.518855" lon="2.456823">
        <ele>2680.426</ele>
        <time>2022-08-12T10:27:42Z</time>
      </trkpt>
      <trkpt lat="42.518901" lon="2.456852">
        <ele>2682.809</ele>
        <time>2022-08-12T10:27:53Z</time>
      </trkpt>
      <trkpt lat="42.518911" lon="2.456792">
        <ele>2684.919</ele>
        <time>2022-08-12T10:28:34Z</time>
      </trkpt>
      <trkpt lat="42.518867" lon="2.456774">
        <ele>2685.649</ele>
        <time>2022-08-12T10:28:52Z</time>
      </trkpt>
      <trkpt lat="42.518888" lon="2.456716">
        <ele>2689.078</ele>
        <time>2022-08-12T10:29:22Z</time>
      </trkpt>
      <trkpt lat="42.518931" lon="2.456691">
        <ele>2692.592</ele>
        <time>2022-08-12T10:29:44Z</time>
      </trkpt>
      <trkpt lat="42.518957" lon="2.456748">
        <ele>2694.680</ele>
        <time>2022-08-12T10:30:14Z</time>
      </trkpt>
      <trkpt lat="42.518977" lon="2.456689">
        <ele>2697.487</ele>
        <time>2022-08-12T10:30:48Z</time>
      </trkpt>
      <trkpt lat="42.519020" lon="2.456666">
        <ele>2699.624</ele>
        <time>2022-08-12T10:31:46Z</time>
      </trkpt>
      <trkpt lat="42.519024" lon="2.456604">
        <ele>2701.376</ele>
        <time>2022-08-12T10:31:59Z</time>
      </trkpt>
      <trkpt lat="42.519003" lon="2.456544">
        <ele>2706.029</ele>
        <time>2022-08-12T10:32:13Z</time>
      </trkpt>
      <trkpt lat="42.518959" lon="2.456556">
        <ele>2709.955</ele>
        <time>2022-08-12T10:32:32Z</time>
      </trkpt>
      <trkpt lat="42.518912" lon="2.456568">
        <ele>2711.507</ele>
        <time>2022-08-12T10:33:09Z</time>
      </trkpt>
      <trkpt lat="42.518938" lon="2.456518">
        <ele>2713.117</ele>
        <time>2022-08-12T11:37:41Z</time>
      </trkpt>
      <trkpt lat="42.518946" lon="2.456578">
        <ele>2713.309</ele>
        <time>2022-08-12T11:38:01Z</time>
      </trkpt>
      <trkpt lat="42.518986" lon="2.456610">
        <ele>2713.336</ele>
        <time>2022-08-12T11:38:09Z</time>
      </trkpt>
      <trkpt lat="42.518996" lon="2.456670">
        <ele>2713.336</ele>
        <time>2022-08-12T11:39:05Z</time>
      </trkpt>
      <trkpt lat="42.518978" lon="2.456728">
        <ele>2712.675</ele>
        <time>2022-08-12T11:39:18Z</time>
      </trkpt>
      <trkpt lat="42.518954" lon="2.456780">
        <ele>2710.529</ele>
        <time>2022-08-12T11:40:40Z</time>
      </trkpt>
      <trkpt lat="42.518918" lon="2.456818">
        <ele>2708.837</ele>
        <time>2022-08-12T11:41:02Z</time>
      </trkpt>
      <trkpt lat="42.518963" lon="2.456782">
        <ele>2708.244</ele>
        <time>2022-08-12T11:41:11Z</time>
      </trkpt>
      <trkpt lat="42.518938" lon="2.456833">
        <ele>2705.561</ele>
        <time>2022-08-12T11:41:20Z</time>
      </trkpt>
      <trkpt lat="42.518913" lon="2.456884">
        <ele>2702.183</ele>
        <time>2022-08-12T11:41:35Z</time>
      </trkpt>
      <trkpt lat="42.518887" lon="2.456934">
        <ele>2700.116</ele>
        <time>2022-08-12T11:42:05Z</time>
      </trkpt>
      <trkpt lat="42.518872" lon="2.456993">
        <ele>2698.677</ele>
        <time>2022-08-12T11:42:20Z</time>
      </trkpt>
      <trkpt lat="42.518825" lon="2.456990">
        <ele>2696.561</ele>
        <time>2022-08-12T11:43:17Z</time>
      </trkpt>
      <trkpt lat="42.518778" lon="2.456993">
        <ele>2694.927</ele>
        <time>2022-08-12T11:44:02Z</time>
      </trkpt>
      <trkpt lat="42.518775" lon="2.457054">
        <ele>2693.309</ele>
        <time>2022-08-12T11:44:25Z</time>
      </trkpt>
      <trkpt lat="42.518789" lon="2.457115">
        <ele>2687.578</ele>
        <time>2022-08-12T11:45:18Z</time>
      </trkpt>
      <trkpt lat="42.518743" lon="2.457159">
        <ele>2681.928</ele>
        <time>2022-08-12T11:45:48Z</time>
      </trkpt>
      <trkpt lat="42.518702" lon="2.457198">
        <ele>2678.327</ele>
        <time>2022-08-12T11:46:00Z</time>
      </trkpt>
      <trkpt lat="42.518667" lon="2.457156">
        <ele>2674.821</ele>
        <time>2022-08-12T11:46:15Z</time>
      </trkpt>
      <trkpt lat="42.518644" lon="2.457100">
        <ele>2672.419</ele>
        <time>2022-08-12T11:46:35Z</time>
      </trkpt>
      <trkpt lat="42.518669" lon="2.457041">
        <ele>2671.276</ele>
        <time>2022-08-12T11:46:51Z</time>
      </trkpt>
      <trkpt lat="42.518627" lon="2.457017">
        <ele>2670.183</ele>
        <time>2022-08-12T11:47:10Z</time>
      </trkpt>
      <trkpt lat="42.518581" lon="2.457013">
        <ele>2668.885</ele>
        <time>2022-08-12T11:47:42Z</time>
      </trkpt>
      <trkpt lat="42.518574" lon="2.456942">
        <ele>2667.798</ele>
        <time>2022-08-12T11:47:47Z</time>
      </trkpt>
      <trkpt lat="42.518526" lon="2.456953">
        <ele>2666.592</ele>
        <time>2022-08-12T11:48:20Z</time>
      </trkpt>
      <trkpt lat="42.518516" lon="2.457015">
        <ele>2664.573</ele>
        <time>2022-08-12T11:48:28Z</time>
      </trkpt>
      <trkpt lat="42.518563" lon="2.457066">
        <ele>2661.920</ele>
        <time>2022-08-12T11:49:11Z</time>
      </trkpt>
      <trkpt lat="42.518589" lon="2.457123">
        <ele>2658.109</ele>
        <time>2022-08-12T11:49:14Z</time>
      </trkpt>
      <trkpt lat="42.518612" lon="2.457178">
        <ele>2655.460</ele>
        <time>2022-08-12T11:49:32Z</time>
      </trkpt>
      <trkpt lat="42.518568" lon="2.457131">
        <ele>2655.480</ele>
        <time>2022-08-12T11:49:55Z</time>
      </trkpt>
      <trkpt lat="42.518541" lon="2.457078">
        <ele>2655.289</ele>
        <time>2022-08-12T11:50:09Z</time>
      </trkpt>
      <trkpt lat="42.518496" lon="2.457043">
        <ele>2655.483</ele>
        <time>2022-08-12T11:50:43Z</time>
      </trkpt>
      <trkpt lat="42.518451" lon="2.457035">
        <ele>2655.271</ele>
        <time>2022-08-12T11:51:25Z</time>
      </trkpt>
      <trkpt lat="42.518487" lon="2.457073">
        <ele>2654.818</ele>
        <time>2022-08-12T11:51:40Z</time>
      </trkpt>
      <trkpt lat="42.518486" lon="2.457134">
        <ele>2654.535</ele>
        <time>2022-08-12T11:51:58Z</time>
      </trkpt>
      <trkpt lat="42.518446" lon="2.457099">
        <ele>2652.417</ele>
        <time>2022-08-12T11:52:35Z</time>
      </trkpt>
      <trkpt lat="42.518406" lon="2.457051">
        <ele>2649.160</ele>
        <time>2022-08-12T11:52:41Z</time>
      </trkpt>
      <trkpt lat="42.518374" lon="2.456996">
        <ele>2647.744</ele>
        <time>2022-08-12T11:52:44Z</time>
      </trkpt>
      <trkpt lat="42.518350" lon="2.456935">
        <ele>2646.805</ele>
        <time>2022-08-12T11:52:51Z</time>
      </trkpt>
      <trkpt lat="42.518295" lon="2.456920">
        <ele>2645.915</ele>
        <time>2022-08-12T11:53:05Z</time>
      </trkpt>
      <trkpt lat="42.518292" lon="2.456853">
        <ele>2645.109</ele>
        <time>2022-08-12T11:53:19Z</time>
      </trkpt>
      <trkpt lat="42.518245" lon="2.456826">
        <ele>2643.135</ele>
        <time>2022-08-12T11:53:30Z</time>
      </trkpt>
      <trkpt lat="42.518241" lon="2.456892">
        <ele>2641.225</ele>
        <time>2022-08-12T11:53:51Z</time>
      </trkpt>
      <trkpt lat="42.518237" lon="2.456959">
        <ele>2639.944</ele>
        <time>2022-08-12T11:53:56Z</time>
      </trkpt>
      <trkpt lat="42.518206" lon="2.457007">
        <ele>2637.598</ele>
        <time>2022-08-12T11:54:07Z</time>
      </trkpt>
      <trkpt lat="42.518167" lon="2.457039">
        <ele>2635.696</ele>
        <time>2022-08-12T11:54:15Z</time>
      </trkpt>
      <trkpt lat="42.518136" lon="2.457090">
        <ele>2633.933</ele>
        <time>2022-08-12T11:54:29Z</time>
      </trkpt>
      <trkpt lat="42.518092" lon="2.457105">
        <ele>2631.440</ele>
        <time>2022-08-12T11:54:39Z</time>
      </trkpt>
      <trkpt lat="42.518048" lon="2.457128">
        <ele>2628.612</ele>
        <time>2022-08-12T11:54:45Z</time>
      </trkpt>
      <trkpt lat="42.518010" lon="2.457166">
        <ele>2625.265</ele>
        <time>2022-08-12T11:54:55Z</time>
      </trkpt>
      <trkpt lat="42.517960" lon="2.457146">
        <ele>2623.322</ele>
        <time>2022-08-12T11:55:05Z</time>
      </trkpt>
      <trkpt lat="42.517927" lon="2.457190">
        <ele>2622.062</ele>
        <time>2022-08-12T11:55:17Z</time>
      </trkpt>
      <trkpt lat="42.517882" lon="2.457225">
        <ele>2620.308</ele>
        <time>2022-08-12T11:55:23Z</time>
      </trkpt>
      <trkpt lat="42.517851" lon="2.457275">
        <ele>2618.109</ele>
        <time>2022-08-12T11:55:29Z</time>
      </trkpt>
      <trkpt lat="42.517809" lon="2.457239">
        <ele>2615.893</ele>
        <time>2022-08-12T11:55:37Z</time>
      </trkpt>
      <trkpt lat="42.517777" lon="2.457290">
        <ele>2614.113</ele>
        <time>2022-08-12T11:55:48Z</time>
      </trkpt>
      <trkpt lat="42.517735" lon="2.457320">
        <ele>2612.852</ele>
        <time>2022-08-12T11:55:54Z</time>
      </trkpt>
      <trkpt lat="42.517687" lon="2.457330">
        <ele>2610.356</ele>
        <time>2022-08-12T11:56:04Z</time>
      </trkpt>
      <trkpt lat="42.517685" lon="2.457269">
        <ele>2607.454</ele>
        <time>2022-08-12T11:56:18Z</time>
      </trkpt>
      <trkpt lat="42.517639" lon="2.457283">
        <ele>2606.221</ele>
        <time>2022-08-12T11:56:26Z</time>
      </trkpt>
      <trkpt lat="42.517600" lon="2.457239">
        <ele>2603.448</ele>
        <time>2022-08-12T11:56:45Z</time>
      </trkpt>
      <trkpt lat="42.517554" lon="2.457224">
        <ele>2601.060</ele>
        <time>2022-08-12T11:57:02Z</time>
      </trkpt>
      <trkpt lat="42.517505" lon="2.457245">
        <ele>2600.193</ele>
        <time>2022-08-12T11:57:14Z</time>
      </trkpt>
      <trkpt lat="42.517460" lon="2.457261">
        <ele>2597.579</ele>
        <time>2022-08-12T11:57:22Z</time>
      </trkpt>
      <trkpt lat="42.517422" lon="2.457301">
        <ele>2594.005</ele>
        <time>2022-08-12T11:57:26Z</time>
      </trkpt>
      <trkpt lat="42.517405" lon="2.457364">
        <ele>2591.825</ele>
        <time>2022-08-12T11:57:33Z</time>
      </trkpt>
      <trkpt lat="42.517384" lon="2.457423">
        <ele>2590.609</ele>
        <time>2022-08-12T11:57:50Z</time>
      </trkpt>
      <trkpt lat="42.517340" lon="2.457460">
        <ele>2589.888</ele>
        <time>2022-08-12T11:57:56Z</time>
      </trkpt>
      <trkpt lat="42.517294" lon="2.457489">
        <ele>2588.948</ele>
        <time>2022-08-12T11:58:00Z</time>
      </trkpt>
      <trkpt lat="42.517257" lon="2.457531">
        <ele>2587.427</ele>
        <time>2022-08-12T11:58:05Z</time>
      </trkpt>
      <trkpt lat="42.517230" lon="2.457581">
        <ele>2586.051</ele>
        <time>2022-08-12T11:58:10Z</time>
      </trkpt>
      <trkpt lat="42.517202" lon="2.457643">
        <ele>2584.879</ele>
        <time>2022-08-12T11:58:16Z</time>
      </trkpt>
      <trkpt lat="42.517158" lon="2.457686">
        <ele>2583.626</ele>
        <time>2022-08-12T11:58:22Z</time>
      </trkpt>
      <trkpt lat="42.517112" lon="2.457726">
        <ele>2582.923</ele>
        <time>2022-08-12T11:58:27Z</time>
      </trkpt>
      <trkpt lat="42.517084" lon="2.457774">
        <ele>2582.655</ele>
        <time>2022-08-12T11:58:31Z</time>
      </trkpt>
      <trkpt lat="42.517041" lon="2.457806">
        <ele>2582.058</ele>
        <time>2022-08-12T11:58:36Z</time>
      </trkpt>
      <trkpt lat="42.517002" lon="2.457844">
        <ele>2581.065</ele>
        <time>2022-08-12T11:58:40Z</time>
      </trkpt>
      <trkpt lat="42.516974" lon="2.457895">
        <ele>2580.368</ele>
        <time>2022-08-12T11:58:46Z</time>
      </trkpt>
      <trkpt lat="42.516918" lon="2.457909">
        <ele>2579.514</ele>
        <time>2022-08-12T11:58:51Z</time>
      </trkpt>
      <trkpt lat="42.516878" lon="2.457960">
        <ele>2578.609</ele>
        <time>2022-08-12T11:58:56Z</time>
      </trkpt>
      <trkpt lat="42.516833" lon="2.457991">
        <ele>2578.127</ele>
        <time>2022-08-12T11:59:03Z</time>
      </trkpt>
      <trkpt lat="42.516796" lon="2.458035">
        <ele>2577.597</ele>
        <time>2022-08-12T11:59:08Z</time>
      </trkpt>
      <trkpt lat="42.516753" lon="2.458081">
        <ele>2576.296</ele>
        <time>2022-08-12T11:59:13Z</time>
      </trkpt>
      <trkpt lat="42.516711" lon="2.458134">
        <ele>2574.960</ele>
        <time>2022-08-12T11:59:17Z</time>
      </trkpt>
      <trkpt lat="42.516693" lon="2.458198">
        <ele>2573.898</ele>
        <time>2022-08-12T11:59:21Z</time>
      </trkpt>
      <trkpt lat="42.516640" lon="2.458242">
        <ele>2572.295</ele>
        <time>2022-08-12T11:59:26Z</time>
      </trkpt>
      <trkpt lat="42.516589" lon="2.458277">
        <ele>2571.762</ele>
        <time>2022-08-12T11:59:38Z</time>
      </trkpt>
      <trkpt lat="42.516553" lon="2.458317">
        <ele>2571.744</ele>
        <time>2022-08-12T11:59:43Z</time>
      </trkpt>
      <trkpt lat="42.516531" lon="2.458371">
        <ele>2570.847</ele>
        <time>2022-08-12T12:00:23Z</time>
      </trkpt>
      <trkpt lat="42.516527" lon="2.458435">
        <ele>2569.946</ele>
        <time>2022-08-12T12:00:28Z</time>
      </trkpt>
      <trkpt lat="42.516489" lon="2.458397">
        <ele>2568.888</ele>
        <time>2022-08-12T12:01:10Z</time>
      </trkpt>
      <trkpt lat="42.516435" lon="2.458383">
        <ele>2567.716</ele>
        <time>2022-08-12T12:01:18Z</time>
      </trkpt>
      <trkpt lat="42.516386" lon="2.458394">
        <ele>2564.009</ele>
        <time>2022-08-12T12:01:36Z</time>
      </trkpt>
      <trkpt lat="42.516366" lon="2.458338">
        <ele>2559.985</ele>
        <time>2022-08-12T12:01:47Z</time>
      </trkpt>
      <trkpt lat="42.516324" lon="2.458368">
        <ele>2557.915</ele>
        <time>2022-08-12T12:01:59Z</time>
      </trkpt>
      <trkpt lat="42.516287" lon="2.458317">
        <ele>2555.264</ele>
        <time>2022-08-12T12:02:16Z</time>
      </trkpt>
      <trkpt lat="42.516249" lon="2.458272">
        <ele>2553.818</ele>
        <time>2022-08-12T12:02:51Z</time>
      </trkpt>
      <trkpt lat="42.516251" lon="2.458211">
        <ele>2550.666</ele>
        <time>2022-08-12T12:02:59Z</time>
      </trkpt>
      <trkpt lat="42.516205" lon="2.458193">
        <ele>2545.733</ele>
        <time>2022-08-12T12:03:26Z</time>
      </trkpt>
      <trkpt lat="42.516175" lon="2.458239">
        <ele>2541.210</ele>
        <time>2022-08-12T12:03:31Z</time>
      </trkpt>
      <trkpt lat="42.516151" lon="2.458297">
        <ele>2538.342</ele>
        <time>2022-08-12T12:03:37Z</time>
      </trkpt>
      <trkpt lat="42.516109" lon="2.458327">
        <ele>2537.275</ele>
        <time>2022-08-12T12:03:56Z</time>
      </trkpt>
      <trkpt lat="42.516072" lon="2.458361">
        <ele>2536.146</ele>
        <time>2022-08-12T12:04:01Z</time>
      </trkpt>
      <trkpt lat="42.516028" lon="2.458395">
        <ele>2534.688</ele>
        <time>2022-08-12T12:04:11Z</time>
      </trkpt>
      <trkpt lat="42.515985" lon="2.458424">
        <ele>2532.916</ele>
        <time>2022-08-12T12:04:18Z</time>
      </trkpt>
      <trkpt lat="42.515937" lon="2.458455">
        <ele>2531.309</ele>
        <time>2022-08-12T12:04:29Z</time>
      </trkpt>
      <trkpt lat="42.515896" lon="2.458487">
        <ele>2529.465</ele>
        <time>2022-08-12T12:04:50Z</time>
      </trkpt>
      <trkpt lat="42.515852" lon="2.458499">
        <ele>2526.375</ele>
        <time>2022-08-12T12:05:05Z</time>
      </trkpt>
      <trkpt lat="42.515810" lon="2.458473">
        <ele>2523.184</ele>
        <time>2022-08-12T12:05:20Z</time>
      </trkpt>
      <trkpt lat="42.515777" lon="2.458518">
        <ele>2519.728</ele>
        <time>2022-08-12T12:05:42Z</time>
      </trkpt>
      <trkpt lat="42.515770" lon="2.458454">
        <ele>2516.256</ele>
        <time>2022-08-12T12:05:47Z</time>
      </trkpt>
      <trkpt lat="42.515747" lon="2.458517">
        <ele>2513.273</ele>
        <time>2022-08-12T12:06:00Z</time>
      </trkpt>
      <trkpt lat="42.515715" lon="2.458473">
        <ele>2511.190</ele>
        <time>2022-08-12T12:06:08Z</time>
      </trkpt>
      <trkpt lat="42.515669" lon="2.458487">
        <ele>2509.222</ele>
        <time>2022-08-12T12:06:18Z</time>
      </trkpt>
      <trkpt lat="42.515619" lon="2.458481">
        <ele>2506.935</ele>
        <time>2022-08-12T12:06:35Z</time>
      </trkpt>
      <trkpt lat="42.515578" lon="2.458454">
        <ele>2505.386</ele>
        <time>2022-08-12T12:06:47Z</time>
      </trkpt>
      <trkpt lat="42.515536" lon="2.458478">
        <ele>2502.060</ele>
        <time>2022-08-12T12:06:52Z</time>
      </trkpt>
      <trkpt lat="42.515491" lon="2.458506">
        <ele>2498.826</ele>
        <time>2022-08-12T12:06:59Z</time>
      </trkpt>
      <trkpt lat="42.515445" lon="2.458531">
        <ele>2497.209</ele>
        <time>2022-08-12T12:07:12Z</time>
      </trkpt>
      <trkpt lat="42.515397" lon="2.458540">
        <ele>2495.939</ele>
        <time>2022-08-12T12:07:21Z</time>
      </trkpt>
      <trkpt lat="42.515349" lon="2.458524">
        <ele>2494.079</ele>
        <time>2022-08-12T12:07:30Z</time>
      </trkpt>
      <trkpt lat="42.515328" lon="2.458469">
        <ele>2491.888</ele>
        <time>2022-08-12T12:07:38Z</time>
      </trkpt>
      <trkpt lat="42.515290" lon="2.458433">
        <ele>2490.022</ele>
        <time>2022-08-12T12:07:47Z</time>
      </trkpt>
      <trkpt lat="42.515255" lon="2.458474">
        <ele>2488.360</ele>
        <time>2022-08-12T12:08:00Z</time>
      </trkpt>
      <trkpt lat="42.515246" lon="2.458411">
        <ele>2486.747</ele>
        <time>2022-08-12T12:08:11Z</time>
      </trkpt>
      <trkpt lat="42.515214" lon="2.458366">
        <ele>2483.864</ele>
        <time>2022-08-12T12:08:21Z</time>
      </trkpt>
      <trkpt lat="42.515195" lon="2.458304">
        <ele>2481.086</ele>
        <time>2022-08-12T12:08:40Z</time>
      </trkpt>
      <trkpt lat="42.515151" lon="2.458282">
        <ele>2479.189</ele>
        <time>2022-08-12T12:08:50Z</time>
      </trkpt>
      <trkpt lat="42.515115" lon="2.458245">
        <ele>2476.432</ele>
        <time>2022-08-12T12:09:20Z</time>
      </trkpt>
      <trkpt lat="42.515070" lon="2.458249">
        <ele>2473.392</ele>
        <time>2022-08-12T12:09:28Z</time>
      </trkpt>
      <trkpt lat="42.515027" lon="2.458218">
        <ele>2470.011</ele>
        <time>2022-08-12T12:09:50Z</time>
      </trkpt>
      <trkpt lat="42.514990" lon="2.458177">
        <ele>2467.909</ele>
        <time>2022-08-12T12:10:03Z</time>
      </trkpt>
      <trkpt lat="42.514953" lon="2.458215">
        <ele>2466.224</ele>
        <time>2022-08-12T12:10:18Z</time>
      </trkpt>
      <trkpt lat="42.514923" lon="2.458263">
        <ele>2463.554</ele>
        <time>2022-08-12T12:10:28Z</time>
      </trkpt>
      <trkpt lat="42.514886" lon="2.458314">
        <ele>2461.213</ele>
        <time>2022-08-12T12:10:40Z</time>
      </trkpt>
      <trkpt lat="42.514847" lon="2.458345">
        <ele>2459.747</ele>
        <time>2022-08-12T12:10:46Z</time>
      </trkpt>
      <trkpt lat="42.514816" lon="2.458394">
        <ele>2459.015</ele>
        <time>2022-08-12T12:10:58Z</time>
      </trkpt>
      <trkpt lat="42.514781" lon="2.458433">
        <ele>2458.612</ele>
        <time>2022-08-12T12:11:07Z</time>
      </trkpt>
      <trkpt lat="42.514740" lon="2.458469">
        <ele>2457.529</ele>
        <time>2022-08-12T12:11:18Z</time>
      </trkpt>
      <trkpt lat="42.514712" lon="2.458529">
        <ele>2455.981</ele>
        <time>2022-08-12T12:11:31Z</time>
      </trkpt>
      <trkpt lat="42.514669" lon="2.458558">
        <ele>2454.374</ele>
        <time>2022-08-12T12:11:36Z</time>
      </trkpt>
      <trkpt lat="42.514627" lon="2.458590">
        <ele>2452.682</ele>
        <time>2022-08-12T12:11:42Z</time>
      </trkpt>
      <trkpt lat="42.514583" lon="2.458615">
        <ele>2451.343</ele>
        <time>2022-08-12T12:11:51Z</time>
      </trkpt>
      <trkpt lat="42.514549" lon="2.458660">
        <ele>2450.217</ele>
        <time>2022-08-12T12:12:00Z</time>
      </trkpt>
      <trkpt lat="42.514505" lon="2.458678">
        <ele>2449.109</ele>
        <time>2022-08-12T12:12:09Z</time>
      </trkpt>
      <trkpt lat="42.514466" lon="2.458720">
        <ele>2447.529</ele>
        <time>2022-08-12T12:12:28Z</time>
      </trkpt>
      <trkpt lat="42.514416" lon="2.458739">
        <ele>2445.739</ele>
        <time>2022-08-12T12:12:46Z</time>
      </trkpt>
      <trkpt lat="42.514375" lon="2.458773">
        <ele>2443.368</ele>
        <time>2022-08-12T12:13:05Z</time>
      </trkpt>
      <trkpt lat="42.514330" lon="2.458766">
        <ele>2440.962</ele>
        <time>2022-08-12T12:13:27Z</time>
      </trkpt>
      <trkpt lat="42.514307" lon="2.458709">
        <ele>2438.090</ele>
        <time>2022-08-12T12:13:39Z</time>
      </trkpt>
      <trkpt lat="42.514262" lon="2.458724">
        <ele>2435.157</ele>
        <time>2022-08-12T12:13:49Z</time>
      </trkpt>
      <trkpt lat="42.514220" lon="2.458750">
        <ele>2433.314</ele>
        <time>2022-08-12T12:13:58Z</time>
      </trkpt>
      <trkpt lat="42.514173" lon="2.458743">
        <ele>2431.016</ele>
        <time>2022-08-12T12:14:09Z</time>
      </trkpt>
      <trkpt lat="42.514136" lon="2.458778">
        <ele>2429.299</ele>
        <time>2022-08-12T12:14:46Z</time>
      </trkpt>
      <trkpt lat="42.514118" lon="2.458846">
        <ele>2427.397</ele>
        <time>2022-08-12T12:14:54Z</time>
      </trkpt>
      <trkpt lat="42.514086" lon="2.458900">
        <ele>2424.023</ele>
        <time>2022-08-12T12:14:59Z</time>
      </trkpt>
      <trkpt lat="42.514036" lon="2.458902">
        <ele>2420.825</ele>
        <time>2022-08-12T12:15:15Z</time>
      </trkpt>
      <trkpt lat="42.514000" lon="2.458958">
        <ele>2419.009</ele>
        <time>2022-08-12T12:15:27Z</time>
      </trkpt>
      <trkpt lat="42.513971" lon="2.459007">
        <ele>2417.890</ele>
        <time>2022-08-12T12:15:34Z</time>
      </trkpt>
      <trkpt lat="42.513946" lon="2.459073">
        <ele>2415.770</ele>
        <time>2022-08-12T12:15:38Z</time>
      </trkpt>
      <trkpt lat="42.513930" lon="2.459133">
        <ele>2414.119</ele>
        <time>2022-08-12T12:15:42Z</time>
      </trkpt>
      <trkpt lat="42.513883" lon="2.459165">
        <ele>2413.773</ele>
        <time>2022-08-12T12:15:48Z</time>
      </trkpt>
      <trkpt lat="42.513835" lon="2.459206">
        <ele>2413.281</ele>
        <time>2022-08-12T12:16:03Z</time>
      </trkpt>
      <trkpt lat="42.513808" lon="2.459266">
        <ele>2412.898</ele>
        <time>2022-08-12T12:16:11Z</time>
      </trkpt>
      <trkpt lat="42.513779" lon="2.459317">
        <ele>2411.855</ele>
        <time>2022-08-12T12:16:15Z</time>
      </trkpt>
      <trkpt lat="42.513738" lon="2.459348">
        <ele>2410.887</ele>
        <time>2022-08-12T12:16:24Z</time>
      </trkpt>
      <trkpt lat="42.513701" lon="2.459400">
        <ele>2410.510</ele>
        <time>2022-08-12T12:16:36Z</time>
      </trkpt>
      <trkpt lat="42.513661" lon="2.459437">
        <ele>2410.087</ele>
        <time>2022-08-12T12:16:46Z</time>
      </trkpt>
      <trkpt lat="42.513614" lon="2.459443">
        <ele>2409.042</ele>
        <time>2022-08-12T12:17:00Z</time>
      </trkpt>
      <trkpt lat="42.513584" lon="2.459381">
        <ele>2407.026</ele>
        <time>2022-08-12T12:17:21Z</time>
      </trkpt>
      <trkpt lat="42.513535" lon="2.459409">
        <ele>2403.909</ele>
        <time>2022-08-12T12:17:33Z</time>
      </trkpt>
      <trkpt lat="42.513502" lon="2.459458">
        <ele>2401.219</ele>
        <time>2022-08-12T12:17:40Z</time>
      </trkpt>
      <trkpt lat="42.513453" lon="2.459449">
        <ele>2398.779</ele>
        <time>2022-08-12T12:17:45Z</time>
      </trkpt>
      <trkpt lat="42.513407" lon="2.459474">
        <ele>2397.048</ele>
        <time>2022-08-12T12:17:53Z</time>
      </trkpt>
      <trkpt lat="42.513361" lon="2.459510">
        <ele>2397.012</ele>
        <time>2022-08-12T12:18:02Z</time>
      </trkpt>
      <trkpt lat="42.513307" lon="2.459510">
        <ele>2396.880</ele>
        <time>2022-08-12T12:18:10Z</time>
      </trkpt>
      <trkpt lat="42.513256" lon="2.459538">
        <ele>2396.827</ele>
        <time>2022-08-12T12:18:15Z</time>
      </trkpt>
      <trkpt lat="42.513219" lon="2.459581">
        <ele>2397.044</ele>
        <time>2022-08-12T12:18:22Z</time>
      </trkpt>
      <trkpt lat="42.513173" lon="2.459596">
        <ele>2396.826</ele>
        <time>2022-08-12T12:18:29Z</time>
      </trkpt>
      <trkpt lat="42.513132" lon="2.459638">
        <ele>2396.769</ele>
        <time>2022-08-12T12:18:39Z</time>
      </trkpt>
      <trkpt lat="42.513091" lon="2.459662">
        <ele>2396.434</ele>
        <time>2022-08-12T12:18:47Z</time>
      </trkpt>
      <trkpt lat="42.513043" lon="2.459684">
        <ele>2396.255</ele>
        <time>2022-08-12T12:19:01Z</time>
      </trkpt>
      <trkpt lat="42.513006" lon="2.459729">
        <ele>2395.310</ele>
        <time>2022-08-12T12:19:08Z</time>
      </trkpt>
      <trkpt lat="42.512958" lon="2.459759">
        <ele>2393.509</ele>
        <time>2022-08-12T12:19:19Z</time>
      </trkpt>
      <trkpt lat="42.512914" lon="2.459794">
        <ele>2392.284</ele>
        <time>2022-08-12T12:19:32Z</time>
      </trkpt>
      <trkpt lat="42.512868" lon="2.459794">
        <ele>2391.024</ele>
        <time>2022-08-12T12:19:43Z</time>
      </trkpt>
      <trkpt lat="42.512827" lon="2.459831">
        <ele>2388.773</ele>
        <time>2022-08-12T12:19:49Z</time>
      </trkpt>
      <trkpt lat="42.512790" lon="2.459880">
        <ele>2387.477</ele>
        <time>2022-08-12T12:19:54Z</time>
      </trkpt>
      <trkpt lat="42.512740" lon="2.459870">
        <ele>2387.215</ele>
        <time>2022-08-12T12:19:59Z</time>
      </trkpt>
      <trkpt lat="42.512689" lon="2.459878">
        <ele>2387.062</ele>
        <time>2022-08-12T12:20:05Z</time>
      </trkpt>
      <trkpt lat="42.512641" lon="2.459886">
        <ele>2386.739</ele>
        <time>2022-08-12T12:20:14Z</time>
      </trkpt>
      <trkpt lat="42.512593" lon="2.459877">
        <ele>2386.221</ele>
        <time>2022-08-12T12:20:19Z</time>
      </trkpt>
      <trkpt lat="42.512547" lon="2.459882">
        <ele>2385.034</ele>
        <time>2022-08-12T12:20:24Z</time>
      </trkpt>
      <trkpt lat="42.512500" lon="2.459901">
        <ele>2383.776</ele>
        <time>2022-08-12T12:20:29Z</time>
      </trkpt>
      <trkpt lat="42.512457" lon="2.459929">
        <ele>2383.090</ele>
        <time>2022-08-12T12:20:33Z</time>
      </trkpt>
      <trkpt lat="42.512398" lon="2.459945">
        <ele>2382.219</ele>
        <time>2022-08-12T12:20:40Z</time>
      </trkpt>
      <trkpt lat="42.512357" lon="2.459972">
        <ele>2381.009</ele>
        <time>2022-08-12T12:20:44Z</time>
      </trkpt>
      <trkpt lat="42.512308" lon="2.460003">
        <ele>2379.878</ele>
        <time>2022-08-12T12:20:49Z</time>
      </trkpt>
      <trkpt lat="42.512266" lon="2.460029">
        <ele>2378.968</ele>
        <time>2022-08-12T12:20:53Z</time>
      </trkpt>
      <trkpt lat="42.512223" lon="2.460061">
        <ele>2377.917</ele>
        <time>2022-08-12T12:20:57Z</time>
      </trkpt>
      <trkpt lat="42.512189" lon="2.460113">
        <ele>2376.711</ele>
        <time>2022-08-12T12:21:01Z</time>
      </trkpt>
      <trkpt lat="42.512154" lon="2.460152">
        <ele>2376.029</ele>
        <time>2022-08-12T12:21:07Z</time>
      </trkpt>
      <trkpt lat="42.512101" lon="2.460168">
        <ele>2375.666</ele>
        <time>2022-08-12T12:21:13Z</time>
      </trkpt>
      <trkpt lat="42.512054" lon="2.460182">
        <ele>2375.083</ele>
        <time>2022-08-12T12:21:18Z</time>
      </trkpt>
      <trkpt lat="42.512001" lon="2.460179">
        <ele>2374.165</ele>
        <time>2022-08-12T12:21:24Z</time>
      </trkpt>
      <trkpt lat="42.511956" lon="2.460202">
        <ele>2373.478</ele>
        <time>2022-08-12T12:21:28Z</time>
      </trkpt>
      <trkpt lat="42.511911" lon="2.460233">
        <ele>2372.427</ele>
        <time>2022-08-12T12:21:32Z</time>
      </trkpt>
      <trkpt lat="42.511872" lon="2.460279">
        <ele>2371.468</ele>
        <time>2022-08-12T12:21:36Z</time>
      </trkpt>
      <trkpt lat="42.511821" lon="2.460275">
        <ele>2370.814</ele>
        <time>2022-08-12T12:21:41Z</time>
      </trkpt>
      <trkpt lat="42.511769" lon="2.460293">
        <ele>2370.409</ele>
        <time>2022-08-12T12:21:45Z</time>
      </trkpt>
      <trkpt lat="42.511711" lon="2.460319">
        <ele>2370.133</ele>
        <time>2022-08-12T12:21:50Z</time>
      </trkpt>
      <trkpt lat="42.511670" lon="2.460353">
        <ele>2369.893</ele>
        <time>2022-08-12T12:21:54Z</time>
      </trkpt>
      <trkpt lat="42.511641" lon="2.460400">
        <ele>2369.352</ele>
        <time>2022-08-12T12:21:59Z</time>
      </trkpt>
      <trkpt lat="42.511597" lon="2.460413">
        <ele>2368.386</ele>
        <time>2022-08-12T12:22:05Z</time>
      </trkpt>
      <trkpt lat="42.511550" lon="2.460430">
        <ele>2367.534</ele>
        <time>2022-08-12T12:22:12Z</time>
      </trkpt>
      <trkpt lat="42.511589" lon="2.460466">
        <ele>2367.091</ele>
        <time>2022-08-12T12:22:22Z</time>
      </trkpt>
      <trkpt lat="42.511628" lon="2.460430">
        <ele>2367.078</ele>
        <time>2022-08-12T12:22:36Z</time>
      </trkpt>
      <trkpt lat="42.511668" lon="2.460370">
        <ele>2367.050</ele>
        <time>2022-08-12T12:22:43Z</time>
      </trkpt>
      <trkpt lat="42.511698" lon="2.460324">
        <ele>2366.133</ele>
        <time>2022-08-12T12:22:49Z</time>
      </trkpt>
      <trkpt lat="42.511736" lon="2.460285">
        <ele>2364.693</ele>
        <time>2022-08-12T12:22:55Z</time>
      </trkpt>
      <trkpt lat="42.511768" lon="2.460225">
        <ele>2364.665</ele>
        <time>2022-08-12T12:23:01Z</time>
      </trkpt>
      <trkpt lat="42.511785" lon="2.460161">
        <ele>2364.621</ele>
        <time>2022-08-12T12:23:09Z</time>
      </trkpt>
      <trkpt lat="42.511802" lon="2.460087">
        <ele>2363.509</ele>
        <time>2022-08-12T12:23:15Z</time>
      </trkpt>
      <trkpt lat="42.511823" lon="2.460026">
        <ele>2362.930</ele>
        <time>2022-08-12T12:23:19Z</time>
      </trkpt>
      <trkpt lat="42.511856" lon="2.459971">
        <ele>2362.250</ele>
        <time>2022-08-12T12:23:23Z</time>
      </trkpt>
      <trkpt lat="42.511870" lon="2.459912">
        <ele>2361.859</ele>
        <time>2022-08-12T12:23:29Z</time>
      </trkpt>
      <trkpt lat="42.511897" lon="2.459849">
        <ele>2361.553</ele>
        <time>2022-08-12T12:23:34Z</time>
      </trkpt>
      <trkpt lat="42.511917" lon="2.459784">
        <ele>2360.991</ele>
        <time>2022-08-12T12:23:41Z</time>
      </trkpt>
      <trkpt lat="42.511946" lon="2.459731">
        <ele>2360.198</ele>
        <time>2022-08-12T12:23:45Z</time>
      </trkpt>
      <trkpt lat="42.511969" lon="2.459671">
        <ele>2359.155</ele>
        <time>2022-08-12T12:23:52Z</time>
      </trkpt>
      <trkpt lat="42.512008" lon="2.459608">
        <ele>2358.137</ele>
        <time>2022-08-12T12:23:57Z</time>
      </trkpt>
      <trkpt lat="42.512042" lon="2.459566">
        <ele>2357.680</ele>
        <time>2022-08-12T12:24:02Z</time>
      </trkpt>
      <trkpt lat="42.512077" lon="2.459500">
        <ele>2357.197</ele>
        <time>2022-08-12T12:24:07Z</time>
      </trkpt>
      <trkpt lat="42.512116" lon="2.459454">
        <ele>2356.623</ele>
        <time>2022-08-12T12:24:12Z</time>
      </trkpt>
      <trkpt lat="42.512138" lon="2.459398">
        <ele>2355.925</ele>
        <time>2022-08-12T12:24:15Z</time>
      </trkpt>
      <trkpt lat="42.512142" lon="2.459329">
        <ele>2355.309</ele>
        <time>2022-08-12T12:24:22Z</time>
      </trkpt>
      <trkpt lat="42.512165" lon="2.459273">
        <ele>2354.760</ele>
        <time>2022-08-12T12:24:26Z</time>
      </trkpt>
      <trkpt lat="42.512193" lon="2.459221">
        <ele>2354.120</ele>
        <time>2022-08-12T12:24:30Z</time>
      </trkpt>
      <trkpt lat="42.512219" lon="2.459162">
        <ele>2353.579</ele>
        <time>2022-08-12T12:24:34Z</time>
      </trkpt>
      <trkpt lat="42.512247" lon="2.459096">
        <ele>2352.753</ele>
        <time>2022-08-12T12:24:39Z</time>
      </trkpt>
      <trkpt lat="42.512283" lon="2.459053">
        <ele>2352.161</ele>
        <time>2022-08-12T12:24:43Z</time>
      </trkpt>
      <trkpt lat="42.512308" lon="2.458999">
        <ele>2351.338</ele>
        <time>2022-08-12T12:24:47Z</time>
      </trkpt>
      <trkpt lat="42.512349" lon="2.458948">
        <ele>2350.515</ele>
        <time>2022-08-12T12:24:52Z</time>
      </trkpt>
      <trkpt lat="42.512381" lon="2.458896">
        <ele>2350.067</ele>
        <time>2022-08-12T12:24:57Z</time>
      </trkpt>
      <trkpt lat="42.512402" lon="2.458835">
        <ele>2349.590</ele>
        <time>2022-08-12T12:25:03Z</time>
      </trkpt>
      <trkpt lat="42.512426" lon="2.458774">
        <ele>2349.197</ele>
        <time>2022-08-12T12:25:07Z</time>
      </trkpt>
      <trkpt lat="42.512412" lon="2.458705">
        <ele>2348.823</ele>
        <time>2022-08-12T12:25:13Z</time>
      </trkpt>
      <trkpt lat="42.512370" lon="2.458742">
        <ele>2348.525</ele>
        <time>2022-08-12T12:25:18Z</time>
      </trkpt>
      <trkpt lat="42.512332" lon="2.458794">
        <ele>2348.009</ele>
        <time>2022-08-12T12:25:24Z</time>
      </trkpt>
      <trkpt lat="42.512308" lon="2.458862">
        <ele>2347.190</ele>
        <time>2022-08-12T12:25:30Z</time>
      </trkpt>
      <trkpt lat="42.512268" lon="2.458892">
        <ele>2346.120</ele>
        <time>2022-08-12T12:25:35Z</time>
      </trkpt>
      <trkpt lat="42.512220" lon="2.458910">
        <ele>2345.279</ele>
        <time>2022-08-12T12:25:39Z</time>
      </trkpt>
      <trkpt lat="42.512171" lon="2.458919">
        <ele>2344.233</ele>
        <time>2022-08-12T12:25:43Z</time>
      </trkpt>
      <trkpt lat="42.512125" lon="2.458921">
        <ele>2343.441</ele>
        <time>2022-08-12T12:25:49Z</time>
      </trkpt>
      <trkpt lat="42.512080" lon="2.458932">
        <ele>2342.648</ele>
        <time>2022-08-12T12:25:54Z</time>
      </trkpt>
      <trkpt lat="42.512036" lon="2.458912">
        <ele>2341.895</ele>
        <time>2022-08-12T12:25:57Z</time>
      </trkpt>
      <trkpt lat="42.511984" lon="2.458901">
        <ele>2340.937</ele>
        <time>2022-08-12T12:26:01Z</time>
      </trkpt>
      <trkpt lat="42.511921" lon="2.458885">
        <ele>2339.840</ele>
        <time>2022-08-12T12:26:06Z</time>
      </trkpt>
      <trkpt lat="42.511874" lon="2.458863">
        <ele>2339.138</ele>
        <time>2022-08-12T12:26:10Z</time>
      </trkpt>
      <trkpt lat="42.511821" lon="2.458854">
        <ele>2338.470</ele>
        <time>2022-08-12T12:26:15Z</time>
      </trkpt>
      <trkpt lat="42.511780" lon="2.458827">
        <ele>2337.617</ele>
        <time>2022-08-12T12:26:24Z</time>
      </trkpt>
      <trkpt lat="42.511742" lon="2.458786">
        <ele>2336.809</ele>
        <time>2022-08-12T12:26:30Z</time>
      </trkpt>
      <trkpt lat="42.511701" lon="2.458736">
        <ele>2335.924</ele>
        <time>2022-08-12T12:26:36Z</time>
      </trkpt>
      <trkpt lat="42.511668" lon="2.458679">
        <ele>2335.034</ele>
        <time>2022-08-12T12:26:42Z</time>
      </trkpt>
      <trkpt lat="42.511637" lon="2.458616">
        <ele>2333.923</ele>
        <time>2022-08-12T12:26:47Z</time>
      </trkpt>
      <trkpt lat="42.511601" lon="2.458564">
        <ele>2332.627</ele>
        <time>2022-08-12T12:26:53Z</time>
      </trkpt>
      <trkpt lat="42.511553" lon="2.458542">
        <ele>2331.655</ele>
        <time>2022-08-12T12:26:57Z</time>
      </trkpt>
      <trkpt lat="42.511500" lon="2.458528">
        <ele>2330.942</ele>
        <time>2022-08-12T12:27:01Z</time>
      </trkpt>
      <trkpt lat="42.511444" lon="2.458522">
        <ele>2329.459</ele>
        <time>2022-08-12T12:27:05Z</time>
      </trkpt>
      <trkpt lat="42.511400" lon="2.458536">
        <ele>2328.931</ele>
        <time>2022-08-12T12:27:09Z</time>
      </trkpt>
      <trkpt lat="42.511357" lon="2.458566">
        <ele>2328.224</ele>
        <time>2022-08-12T12:27:13Z</time>
      </trkpt>
      <trkpt lat="42.511313" lon="2.458605">
        <ele>2327.547</ele>
        <time>2022-08-12T12:27:18Z</time>
      </trkpt>
      <trkpt lat="42.511262" lon="2.458648">
        <ele>2326.829</ele>
        <time>2022-08-12T12:27:22Z</time>
      </trkpt>
      <trkpt lat="42.511223" lon="2.458693">
        <ele>2326.121</ele>
        <time>2022-08-12T12:27:26Z</time>
      </trkpt>
      <trkpt lat="42.511207" lon="2.458751">
        <ele>2325.309</ele>
        <time>2022-08-12T12:27:29Z</time>
      </trkpt>
      <trkpt lat="42.511206" lon="2.458823">
        <ele>2324.625</ele>
        <time>2022-08-12T12:27:33Z</time>
      </trkpt>
      <trkpt lat="42.511206" lon="2.458896">
        <ele>2324.385</ele>
        <time>2022-08-12T12:27:37Z</time>
      </trkpt>
      <trkpt lat="42.511207" lon="2.458963">
        <ele>2324.114</ele>
        <time>2022-08-12T12:27:42Z</time>
      </trkpt>
      <trkpt lat="42.511183" lon="2.459019">
        <ele>2323.768</ele>
        <time>2022-08-12T12:27:45Z</time>
      </trkpt>
      <trkpt lat="42.511143" lon="2.459050">
        <ele>2323.066</ele>
        <time>2022-08-12T12:27:48Z</time>
      </trkpt>
      <trkpt lat="42.511094" lon="2.459078">
        <ele>2322.473</ele>
        <time>2022-08-12T12:27:52Z</time>
      </trkpt>
      <trkpt lat="42.511049" lon="2.459092">
        <ele>2322.470</ele>
        <time>2022-08-12T12:27:57Z</time>
      </trkpt>
      <trkpt lat="42.511003" lon="2.459066">
        <ele>2322.282</ele>
        <time>2022-08-12T12:28:02Z</time>
      </trkpt>
      <trkpt lat="42.510951" lon="2.459055">
        <ele>2321.695</ele>
        <time>2022-08-12T12:28:08Z</time>
      </trkpt>
      <trkpt lat="42.510908" lon="2.459019">
        <ele>2321.119</ele>
        <time>2022-08-12T12:28:12Z</time>
      </trkpt>
      <trkpt lat="42.510871" lon="2.458975">
        <ele>2320.509</ele>
        <time>2022-08-12T12:28:17Z</time>
      </trkpt>
      <trkpt lat="42.510825" lon="2.458947">
        <ele>2319.519</ele>
        <time>2022-08-12T12:28:21Z</time>
      </trkpt>
      <trkpt lat="42.510774" lon="2.458925">
        <ele>2318.809</ele>
        <time>2022-08-12T12:28:25Z</time>
      </trkpt>
      <trkpt lat="42.510726" lon="2.458914">
        <ele>2318.512</ele>
        <time>2022-08-12T12:28:30Z</time>
      </trkpt>
      <trkpt lat="42.510694" lon="2.458965">
        <ele>2318.122</ele>
        <time>2022-08-12T12:28:34Z</time>
      </trkpt>
      <trkpt lat="42.510640" lon="2.458957">
        <ele>2317.311</ele>
        <time>2022-08-12T12:28:39Z</time>
      </trkpt>
      <trkpt lat="42.510589" lon="2.458946">
        <ele>2316.675</ele>
        <time>2022-08-12T12:28:42Z</time>
      </trkpt>
      <trkpt lat="42.510544" lon="2.458955">
        <ele>2316.283</ele>
        <time>2022-08-12T12:28:46Z</time>
      </trkpt>
      <trkpt lat="42.510496" lon="2.458956">
        <ele>2315.840</ele>
        <time>2022-08-12T12:28:50Z</time>
      </trkpt>
      <trkpt lat="42.510449" lon="2.458946">
        <ele>2315.517</ele>
        <time>2022-08-12T12:28:54Z</time>
      </trkpt>
      <trkpt lat="42.510403" lon="2.458947">
        <ele>2314.989</ele>
        <time>2022-08-12T12:28:57Z</time>
      </trkpt>
      <trkpt lat="42.510358" lon="2.458928">
        <ele>2314.592</ele>
        <time>2022-08-12T12:29:00Z</time>
      </trkpt>
      <trkpt lat="42.510308" lon="2.458921">
        <ele>2314.352</ele>
        <time>2022-08-12T12:29:04Z</time>
      </trkpt>
      <trkpt lat="42.510262" lon="2.458877">
        <ele>2313.953</ele>
        <time>2022-08-12T12:29:08Z</time>
      </trkpt>
      <trkpt lat="42.510223" lon="2.458842">
        <ele>2313.708</ele>
        <time>2022-08-12T12:29:12Z</time>
      </trkpt>
      <trkpt lat="42.510191" lon="2.458796">
        <ele>2313.209</ele>
        <time>2022-08-12T12:29:17Z</time>
      </trkpt>
      <trkpt lat="42.510155" lon="2.458756">
        <ele>2312.456</ele>
        <time>2022-08-12T12:29:23Z</time>
      </trkpt>
      <trkpt lat="42.510116" lon="2.458708">
        <ele>2311.846</ele>
        <time>2022-08-12T12:29:33Z</time>
      </trkpt>
      <trkpt lat="42.510072" lon="2.458682">
        <ele>2311.365</ele>
        <time>2022-08-12T12:29:39Z</time>
      </trkpt>
      <trkpt lat="42.510036" lon="2.458638">
        <ele>2311.069</ele>
        <time>2022-08-12T12:29:43Z</time>
      </trkpt>
      <trkpt lat="42.509993" lon="2.458596">
        <ele>2310.617</ele>
        <time>2022-08-12T12:29:48Z</time>
      </trkpt>
      <trkpt lat="42.509954" lon="2.458554">
        <ele>2310.234</ele>
        <time>2022-08-12T12:29:53Z</time>
      </trkpt>
      <trkpt lat="42.509919" lon="2.458504">
        <ele>2309.931</ele>
        <time>2022-08-12T12:29:57Z</time>
      </trkpt>
      <trkpt lat="42.509884" lon="2.458452">
        <ele>2309.323</ele>
        <time>2022-08-12T12:30:02Z</time>
      </trkpt>
      <trkpt lat="42.509851" lon="2.458407">
        <ele>2308.436</ele>
        <time>2022-08-12T12:30:06Z</time>
      </trkpt>
      <trkpt lat="42.509827" lon="2.458355">
        <ele>2307.737</ele>
        <time>2022-08-12T12:30:10Z</time>
      </trkpt>
      <trkpt lat="42.509789" lon="2.458310">
        <ele>2306.649</ele>
        <time>2022-08-12T12:30:14Z</time>
      </trkpt>
      <trkpt lat="42.509756" lon="2.458268">
        <ele>2305.513</ele>
        <time>2022-08-12T12:30:19Z</time>
      </trkpt>
      <trkpt lat="42.509722" lon="2.458210">
        <ele>2305.009</ele>
        <time>2022-08-12T12:30:23Z</time>
      </trkpt>
      <trkpt lat="42.509672" lon="2.458199">
        <ele>2304.184</ele>
        <time>2022-08-12T12:30:26Z</time>
      </trkpt>
      <trkpt lat="42.509625" lon="2.458243">
        <ele>2303.484</ele>
        <time>2022-08-12T12:30:30Z</time>
      </trkpt>
      <trkpt lat="42.509578" lon="2.458283">
        <ele>2302.773</ele>
        <time>2022-08-12T12:30:34Z</time>
      </trkpt>
      <trkpt lat="42.509533" lon="2.458267">
        <ele>2302.197</ele>
        <time>2022-08-12T12:30:37Z</time>
      </trkpt>
      <trkpt lat="42.509486" lon="2.458270">
        <ele>2301.975</ele>
        <time>2022-08-12T12:30:41Z</time>
      </trkpt>
      <trkpt lat="42.509437" lon="2.458283">
        <ele>2301.532</ele>
        <time>2022-08-12T12:30:45Z</time>
      </trkpt>
      <trkpt lat="42.509410" lon="2.458231">
        <ele>2301.159</ele>
        <time>2022-08-12T12:30:51Z</time>
      </trkpt>
      <trkpt lat="42.509397" lon="2.458164">
        <ele>2300.811</ele>
        <time>2022-08-12T12:30:55Z</time>
      </trkpt>
      <trkpt lat="42.509398" lon="2.458102">
        <ele>2300.444</ele>
        <time>2022-08-12T12:30:58Z</time>
      </trkpt>
      <trkpt lat="42.509359" lon="2.458047">
        <ele>2300.031</ele>
        <time>2022-08-12T12:31:02Z</time>
      </trkpt>
      <trkpt lat="42.509314" lon="2.458011">
        <ele>2299.961</ele>
        <time>2022-08-12T12:31:06Z</time>
      </trkpt>
      <trkpt lat="42.509264" lon="2.457986">
        <ele>2299.707</ele>
        <time>2022-08-12T12:31:10Z</time>
      </trkpt>
      <trkpt lat="42.509259" lon="2.457916">
        <ele>2298.609</ele>
        <time>2022-08-12T12:31:14Z</time>
      </trkpt>
      <trkpt lat="42.509240" lon="2.457843">
        <ele>2296.514</ele>
        <time>2022-08-12T12:31:18Z</time>
      </trkpt>
      <trkpt lat="42.509190" lon="2.457793">
        <ele>2296.354</ele>
        <time>2022-08-12T12:31:23Z</time>
      </trkpt>
      <trkpt lat="42.509171" lon="2.457725">
        <ele>2296.143</ele>
        <time>2022-08-12T12:31:29Z</time>
      </trkpt>
      <trkpt lat="42.509138" lon="2.457668">
        <ele>2295.337</ele>
        <time>2022-08-12T12:31:34Z</time>
      </trkpt>
      <trkpt lat="42.509111" lon="2.457615">
        <ele>2294.035</ele>
        <time>2022-08-12T12:31:40Z</time>
      </trkpt>
      <trkpt lat="42.509079" lon="2.457556">
        <ele>2293.712</ele>
        <time>2022-08-12T12:31:46Z</time>
      </trkpt>
      <trkpt lat="42.509049" lon="2.457497">
        <ele>2292.919</ele>
        <time>2022-08-12T12:31:51Z</time>
      </trkpt>
      <trkpt lat="42.509016" lon="2.457448">
        <ele>2290.661</ele>
        <time>2022-08-12T12:32:02Z</time>
      </trkpt>
      <trkpt lat="42.509041" lon="2.457394">
        <ele>2288.434</ele>
        <time>2022-08-12T12:32:17Z</time>
      </trkpt>
      <trkpt lat="42.509045" lon="2.457331">
        <ele>2287.072</ele>
        <time>2022-08-12T12:32:23Z</time>
      </trkpt>
      <trkpt lat="42.509050" lon="2.457258">
        <ele>2286.313</ele>
        <time>2022-08-12T12:32:27Z</time>
      </trkpt>
      <trkpt lat="42.509052" lon="2.457195">
        <ele>2285.914</ele>
        <time>2022-08-12T12:32:31Z</time>
      </trkpt>
      <trkpt lat="42.509072" lon="2.457138">
        <ele>2285.209</ele>
        <time>2022-08-12T12:32:35Z</time>
      </trkpt>
      <trkpt lat="42.509090" lon="2.457079">
        <ele>2284.968</ele>
        <time>2022-08-12T12:32:39Z</time>
      </trkpt>
      <trkpt lat="42.509113" lon="2.457023">
        <ele>2284.898</ele>
        <time>2022-08-12T12:32:42Z</time>
      </trkpt>
      <trkpt lat="42.509131" lon="2.456963">
        <ele>2284.477</ele>
        <time>2022-08-12T12:32:45Z</time>
      </trkpt>
      <trkpt lat="42.509157" lon="2.456892">
        <ele>2284.011</ele>
        <time>2022-08-12T12:32:50Z</time>
      </trkpt>
      <trkpt lat="42.509187" lon="2.456825">
        <ele>2283.959</ele>
        <time>2022-08-12T12:32:55Z</time>
      </trkpt>
      <trkpt lat="42.509220" lon="2.456775">
        <ele>2283.796</ele>
        <time>2022-08-12T12:32:59Z</time>
      </trkpt>
      <trkpt lat="42.509234" lon="2.456713">
        <ele>2283.583</ele>
        <time>2022-08-12T12:33:03Z</time>
      </trkpt>
      <trkpt lat="42.509248" lon="2.456648">
        <ele>2283.495</ele>
        <time>2022-08-12T12:33:06Z</time>
      </trkpt>
      <trkpt lat="42.509254" lon="2.456576">
        <ele>2283.548</ele>
        <time>2022-08-12T12:33:10Z</time>
      </trkpt>
      <trkpt lat="42.509287" lon="2.456509">
        <ele>2283.586</ele>
        <time>2022-08-12T12:33:14Z</time>
      </trkpt>
      <trkpt lat="42.509310" lon="2.456435">
        <ele>2283.260</ele>
        <time>2022-08-12T12:33:18Z</time>
      </trkpt>
      <trkpt lat="42.509266" lon="2.456379">
        <ele>2283.126</ele>
        <time>2022-08-12T12:33:24Z</time>
      </trkpt>
      <trkpt lat="42.509227" lon="2.456346">
        <ele>2282.609</ele>
        <time>2022-08-12T12:33:28Z</time>
      </trkpt>
      <trkpt lat="42.509181" lon="2.456319">
        <ele>2280.839</ele>
        <time>2022-08-12T12:33:33Z</time>
      </trkpt>
      <trkpt lat="42.509147" lon="2.456280">
        <ele>2280.259</ele>
        <time>2022-08-12T12:33:36Z</time>
      </trkpt>
      <trkpt lat="42.509118" lon="2.456227">
        <ele>2279.468</ele>
        <time>2022-08-12T12:33:39Z</time>
      </trkpt>
      <trkpt lat="42.509076" lon="2.456204">
        <ele>2278.912</ele>
        <time>2022-08-12T12:33:42Z</time>
      </trkpt>
      <trkpt lat="42.509056" lon="2.456140">
        <ele>2278.340</ele>
        <time>2022-08-12T12:33:47Z</time>
      </trkpt>
      <trkpt lat="42.509042" lon="2.456074">
        <ele>2277.527</ele>
        <time>2022-08-12T12:33:53Z</time>
      </trkpt>
      <trkpt lat="42.509035" lon="2.456012">
        <ele>2276.694</ele>
        <time>2022-08-12T12:33:57Z</time>
      </trkpt>
      <trkpt lat="42.509028" lon="2.455943">
        <ele>2275.816</ele>
        <time>2022-08-12T12:34:02Z</time>
      </trkpt>
      <trkpt lat="42.509001" lon="2.455888">
        <ele>2274.979</ele>
        <time>2022-08-12T12:34:07Z</time>
      </trkpt>
      <trkpt lat="42.508995" lon="2.455813">
        <ele>2273.747</ele>
        <time>2022-08-12T12:34:14Z</time>
      </trkpt>
      <trkpt lat="42.508954" lon="2.455785">
        <ele>2272.529</ele>
        <time>2022-08-12T12:34:19Z</time>
      </trkpt>
      <trkpt lat="42.508922" lon="2.455724">
        <ele>2271.421</ele>
        <time>2022-08-12T12:34:24Z</time>
      </trkpt>
      <trkpt lat="42.508899" lon="2.455663">
        <ele>2270.009</ele>
        <time>2022-08-12T12:34:29Z</time>
      </trkpt>
      <trkpt lat="42.508854" lon="2.455646">
        <ele>2268.735</ele>
        <time>2022-08-12T12:34:36Z</time>
      </trkpt>
      <trkpt lat="42.508810" lon="2.455612">
        <ele>2267.865</ele>
        <time>2022-08-12T12:34:40Z</time>
      </trkpt>
      <trkpt lat="42.508786" lon="2.455558">
        <ele>2266.374</ele>
        <time>2022-08-12T12:34:44Z</time>
      </trkpt>
      <trkpt lat="42.508736" lon="2.455551">
        <ele>2264.948</ele>
        <time>2022-08-12T12:34:50Z</time>
      </trkpt>
      <trkpt lat="42.508693" lon="2.455513">
        <ele>2264.246</ele>
        <time>2022-08-12T12:34:56Z</time>
      </trkpt>
      <trkpt lat="42.508658" lon="2.455455">
        <ele>2263.163</ele>
        <time>2022-08-12T12:35:03Z</time>
      </trkpt>
      <trkpt lat="42.508636" lon="2.455392">
        <ele>2262.440</ele>
        <time>2022-08-12T12:35:08Z</time>
      </trkpt>
      <trkpt lat="42.508591" lon="2.455378">
        <ele>2261.812</ele>
        <time>2022-08-12T12:35:12Z</time>
      </trkpt>
      <trkpt lat="42.508563" lon="2.455326">
        <ele>2260.615</ele>
        <time>2022-08-12T12:35:17Z</time>
      </trkpt>
      <trkpt lat="42.508521" lon="2.455298">
        <ele>2259.637</ele>
        <time>2022-08-12T12:35:22Z</time>
      </trkpt>
      <trkpt lat="42.508485" lon="2.455255">
        <ele>2258.549</ele>
        <time>2022-08-12T12:35:26Z</time>
      </trkpt>
      <trkpt lat="42.508445" lon="2.455201">
        <ele>2257.313</ele>
        <time>2022-08-12T12:35:31Z</time>
      </trkpt>
      <trkpt lat="42.508423" lon="2.455135">
        <ele>2256.509</ele>
        <time>2022-08-12T12:35:37Z</time>
      </trkpt>
      <trkpt lat="42.508387" lon="2.455084">
        <ele>2255.964</ele>
        <time>2022-08-12T12:35:40Z</time>
      </trkpt>
      <trkpt lat="42.508359" lon="2.455028">
        <ele>2255.454</ele>
        <time>2022-08-12T12:35:44Z</time>
      </trkpt>
      <trkpt lat="42.508337" lon="2.454962">
        <ele>2254.513</ele>
        <time>2022-08-12T12:35:48Z</time>
      </trkpt>
      <trkpt lat="42.508315" lon="2.454898">
        <ele>2253.837</ele>
        <time>2022-08-12T12:35:52Z</time>
      </trkpt>
      <trkpt lat="42.508299" lon="2.454841">
        <ele>2253.285</ele>
        <time>2022-08-12T12:35:56Z</time>
      </trkpt>
      <trkpt lat="42.508285" lon="2.454773">
        <ele>2252.362</ele>
        <time>2022-08-12T12:36:01Z</time>
      </trkpt>
      <trkpt lat="42.508290" lon="2.454696">
        <ele>2251.649</ele>
        <time>2022-08-12T12:36:06Z</time>
      </trkpt>
      <trkpt lat="42.508300" lon="2.454627">
        <ele>2250.561</ele>
        <time>2022-08-12T12:36:10Z</time>
      </trkpt>
      <trkpt lat="42.508284" lon="2.454552">
        <ele>2249.514</ele>
        <time>2022-08-12T12:36:15Z</time>
      </trkpt>
      <trkpt lat="42.508264" lon="2.454481">
        <ele>2247.933</ele>
        <time>2022-08-12T12:36:19Z</time>
      </trkpt>
      <trkpt lat="42.508254" lon="2.454421">
        <ele>2247.423</ele>
        <time>2022-08-12T12:36:24Z</time>
      </trkpt>
      <trkpt lat="42.508236" lon="2.454365">
        <ele>2246.615</ele>
        <time>2022-08-12T12:36:28Z</time>
      </trkpt>
      <trkpt lat="42.508244" lon="2.454305">
        <ele>2245.809</ele>
        <time>2022-08-12T12:36:32Z</time>
      </trkpt>
      <trkpt lat="42.508256" lon="2.454227">
        <ele>2244.974</ele>
        <time>2022-08-12T12:36:37Z</time>
      </trkpt>
      <trkpt lat="42.508269" lon="2.454155">
        <ele>2244.164</ele>
        <time>2022-08-12T12:36:44Z</time>
      </trkpt>
      <trkpt lat="42.508284" lon="2.454095">
        <ele>2243.193</ele>
        <time>2022-08-12T12:36:51Z</time>
      </trkpt>
      <trkpt lat="42.508285" lon="2.454034">
        <ele>2241.487</ele>
        <time>2022-08-12T12:36:57Z</time>
      </trkpt>
      <trkpt lat="42.508250" lon="2.453990">
        <ele>2239.545</ele>
        <time>2022-08-12T12:37:03Z</time>
      </trkpt>
      <trkpt lat="42.508287" lon="2.453948">
        <ele>2238.172</ele>
        <time>2022-08-12T12:37:17Z</time>
      </trkpt>
      <trkpt lat="42.508283" lon="2.453885">
        <ele>2236.629</ele>
        <time>2022-08-12T12:37:23Z</time>
      </trkpt>
      <trkpt lat="42.508256" lon="2.453827">
        <ele>2235.231</ele>
        <time>2022-08-12T12:37:30Z</time>
      </trkpt>
      <trkpt lat="42.508224" lon="2.453783">
        <ele>2234.754</ele>
        <time>2022-08-12T12:37:35Z</time>
      </trkpt>
      <trkpt lat="42.508208" lon="2.453707">
        <ele>2234.491</ele>
        <time>2022-08-12T12:37:40Z</time>
      </trkpt>
      <trkpt lat="42.508188" lon="2.453649">
        <ele>2234.181</ele>
        <time>2022-08-12T12:37:44Z</time>
      </trkpt>
      <trkpt lat="42.508166" lon="2.453585">
        <ele>2233.919</ele>
        <time>2022-08-12T12:37:48Z</time>
      </trkpt>
      <trkpt lat="42.508139" lon="2.453533">
        <ele>2233.409</ele>
        <time>2022-08-12T12:37:53Z</time>
      </trkpt>
      <trkpt lat="42.508110" lon="2.453474">
        <ele>2232.520</ele>
        <time>2022-08-12T12:37:57Z</time>
      </trkpt>
      <trkpt lat="42.508082" lon="2.453421">
        <ele>2231.760</ele>
        <time>2022-08-12T12:38:03Z</time>
      </trkpt>
      <trkpt lat="42.508051" lon="2.453369">
        <ele>2231.269</ele>
        <time>2022-08-12T12:38:06Z</time>
      </trkpt>
      <trkpt lat="42.508022" lon="2.453316">
        <ele>2230.623</ele>
        <time>2022-08-12T12:38:10Z</time>
      </trkpt>
      <trkpt lat="42.507981" lon="2.453258">
        <ele>2230.191</ele>
        <time>2022-08-12T12:38:14Z</time>
      </trkpt>
      <trkpt lat="42.507948" lon="2.453213">
        <ele>2230.068</ele>
        <time>2022-08-12T12:38:19Z</time>
      </trkpt>
      <trkpt lat="42.507916" lon="2.453149">
        <ele>2229.545</ele>
        <time>2022-08-12T12:38:24Z</time>
      </trkpt>
      <trkpt lat="42.507875" lon="2.453101">
        <ele>2228.877</ele>
        <time>2022-08-12T12:38:29Z</time>
      </trkpt>
      <trkpt lat="42.507829" lon="2.453087">
        <ele>2228.180</ele>
        <time>2022-08-12T12:38:33Z</time>
      </trkpt>
      <trkpt lat="42.507779" lon="2.453058">
        <ele>2227.779</ele>
        <time>2022-08-12T12:38:37Z</time>
      </trkpt>
      <trkpt lat="42.507736" lon="2.453022">
        <ele>2227.705</ele>
        <time>2022-08-12T12:38:46Z</time>
      </trkpt>
      <trkpt lat="42.507696" lon="2.452985">
        <ele>2227.325</ele>
        <time>2022-08-12T12:38:51Z</time>
      </trkpt>
      <trkpt lat="42.507664" lon="2.452932">
        <ele>2226.609</ele>
        <time>2022-08-12T12:38:56Z</time>
      </trkpt>
      <trkpt lat="42.507644" lon="2.452871">
        <ele>2225.858</ele>
        <time>2022-08-12T12:39:01Z</time>
      </trkpt>
      <trkpt lat="42.507624" lon="2.452816">
        <ele>2224.928</ele>
        <time>2022-08-12T12:39:06Z</time>
      </trkpt>
      <trkpt lat="42.507629" lon="2.452748">
        <ele>2224.067</ele>
        <time>2022-08-12T12:39:10Z</time>
      </trkpt>
      <trkpt lat="42.507647" lon="2.452685">
        <ele>2223.571</ele>
        <time>2022-08-12T12:39:14Z</time>
      </trkpt>
      <trkpt lat="42.507638" lon="2.452619">
        <ele>2223.579</ele>
        <time>2022-08-12T12:39:18Z</time>
      </trkpt>
      <trkpt lat="42.507609" lon="2.452556">
        <ele>2223.336</ele>
        <time>2022-08-12T12:39:22Z</time>
      </trkpt>
      <trkpt lat="42.507590" lon="2.452490">
        <ele>2223.283</ele>
        <time>2022-08-12T12:39:26Z</time>
      </trkpt>
      <trkpt lat="42.507548" lon="2.452440">
        <ele>2222.845</ele>
        <time>2022-08-12T12:39:31Z</time>
      </trkpt>
      <trkpt lat="42.507506" lon="2.452416">
        <ele>2222.288</ele>
        <time>2022-08-12T12:39:35Z</time>
      </trkpt>
      <trkpt lat="42.507473" lon="2.452360">
        <ele>2221.948</ele>
        <time>2022-08-12T12:39:43Z</time>
      </trkpt>
      <trkpt lat="42.507441" lon="2.452307">
        <ele>2221.361</ele>
        <time>2022-08-12T12:39:49Z</time>
      </trkpt>
      <trkpt lat="42.507407" lon="2.452256">
        <ele>2219.717</ele>
        <time>2022-08-12T12:39:56Z</time>
      </trkpt>
      <trkpt lat="42.507371" lon="2.452206">
        <ele>2217.909</ele>
        <time>2022-08-12T12:40:03Z</time>
      </trkpt>
      <trkpt lat="42.507329" lon="2.452184">
        <ele>2216.345</ele>
        <time>2022-08-12T12:40:07Z</time>
      </trkpt>
      <trkpt lat="42.507292" lon="2.452141">
        <ele>2214.915</ele>
        <time>2022-08-12T12:40:12Z</time>
      </trkpt>
      <trkpt lat="42.507264" lon="2.452089">
        <ele>2213.894</ele>
        <time>2022-08-12T12:40:16Z</time>
      </trkpt>
      <trkpt lat="42.507239" lon="2.452026">
        <ele>2212.898</ele>
        <time>2022-08-12T12:40:21Z</time>
      </trkpt>
      <trkpt lat="42.507219" lon="2.451970">
        <ele>2212.066</ele>
        <time>2022-08-12T12:40:26Z</time>
      </trkpt>
      <trkpt lat="42.507169" lon="2.451954">
        <ele>2211.253</ele>
        <time>2022-08-12T12:40:32Z</time>
      </trkpt>
      <trkpt lat="42.507129" lon="2.451915">
        <ele>2209.890</ele>
        <time>2022-08-12T12:40:39Z</time>
      </trkpt>
      <trkpt lat="42.507086" lon="2.451868">
        <ele>2208.382</ele>
        <time>2022-08-12T12:40:46Z</time>
      </trkpt>
      <trkpt lat="42.507055" lon="2.451822">
        <ele>2207.445</ele>
        <time>2022-08-12T12:40:50Z</time>
      </trkpt>
      <trkpt lat="42.507031" lon="2.451763">
        <ele>2206.269</ele>
        <time>2022-08-12T12:40:56Z</time>
      </trkpt>
      <trkpt lat="42.506996" lon="2.451717">
        <ele>2204.904</ele>
        <time>2022-08-12T12:41:01Z</time>
      </trkpt>
      <trkpt lat="42.506978" lon="2.451654">
        <ele>2203.624</ele>
        <time>2022-08-12T12:41:05Z</time>
      </trkpt>
      <trkpt lat="42.506962" lon="2.451589">
        <ele>2202.609</ele>
        <time>2022-08-12T12:41:09Z</time>
      </trkpt>
      <trkpt lat="42.506917" lon="2.451587">
        <ele>2202.097</ele>
        <time>2022-08-12T12:41:18Z</time>
      </trkpt>
      <trkpt lat="42.506881" lon="2.451524">
        <ele>2200.917</ele>
        <time>2022-08-12T12:41:26Z</time>
      </trkpt>
      <trkpt lat="42.506847" lon="2.451479">
        <ele>2199.266</ele>
        <time>2022-08-12T12:41:35Z</time>
      </trkpt>
      <trkpt lat="42.506821" lon="2.451425">
        <ele>2197.830</ele>
        <time>2022-08-12T12:41:42Z</time>
      </trkpt>
      <trkpt lat="42.506767" lon="2.451406">
        <ele>2196.448</ele>
        <time>2022-08-12T12:41:50Z</time>
      </trkpt>
      <trkpt lat="42.506743" lon="2.451346">
        <ele>2194.725</ele>
        <time>2022-08-12T12:41:54Z</time>
      </trkpt>
      <trkpt lat="42.506714" lon="2.451283">
        <ele>2193.272</ele>
        <time>2022-08-12T12:41:59Z</time>
      </trkpt>
      <trkpt lat="42.506698" lon="2.451223">
        <ele>2191.624</ele>
        <time>2022-08-12T12:42:05Z</time>
      </trkpt>
      <trkpt lat="42.506653" lon="2.451184">
        <ele>2190.547</ele>
        <time>2022-08-12T12:42:11Z</time>
      </trkpt>
      <trkpt lat="42.506640" lon="2.451124">
        <ele>2189.456</ele>
        <time>2022-08-12T12:42:17Z</time>
      </trkpt>
      <trkpt lat="42.506605" lon="2.451078">
        <ele>2188.259</ele>
        <time>2022-08-12T12:42:22Z</time>
      </trkpt>
      <trkpt lat="42.506593" lon="2.451014">
        <ele>2187.114</ele>
        <time>2022-08-12T12:42:29Z</time>
      </trkpt>
      <trkpt lat="42.506560" lon="2.450966">
        <ele>2186.009</ele>
        <time>2022-08-12T12:42:34Z</time>
      </trkpt>
      <trkpt lat="42.506542" lon="2.450907">
        <ele>2184.976</ele>
        <time>2022-08-12T12:42:42Z</time>
      </trkpt>
      <trkpt lat="42.506505" lon="2.450856">
        <ele>2183.556</ele>
        <time>2022-08-12T12:42:46Z</time>
      </trkpt>
      <trkpt lat="42.506491" lon="2.450785">
        <ele>2182.085</ele>
        <time>2022-08-12T12:42:51Z</time>
      </trkpt>
      <trkpt lat="42.506462" lon="2.450724">
        <ele>2180.939</ele>
        <time>2022-08-12T12:42:54Z</time>
      </trkpt>
      <trkpt lat="42.506422" lon="2.450671">
        <ele>2180.057</ele>
        <time>2022-08-12T12:42:58Z</time>
      </trkpt>
      <trkpt lat="42.506376" lon="2.450634">
        <ele>2179.294</ele>
        <time>2022-08-12T12:43:03Z</time>
      </trkpt>
      <trkpt lat="42.506337" lon="2.450590">
        <ele>2178.621</ele>
        <time>2022-08-12T12:43:08Z</time>
      </trkpt>
      <trkpt lat="42.506316" lon="2.450531">
        <ele>2177.433</ele>
        <time>2022-08-12T12:43:12Z</time>
      </trkpt>
      <trkpt lat="42.506288" lon="2.450479">
        <ele>2176.256</ele>
        <time>2022-08-12T12:43:17Z</time>
      </trkpt>
      <trkpt lat="42.506268" lon="2.450413">
        <ele>2174.935</ele>
        <time>2022-08-12T12:43:23Z</time>
      </trkpt>
      <trkpt lat="42.506242" lon="2.450345">
        <ele>2173.586</ele>
        <time>2022-08-12T12:43:29Z</time>
      </trkpt>
      <trkpt lat="42.506199" lon="2.450301">
        <ele>2171.814</ele>
        <time>2022-08-12T12:43:34Z</time>
      </trkpt>
      <trkpt lat="42.506185" lon="2.450230">
        <ele>2170.209</ele>
        <time>2022-08-12T12:43:38Z</time>
      </trkpt>
      <trkpt lat="42.506170" lon="2.450168">
        <ele>2168.764</ele>
        <time>2022-08-12T12:43:44Z</time>
      </trkpt>
      <trkpt lat="42.506126" lon="2.450143">
        <ele>2167.654</ele>
        <time>2022-08-12T12:43:49Z</time>
      </trkpt>
      <trkpt lat="42.506098" lon="2.450092">
        <ele>2166.963</ele>
        <time>2022-08-12T12:43:59Z</time>
      </trkpt>
      <trkpt lat="42.506052" lon="2.450073">
        <ele>2166.247</ele>
        <time>2022-08-12T12:44:08Z</time>
      </trkpt>
      <trkpt lat="42.506009" lon="2.450039">
        <ele>2164.645</ele>
        <time>2022-08-12T12:44:18Z</time>
      </trkpt>
      <trkpt lat="42.505975" lon="2.449986">
        <ele>2162.052</ele>
        <time>2022-08-12T12:44:25Z</time>
      </trkpt>
      <trkpt lat="42.505967" lon="2.449925">
        <ele>2160.059</ele>
        <time>2022-08-12T12:44:29Z</time>
      </trkpt>
      <trkpt lat="42.505928" lon="2.449883">
        <ele>2158.731</ele>
        <time>2022-08-12T12:44:37Z</time>
      </trkpt>
      <trkpt lat="42.505880" lon="2.449863">
        <ele>2157.854</ele>
        <time>2022-08-12T12:44:47Z</time>
      </trkpt>
      <trkpt lat="42.505845" lon="2.449824">
        <ele>2156.954</ele>
        <time>2022-08-12T12:44:51Z</time>
      </trkpt>
      <trkpt lat="42.505816" lon="2.449769">
        <ele>2155.156</ele>
        <time>2022-08-12T12:44:56Z</time>
      </trkpt>
      <trkpt lat="42.505769" lon="2.449742">
        <ele>2153.311</ele>
        <time>2022-08-12T12:45:00Z</time>
      </trkpt>
      <trkpt lat="42.505726" lon="2.449696">
        <ele>2152.309</ele>
        <time>2022-08-12T12:45:05Z</time>
      </trkpt>
      <trkpt lat="42.505678" lon="2.449657">
        <ele>2151.466</ele>
        <time>2022-08-12T12:45:11Z</time>
      </trkpt>
      <trkpt lat="42.505661" lon="2.449597">
        <ele>2150.596</ele>
        <time>2022-08-12T12:45:17Z</time>
      </trkpt>
      <trkpt lat="42.505669" lon="2.449529">
        <ele>2149.545</ele>
        <time>2022-08-12T12:45:22Z</time>
      </trkpt>
      <trkpt lat="42.505661" lon="2.449463">
        <ele>2148.079</ele>
        <time>2022-08-12T12:45:26Z</time>
      </trkpt>
      <trkpt lat="42.505637" lon="2.449401">
        <ele>2146.587</ele>
        <time>2022-08-12T12:45:30Z</time>
      </trkpt>
      <trkpt lat="42.505614" lon="2.449345">
        <ele>2145.474</ele>
        <time>2022-08-12T12:45:34Z</time>
      </trkpt>
      <trkpt lat="42.505591" lon="2.449292">
        <ele>2144.551</ele>
        <time>2022-08-12T12:45:38Z</time>
      </trkpt>
      <trkpt lat="42.505582" lon="2.449224">
        <ele>2143.583</ele>
        <time>2022-08-12T12:45:44Z</time>
      </trkpt>
      <trkpt lat="42.505557" lon="2.449146">
        <ele>2142.546</ele>
        <time>2022-08-12T12:45:49Z</time>
      </trkpt>
      <trkpt lat="42.505556" lon="2.449078">
        <ele>2141.469</ele>
        <time>2022-08-12T12:45:52Z</time>
      </trkpt>
      <trkpt lat="42.505529" lon="2.449005">
        <ele>2139.804</ele>
        <time>2022-08-12T12:45:56Z</time>
      </trkpt>
      <trkpt lat="42.505499" lon="2.448954">
        <ele>2138.124</ele>
        <time>2022-08-12T12:45:59Z</time>
      </trkpt>
      <trkpt lat="42.505454" lon="2.448911">
        <ele>2137.709</ele>
        <time>2022-08-12T12:46:03Z</time>
      </trkpt>
      <trkpt lat="42.505409" lon="2.448869">
        <ele>2137.747</ele>
        <time>2022-08-12T12:46:08Z</time>
      </trkpt>
      <trkpt lat="42.505372" lon="2.448827">
        <ele>2137.357</ele>
        <time>2022-08-12T12:46:13Z</time>
      </trkpt>
      <trkpt lat="42.505349" lon="2.448774">
        <ele>2136.146</ele>
        <time>2022-08-12T12:46:17Z</time>
      </trkpt>
      <trkpt lat="42.505336" lon="2.448715">
        <ele>2134.710</ele>
        <time>2022-08-12T12:46:22Z</time>
      </trkpt>
      <trkpt lat="42.505334" lon="2.448648">
        <ele>2133.738</ele>
        <time>2022-08-12T12:46:27Z</time>
      </trkpt>
      <trkpt lat="42.505317" lon="2.448587">
        <ele>2132.965</ele>
        <time>2022-08-12T12:46:35Z</time>
      </trkpt>
      <trkpt lat="42.505272" lon="2.448546">
        <ele>2132.322</ele>
        <time>2022-08-12T12:46:39Z</time>
      </trkpt>
      <trkpt lat="42.505244" lon="2.448498">
        <ele>2131.864</ele>
        <time>2022-08-12T12:46:45Z</time>
      </trkpt>
      <trkpt lat="42.505235" lon="2.448431">
        <ele>2131.037</ele>
        <time>2022-08-12T12:46:50Z</time>
      </trkpt>
      <trkpt lat="42.505234" lon="2.448363">
        <ele>2130.191</ele>
        <time>2022-08-12T12:46:54Z</time>
      </trkpt>
      <trkpt lat="42.505210" lon="2.448284">
        <ele>2129.181</ele>
        <time>2022-08-12T12:46:58Z</time>
      </trkpt>
      <trkpt lat="42.505184" lon="2.448226">
        <ele>2128.219</ele>
        <time>2022-08-12T12:47:02Z</time>
      </trkpt>
      <trkpt lat="42.505149" lon="2.448185">
        <ele>2127.609</ele>
        <time>2022-08-12T12:47:06Z</time>
      </trkpt>
      <trkpt lat="42.505095" lon="2.448161">
        <ele>2126.770</ele>
        <time>2022-08-12T12:47:10Z</time>
      </trkpt>
      <trkpt lat="42.505053" lon="2.448124">
        <ele>2125.750</ele>
        <time>2022-08-12T12:47:15Z</time>
      </trkpt>
      <trkpt lat="42.505024" lon="2.448076">
        <ele>2125.019</ele>
        <time>2022-08-12T12:47:18Z</time>
      </trkpt>
      <trkpt lat="42.504985" lon="2.448036">
        <ele>2124.083</ele>
        <time>2022-08-12T12:47:22Z</time>
      </trkpt>
      <trkpt lat="42.504950" lon="2.447996">
        <ele>2122.681</ele>
        <time>2022-08-12T12:47:26Z</time>
      </trkpt>
      <trkpt lat="42.504912" lon="2.447937">
        <ele>2121.778</ele>
        <time>2022-08-12T12:47:31Z</time>
      </trkpt>
      <trkpt lat="42.504880" lon="2.447888">
        <ele>2120.835</ele>
        <time>2022-08-12T12:47:34Z</time>
      </trkpt>
      <trkpt lat="42.504847" lon="2.447833">
        <ele>2119.857</ele>
        <time>2022-08-12T12:47:37Z</time>
      </trkpt>
      <trkpt lat="42.504819" lon="2.447776">
        <ele>2119.280</ele>
        <time>2022-08-12T12:47:42Z</time>
      </trkpt>
      <trkpt lat="42.504784" lon="2.447728">
        <ele>2118.469</ele>
        <time>2022-08-12T12:47:47Z</time>
      </trkpt>
      <trkpt lat="42.504753" lon="2.447675">
        <ele>2117.704</ele>
        <time>2022-08-12T12:47:51Z</time>
      </trkpt>
      <trkpt lat="42.504709" lon="2.447632">
        <ele>2117.024</ele>
        <time>2022-08-12T12:47:55Z</time>
      </trkpt>
      <trkpt lat="42.504671" lon="2.447587">
        <ele>2116.109</ele>
        <time>2022-08-12T12:47:59Z</time>
      </trkpt>
      <trkpt lat="42.504638" lon="2.447530">
        <ele>2115.477</ele>
        <time>2022-08-12T12:48:04Z</time>
      </trkpt>
      <trkpt lat="42.504601" lon="2.447485">
        <ele>2114.997</ele>
        <time>2022-08-12T12:48:08Z</time>
      </trkpt>
      <trkpt lat="42.504573" lon="2.447424">
        <ele>2114.216</ele>
        <time>2022-08-12T12:48:13Z</time>
      </trkpt>
      <trkpt lat="42.504542" lon="2.447378">
        <ele>2113.410</ele>
        <time>2022-08-12T12:48:17Z</time>
      </trkpt>
      <trkpt lat="42.504511" lon="2.447320">
        <ele>2112.718</ele>
        <time>2022-08-12T12:48:21Z</time>
      </trkpt>
      <trkpt lat="42.504497" lon="2.447256">
        <ele>2112.155</ele>
        <time>2022-08-12T12:48:27Z</time>
      </trkpt>
      <trkpt lat="42.504504" lon="2.447189">
        <ele>2111.662</ele>
        <time>2022-08-12T12:48:31Z</time>
      </trkpt>
      <trkpt lat="42.504486" lon="2.447120">
        <ele>2111.094</ele>
        <time>2022-08-12T12:48:36Z</time>
      </trkpt>
      <trkpt lat="42.504456" lon="2.447059">
        <ele>2110.497</ele>
        <time>2022-08-12T12:48:41Z</time>
      </trkpt>
      <trkpt lat="42.504454" lon="2.446998">
        <ele>2109.735</ele>
        <time>2022-08-12T12:48:45Z</time>
      </trkpt>
      <trkpt lat="42.504448" lon="2.446932">
        <ele>2108.986</ele>
        <time>2022-08-12T12:48:49Z</time>
      </trkpt>
      <trkpt lat="42.504448" lon="2.446851">
        <ele>2108.514</ele>
        <time>2022-08-12T12:48:53Z</time>
      </trkpt>
      <trkpt lat="42.504446" lon="2.446768">
        <ele>2107.809</ele>
        <time>2022-08-12T12:48:57Z</time>
      </trkpt>
      <trkpt lat="42.504467" lon="2.446705">
        <ele>2107.154</ele>
        <time>2022-08-12T12:49:02Z</time>
      </trkpt>
      <trkpt lat="42.504463" lon="2.446642">
        <ele>2106.874</ele>
        <time>2022-08-12T12:49:06Z</time>
      </trkpt>
      <trkpt lat="42.504461" lon="2.446574">
        <ele>2106.623</ele>
        <time>2022-08-12T12:49:13Z</time>
      </trkpt>
      <trkpt lat="42.504443" lon="2.446516">
        <ele>2106.257</ele>
        <time>2022-08-12T12:49:19Z</time>
      </trkpt>
      <trkpt lat="42.504417" lon="2.446462">
        <ele>2105.265</ele>
        <time>2022-08-12T12:49:24Z</time>
      </trkpt>
      <trkpt lat="42.504370" lon="2.446422">
        <ele>2104.332</ele>
        <time>2022-08-12T12:49:28Z</time>
      </trkpt>
      <trkpt lat="42.504345" lon="2.446367">
        <ele>2103.769</ele>
        <time>2022-08-12T12:49:32Z</time>
      </trkpt>
      <trkpt lat="42.504295" lon="2.446349">
        <ele>2102.881</ele>
        <time>2022-08-12T12:49:38Z</time>
      </trkpt>
      <trkpt lat="42.504251" lon="2.446319">
        <ele>2101.874</ele>
        <time>2022-08-12T12:49:43Z</time>
      </trkpt>
      <trkpt lat="42.504220" lon="2.446269">
        <ele>2101.085</ele>
        <time>2022-08-12T12:49:47Z</time>
      </trkpt>
      <trkpt lat="42.504179" lon="2.446213">
        <ele>2099.989</ele>
        <time>2022-08-12T12:49:52Z</time>
      </trkpt>
      <trkpt lat="42.504161" lon="2.446154">
        <ele>2099.017</ele>
        <time>2022-08-12T12:49:55Z</time>
      </trkpt>
      <trkpt lat="42.504130" lon="2.446089">
        <ele>2098.409</ele>
        <time>2022-08-12T12:49:58Z</time>
      </trkpt>
      <trkpt lat="42.504090" lon="2.446031">
        <ele>2097.739</ele>
        <time>2022-08-12T12:50:02Z</time>
      </trkpt>
      <trkpt lat="42.504063" lon="2.445965">
        <ele>2096.769</ele>
        <time>2022-08-12T12:50:06Z</time>
      </trkpt>
      <trkpt lat="42.504058" lon="2.445904">
        <ele>2096.568</ele>
        <time>2022-08-12T12:50:09Z</time>
      </trkpt>
      <trkpt lat="42.504050" lon="2.445840">
        <ele>2095.882</ele>
        <time>2022-08-12T12:50:14Z</time>
      </trkpt>
      <trkpt lat="42.504070" lon="2.445777">
        <ele>2094.850</ele>
        <time>2022-08-12T12:50:18Z</time>
      </trkpt>
      <trkpt lat="42.504063" lon="2.445698">
        <ele>2093.877</ele>
        <time>2022-08-12T12:50:22Z</time>
      </trkpt>
      <trkpt lat="42.504047" lon="2.445640">
        <ele>2093.224</ele>
        <time>2022-08-12T12:50:26Z</time>
      </trkpt>
      <trkpt lat="42.504029" lon="2.445570">
        <ele>2092.896</ele>
        <time>2022-08-12T12:50:29Z</time>
      </trkpt>
      <trkpt lat="42.504018" lon="2.445501">
        <ele>2092.349</ele>
        <time>2022-08-12T12:50:32Z</time>
      </trkpt>
      <trkpt lat="42.503993" lon="2.445449">
        <ele>2091.717</ele>
        <time>2022-08-12T12:50:38Z</time>
      </trkpt>
      <trkpt lat="42.503970" lon="2.445380">
        <ele>2091.387</ele>
        <time>2022-08-12T12:50:42Z</time>
      </trkpt>
      <trkpt lat="42.503938" lon="2.445327">
        <ele>2090.815</ele>
        <time>2022-08-12T12:50:45Z</time>
      </trkpt>
      <trkpt lat="42.503916" lon="2.445269">
        <ele>2090.109</ele>
        <time>2022-08-12T12:50:48Z</time>
      </trkpt>
      <trkpt lat="42.503896" lon="2.445212">
        <ele>2089.692</ele>
        <time>2022-08-12T12:50:53Z</time>
      </trkpt>
      <trkpt lat="42.503861" lon="2.445174">
        <ele>2089.292</ele>
        <time>2022-08-12T12:51:00Z</time>
      </trkpt>
      <trkpt lat="42.503848" lon="2.445104">
        <ele>2088.691</ele>
        <time>2022-08-12T12:51:05Z</time>
      </trkpt>
      <trkpt lat="42.503840" lon="2.445023">
        <ele>2087.965</ele>
        <time>2022-08-12T12:51:09Z</time>
      </trkpt>
      <trkpt lat="42.503838" lon="2.444960">
        <ele>2087.423</ele>
        <time>2022-08-12T12:51:13Z</time>
      </trkpt>
      <trkpt lat="42.503827" lon="2.444895">
        <ele>2087.290</ele>
        <time>2022-08-12T12:51:17Z</time>
      </trkpt>
      <trkpt lat="42.503796" lon="2.444841">
        <ele>2087.077</ele>
        <time>2022-08-12T12:51:24Z</time>
      </trkpt>
      <trkpt lat="42.503753" lon="2.444788">
        <ele>2086.839</ele>
        <time>2022-08-12T12:51:28Z</time>
      </trkpt>
      <trkpt lat="42.503733" lon="2.444721">
        <ele>2086.392</ele>
        <time>2022-08-12T12:51:32Z</time>
      </trkpt>
      <trkpt lat="42.503722" lon="2.444659">
        <ele>2085.954</ele>
        <time>2022-08-12T12:51:35Z</time>
      </trkpt>
      <trkpt lat="42.503691" lon="2.444597">
        <ele>2085.656</ele>
        <time>2022-08-12T12:51:40Z</time>
      </trkpt>
      <trkpt lat="42.503661" lon="2.444549">
        <ele>2085.211</ele>
        <time>2022-08-12T12:51:44Z</time>
      </trkpt>
      <trkpt lat="42.503627" lon="2.444506">
        <ele>2084.809</ele>
        <time>2022-08-12T12:51:47Z</time>
      </trkpt>
      <trkpt lat="42.503608" lon="2.444434">
        <ele>2084.326</ele>
        <time>2022-08-12T12:51:51Z</time>
      </trkpt>
      <trkpt lat="42.503578" lon="2.444383">
        <ele>2083.946</ele>
        <time>2022-08-12T12:51:56Z</time>
      </trkpt>
      <trkpt lat="42.503534" lon="2.444338">
        <ele>2083.435</ele>
        <time>2022-08-12T12:52:00Z</time>
      </trkpt>
      <trkpt lat="42.503510" lon="2.444273">
        <ele>2082.999</ele>
        <time>2022-08-12T12:52:05Z</time>
      </trkpt>
      <trkpt lat="42.503481" lon="2.444218">
        <ele>2082.647</ele>
        <time>2022-08-12T12:52:13Z</time>
      </trkpt>
      <trkpt lat="42.503453" lon="2.444167">
        <ele>2082.334</ele>
        <time>2022-08-12T12:52:17Z</time>
      </trkpt>
      <trkpt lat="42.503444" lon="2.444104">
        <ele>2081.781</ele>
        <time>2022-08-12T12:52:22Z</time>
      </trkpt>
      <trkpt lat="42.503411" lon="2.444051">
        <ele>2081.193</ele>
        <time>2022-08-12T12:52:28Z</time>
      </trkpt>
      <trkpt lat="42.503369" lon="2.443989">
        <ele>2080.636</ele>
        <time>2022-08-12T12:52:31Z</time>
      </trkpt>
      <trkpt lat="42.503335" lon="2.443931">
        <ele>2079.723</ele>
        <time>2022-08-12T12:52:35Z</time>
      </trkpt>
      <trkpt lat="42.503295" lon="2.443880">
        <ele>2079.183</ele>
        <time>2022-08-12T12:52:39Z</time>
      </trkpt>
      <trkpt lat="42.503245" lon="2.443835">
        <ele>2078.311</ele>
        <time>2022-08-12T12:52:44Z</time>
      </trkpt>
      <trkpt lat="42.503211" lon="2.443793">
        <ele>2078.009</ele>
        <time>2022-08-12T12:52:47Z</time>
      </trkpt>
      <trkpt lat="42.503167" lon="2.443743">
        <ele>2077.563</ele>
        <time>2022-08-12T12:52:51Z</time>
      </trkpt>
      <trkpt lat="42.503126" lon="2.443692">
        <ele>2077.133</ele>
        <time>2022-08-12T12:52:55Z</time>
      </trkpt>
      <trkpt lat="42.503083" lon="2.443660">
        <ele>2076.772</ele>
        <time>2022-08-12T12:52:58Z</time>
      </trkpt>
      <trkpt lat="42.503043" lon="2.443629">
        <ele>2076.346</ele>
        <time>2022-08-12T12:53:02Z</time>
      </trkpt>
      <trkpt lat="42.503005" lon="2.443575">
        <ele>2076.014</ele>
        <time>2022-08-12T12:53:07Z</time>
      </trkpt>
      <trkpt lat="42.502957" lon="2.443522">
        <ele>2075.551</ele>
        <time>2022-08-12T12:53:12Z</time>
      </trkpt>
      <trkpt lat="42.502926" lon="2.443470">
        <ele>2075.128</ele>
        <time>2022-08-12T12:53:15Z</time>
      </trkpt>
      <trkpt lat="42.502908" lon="2.443412">
        <ele>2074.730</ele>
        <time>2022-08-12T12:53:18Z</time>
      </trkpt>
      <trkpt lat="42.502880" lon="2.443363">
        <ele>2074.213</ele>
        <time>2022-08-12T12:53:22Z</time>
      </trkpt>
      <trkpt lat="42.502841" lon="2.443309">
        <ele>2073.981</ele>
        <time>2022-08-12T12:53:26Z</time>
      </trkpt>
      <trkpt lat="42.502815" lon="2.443249">
        <ele>2073.561</ele>
        <time>2022-08-12T12:53:30Z</time>
      </trkpt>
      <trkpt lat="42.502790" lon="2.443186">
        <ele>2073.017</ele>
        <time>2022-08-12T12:53:34Z</time>
      </trkpt>
      <trkpt lat="42.502761" lon="2.443133">
        <ele>2072.809</ele>
        <time>2022-08-12T12:53:37Z</time>
      </trkpt>
      <trkpt lat="42.502731" lon="2.443080">
        <ele>2072.399</ele>
        <time>2022-08-12T12:53:41Z</time>
      </trkpt>
      <trkpt lat="42.502705" lon="2.443025">
        <ele>2071.599</ele>
        <time>2022-08-12T12:53:45Z</time>
      </trkpt>
      <trkpt lat="42.502666" lon="2.442995">
        <ele>2071.048</ele>
        <time>2022-08-12T12:53:50Z</time>
      </trkpt>
      <trkpt lat="42.502639" lon="2.442941">
        <ele>2070.422</ele>
        <time>2022-08-12T12:53:55Z</time>
      </trkpt>
      <trkpt lat="42.502603" lon="2.442887">
        <ele>2069.560</ele>
        <time>2022-08-12T12:54:01Z</time>
      </trkpt>
      <trkpt lat="42.502575" lon="2.442823">
        <ele>2068.657</ele>
        <time>2022-08-12T12:54:08Z</time>
      </trkpt>
      <trkpt lat="42.502547" lon="2.442763">
        <ele>2067.994</ele>
        <time>2022-08-12T12:54:12Z</time>
      </trkpt>
      <trkpt lat="42.502516" lon="2.442706">
        <ele>2066.936</ele>
        <time>2022-08-12T12:54:16Z</time>
      </trkpt>
      <trkpt lat="42.502493" lon="2.442634">
        <ele>2065.399</ele>
        <time>2022-08-12T12:54:21Z</time>
      </trkpt>
      <trkpt lat="42.502484" lon="2.442567">
        <ele>2065.034</ele>
        <time>2022-08-12T12:54:26Z</time>
      </trkpt>
      <trkpt lat="42.502457" lon="2.442502">
        <ele>2064.155</ele>
        <time>2022-08-12T12:54:30Z</time>
      </trkpt>
      <trkpt lat="42.502426" lon="2.442447">
        <ele>2063.310</ele>
        <time>2022-08-12T12:54:35Z</time>
      </trkpt>
      <trkpt lat="42.502402" lon="2.442387">
        <ele>2062.709</ele>
        <time>2022-08-12T12:54:38Z</time>
      </trkpt>
      <trkpt lat="42.502367" lon="2.442331">
        <ele>2061.834</ele>
        <time>2022-08-12T12:54:43Z</time>
      </trkpt>
      <trkpt lat="42.502335" lon="2.442272">
        <ele>2061.014</ele>
        <time>2022-08-12T12:54:49Z</time>
      </trkpt>
      <trkpt lat="42.502317" lon="2.442212">
        <ele>2060.383</ele>
        <time>2022-08-12T12:54:54Z</time>
      </trkpt>
      <trkpt lat="42.502296" lon="2.442153">
        <ele>2059.537</ele>
        <time>2022-08-12T12:55:00Z</time>
      </trkpt>
      <trkpt lat="42.502275" lon="2.442088">
        <ele>2058.635</ele>
        <time>2022-08-12T12:55:04Z</time>
      </trkpt>
      <trkpt lat="42.502276" lon="2.442022">
        <ele>2057.532</ele>
        <time>2022-08-12T12:55:08Z</time>
      </trkpt>
      <trkpt lat="42.502277" lon="2.441947">
        <ele>2056.779</ele>
        <time>2022-08-12T12:55:13Z</time>
      </trkpt>
      <trkpt lat="42.502296" lon="2.441889">
        <ele>2056.111</ele>
        <time>2022-08-12T12:55:16Z</time>
      </trkpt>
      <trkpt lat="42.502319" lon="2.441833">
        <ele>2055.664</ele>
        <time>2022-08-12T12:55:20Z</time>
      </trkpt>
      <trkpt lat="42.502323" lon="2.441766">
        <ele>2055.157</ele>
        <time>2022-08-12T12:55:24Z</time>
      </trkpt>
      <trkpt lat="42.502339" lon="2.441694">
        <ele>2054.700</ele>
        <time>2022-08-12T12:55:28Z</time>
      </trkpt>
      <trkpt lat="42.502355" lon="2.441631">
        <ele>2054.220</ele>
        <time>2022-08-12T12:55:32Z</time>
      </trkpt>
      <trkpt lat="42.502381" lon="2.441579">
        <ele>2053.609</ele>
        <time>2022-08-12T12:55:36Z</time>
      </trkpt>
      <trkpt lat="42.502407" lon="2.441526">
        <ele>2053.356</ele>
        <time>2022-08-12T12:55:39Z</time>
      </trkpt>
      <trkpt lat="42.502420" lon="2.441465">
        <ele>2052.866</ele>
        <time>2022-08-12T12:55:42Z</time>
      </trkpt>
      <trkpt lat="42.502429" lon="2.441395">
        <ele>2052.085</ele>
        <time>2022-08-12T12:55:46Z</time>
      </trkpt>
      <trkpt lat="42.502451" lon="2.441339">
        <ele>2051.499</ele>
        <time>2022-08-12T12:55:51Z</time>
      </trkpt>
      <trkpt lat="42.502462" lon="2.441266">
        <ele>2051.067</ele>
        <time>2022-08-12T12:55:56Z</time>
      </trkpt>
      <trkpt lat="42.502472" lon="2.441195">
        <ele>2050.344</ele>
        <time>2022-08-12T12:56:00Z</time>
      </trkpt>
      <trkpt lat="42.502478" lon="2.441128">
        <ele>2049.541</ele>
        <time>2022-08-12T12:56:04Z</time>
      </trkpt>
      <trkpt lat="42.502497" lon="2.441062">
        <ele>2049.173</ele>
        <time>2022-08-12T12:56:08Z</time>
      </trkpt>
      <trkpt lat="42.502518" lon="2.441004">
        <ele>2048.526</ele>
        <time>2022-08-12T12:56:12Z</time>
      </trkpt>
      <trkpt lat="42.502523" lon="2.440936">
        <ele>2047.844</ele>
        <time>2022-08-12T12:56:17Z</time>
      </trkpt>
      <trkpt lat="42.502503" lon="2.440875">
        <ele>2047.305</ele>
        <time>2022-08-12T12:56:22Z</time>
      </trkpt>
      <trkpt lat="42.502507" lon="2.440813">
        <ele>2046.615</ele>
        <time>2022-08-12T12:56:26Z</time>
      </trkpt>
      <trkpt lat="42.502530" lon="2.440750">
        <ele>2046.209</ele>
        <time>2022-08-12T12:56:32Z</time>
      </trkpt>
      <trkpt lat="42.502553" lon="2.440693">
        <ele>2046.095</ele>
        <time>2022-08-12T12:56:38Z</time>
      </trkpt>
      <trkpt lat="42.502587" lon="2.440641">
        <ele>2045.345</ele>
        <time>2022-08-12T12:56:46Z</time>
      </trkpt>
      <trkpt lat="42.502629" lon="2.440596">
        <ele>2044.414</ele>
        <time>2022-08-12T12:56:51Z</time>
      </trkpt>
      <trkpt lat="42.502666" lon="2.440547">
        <ele>2043.478</ele>
        <time>2022-08-12T12:56:56Z</time>
      </trkpt>
      <trkpt lat="42.502708" lon="2.440503">
        <ele>2042.686</ele>
        <time>2022-08-12T12:57:00Z</time>
      </trkpt>
      <trkpt lat="42.502742" lon="2.440462">
        <ele>2042.413</ele>
        <time>2022-08-12T12:57:04Z</time>
      </trkpt>
      <trkpt lat="42.502759" lon="2.440399">
        <ele>2042.150</ele>
        <time>2022-08-12T12:57:09Z</time>
      </trkpt>
      <trkpt lat="42.502771" lon="2.440324">
        <ele>2041.612</ele>
        <time>2022-08-12T12:57:13Z</time>
      </trkpt>
      <trkpt lat="42.502777" lon="2.440251">
        <ele>2041.285</ele>
        <time>2022-08-12T12:57:18Z</time>
      </trkpt>
      <trkpt lat="42.502780" lon="2.440181">
        <ele>2040.959</ele>
        <time>2022-08-12T12:57:25Z</time>
      </trkpt>
      <trkpt lat="42.502790" lon="2.440111">
        <ele>2040.203</ele>
        <time>2022-08-12T12:57:29Z</time>
      </trkpt>
      <trkpt lat="42.502789" lon="2.440049">
        <ele>2039.323</ele>
        <time>2022-08-12T12:57:34Z</time>
      </trkpt>
      <trkpt lat="42.502796" lon="2.439984">
        <ele>2038.809</ele>
        <time>2022-08-12T12:57:40Z</time>
      </trkpt>
      <trkpt lat="42.502770" lon="2.439934">
        <ele>2038.286</ele>
        <time>2022-08-12T12:57:51Z</time>
      </trkpt>
      <trkpt lat="42.502743" lon="2.439867">
        <ele>2037.546</ele>
        <time>2022-08-12T12:57:57Z</time>
      </trkpt>
      <trkpt lat="42.502749" lon="2.439800">
        <ele>2036.465</ele>
        <time>2022-08-12T12:58:00Z</time>
      </trkpt>
      <trkpt lat="42.502741" lon="2.439740">
        <ele>2035.399</ele>
        <time>2022-08-12T12:58:03Z</time>
      </trkpt>
      <trkpt lat="42.502739" lon="2.439673">
        <ele>2034.697</ele>
        <time>2022-08-12T12:58:07Z</time>
      </trkpt>
      <trkpt lat="42.502729" lon="2.439599">
        <ele>2034.184</ele>
        <time>2022-08-12T12:58:11Z</time>
      </trkpt>
      <trkpt lat="42.502766" lon="2.439560">
        <ele>2033.641</ele>
        <time>2022-08-12T12:58:16Z</time>
      </trkpt>
      <trkpt lat="42.502776" lon="2.439498">
        <ele>2033.063</ele>
        <time>2022-08-12T12:58:25Z</time>
      </trkpt>
      <trkpt lat="42.502772" lon="2.439431">
        <ele>2032.526</ele>
        <time>2022-08-12T12:58:29Z</time>
      </trkpt>
      <trkpt lat="42.502765" lon="2.439346">
        <ele>2031.728</ele>
        <time>2022-08-12T12:58:33Z</time>
      </trkpt>
      <trkpt lat="42.502755" lon="2.439279">
        <ele>2031.189</ele>
        <time>2022-08-12T12:58:36Z</time>
      </trkpt>
      <trkpt lat="42.502750" lon="2.439215">
        <ele>2030.617</ele>
        <time>2022-08-12T12:58:38Z</time>
      </trkpt>
      <trkpt lat="42.502749" lon="2.439129">
        <ele>2030.109</ele>
        <time>2022-08-12T12:58:40Z</time>
      </trkpt>
      <trkpt lat="42.502743" lon="2.439046">
        <ele>2029.793</ele>
        <time>2022-08-12T12:58:43Z</time>
      </trkpt>
      <trkpt lat="42.502729" lon="2.438984">
        <ele>2029.623</ele>
        <time>2022-08-12T12:58:46Z</time>
      </trkpt>
      <trkpt lat="42.502714" lon="2.438920">
        <ele>2029.322</ele>
        <time>2022-08-12T12:58:49Z</time>
      </trkpt>
      <trkpt lat="42.502729" lon="2.438848">
        <ele>2028.976</ele>
        <time>2022-08-12T12:58:52Z</time>
      </trkpt>
      <trkpt lat="42.502741" lon="2.438772">
        <ele>2028.524</ele>
        <time>2022-08-12T12:58:56Z</time>
      </trkpt>
      <trkpt lat="42.502771" lon="2.438711">
        <ele>2028.471</ele>
        <time>2022-08-12T12:59:01Z</time>
      </trkpt>
      <trkpt lat="42.502814" lon="2.438692">
        <ele>2028.158</ele>
        <time>2022-08-12T12:59:05Z</time>
      </trkpt>
      <trkpt lat="42.502864" lon="2.438690">
        <ele>2027.560</ele>
        <time>2022-08-12T12:59:08Z</time>
      </trkpt>
      <trkpt lat="42.502911" lon="2.438681">
        <ele>2027.013</ele>
        <time>2022-08-12T12:59:11Z</time>
      </trkpt>
      <trkpt lat="42.502974" lon="2.438692">
        <ele>2026.876</ele>
        <time>2022-08-12T12:59:15Z</time>
      </trkpt>
      <trkpt lat="42.503027" lon="2.438713">
        <ele>2026.690</ele>
        <time>2022-08-12T12:59:20Z</time>
      </trkpt>
      <trkpt lat="42.503066" lon="2.438743">
        <ele>2026.219</ele>
        <time>2022-08-12T12:59:25Z</time>
      </trkpt>
      <trkpt lat="42.503108" lon="2.438765">
        <ele>2025.909</ele>
        <time>2022-08-12T12:59:32Z</time>
      </trkpt>
      <trkpt lat="42.503153" lon="2.438782">
        <ele>2025.338</ele>
        <time>2022-08-12T12:59:37Z</time>
      </trkpt>
      <trkpt lat="42.503198" lon="2.438810">
        <ele>2024.668</ele>
        <time>2022-08-12T12:59:43Z</time>
      </trkpt>
      <trkpt lat="42.503243" lon="2.438823">
        <ele>2024.067</ele>
        <time>2022-08-12T12:59:51Z</time>
      </trkpt>
      <trkpt lat="42.503296" lon="2.438795">
        <ele>2023.431</ele>
        <time>2022-08-12T12:59:55Z</time>
      </trkpt>
      <trkpt lat="42.503346" lon="2.438756">
        <ele>2022.939</ele>
        <time>2022-08-12T12:59:59Z</time>
      </trkpt>
      <trkpt lat="42.503380" lon="2.438712">
        <ele>2022.326</ele>
        <time>2022-08-12T13:00:04Z</time>
      </trkpt>
      <trkpt lat="42.503434" lon="2.438677">
        <ele>2021.823</ele>
        <time>2022-08-12T13:00:09Z</time>
      </trkpt>
      <trkpt lat="42.503460" lon="2.438621">
        <ele>2021.445</ele>
        <time>2022-08-12T13:00:15Z</time>
      </trkpt>
      <trkpt lat="42.503485" lon="2.438549">
        <ele>2021.028</ele>
        <time>2022-08-12T13:00:22Z</time>
      </trkpt>
      <trkpt lat="42.503502" lon="2.438488">
        <ele>2020.633</ele>
        <time>2022-08-12T13:00:28Z</time>
      </trkpt>
      <trkpt lat="42.503510" lon="2.438418">
        <ele>2020.023</ele>
        <time>2022-08-12T13:00:33Z</time>
      </trkpt>
      <trkpt lat="42.503501" lon="2.438327">
        <ele>2019.115</ele>
        <time>2022-08-12T13:00:37Z</time>
      </trkpt>
      <trkpt lat="42.503509" lon="2.438249">
        <ele>2018.509</ele>
        <time>2022-08-12T13:00:40Z</time>
      </trkpt>
      <trkpt lat="42.503516" lon="2.438183">
        <ele>2018.414</ele>
        <time>2022-08-12T13:00:43Z</time>
      </trkpt>
      <trkpt lat="42.503507" lon="2.438107">
        <ele>2018.284</ele>
        <time>2022-08-12T13:00:47Z</time>
      </trkpt>
      <trkpt lat="42.503501" lon="2.438041">
        <ele>2018.033</ele>
        <time>2022-08-12T13:00:54Z</time>
      </trkpt>
      <trkpt lat="42.503463" lon="2.437982">
        <ele>2017.437</ele>
        <time>2022-08-12T13:00:59Z</time>
      </trkpt>
      <trkpt lat="42.503429" lon="2.437916">
        <ele>2017.055</ele>
        <time>2022-08-12T13:01:03Z</time>
      </trkpt>
      <trkpt lat="42.503424" lon="2.437846">
        <ele>2016.322</ele>
        <time>2022-08-12T13:01:06Z</time>
      </trkpt>
      <trkpt lat="42.503426" lon="2.437764">
        <ele>2016.099</ele>
        <time>2022-08-12T13:01:10Z</time>
      </trkpt>
      <trkpt lat="42.503418" lon="2.437685">
        <ele>2015.771</ele>
        <time>2022-08-12T13:01:15Z</time>
      </trkpt>
      <trkpt lat="42.503395" lon="2.437625">
        <ele>2015.024</ele>
        <time>2022-08-12T13:01:19Z</time>
      </trkpt>
      <trkpt lat="42.503366" lon="2.437566">
        <ele>2014.851</ele>
        <time>2022-08-12T13:01:24Z</time>
      </trkpt>
      <trkpt lat="42.503339" lon="2.437499">
        <ele>2014.801</ele>
        <time>2022-08-12T13:01:27Z</time>
      </trkpt>
      <trkpt lat="42.503314" lon="2.437446">
        <ele>2014.711</ele>
        <time>2022-08-12T13:01:31Z</time>
      </trkpt>
      <trkpt lat="42.503284" lon="2.437397">
        <ele>2014.309</ele>
        <time>2022-08-12T13:01:36Z</time>
      </trkpt>
      <trkpt lat="42.503237" lon="2.437373">
        <ele>2013.996</ele>
        <time>2022-08-12T13:01:40Z</time>
      </trkpt>
      <trkpt lat="42.503191" lon="2.437322">
        <ele>2013.896</ele>
        <time>2022-08-12T13:01:44Z</time>
      </trkpt>
      <trkpt lat="42.503162" lon="2.437253">
        <ele>2013.635</ele>
        <time>2022-08-12T13:01:48Z</time>
      </trkpt>
      <trkpt lat="42.503148" lon="2.437187">
        <ele>2013.339</ele>
        <time>2022-08-12T13:01:53Z</time>
      </trkpt>
      <trkpt lat="42.503157" lon="2.437114">
        <ele>2012.747</ele>
        <time>2022-08-12T13:01:59Z</time>
      </trkpt>
      <trkpt lat="42.503168" lon="2.437039">
        <ele>2012.214</ele>
        <time>2022-08-12T13:02:03Z</time>
      </trkpt>
      <trkpt lat="42.503148" lon="2.436978">
        <ele>2012.031</ele>
        <time>2022-08-12T13:02:09Z</time>
      </trkpt>
      <trkpt lat="42.503109" lon="2.436934">
        <ele>2011.413</ele>
        <time>2022-08-12T13:02:14Z</time>
      </trkpt>
      <trkpt lat="42.503098" lon="2.436873">
        <ele>2010.556</ele>
        <time>2022-08-12T13:02:24Z</time>
      </trkpt>
      <trkpt lat="42.503105" lon="2.436807">
        <ele>2009.711</ele>
        <time>2022-08-12T13:02:27Z</time>
      </trkpt>
      <trkpt lat="42.503107" lon="2.436734">
        <ele>2008.821</ele>
        <time>2022-08-12T13:02:31Z</time>
      </trkpt>
      <trkpt lat="42.503117" lon="2.436662">
        <ele>2008.103</ele>
        <time>2022-08-12T13:02:35Z</time>
      </trkpt>
      <trkpt lat="42.503120" lon="2.436600">
        <ele>2007.509</ele>
        <time>2022-08-12T13:02:39Z</time>
      </trkpt>
      <trkpt lat="42.503113" lon="2.436532">
        <ele>2006.992</ele>
        <time>2022-08-12T13:02:42Z</time>
      </trkpt>
      <trkpt lat="42.503135" lon="2.436472">
        <ele>2006.522</ele>
        <time>2022-08-12T13:02:48Z</time>
      </trkpt>
      <trkpt lat="42.503134" lon="2.436406">
        <ele>2006.041</ele>
        <time>2022-08-12T13:02:52Z</time>
      </trkpt>
      <trkpt lat="42.503151" lon="2.436326">
        <ele>2005.535</ele>
        <time>2022-08-12T13:02:55Z</time>
      </trkpt>
      <trkpt lat="42.503179" lon="2.436249">
        <ele>2004.373</ele>
        <time>2022-08-12T13:02:58Z</time>
      </trkpt>
      <trkpt lat="42.503208" lon="2.436191">
        <ele>2003.960</ele>
        <time>2022-08-12T13:03:02Z</time>
      </trkpt>
      <trkpt lat="42.503228" lon="2.436121">
        <ele>2003.637</ele>
        <time>2022-08-12T13:03:06Z</time>
      </trkpt>
      <trkpt lat="42.503231" lon="2.436054">
        <ele>2003.239</ele>
        <time>2022-08-12T13:03:14Z</time>
      </trkpt>
      <trkpt lat="42.503255" lon="2.435997">
        <ele>2002.922</ele>
        <time>2022-08-12T13:03:18Z</time>
      </trkpt>
      <trkpt lat="42.503281" lon="2.435944">
        <ele>2002.131</ele>
        <time>2022-08-12T13:03:23Z</time>
      </trkpt>
      <trkpt lat="42.503310" lon="2.435897">
        <ele>2001.461</ele>
        <time>2022-08-12T13:03:26Z</time>
      </trkpt>
      <trkpt lat="42.503340" lon="2.435843">
        <ele>2000.907</ele>
        <time>2022-08-12T13:03:32Z</time>
      </trkpt>
      <trkpt lat="42.503356" lon="2.435784">
        <ele>2000.509</ele>
        <time>2022-08-12T13:03:38Z</time>
      </trkpt>
      <trkpt lat="42.503383" lon="2.435715">
        <ele>2000.154</ele>
        <time>2022-08-12T13:03:42Z</time>
      </trkpt>
      <trkpt lat="42.503383" lon="2.435641">
        <ele>1999.564</ele>
        <time>2022-08-12T13:03:47Z</time>
      </trkpt>
      <trkpt lat="42.503401" lon="2.435579">
        <ele>1998.983</ele>
        <time>2022-08-12T13:03:52Z</time>
      </trkpt>
      <trkpt lat="42.503420" lon="2.435513">
        <ele>1998.477</ele>
        <time>2022-08-12T13:03:55Z</time>
      </trkpt>
      <trkpt lat="42.503426" lon="2.435438">
        <ele>1997.945</ele>
        <time>2022-08-12T13:03:59Z</time>
      </trkpt>
      <trkpt lat="42.503418" lon="2.435370">
        <ele>1997.842</ele>
        <time>2022-08-12T13:04:04Z</time>
      </trkpt>
      <trkpt lat="42.503424" lon="2.435309">
        <ele>1997.499</ele>
        <time>2022-08-12T13:04:08Z</time>
      </trkpt>
      <trkpt lat="42.503418" lon="2.435234">
        <ele>1996.741</ele>
        <time>2022-08-12T13:04:12Z</time>
      </trkpt>
      <trkpt lat="42.503400" lon="2.435176">
        <ele>1996.214</ele>
        <time>2022-08-12T13:04:15Z</time>
      </trkpt>
      <trkpt lat="42.503353" lon="2.435172">
        <ele>1995.599</ele>
        <time>2022-08-12T13:04:17Z</time>
      </trkpt>
      <trkpt lat="42.503308" lon="2.435196">
        <ele>1994.507</ele>
        <time>2022-08-12T13:04:24Z</time>
      </trkpt>
      <trkpt lat="42.503262" lon="2.435206">
        <ele>1993.827</ele>
        <time>2022-08-12T13:04:31Z</time>
      </trkpt>
      <trkpt lat="42.503232" lon="2.435279">
        <ele>1993.009</ele>
        <time>2022-08-12T13:04:41Z</time>
      </trkpt>
      <trkpt lat="42.503212" lon="2.435348">
        <ele>1992.230</ele>
        <time>2022-08-12T13:04:48Z</time>
      </trkpt>
      <trkpt lat="42.503205" lon="2.435413">
        <ele>1991.320</ele>
        <time>2022-08-12T13:04:53Z</time>
      </trkpt>
      <trkpt lat="42.503198" lon="2.435478">
        <ele>1990.129</ele>
        <time>2022-08-12T13:04:57Z</time>
      </trkpt>
      <trkpt lat="42.503185" lon="2.435548">
        <ele>1989.123</ele>
        <time>2022-08-12T13:05:02Z</time>
      </trkpt>
      <trkpt lat="42.503154" lon="2.435600">
        <ele>1988.461</ele>
        <time>2022-08-12T13:05:08Z</time>
      </trkpt>
      <trkpt lat="42.503138" lon="2.435659">
        <ele>1987.888</ele>
        <time>2022-08-12T13:05:12Z</time>
      </trkpt>
      <trkpt lat="42.503110" lon="2.435720">
        <ele>1987.445</ele>
        <time>2022-08-12T13:05:18Z</time>
      </trkpt>
      <trkpt lat="42.503076" lon="2.435783">
        <ele>1987.297</ele>
        <time>2022-08-12T13:05:23Z</time>
      </trkpt>
      <trkpt lat="42.503028" lon="2.435829">
        <ele>1986.950</ele>
        <time>2022-08-12T13:05:26Z</time>
      </trkpt>
      <trkpt lat="42.502976" lon="2.435873">
        <ele>1986.569</ele>
        <time>2022-08-12T13:05:33Z</time>
      </trkpt>
      <trkpt lat="42.502939" lon="2.435945">
        <ele>1986.504</ele>
        <time>2022-08-12T13:05:36Z</time>
      </trkpt>
      <trkpt lat="42.502893" lon="2.435989">
        <ele>1985.724</ele>
        <time>2022-08-12T13:05:39Z</time>
      </trkpt>
      <trkpt lat="42.502859" lon="2.436031">
        <ele>1985.309</ele>
        <time>2022-08-12T13:05:44Z</time>
      </trkpt>
      <trkpt lat="42.502860" lon="2.436107">
        <ele>1985.017</ele>
        <time>2022-08-12T13:05:52Z</time>
      </trkpt>
      <trkpt lat="42.502834" lon="2.436171">
        <ele>1984.877</ele>
        <time>2022-08-12T13:05:56Z</time>
      </trkpt>
      <trkpt lat="42.502807" lon="2.436240">
        <ele>1983.856</ele>
        <time>2022-08-12T13:06:00Z</time>
      </trkpt>
      <trkpt lat="42.502793" lon="2.436315">
        <ele>1983.560</ele>
        <time>2022-08-12T13:06:04Z</time>
      </trkpt>
      <trkpt lat="42.502781" lon="2.436378">
        <ele>1983.088</ele>
        <time>2022-08-12T13:06:09Z</time>
      </trkpt>
      <trkpt lat="42.502758" lon="2.436438">
        <ele>1982.785</ele>
        <time>2022-08-12T13:06:13Z</time>
      </trkpt>
      <trkpt lat="42.502713" lon="2.436481">
        <ele>1982.332</ele>
        <time>2022-08-12T13:06:16Z</time>
      </trkpt>
      <trkpt lat="42.502674" lon="2.436523">
        <ele>1981.944</ele>
        <time>2022-08-12T13:06:20Z</time>
      </trkpt>
      <trkpt lat="42.502634" lon="2.436569">
        <ele>1981.517</ele>
        <time>2022-08-12T13:06:23Z</time>
      </trkpt>
      <trkpt lat="42.502599" lon="2.436616">
        <ele>1981.334</ele>
        <time>2022-08-12T13:06:28Z</time>
      </trkpt>
      <trkpt lat="42.502572" lon="2.436670">
        <ele>1981.255</ele>
        <time>2022-08-12T13:06:31Z</time>
      </trkpt>
      <trkpt lat="42.502544" lon="2.436730">
        <ele>1980.910</ele>
        <time>2022-08-12T13:06:35Z</time>
      </trkpt>
      <trkpt lat="42.502538" lon="2.436801">
        <ele>1980.409</ele>
        <time>2022-08-12T13:06:39Z</time>
      </trkpt>
      <trkpt lat="42.502539" lon="2.436865">
        <ele>1980.244</ele>
        <time>2022-08-12T13:06:42Z</time>
      </trkpt>
      <trkpt lat="42.502546" lon="2.436947">
        <ele>1979.954</ele>
        <time>2022-08-12T13:06:46Z</time>
      </trkpt>
      <trkpt lat="42.502560" lon="2.437014">
        <ele>1979.553</ele>
        <time>2022-08-12T13:06:50Z</time>
      </trkpt>
      <trkpt lat="42.502566" lon="2.437082">
        <ele>1979.137</ele>
        <time>2022-08-12T13:06:55Z</time>
      </trkpt>
      <trkpt lat="42.502566" lon="2.437149">
        <ele>1978.365</ele>
        <time>2022-08-12T13:07:02Z</time>
      </trkpt>
      <trkpt lat="42.502558" lon="2.437210">
        <ele>1977.652</ele>
        <time>2022-08-12T13:07:08Z</time>
      </trkpt>
      <trkpt lat="42.502503" lon="2.437241">
        <ele>1977.159</ele>
        <time>2022-08-12T13:07:14Z</time>
      </trkpt>
      <trkpt lat="42.502446" lon="2.437257">
        <ele>1976.091</ele>
        <time>2022-08-12T13:07:18Z</time>
      </trkpt>
      <trkpt lat="42.502389" lon="2.437272">
        <ele>1973.924</ele>
        <time>2022-08-12T13:07:22Z</time>
      </trkpt>
      <trkpt lat="42.502341" lon="2.437280">
        <ele>1973.834</ele>
        <time>2022-08-12T13:07:25Z</time>
      </trkpt>
      <trkpt lat="42.502289" lon="2.437277">
        <ele>1973.755</ele>
        <time>2022-08-12T13:07:30Z</time>
      </trkpt>
      <trkpt lat="42.502237" lon="2.437281">
        <ele>1973.710</ele>
        <time>2022-08-12T13:07:34Z</time>
      </trkpt>
      <trkpt lat="42.502188" lon="2.437298">
        <ele>1973.309</ele>
        <time>2022-08-12T13:07:37Z</time>
      </trkpt>
      <trkpt lat="42.502142" lon="2.437293">
        <ele>1972.694</ele>
        <time>2022-08-12T13:07:41Z</time>
      </trkpt>
      <trkpt lat="42.502092" lon="2.437293">
        <ele>1972.294</ele>
        <time>2022-08-12T13:07:46Z</time>
      </trkpt>
      <trkpt lat="42.502046" lon="2.437311">
        <ele>1971.943</ele>
        <time>2022-08-12T13:07:51Z</time>
      </trkpt>
      <trkpt lat="42.502000" lon="2.437358">
        <ele>1971.737</ele>
        <time>2022-08-12T13:07:55Z</time>
      </trkpt>
      <trkpt lat="42.501961" lon="2.437396">
        <ele>1971.525</ele>
        <time>2022-08-12T13:07:58Z</time>
      </trkpt>
      <trkpt lat="42.501918" lon="2.437437">
        <ele>1970.972</ele>
        <time>2022-08-12T13:08:02Z</time>
      </trkpt>
      <trkpt lat="42.501871" lon="2.437468">
        <ele>1970.399</ele>
        <time>2022-08-12T13:08:06Z</time>
      </trkpt>
      <trkpt lat="42.501818" lon="2.437476">
        <ele>1970.081</ele>
        <time>2022-08-12T13:08:10Z</time>
      </trkpt>
      <trkpt lat="42.501787" lon="2.437529">
        <ele>1969.784</ele>
        <time>2022-08-12T13:08:15Z</time>
      </trkpt>
      <trkpt lat="42.501757" lon="2.437591">
        <ele>1969.422</ele>
        <time>2022-08-12T13:08:19Z</time>
      </trkpt>
      <trkpt lat="42.501717" lon="2.437635">
        <ele>1969.062</ele>
        <time>2022-08-12T13:08:24Z</time>
      </trkpt>
      <trkpt lat="42.501690" lon="2.437701">
        <ele>1968.408</ele>
        <time>2022-08-12T13:08:30Z</time>
      </trkpt>
      <trkpt lat="42.501654" lon="2.437747">
        <ele>1967.809</ele>
        <time>2022-08-12T13:08:35Z</time>
      </trkpt>
      <trkpt lat="42.501609" lon="2.437771">
        <ele>1967.483</ele>
        <time>2022-08-12T13:08:39Z</time>
      </trkpt>
      <trkpt lat="42.501566" lon="2.437803">
        <ele>1967.153</ele>
        <time>2022-08-12T13:08:43Z</time>
      </trkpt>
      <trkpt lat="42.501521" lon="2.437822">
        <ele>1966.872</ele>
        <time>2022-08-12T13:08:47Z</time>
      </trkpt>
      <trkpt lat="42.501467" lon="2.437843">
        <ele>1966.756</ele>
        <time>2022-08-12T13:08:53Z</time>
      </trkpt>
      <trkpt lat="42.501416" lon="2.437861">
        <ele>1966.734</ele>
        <time>2022-08-12T13:08:57Z</time>
      </trkpt>
      <trkpt lat="42.501369" lon="2.437871">
        <ele>1966.631</ele>
        <time>2022-08-12T13:09:01Z</time>
      </trkpt>
      <trkpt lat="42.501308" lon="2.437874">
        <ele>1966.168</ele>
        <time>2022-08-12T13:09:05Z</time>
      </trkpt>
      <trkpt lat="42.501261" lon="2.437873">
        <ele>1965.610</ele>
        <time>2022-08-12T13:09:08Z</time>
      </trkpt>
      <trkpt lat="42.501216" lon="2.437889">
        <ele>1965.343</ele>
        <time>2022-08-12T13:09:12Z</time>
      </trkpt>
      <trkpt lat="42.501174" lon="2.437916">
        <ele>1964.959</ele>
        <time>2022-08-12T13:09:17Z</time>
      </trkpt>
      <trkpt lat="42.501129" lon="2.437956">
        <ele>1964.603</ele>
        <time>2022-08-12T13:09:21Z</time>
      </trkpt>
      <trkpt lat="42.501084" lon="2.437982">
        <ele>1964.423</ele>
        <time>2022-08-12T13:09:26Z</time>
      </trkpt>
      <trkpt lat="42.501044" lon="2.438014">
        <ele>1964.209</ele>
        <time>2022-08-12T13:09:31Z</time>
      </trkpt>
      <trkpt lat="42.501005" lon="2.438050">
        <ele>1963.836</ele>
        <time>2022-08-12T13:09:38Z</time>
      </trkpt>
      <trkpt lat="42.500965" lon="2.438101">
        <ele>1963.346</ele>
        <time>2022-08-12T13:09:44Z</time>
      </trkpt>
      <trkpt lat="42.500928" lon="2.438149">
        <ele>1962.765</ele>
        <time>2022-08-12T13:09:48Z</time>
      </trkpt>
      <trkpt lat="42.500888" lon="2.438182">
        <ele>1962.299</ele>
        <time>2022-08-12T13:09:52Z</time>
      </trkpt>
      <trkpt lat="42.500838" lon="2.438194">
        <ele>1961.927</ele>
        <time>2022-08-12T13:09:56Z</time>
      </trkpt>
      <trkpt lat="42.500802" lon="2.438235">
        <ele>1961.694</ele>
        <time>2022-08-12T13:09:59Z</time>
      </trkpt>
      <trkpt lat="42.500758" lon="2.438296">
        <ele>1961.211</ele>
        <time>2022-08-12T13:10:04Z</time>
      </trkpt>
      <trkpt lat="42.500720" lon="2.438358">
        <ele>1960.853</ele>
        <time>2022-08-12T13:10:09Z</time>
      </trkpt>
      <trkpt lat="42.500690" lon="2.438413">
        <ele>1960.346</ele>
        <time>2022-08-12T13:10:13Z</time>
      </trkpt>
      <trkpt lat="42.500655" lon="2.438473">
        <ele>1959.865</ele>
        <time>2022-08-12T13:10:17Z</time>
      </trkpt>
      <trkpt lat="42.500632" lon="2.438530">
        <ele>1959.468</ele>
        <time>2022-08-12T13:10:21Z</time>
      </trkpt>
      <trkpt lat="42.500605" lon="2.438587">
        <ele>1959.014</ele>
        <time>2022-08-12T13:10:25Z</time>
      </trkpt>
      <trkpt lat="42.500574" lon="2.438654">
        <ele>1958.409</ele>
        <time>2022-08-12T13:10:29Z</time>
      </trkpt>
      <trkpt lat="42.500542" lon="2.438714">
        <ele>1957.947</ele>
        <time>2022-08-12T13:10:34Z</time>
      </trkpt>
      <trkpt lat="42.500510" lon="2.438765">
        <ele>1957.547</ele>
        <time>2022-08-12T13:10:38Z</time>
      </trkpt>
      <trkpt lat="42.500479" lon="2.438821">
        <ele>1957.146</ele>
        <time>2022-08-12T13:10:43Z</time>
      </trkpt>
      <trkpt lat="42.500443" lon="2.438879">
        <ele>1956.740</ele>
        <time>2022-08-12T13:10:48Z</time>
      </trkpt>
      <trkpt lat="42.500410" lon="2.438933">
        <ele>1956.588</ele>
        <time>2022-08-12T13:10:54Z</time>
      </trkpt>
      <trkpt lat="42.500365" lon="2.438970">
        <ele>1956.225</ele>
        <time>2022-08-12T13:10:58Z</time>
      </trkpt>
      <trkpt lat="42.500342" lon="2.439035">
        <ele>1956.022</ele>
        <time>2022-08-12T13:11:01Z</time>
      </trkpt>
      <trkpt lat="42.500310" lon="2.439082">
        <ele>1955.794</ele>
        <time>2022-08-12T13:11:04Z</time>
      </trkpt>
      <trkpt lat="42.500261" lon="2.439116">
        <ele>1955.447</ele>
        <time>2022-08-12T13:11:09Z</time>
      </trkpt>
      <trkpt lat="42.500237" lon="2.439179">
        <ele>1955.274</ele>
        <time>2022-08-12T13:11:14Z</time>
      </trkpt>
      <trkpt lat="42.500214" lon="2.439247">
        <ele>1955.156</ele>
        <time>2022-08-12T13:11:19Z</time>
      </trkpt>
      <trkpt lat="42.500193" lon="2.439308">
        <ele>1955.021</ele>
        <time>2022-08-12T13:11:24Z</time>
      </trkpt>
      <trkpt lat="42.500189" lon="2.439379">
        <ele>1954.909</ele>
        <time>2022-08-12T13:11:28Z</time>
      </trkpt>
      <trkpt lat="42.500192" lon="2.439445">
        <ele>1954.998</ele>
        <time>2022-08-12T13:11:32Z</time>
      </trkpt>
      <trkpt lat="42.500195" lon="2.439515">
        <ele>1954.868</ele>
        <time>2022-08-12T13:11:38Z</time>
      </trkpt>
      <trkpt lat="42.500163" lon="2.439566">
        <ele>1954.747</ele>
        <time>2022-08-12T13:11:43Z</time>
      </trkpt>
      <trkpt lat="42.500122" lon="2.439606">
        <ele>1954.691</ele>
        <time>2022-08-12T13:11:48Z</time>
      </trkpt>
      <trkpt lat="42.500075" lon="2.439634">
        <ele>1954.129</ele>
        <time>2022-08-12T13:11:52Z</time>
      </trkpt>
      <trkpt lat="42.500030" lon="2.439649">
        <ele>1953.656</ele>
        <time>2022-08-12T13:11:57Z</time>
      </trkpt>
      <trkpt lat="42.499976" lon="2.439658">
        <ele>1953.143</ele>
        <time>2022-08-12T13:12:02Z</time>
      </trkpt>
      <trkpt lat="42.499928" lon="2.439644">
        <ele>1952.315</ele>
        <time>2022-08-12T13:12:07Z</time>
      </trkpt>
      <trkpt lat="42.499879" lon="2.439662">
        <ele>1951.438</ele>
        <time>2022-08-12T13:12:13Z</time>
      </trkpt>
      <trkpt lat="42.499832" lon="2.439634">
        <ele>1950.656</ele>
        <time>2022-08-12T13:12:19Z</time>
      </trkpt>
      <trkpt lat="42.499782" lon="2.439635">
        <ele>1949.659</ele>
        <time>2022-08-12T13:12:28Z</time>
      </trkpt>
      <trkpt lat="42.499755" lon="2.439582">
        <ele>1948.414</ele>
        <time>2022-08-12T13:12:41Z</time>
      </trkpt>
      <trkpt lat="42.499720" lon="2.439532">
        <ele>1947.609</ele>
        <time>2022-08-12T13:12:46Z</time>
      </trkpt>
      <trkpt lat="42.499678" lon="2.439510">
        <ele>1946.236</ele>
        <time>2022-08-12T13:12:55Z</time>
      </trkpt>
      <trkpt lat="42.499697" lon="2.439569">
        <ele>1946.286</ele>
        <time>2022-08-12T13:13:27Z</time>
      </trkpt>
      <trkpt lat="42.499708" lon="2.439634">
        <ele>1944.765</ele>
        <time>2022-08-12T13:13:32Z</time>
      </trkpt>
      <trkpt lat="42.499678" lon="2.439579">
        <ele>1944.789</ele>
        <time>2022-08-12T13:13:38Z</time>
      </trkpt>
      <trkpt lat="42.499635" lon="2.439539">
        <ele>1944.397</ele>
        <time>2022-08-12T13:13:46Z</time>
      </trkpt>
      <trkpt lat="42.499599" lon="2.439484">
        <ele>1944.364</ele>
        <time>2022-08-12T13:13:56Z</time>
      </trkpt>
      <trkpt lat="42.499570" lon="2.439420">
        <ele>1944.221</ele>
        <time>2022-08-12T13:14:03Z</time>
      </trkpt>
      <trkpt lat="42.499540" lon="2.439365">
        <ele>1944.083</ele>
        <time>2022-08-12T13:14:37Z</time>
      </trkpt>
      <trkpt lat="42.499488" lon="2.439355">
        <ele>1944.226</ele>
        <time>2022-08-12T13:16:07Z</time>
      </trkpt>
      <trkpt lat="42.499439" lon="2.439317">
        <ele>1944.295</ele>
        <time>2022-08-12T13:16:15Z</time>
      </trkpt>
      <trkpt lat="42.499434" lon="2.439248">
        <ele>1945.249</ele>
        <time>2022-08-12T13:16:21Z</time>
      </trkpt>
      <trkpt lat="42.499387" lon="2.439222">
        <ele>1946.723</ele>
        <time>2022-08-12T13:16:37Z</time>
      </trkpt>
      <trkpt lat="42.499342" lon="2.439189">
        <ele>1947.409</ele>
        <time>2022-08-12T13:16:45Z</time>
      </trkpt>
      <trkpt lat="42.499308" lon="2.439141">
        <ele>1948.290</ele>
        <time>2022-08-12T13:16:56Z</time>
      </trkpt>
      <trkpt lat="42.499321" lon="2.439074">
        <ele>1948.630</ele>
        <time>2022-08-12T13:17:03Z</time>
      </trkpt>
      <trkpt lat="42.499351" lon="2.439023">
        <ele>1949.459</ele>
        <time>2022-08-12T13:17:14Z</time>
      </trkpt>
      <trkpt lat="42.499339" lon="2.438960">
        <ele>1950.263</ele>
        <time>2022-08-12T13:17:21Z</time>
      </trkpt>
      <trkpt lat="42.499316" lon="2.438902">
        <ele>1950.521</ele>
        <time>2022-08-12T13:17:30Z</time>
      </trkpt>
      <trkpt lat="42.499327" lon="2.438843">
        <ele>1951.978</ele>
        <time>2022-08-12T13:17:34Z</time>
      </trkpt>
      <trkpt lat="42.499338" lon="2.438776">
        <ele>1953.725</ele>
        <time>2022-08-12T13:17:37Z</time>
      </trkpt>
      <trkpt lat="42.499364" lon="2.438701">
        <ele>1954.257</ele>
        <time>2022-08-12T13:17:40Z</time>
      </trkpt>
      <trkpt lat="42.499380" lon="2.438641">
        <ele>1954.430</ele>
        <time>2022-08-12T13:17:46Z</time>
      </trkpt>
      <trkpt lat="42.499436" lon="2.438604">
        <ele>1954.477</ele>
        <time>2022-08-12T13:17:53Z</time>
      </trkpt>
      <trkpt lat="42.499449" lon="2.438544">
        <ele>1954.261</ele>
        <time>2022-08-12T13:17:58Z</time>
      </trkpt>
      <trkpt lat="42.499479" lon="2.438491">
        <ele>1953.627</ele>
        <time>2022-08-12T13:18:03Z</time>
      </trkpt>
      <trkpt lat="42.499504" lon="2.438421">
        <ele>1952.709</ele>
        <time>2022-08-12T13:18:07Z</time>
      </trkpt>
      <trkpt lat="42.499532" lon="2.438356">
        <ele>1952.358</ele>
        <time>2022-08-12T13:18:12Z</time>
      </trkpt>
      <trkpt lat="42.499559" lon="2.438302">
        <ele>1952.488</ele>
        <time>2022-08-12T13:18:16Z</time>
      </trkpt>
      <trkpt lat="42.499575" lon="2.438244">
        <ele>1952.477</ele>
        <time>2022-08-12T13:18:21Z</time>
      </trkpt>
      <trkpt lat="42.499577" lon="2.438178">
        <ele>1952.511</ele>
        <time>2022-08-12T13:18:26Z</time>
      </trkpt>
      <trkpt lat="42.499578" lon="2.438100">
        <ele>1952.799</ele>
        <time>2022-08-12T13:18:30Z</time>
      </trkpt>
      <trkpt lat="42.499568" lon="2.438033">
        <ele>1953.186</ele>
        <time>2022-08-12T13:18:34Z</time>
      </trkpt>
      <trkpt lat="42.499590" lon="2.437969">
        <ele>1953.383</ele>
        <time>2022-08-12T13:18:38Z</time>
      </trkpt>
      <trkpt lat="42.499617" lon="2.437915">
        <ele>1953.315</ele>
        <time>2022-08-12T13:18:42Z</time>
      </trkpt>
      <trkpt lat="42.499629" lon="2.437847">
        <ele>1953.388</ele>
        <time>2022-08-12T13:18:46Z</time>
      </trkpt>
      <trkpt lat="42.499623" lon="2.437784">
        <ele>1953.179</ele>
        <time>2022-08-12T13:18:49Z</time>
      </trkpt>
      <trkpt lat="42.499639" lon="2.437721">
        <ele>1952.905</ele>
        <time>2022-08-12T13:18:53Z</time>
      </trkpt>
      <trkpt lat="42.499653" lon="2.437657">
        <ele>1952.825</ele>
        <time>2022-08-12T13:18:57Z</time>
      </trkpt>
      <trkpt lat="42.499656" lon="2.437590">
        <ele>1952.709</ele>
        <time>2022-08-12T13:19:01Z</time>
      </trkpt>
      <trkpt lat="42.499649" lon="2.437514">
        <ele>1952.868</ele>
        <time>2022-08-12T13:19:06Z</time>
      </trkpt>
      <trkpt lat="42.499631" lon="2.437444">
        <ele>1952.848</ele>
        <time>2022-08-12T13:19:10Z</time>
      </trkpt>
      <trkpt lat="42.499640" lon="2.437380">
        <ele>1952.847</ele>
        <time>2022-08-12T13:19:14Z</time>
      </trkpt>
      <trkpt lat="42.499658" lon="2.437309">
        <ele>1953.021</ele>
        <time>2022-08-12T13:19:18Z</time>
      </trkpt>
      <trkpt lat="42.499655" lon="2.437238">
        <ele>1953.039</ele>
        <time>2022-08-12T13:19:23Z</time>
      </trkpt>
      <trkpt lat="42.499649" lon="2.437178">
        <ele>1953.026</ele>
        <time>2022-08-12T13:19:28Z</time>
      </trkpt>
      <trkpt lat="42.499673" lon="2.437122">
        <ele>1952.893</ele>
        <time>2022-08-12T13:19:36Z</time>
      </trkpt>
      <trkpt lat="42.499679" lon="2.437056">
        <ele>1952.225</ele>
        <time>2022-08-12T13:19:41Z</time>
      </trkpt>
      <trkpt lat="42.499693" lon="2.436998">
        <ele>1951.828</ele>
        <time>2022-08-12T13:19:46Z</time>
      </trkpt>
      <trkpt lat="42.499735" lon="2.436957">
        <ele>1951.836</ele>
        <time>2022-08-12T13:19:50Z</time>
      </trkpt>
      <trkpt lat="42.499757" lon="2.436892">
        <ele>1951.717</ele>
        <time>2022-08-12T13:19:53Z</time>
      </trkpt>
      <trkpt lat="42.499775" lon="2.436828">
        <ele>1951.718</ele>
        <time>2022-08-12T13:19:56Z</time>
      </trkpt>
      <trkpt lat="42.499797" lon="2.436773">
        <ele>1951.709</ele>
        <time>2022-08-12T13:20:00Z</time>
      </trkpt>
      <trkpt lat="42.499806" lon="2.436704">
        <ele>1951.794</ele>
        <time>2022-08-12T13:20:04Z</time>
      </trkpt>
      <trkpt lat="42.499815" lon="2.436643">
        <ele>1951.774</ele>
        <time>2022-08-12T13:20:08Z</time>
      </trkpt>
      <trkpt lat="42.499804" lon="2.436579">
        <ele>1951.773</ele>
        <time>2022-08-12T13:20:13Z</time>
      </trkpt>
      <trkpt lat="42.499782" lon="2.436515">
        <ele>1951.757</ele>
        <time>2022-08-12T13:20:18Z</time>
      </trkpt>
      <trkpt lat="42.499775" lon="2.436448">
        <ele>1951.555</ele>
        <time>2022-08-12T13:20:23Z</time>
      </trkpt>
      <trkpt lat="42.499780" lon="2.436382">
        <ele>1951.242</ele>
        <time>2022-08-12T13:20:28Z</time>
      </trkpt>
      <trkpt lat="42.499780" lon="2.436300">
        <ele>1950.899</ele>
        <time>2022-08-12T13:20:33Z</time>
      </trkpt>
      <trkpt lat="42.499760" lon="2.436245">
        <ele>1950.341</ele>
        <time>2022-08-12T13:20:37Z</time>
      </trkpt>
      <trkpt lat="42.499754" lon="2.436181">
        <ele>1949.974</ele>
        <time>2022-08-12T13:20:43Z</time>
      </trkpt>
      <trkpt lat="42.499751" lon="2.436119">
        <ele>1949.774</ele>
        <time>2022-08-12T13:20:47Z</time>
      </trkpt>
      <trkpt lat="42.499741" lon="2.436057">
        <ele>1949.356</ele>
        <time>2022-08-12T13:20:50Z</time>
      </trkpt>
      <trkpt lat="42.499726" lon="2.435987">
        <ele>1948.821</ele>
        <time>2022-08-12T13:20:55Z</time>
      </trkpt>
      <trkpt lat="42.499712" lon="2.435917">
        <ele>1948.509</ele>
        <time>2022-08-12T13:21:01Z</time>
      </trkpt>
      <trkpt lat="42.499713" lon="2.435844">
        <ele>1948.348</ele>
        <time>2022-08-12T13:21:06Z</time>
      </trkpt>
      <trkpt lat="42.499733" lon="2.435779">
        <ele>1948.178</ele>
        <time>2022-08-12T13:21:11Z</time>
      </trkpt>
      <trkpt lat="42.499760" lon="2.435719">
        <ele>1947.847</ele>
        <time>2022-08-12T13:21:15Z</time>
      </trkpt>
      <trkpt lat="42.499776" lon="2.435653">
        <ele>1947.511</ele>
        <time>2022-08-12T13:21:20Z</time>
      </trkpt>
      <trkpt lat="42.499796" lon="2.435593">
        <ele>1947.249</ele>
        <time>2022-08-12T13:21:23Z</time>
      </trkpt>
      <trkpt lat="42.499816" lon="2.435516">
        <ele>1946.916</ele>
        <time>2022-08-12T13:21:28Z</time>
      </trkpt>
      <trkpt lat="42.499823" lon="2.435444">
        <ele>1946.673</ele>
        <time>2022-08-12T13:21:33Z</time>
      </trkpt>
      <trkpt lat="42.499818" lon="2.435379">
        <ele>1946.325</ele>
        <time>2022-08-12T13:21:37Z</time>
      </trkpt>
      <trkpt lat="42.499815" lon="2.435318">
        <ele>1945.988</ele>
        <time>2022-08-12T13:21:41Z</time>
      </trkpt>
      <trkpt lat="42.499823" lon="2.435251">
        <ele>1945.699</ele>
        <time>2022-08-12T13:21:45Z</time>
      </trkpt>
      <trkpt lat="42.499827" lon="2.435187">
        <ele>1945.207</ele>
        <time>2022-08-12T13:21:50Z</time>
      </trkpt>
      <trkpt lat="42.499841" lon="2.435127">
        <ele>1944.927</ele>
        <time>2022-08-12T13:21:55Z</time>
      </trkpt>
      <trkpt lat="42.499863" lon="2.435073">
        <ele>1944.609</ele>
        <time>2022-08-12T13:21:59Z</time>
      </trkpt>
      <trkpt lat="42.499882" lon="2.435016">
        <ele>1944.320</ele>
        <time>2022-08-12T13:22:05Z</time>
      </trkpt>
      <trkpt lat="42.499861" lon="2.434960">
        <ele>1944.280</ele>
        <time>2022-08-12T13:22:10Z</time>
      </trkpt>
      <trkpt lat="42.499826" lon="2.434903">
        <ele>1944.029</ele>
        <time>2022-08-12T13:22:16Z</time>
      </trkpt>
      <trkpt lat="42.499796" lon="2.434845">
        <ele>1943.623</ele>
        <time>2022-08-12T13:22:24Z</time>
      </trkpt>
      <trkpt lat="42.499823" lon="2.434794">
        <ele>1943.591</ele>
        <time>2022-08-12T13:22:32Z</time>
      </trkpt>
      <trkpt lat="42.499856" lon="2.434750">
        <ele>1943.328</ele>
        <time>2022-08-12T13:22:38Z</time>
      </trkpt>
      <trkpt lat="42.499872" lon="2.434688">
        <ele>1943.175</ele>
        <time>2022-08-12T13:22:43Z</time>
      </trkpt>
      <trkpt lat="42.499841" lon="2.434635">
        <ele>1942.697</ele>
        <time>2022-08-12T13:22:48Z</time>
      </trkpt>
      <trkpt lat="42.499820" lon="2.434570">
        <ele>1941.560</ele>
        <time>2022-08-12T13:22:51Z</time>
      </trkpt>
      <trkpt lat="42.499797" lon="2.434507">
        <ele>1940.954</ele>
        <time>2022-08-12T13:22:55Z</time>
      </trkpt>
      <trkpt lat="42.499770" lon="2.434443">
        <ele>1940.856</ele>
        <time>2022-08-12T13:22:59Z</time>
      </trkpt>
      <trkpt lat="42.499761" lon="2.434381">
        <ele>1940.411</ele>
        <time>2022-08-12T13:23:04Z</time>
      </trkpt>
      <trkpt lat="42.499755" lon="2.434319">
        <ele>1939.809</ele>
        <time>2022-08-12T13:23:10Z</time>
      </trkpt>
      <trkpt lat="42.499752" lon="2.434256">
        <ele>1939.476</ele>
        <time>2022-08-12T13:23:14Z</time>
      </trkpt>
      <trkpt lat="42.499729" lon="2.434192">
        <ele>1938.986</ele>
        <time>2022-08-12T13:23:19Z</time>
      </trkpt>
      <trkpt lat="42.499726" lon="2.434130">
        <ele>1938.385</ele>
        <time>2022-08-12T13:23:23Z</time>
      </trkpt>
      <trkpt lat="42.499724" lon="2.434057">
        <ele>1937.849</ele>
        <time>2022-08-12T13:23:28Z</time>
      </trkpt>
      <trkpt lat="42.499727" lon="2.433993">
        <ele>1937.137</ele>
        <time>2022-08-12T13:23:33Z</time>
      </trkpt>
      <trkpt lat="42.499695" lon="2.433944">
        <ele>1936.464</ele>
        <time>2022-08-12T13:23:38Z</time>
      </trkpt>
      <trkpt lat="42.499691" lon="2.433870">
        <ele>1935.811</ele>
        <time>2022-08-12T13:23:43Z</time>
      </trkpt>
      <trkpt lat="42.499695" lon="2.433807">
        <ele>1935.393</ele>
        <time>2022-08-12T13:23:49Z</time>
      </trkpt>
      <trkpt lat="42.499689" lon="2.433737">
        <ele>1934.526</ele>
        <time>2022-08-12T13:23:53Z</time>
      </trkpt>
      <trkpt lat="42.499668" lon="2.433682">
        <ele>1933.881</ele>
        <time>2022-08-12T13:23:57Z</time>
      </trkpt>
      <trkpt lat="42.499647" lon="2.433625">
        <ele>1933.461</ele>
        <time>2022-08-12T13:24:01Z</time>
      </trkpt>
      <trkpt lat="42.499650" lon="2.433552">
        <ele>1933.117</ele>
        <time>2022-08-12T13:24:06Z</time>
      </trkpt>
      <trkpt lat="42.499654" lon="2.433487">
        <ele>1932.809</ele>
        <time>2022-08-12T13:24:10Z</time>
      </trkpt>
      <trkpt lat="42.499635" lon="2.433425">
        <ele>1932.649</ele>
        <time>2022-08-12T13:24:14Z</time>
      </trkpt>
      <trkpt lat="42.499646" lon="2.433364">
        <ele>1932.229</ele>
        <time>2022-08-12T13:24:18Z</time>
      </trkpt>
      <trkpt lat="42.499672" lon="2.433304">
        <ele>1931.518</ele>
        <time>2022-08-12T13:24:23Z</time>
      </trkpt>
      <trkpt lat="42.499689" lon="2.433239">
        <ele>1931.052</ele>
        <time>2022-08-12T13:24:29Z</time>
      </trkpt>
      <trkpt lat="42.499689" lon="2.433178">
        <ele>1930.560</ele>
        <time>2022-08-12T13:24:33Z</time>
      </trkpt>
      <trkpt lat="42.499655" lon="2.433119">
        <ele>1929.737</ele>
        <time>2022-08-12T13:24:40Z</time>
      </trkpt>
      <trkpt lat="42.499643" lon="2.433060">
        <ele>1929.144</ele>
        <time>2022-08-12T13:24:44Z</time>
      </trkpt>
      <trkpt lat="42.499641" lon="2.432996">
        <ele>1928.526</ele>
        <time>2022-08-12T13:24:47Z</time>
      </trkpt>
      <trkpt lat="42.499638" lon="2.432928">
        <ele>1927.969</ele>
        <time>2022-08-12T13:24:54Z</time>
      </trkpt>
      <trkpt lat="42.499645" lon="2.432866">
        <ele>1927.895</ele>
        <time>2022-08-12T13:25:01Z</time>
      </trkpt>
      <trkpt lat="42.499609" lon="2.432806">
        <ele>1927.249</ele>
        <time>2022-08-12T13:25:11Z</time>
      </trkpt>
      <trkpt lat="42.499581" lon="2.432756">
        <ele>1926.323</ele>
        <time>2022-08-12T13:25:17Z</time>
      </trkpt>
      <trkpt lat="42.499544" lon="2.432710">
        <ele>1924.909</ele>
        <time>2022-08-12T13:25:28Z</time>
      </trkpt>
      <trkpt lat="42.499518" lon="2.432660">
        <ele>1923.520</ele>
        <time>2022-08-12T13:25:35Z</time>
      </trkpt>
      <trkpt lat="42.499497" lon="2.432594">
        <ele>1921.810</ele>
        <time>2022-08-12T13:25:42Z</time>
      </trkpt>
      <trkpt lat="42.499462" lon="2.432538">
        <ele>1919.889</ele>
        <time>2022-08-12T13:25:53Z</time>
      </trkpt>
      <trkpt lat="42.499415" lon="2.432530">
        <ele>1919.193</ele>
        <time>2022-08-12T13:25:59Z</time>
      </trkpt>
      <trkpt lat="42.499433" lon="2.432458">
        <ele>1919.041</ele>
        <time>2022-08-12T13:26:04Z</time>
      </trkpt>
      <trkpt lat="42.499438" lon="2.432388">
        <ele>1918.858</ele>
        <time>2022-08-12T13:26:10Z</time>
      </trkpt>
      <trkpt lat="42.499418" lon="2.432327">
        <ele>1918.835</ele>
        <time>2022-08-12T13:26:15Z</time>
      </trkpt>
      <trkpt lat="42.499427" lon="2.432254">
        <ele>1918.857</ele>
        <time>2022-08-12T13:26:23Z</time>
      </trkpt>
      <trkpt lat="42.499440" lon="2.432192">
        <ele>1918.940</ele>
        <time>2022-08-12T13:26:26Z</time>
      </trkpt>
      <trkpt lat="42.499430" lon="2.432132">
        <ele>1919.226</ele>
        <time>2022-08-12T13:26:31Z</time>
      </trkpt>
      <trkpt lat="42.499410" lon="2.432077">
        <ele>1919.847</ele>
        <time>2022-08-12T13:26:36Z</time>
      </trkpt>
      <trkpt lat="42.499402" lon="2.432008">
        <ele>1920.011</ele>
        <time>2022-08-12T13:26:43Z</time>
      </trkpt>
      <trkpt lat="42.499408" lon="2.431937">
        <ele>1920.009</ele>
        <time>2022-08-12T13:26:47Z</time>
      </trkpt>
      <trkpt lat="42.499397" lon="2.431873">
        <ele>1920.033</ele>
        <time>2022-08-12T13:26:52Z</time>
      </trkpt>
      <trkpt lat="42.499379" lon="2.431812">
        <ele>1919.713</ele>
        <time>2022-08-12T13:26:57Z</time>
      </trkpt>
      <trkpt lat="42.499379" lon="2.431744">
        <ele>1919.382</ele>
        <time>2022-08-12T13:27:02Z</time>
      </trkpt>
      <trkpt lat="42.499411" lon="2.431685">
        <ele>1918.886</ele>
        <time>2022-08-12T13:27:07Z</time>
      </trkpt>
      <trkpt lat="42.499427" lon="2.431627">
        <ele>1918.834</ele>
        <time>2022-08-12T13:27:10Z</time>
      </trkpt>
      <trkpt lat="42.499424" lon="2.431564">
        <ele>1918.441</ele>
        <time>2022-08-12T13:27:15Z</time>
      </trkpt>
      <trkpt lat="42.499410" lon="2.431497">
        <ele>1918.428</ele>
        <time>2022-08-12T13:27:26Z</time>
      </trkpt>
      <trkpt lat="42.499395" lon="2.431435">
        <ele>1918.960</ele>
        <time>2022-08-12T13:27:30Z</time>
      </trkpt>
      <trkpt lat="42.499376" lon="2.431374">
        <ele>1919.683</ele>
        <time>2022-08-12T13:27:35Z</time>
      </trkpt>
      <trkpt lat="42.499343" lon="2.431325">
        <ele>1920.149</ele>
        <time>2022-08-12T13:27:41Z</time>
      </trkpt>
      <trkpt lat="42.499349" lon="2.431251">
        <ele>1920.302</ele>
        <time>2022-08-12T13:27:46Z</time>
      </trkpt>
      <trkpt lat="42.499375" lon="2.431178">
        <ele>1920.322</ele>
        <time>2022-08-12T13:27:51Z</time>
      </trkpt>
      <trkpt lat="42.499376" lon="2.431113">
        <ele>1920.309</ele>
        <time>2022-08-12T13:27:55Z</time>
      </trkpt>
      <trkpt lat="42.499356" lon="2.431049">
        <ele>1920.235</ele>
        <time>2022-08-12T13:28:00Z</time>
      </trkpt>
      <trkpt lat="42.499341" lon="2.430983">
        <ele>1920.165</ele>
        <time>2022-08-12T13:28:04Z</time>
      </trkpt>
      <trkpt lat="42.499313" lon="2.430933">
        <ele>1919.814</ele>
        <time>2022-08-12T13:28:08Z</time>
      </trkpt>
      <trkpt lat="42.499289" lon="2.430863">
        <ele>1919.398</ele>
        <time>2022-08-12T13:28:12Z</time>
      </trkpt>
      <trkpt lat="42.499256" lon="2.430819">
        <ele>1919.016</ele>
        <time>2022-08-12T13:28:17Z</time>
      </trkpt>
      <trkpt lat="42.499214" lon="2.430787">
        <ele>1918.753</ele>
        <time>2022-08-12T13:28:25Z</time>
      </trkpt>
      <trkpt lat="42.499174" lon="2.430759">
        <ele>1918.640</ele>
        <time>2022-08-12T13:28:29Z</time>
      </trkpt>
      <trkpt lat="42.499123" lon="2.430735">
        <ele>1918.692</ele>
        <time>2022-08-12T13:28:33Z</time>
      </trkpt>
      <trkpt lat="42.499070" lon="2.430740">
        <ele>1918.585</ele>
        <time>2022-08-12T13:28:37Z</time>
      </trkpt>
      <trkpt lat="42.499010" lon="2.430750">
        <ele>1918.418</ele>
        <time>2022-08-12T13:28:41Z</time>
      </trkpt>
      <trkpt lat="42.498961" lon="2.430774">
        <ele>1918.498</ele>
        <time>2022-08-12T13:28:44Z</time>
      </trkpt>
      <trkpt lat="42.498906" lon="2.430775">
        <ele>1918.217</ele>
        <time>2022-08-12T13:28:49Z</time>
      </trkpt>
      <trkpt lat="42.498857" lon="2.430786">
        <ele>1918.209</ele>
        <time>2022-08-12T13:28:55Z</time>
      </trkpt>
      <trkpt lat="42.498805" lon="2.430782">
        <ele>1918.032</ele>
        <time>2022-08-12T13:29:00Z</time>
      </trkpt>
      <trkpt lat="42.498758" lon="2.430765">
        <ele>1918.072</ele>
        <time>2022-08-12T13:29:04Z</time>
      </trkpt>
      <trkpt lat="42.498713" lon="2.430729">
        <ele>1917.881</ele>
        <time>2022-08-12T13:29:11Z</time>
      </trkpt>
      <trkpt lat="42.498683" lon="2.430682">
        <ele>1917.675</ele>
        <time>2022-08-12T13:29:17Z</time>
      </trkpt>
      <trkpt lat="42.498674" lon="2.430609">
        <ele>1917.513</ele>
        <time>2022-08-12T13:29:21Z</time>
      </trkpt>
      <trkpt lat="42.498660" lon="2.430528">
        <ele>1917.410</ele>
        <time>2022-08-12T13:29:25Z</time>
      </trkpt>
      <trkpt lat="42.498699" lon="2.430469">
        <ele>1917.477</ele>
        <time>2022-08-12T13:29:29Z</time>
      </trkpt>
      <trkpt lat="42.498698" lon="2.430394">
        <ele>1917.349</ele>
        <time>2022-08-12T13:29:34Z</time>
      </trkpt>
      <trkpt lat="42.498658" lon="2.430337">
        <ele>1917.422</ele>
        <time>2022-08-12T13:29:37Z</time>
      </trkpt>
      <trkpt lat="42.498621" lon="2.430290">
        <ele>1917.365</ele>
        <time>2022-08-12T13:29:41Z</time>
      </trkpt>
      <trkpt lat="42.498605" lon="2.430231">
        <ele>1917.268</ele>
        <time>2022-08-12T13:29:44Z</time>
      </trkpt>
      <trkpt lat="42.498603" lon="2.430159">
        <ele>1917.114</ele>
        <time>2022-08-12T13:29:47Z</time>
      </trkpt>
      <trkpt lat="42.498609" lon="2.430090">
        <ele>1916.909</ele>
        <time>2022-08-12T13:29:51Z</time>
      </trkpt>
      <trkpt lat="42.498607" lon="2.430017">
        <ele>1916.437</ele>
        <time>2022-08-12T13:29:57Z</time>
      </trkpt>
      <trkpt lat="42.498616" lon="2.429940">
        <ele>1915.667</ele>
        <time>2022-08-12T13:30:01Z</time>
      </trkpt>
      <trkpt lat="42.498631" lon="2.429860">
        <ele>1914.816</ele>
        <time>2022-08-12T13:30:03Z</time>
      </trkpt>
      <trkpt lat="42.498641" lon="2.429797">
        <ele>1913.810</ele>
        <time>2022-08-12T13:30:04Z</time>
      </trkpt>
      <trkpt lat="42.498645" lon="2.429725">
        <ele>1913.788</ele>
        <time>2022-08-12T13:30:06Z</time>
      </trkpt>
      <trkpt lat="42.498662" lon="2.429650">
        <ele>1913.725</ele>
        <time>2022-08-12T13:30:08Z</time>
      </trkpt>
      <trkpt lat="42.498675" lon="2.429590">
        <ele>1913.732</ele>
        <time>2022-08-12T13:30:11Z</time>
      </trkpt>
      <trkpt lat="42.498701" lon="2.429537">
        <ele>1913.494</ele>
        <time>2022-08-12T13:30:15Z</time>
      </trkpt>
      <trkpt lat="42.498719" lon="2.429481">
        <ele>1913.367</ele>
        <time>2022-08-12T13:30:18Z</time>
      </trkpt>
      <trkpt lat="42.498742" lon="2.429415">
        <ele>1913.318</ele>
        <time>2022-08-12T13:30:22Z</time>
      </trkpt>
      <trkpt lat="42.498778" lon="2.429351">
        <ele>1913.398</ele>
        <time>2022-08-12T13:30:26Z</time>
      </trkpt>
      <trkpt lat="42.498802" lon="2.429288">
        <ele>1913.317</ele>
        <time>2022-08-12T13:30:32Z</time>
      </trkpt>
      <trkpt lat="42.498837" lon="2.429248">
        <ele>1913.309</ele>
        <time>2022-08-12T13:30:41Z</time>
      </trkpt>
      <trkpt lat="42.498880" lon="2.429197">
        <ele>1913.022</ele>
        <time>2022-08-12T13:30:45Z</time>
      </trkpt>
      <trkpt lat="42.498924" lon="2.429174">
        <ele>1912.042</ele>
        <time>2022-08-12T13:30:49Z</time>
      </trkpt>
      <trkpt lat="42.498957" lon="2.429127">
        <ele>1911.221</ele>
        <time>2022-08-12T13:30:54Z</time>
      </trkpt>
      <trkpt lat="42.498996" lon="2.429075">
        <ele>1910.855</ele>
        <time>2022-08-12T13:30:57Z</time>
      </trkpt>
      <trkpt lat="42.499021" lon="2.429022">
        <ele>1910.563</ele>
        <time>2022-08-12T13:31:01Z</time>
      </trkpt>
      <trkpt lat="42.499025" lon="2.428957">
        <ele>1910.410</ele>
        <time>2022-08-12T13:31:10Z</time>
      </trkpt>
      <trkpt lat="42.498972" lon="2.428930">
        <ele>1910.277</ele>
        <time>2022-08-12T13:31:15Z</time>
      </trkpt>
      <trkpt lat="42.498928" lon="2.428899">
        <ele>1909.949</ele>
        <time>2022-08-12T13:31:21Z</time>
      </trkpt>
      <trkpt lat="42.498890" lon="2.428855">
        <ele>1909.722</ele>
        <time>2022-08-12T13:31:26Z</time>
      </trkpt>
      <trkpt lat="42.498881" lon="2.428776">
        <ele>1909.647</ele>
        <time>2022-08-12T13:31:32Z</time>
      </trkpt>
      <trkpt lat="42.498895" lon="2.428709">
        <ele>1909.529</ele>
        <time>2022-08-12T13:31:37Z</time>
      </trkpt>
      <trkpt lat="42.498910" lon="2.428634">
        <ele>1909.221</ele>
        <time>2022-08-12T13:31:44Z</time>
      </trkpt>
      <trkpt lat="42.498921" lon="2.428570">
        <ele>1908.809</ele>
        <time>2022-08-12T13:31:49Z</time>
      </trkpt>
      <trkpt lat="42.498945" lon="2.428509">
        <ele>1908.745</ele>
        <time>2022-08-12T13:31:56Z</time>
      </trkpt>
      <trkpt lat="42.498944" lon="2.428434">
        <ele>1908.485</ele>
        <time>2022-08-12T13:32:01Z</time>
      </trkpt>
      <trkpt lat="42.498943" lon="2.428365">
        <ele>1907.964</ele>
        <time>2022-08-12T13:32:05Z</time>
      </trkpt>
      <trkpt lat="42.498936" lon="2.428283">
        <ele>1907.588</ele>
        <time>2022-08-12T13:32:09Z</time>
      </trkpt>
      <trkpt lat="42.498930" lon="2.428216">
        <ele>1907.256</ele>
        <time>2022-08-12T13:32:14Z</time>
      </trkpt>
      <trkpt lat="42.498933" lon="2.428154">
        <ele>1907.063</ele>
        <time>2022-08-12T13:32:18Z</time>
      </trkpt>
      <trkpt lat="42.498940" lon="2.428083">
        <ele>1906.930</ele>
        <time>2022-08-12T13:32:22Z</time>
      </trkpt>
      <trkpt lat="42.498924" lon="2.428009">
        <ele>1906.722</ele>
        <time>2022-08-12T13:32:28Z</time>
      </trkpt>
      <trkpt lat="42.498906" lon="2.427949">
        <ele>1906.385</ele>
        <time>2022-08-12T13:32:33Z</time>
      </trkpt>
      <trkpt lat="42.498899" lon="2.427880">
        <ele>1905.983</ele>
        <time>2022-08-12T13:32:38Z</time>
      </trkpt>
      <trkpt lat="42.498902" lon="2.427809">
        <ele>1905.825</ele>
        <time>2022-08-12T13:32:44Z</time>
      </trkpt>
      <trkpt lat="42.498896" lon="2.427735">
        <ele>1905.717</ele>
        <time>2022-08-12T13:32:49Z</time>
      </trkpt>
      <trkpt lat="42.498873" lon="2.427675">
        <ele>1905.509</ele>
        <time>2022-08-12T13:32:54Z</time>
      </trkpt>
      <trkpt lat="42.498854" lon="2.427618">
        <ele>1905.249</ele>
        <time>2022-08-12T13:32:59Z</time>
      </trkpt>
      <trkpt lat="42.498826" lon="2.427557">
        <ele>1904.759</ele>
        <time>2022-08-12T13:33:04Z</time>
      </trkpt>
      <trkpt lat="42.498795" lon="2.427509">
        <ele>1904.318</ele>
        <time>2022-08-12T13:33:08Z</time>
      </trkpt>
      <trkpt lat="42.498763" lon="2.427451">
        <ele>1903.822</ele>
        <time>2022-08-12T13:33:12Z</time>
      </trkpt>
      <trkpt lat="42.498758" lon="2.427383">
        <ele>1903.030</ele>
        <time>2022-08-12T13:33:19Z</time>
      </trkpt>
      <trkpt lat="42.498741" lon="2.427327">
        <ele>1902.497</ele>
        <time>2022-08-12T13:33:23Z</time>
      </trkpt>
      <trkpt lat="42.498705" lon="2.427288">
        <ele>1901.824</ele>
        <time>2022-08-12T13:33:27Z</time>
      </trkpt>
      <trkpt lat="42.498672" lon="2.427243">
        <ele>1901.046</ele>
        <time>2022-08-12T13:33:30Z</time>
      </trkpt>
      <trkpt lat="42.498654" lon="2.427185">
        <ele>1900.339</ele>
        <time>2022-08-12T13:33:33Z</time>
      </trkpt>
      <trkpt lat="42.498620" lon="2.427126">
        <ele>1899.857</ele>
        <time>2022-08-12T13:33:40Z</time>
      </trkpt>
      <trkpt lat="42.498588" lon="2.427079">
        <ele>1899.600</ele>
        <time>2022-08-12T13:33:44Z</time>
      </trkpt>
      <trkpt lat="42.498557" lon="2.427033">
        <ele>1899.120</ele>
        <time>2022-08-12T13:33:49Z</time>
      </trkpt>
      <trkpt lat="42.498509" lon="2.427030">
        <ele>1898.509</ele>
        <time>2022-08-12T13:33:58Z</time>
      </trkpt>
      <trkpt lat="42.498476" lon="2.426981">
        <ele>1898.186</ele>
        <time>2022-08-12T13:34:05Z</time>
      </trkpt>
      <trkpt lat="42.498494" lon="2.426923">
        <ele>1897.326</ele>
        <time>2022-08-12T13:34:14Z</time>
      </trkpt>
      <trkpt lat="42.498519" lon="2.426868">
        <ele>1896.255</ele>
        <time>2022-08-12T13:34:18Z</time>
      </trkpt>
      <trkpt lat="42.498535" lon="2.426785">
        <ele>1895.229</ele>
        <time>2022-08-12T13:34:21Z</time>
      </trkpt>
      <trkpt lat="42.498559" lon="2.426719">
        <ele>1894.887</ele>
        <time>2022-08-12T13:34:24Z</time>
      </trkpt>
      <trkpt lat="42.498553" lon="2.426649">
        <ele>1894.514</ele>
        <time>2022-08-12T13:34:28Z</time>
      </trkpt>
      <trkpt lat="42.498537" lon="2.426590">
        <ele>1894.081</ele>
        <time>2022-08-12T13:34:32Z</time>
      </trkpt>
      <trkpt lat="42.498487" lon="2.426567">
        <ele>1893.313</ele>
        <time>2022-08-12T13:34:36Z</time>
      </trkpt>
      <trkpt lat="42.498450" lon="2.426511">
        <ele>1893.136</ele>
        <time>2022-08-12T13:34:41Z</time>
      </trkpt>
      <trkpt lat="42.498419" lon="2.426459">
        <ele>1892.786</ele>
        <time>2022-08-12T13:34:45Z</time>
      </trkpt>
      <trkpt lat="42.498424" lon="2.426396">
        <ele>1892.160</ele>
        <time>2022-08-12T13:34:50Z</time>
      </trkpt>
      <trkpt lat="42.498400" lon="2.426334">
        <ele>1891.626</ele>
        <time>2022-08-12T13:34:55Z</time>
      </trkpt>
      <trkpt lat="42.498399" lon="2.426266">
        <ele>1891.109</ele>
        <time>2022-08-12T13:35:01Z</time>
      </trkpt>
      <trkpt lat="42.498415" lon="2.426206">
        <ele>1890.359</ele>
        <time>2022-08-12T13:35:06Z</time>
      </trkpt>
      <trkpt lat="42.498384" lon="2.426152">
        <ele>1889.749</ele>
        <time>2022-08-12T13:35:11Z</time>
      </trkpt>
      <trkpt lat="42.498391" lon="2.426077">
        <ele>1889.228</ele>
        <time>2022-08-12T13:35:15Z</time>
      </trkpt>
      <trkpt lat="42.498397" lon="2.426006">
        <ele>1888.782</ele>
        <time>2022-08-12T13:35:20Z</time>
      </trkpt>
      <trkpt lat="42.498383" lon="2.425941">
        <ele>1888.550</ele>
        <time>2022-08-12T13:35:24Z</time>
      </trkpt>
      <trkpt lat="42.498353" lon="2.425886">
        <ele>1888.027</ele>
        <time>2022-08-12T13:35:29Z</time>
      </trkpt>
      <trkpt lat="42.498338" lon="2.425821">
        <ele>1887.664</ele>
        <time>2022-08-12T13:35:34Z</time>
      </trkpt>
      <trkpt lat="42.498303" lon="2.425772">
        <ele>1887.216</ele>
        <time>2022-08-12T13:35:39Z</time>
      </trkpt>
      <trkpt lat="42.498269" lon="2.425731">
        <ele>1886.859</ele>
        <time>2022-08-12T13:35:43Z</time>
      </trkpt>
      <trkpt lat="42.498250" lon="2.425670">
        <ele>1886.736</ele>
        <time>2022-08-12T13:35:51Z</time>
      </trkpt>
      <trkpt lat="42.498212" lon="2.425620">
        <ele>1886.517</ele>
        <time>2022-08-12T13:35:56Z</time>
      </trkpt>
      <trkpt lat="42.498186" lon="2.425558">
        <ele>1885.718</ele>
        <time>2022-08-12T13:36:02Z</time>
      </trkpt>
      <trkpt lat="42.498167" lon="2.425496">
        <ele>1884.909</ele>
        <time>2022-08-12T13:36:05Z</time>
      </trkpt>
      <trkpt lat="42.498143" lon="2.425436">
        <ele>1884.234</ele>
        <time>2022-08-12T13:36:10Z</time>
      </trkpt>
      <trkpt lat="42.498111" lon="2.425376">
        <ele>1883.534</ele>
        <time>2022-08-12T13:36:15Z</time>
      </trkpt>
      <trkpt lat="42.498094" lon="2.425317">
        <ele>1883.133</ele>
        <time>2022-08-12T13:36:19Z</time>
      </trkpt>
      <trkpt lat="42.498099" lon="2.425236">
        <ele>1882.487</ele>
        <time>2022-08-12T13:36:22Z</time>
      </trkpt>
      <trkpt lat="42.498118" lon="2.425165">
        <ele>1881.985</ele>
        <time>2022-08-12T13:36:25Z</time>
      </trkpt>
      <trkpt lat="42.498133" lon="2.425099">
        <ele>1881.682</ele>
        <time>2022-08-12T13:36:30Z</time>
      </trkpt>
      <trkpt lat="42.498145" lon="2.425032">
        <ele>1881.179</ele>
        <time>2022-08-12T13:36:37Z</time>
      </trkpt>
      <trkpt lat="42.498155" lon="2.424950">
        <ele>1880.461</ele>
        <time>2022-08-12T13:36:40Z</time>
      </trkpt>
      <trkpt lat="42.498169" lon="2.424883">
        <ele>1879.414</ele>
        <time>2022-08-12T13:36:44Z</time>
      </trkpt>
      <trkpt lat="42.498198" lon="2.424827">
        <ele>1879.296</ele>
        <time>2022-08-12T13:36:48Z</time>
      </trkpt>
      <trkpt lat="42.498231" lon="2.424771">
        <ele>1878.831</ele>
        <time>2022-08-12T13:36:53Z</time>
      </trkpt>
      <trkpt lat="42.498264" lon="2.424707">
        <ele>1878.524</ele>
        <time>2022-08-12T13:36:57Z</time>
      </trkpt>
      <trkpt lat="42.498287" lon="2.424640">
        <ele>1878.009</ele>
        <time>2022-08-12T13:37:02Z</time>
      </trkpt>
      <trkpt lat="42.498311" lon="2.424587">
        <ele>1877.350</ele>
        <time>2022-08-12T13:37:05Z</time>
      </trkpt>
      <trkpt lat="42.498317" lon="2.424525">
        <ele>1876.990</ele>
        <time>2022-08-12T13:37:14Z</time>
      </trkpt>
      <trkpt lat="42.498331" lon="2.424467">
        <ele>1876.279</ele>
        <time>2022-08-12T13:37:20Z</time>
      </trkpt>
      <trkpt lat="42.498313" lon="2.424401">
        <ele>1875.293</ele>
        <time>2022-08-12T13:37:29Z</time>
      </trkpt>
      <trkpt lat="42.498299" lon="2.424342">
        <ele>1874.571</ele>
        <time>2022-08-12T13:37:33Z</time>
      </trkpt>
      <trkpt lat="42.498295" lon="2.424279">
        <ele>1873.918</ele>
        <time>2022-08-12T13:37:37Z</time>
      </trkpt>
      <trkpt lat="42.498276" lon="2.424223">
        <ele>1873.185</ele>
        <time>2022-08-12T13:37:43Z</time>
      </trkpt>
      <trkpt lat="42.498260" lon="2.424158">
        <ele>1872.827</ele>
        <time>2022-08-12T13:37:48Z</time>
      </trkpt>
      <trkpt lat="42.498257" lon="2.424093">
        <ele>1872.650</ele>
        <time>2022-08-12T13:37:51Z</time>
      </trkpt>
      <trkpt lat="42.498249" lon="2.424026">
        <ele>1872.322</ele>
        <time>2022-08-12T13:37:55Z</time>
      </trkpt>
      <trkpt lat="42.498249" lon="2.423958">
        <ele>1872.062</ele>
        <time>2022-08-12T13:38:00Z</time>
      </trkpt>
      <trkpt lat="42.498231" lon="2.423888">
        <ele>1871.708</ele>
        <time>2022-08-12T13:38:04Z</time>
      </trkpt>
      <trkpt lat="42.498217" lon="2.423829">
        <ele>1871.209</ele>
        <time>2022-08-12T13:38:08Z</time>
      </trkpt>
      <trkpt lat="42.498210" lon="2.423767">
        <ele>1870.833</ele>
        <time>2022-08-12T13:38:12Z</time>
      </trkpt>
      <trkpt lat="42.498188" lon="2.423705">
        <ele>1870.443</ele>
        <time>2022-08-12T13:38:18Z</time>
      </trkpt>
      <trkpt lat="42.498184" lon="2.423644">
        <ele>1870.012</ele>
        <time>2022-08-12T13:38:21Z</time>
      </trkpt>
      <trkpt lat="42.498175" lon="2.423575">
        <ele>1869.826</ele>
        <time>2022-08-12T13:38:26Z</time>
      </trkpt>
      <trkpt lat="42.498148" lon="2.423520">
        <ele>1869.634</ele>
        <time>2022-08-12T13:38:32Z</time>
      </trkpt>
      <trkpt lat="42.498130" lon="2.423462">
        <ele>1869.071</ele>
        <time>2022-08-12T13:38:36Z</time>
      </trkpt>
      <trkpt lat="42.498112" lon="2.423395">
        <ele>1868.288</ele>
        <time>2022-08-12T13:38:42Z</time>
      </trkpt>
      <trkpt lat="42.498124" lon="2.423323">
        <ele>1867.620</ele>
        <time>2022-08-12T13:38:47Z</time>
      </trkpt>
      <trkpt lat="42.498122" lon="2.423250">
        <ele>1866.873</ele>
        <time>2022-08-12T13:38:52Z</time>
      </trkpt>
      <trkpt lat="42.498117" lon="2.423173">
        <ele>1866.091</ele>
        <time>2022-08-12T13:38:57Z</time>
      </trkpt>
      <trkpt lat="42.498098" lon="2.423109">
        <ele>1865.581</ele>
        <time>2022-08-12T13:39:02Z</time>
      </trkpt>
      <trkpt lat="42.498082" lon="2.423044">
        <ele>1864.819</ele>
        <time>2022-08-12T13:39:07Z</time>
      </trkpt>
      <trkpt lat="42.498103" lon="2.422979">
        <ele>1863.909</ele>
        <time>2022-08-12T13:39:11Z</time>
      </trkpt>
      <trkpt lat="42.498121" lon="2.422913">
        <ele>1863.380</ele>
        <time>2022-08-12T13:39:16Z</time>
      </trkpt>
      <trkpt lat="42.498136" lon="2.422846">
        <ele>1862.810</ele>
        <time>2022-08-12T13:39:21Z</time>
      </trkpt>
      <trkpt lat="42.498125" lon="2.422783">
        <ele>1862.149</ele>
        <time>2022-08-12T13:39:27Z</time>
      </trkpt>
      <trkpt lat="42.498120" lon="2.422715">
        <ele>1861.483</ele>
        <time>2022-08-12T13:39:31Z</time>
      </trkpt>
      <trkpt lat="42.498134" lon="2.422655">
        <ele>1860.751</ele>
        <time>2022-08-12T13:39:35Z</time>
      </trkpt>
      <trkpt lat="42.498151" lon="2.422596">
        <ele>1860.188</ele>
        <time>2022-08-12T13:39:40Z</time>
      </trkpt>
      <trkpt lat="42.498172" lon="2.422532">
        <ele>1859.735</ele>
        <time>2022-08-12T13:39:44Z</time>
      </trkpt>
      <trkpt lat="42.498182" lon="2.422470">
        <ele>1859.017</ele>
        <time>2022-08-12T13:39:49Z</time>
      </trkpt>
      <trkpt lat="42.498198" lon="2.422386">
        <ele>1858.350</ele>
        <time>2022-08-12T13:39:53Z</time>
      </trkpt>
      <trkpt lat="42.498218" lon="2.422326">
        <ele>1857.995</ele>
        <time>2022-08-12T13:39:56Z</time>
      </trkpt>
      <trkpt lat="42.498218" lon="2.422263">
        <ele>1857.449</ele>
        <time>2022-08-12T13:40:08Z</time>
      </trkpt>
      <trkpt lat="42.498225" lon="2.422190">
        <ele>1856.723</ele>
        <time>2022-08-12T13:40:14Z</time>
      </trkpt>
      <trkpt lat="42.498236" lon="2.422117">
        <ele>1855.809</ele>
        <time>2022-08-12T13:40:16Z</time>
      </trkpt>
      <trkpt lat="42.498224" lon="2.422047">
        <ele>1854.930</ele>
        <time>2022-08-12T13:40:20Z</time>
      </trkpt>
      <trkpt lat="42.498212" lon="2.421982">
        <ele>1854.330</ele>
        <time>2022-08-12T13:40:25Z</time>
      </trkpt>
      <trkpt lat="42.498211" lon="2.421907">
        <ele>1853.949</ele>
        <time>2022-08-12T13:40:31Z</time>
      </trkpt>
      <trkpt lat="42.498213" lon="2.421823">
        <ele>1852.913</ele>
        <time>2022-08-12T13:40:36Z</time>
      </trkpt>
      <trkpt lat="42.498208" lon="2.421758">
        <ele>1852.561</ele>
        <time>2022-08-12T13:40:40Z</time>
      </trkpt>
      <trkpt lat="42.498187" lon="2.421697">
        <ele>1851.968</ele>
        <time>2022-08-12T13:40:45Z</time>
      </trkpt>
      <trkpt lat="42.498184" lon="2.421611">
        <ele>1851.055</ele>
        <time>2022-08-12T13:40:52Z</time>
      </trkpt>
      <trkpt lat="42.498194" lon="2.421535">
        <ele>1850.657</ele>
        <time>2022-08-12T13:40:55Z</time>
      </trkpt>
      <trkpt lat="42.498205" lon="2.421458">
        <ele>1849.990</ele>
        <time>2022-08-12T13:41:01Z</time>
      </trkpt>
      <trkpt lat="42.498215" lon="2.421389">
        <ele>1849.546</ele>
        <time>2022-08-12T13:41:04Z</time>
      </trkpt>
      <trkpt lat="42.498212" lon="2.421318">
        <ele>1848.688</ele>
        <time>2022-08-12T13:41:08Z</time>
      </trkpt>
      <trkpt lat="42.498186" lon="2.421265">
        <ele>1848.216</ele>
        <time>2022-08-12T13:41:15Z</time>
      </trkpt>
      <trkpt lat="42.498160" lon="2.421204">
        <ele>1847.809</ele>
        <time>2022-08-12T13:41:20Z</time>
      </trkpt>
      <trkpt lat="42.498117" lon="2.421172">
        <ele>1847.895</ele>
        <time>2022-08-12T13:41:25Z</time>
      </trkpt>
      <trkpt lat="42.498070" lon="2.421145">
        <ele>1847.575</ele>
        <time>2022-08-12T13:41:30Z</time>
      </trkpt>
      <trkpt lat="42.498024" lon="2.421135">
        <ele>1846.664</ele>
        <time>2022-08-12T13:41:35Z</time>
      </trkpt>
      <trkpt lat="42.497978" lon="2.421123">
        <ele>1845.888</ele>
        <time>2022-08-12T13:41:45Z</time>
      </trkpt>
      <trkpt lat="42.497940" lon="2.421082">
        <ele>1845.246</ele>
        <time>2022-08-12T13:41:50Z</time>
      </trkpt>
      <trkpt lat="42.497904" lon="2.421044">
        <ele>1844.343</ele>
        <time>2022-08-12T13:41:54Z</time>
      </trkpt>
      <trkpt lat="42.497844" lon="2.421027">
        <ele>1843.340</ele>
        <time>2022-08-12T13:41:57Z</time>
      </trkpt>
      <trkpt lat="42.497798" lon="2.421005">
        <ele>1842.422</ele>
        <time>2022-08-12T13:42:00Z</time>
      </trkpt>
      <trkpt lat="42.497753" lon="2.420999">
        <ele>1841.825</ele>
        <time>2022-08-12T13:42:04Z</time>
      </trkpt>
      <trkpt lat="42.497707" lon="2.420993">
        <ele>1841.452</ele>
        <time>2022-08-12T13:42:08Z</time>
      </trkpt>
      <trkpt lat="42.497649" lon="2.420993">
        <ele>1840.853</ele>
        <time>2022-08-12T13:42:13Z</time>
      </trkpt>
      <trkpt lat="42.497599" lon="2.420963">
        <ele>1840.408</ele>
        <time>2022-08-12T13:42:17Z</time>
      </trkpt>
      <trkpt lat="42.497553" lon="2.420937">
        <ele>1840.309</ele>
        <time>2022-08-12T13:42:21Z</time>
      </trkpt>
      <trkpt lat="42.497506" lon="2.420902">
        <ele>1840.236</ele>
        <time>2022-08-12T13:42:25Z</time>
      </trkpt>
      <trkpt lat="42.497459" lon="2.420905">
        <ele>1839.856</ele>
        <time>2022-08-12T13:42:28Z</time>
      </trkpt>
      <trkpt lat="42.497407" lon="2.420901">
        <ele>1839.075</ele>
        <time>2022-08-12T13:42:32Z</time>
      </trkpt>
      <trkpt lat="42.497360" lon="2.420877">
        <ele>1838.459</ele>
        <time>2022-08-12T13:42:36Z</time>
      </trkpt>
      <trkpt lat="42.497314" lon="2.420869">
        <ele>1838.047</ele>
        <time>2022-08-12T13:42:40Z</time>
      </trkpt>
      <trkpt lat="42.497263" lon="2.420825">
        <ele>1837.364</ele>
        <time>2022-08-12T13:42:43Z</time>
      </trkpt>
      <trkpt lat="42.497208" lon="2.420808">
        <ele>1836.441</ele>
        <time>2022-08-12T13:42:48Z</time>
      </trkpt>
      <trkpt lat="42.497162" lon="2.420782">
        <ele>1835.713</ele>
        <time>2022-08-12T13:42:51Z</time>
      </trkpt>
      <trkpt lat="42.497105" lon="2.420771">
        <ele>1834.796</ele>
        <time>2022-08-12T13:42:54Z</time>
      </trkpt>
      <trkpt lat="42.497052" lon="2.420782">
        <ele>1834.384</ele>
        <time>2022-08-12T13:42:57Z</time>
      </trkpt>
      <trkpt lat="42.497003" lon="2.420782">
        <ele>1834.107</ele>
        <time>2022-08-12T13:43:03Z</time>
      </trkpt>
      <trkpt lat="42.496943" lon="2.420756">
        <ele>1833.617</ele>
        <time>2022-08-12T13:43:07Z</time>
      </trkpt>
      <trkpt lat="42.496891" lon="2.420753">
        <ele>1832.509</ele>
        <time>2022-08-12T13:43:11Z</time>
      </trkpt>
      <trkpt lat="42.496837" lon="2.420748">
        <ele>1831.899</ele>
        <time>2022-08-12T13:43:16Z</time>
      </trkpt>
      <trkpt lat="42.496811" lon="2.420691">
        <ele>1831.689</ele>
        <time>2022-08-12T13:43:33Z</time>
      </trkpt>
      <trkpt lat="42.496781" lon="2.420635">
        <ele>1830.918</ele>
        <time>2022-08-12T13:43:40Z</time>
      </trkpt>
      <trkpt lat="42.496757" lon="2.420562">
        <ele>1828.962</ele>
        <time>2022-08-12T13:43:48Z</time>
      </trkpt>
      <trkpt lat="42.496718" lon="2.420515">
        <ele>1826.850</ele>
        <time>2022-08-12T13:43:52Z</time>
      </trkpt>
      <trkpt lat="42.496689" lon="2.420465">
        <ele>1825.427</ele>
        <time>2022-08-12T13:43:56Z</time>
      </trkpt>
      <trkpt lat="42.496656" lon="2.420420">
        <ele>1824.324</ele>
        <time>2022-08-12T13:44:02Z</time>
      </trkpt>
      <trkpt lat="42.496603" lon="2.420413">
        <ele>1823.746</ele>
        <time>2022-08-12T13:44:05Z</time>
      </trkpt>
      <trkpt lat="42.496567" lon="2.420362">
        <ele>1822.969</ele>
        <time>2022-08-12T13:44:12Z</time>
      </trkpt>
      <trkpt lat="42.496538" lon="2.420305">
        <ele>1822.057</ele>
        <time>2022-08-12T13:44:17Z</time>
      </trkpt>
      <trkpt lat="42.496496" lon="2.420255">
        <ele>1821.200</ele>
        <time>2022-08-12T13:44:20Z</time>
      </trkpt>
      <trkpt lat="42.496453" lon="2.420200">
        <ele>1820.220</ele>
        <time>2022-08-12T13:44:24Z</time>
      </trkpt>
      <trkpt lat="42.496435" lon="2.420144">
        <ele>1819.909</ele>
        <time>2022-08-12T13:44:28Z</time>
      </trkpt>
      <trkpt lat="42.496413" lon="2.420083">
        <ele>1819.646</ele>
        <time>2022-08-12T13:44:38Z</time>
      </trkpt>
      <trkpt lat="42.496416" lon="2.420019">
        <ele>1818.876</ele>
        <time>2022-08-12T13:44:45Z</time>
      </trkpt>
      <trkpt lat="42.496388" lon="2.419967">
        <ele>1818.075</ele>
        <time>2022-08-12T13:44:51Z</time>
      </trkpt>
      <trkpt lat="42.496333" lon="2.419945">
        <ele>1817.489</ele>
        <time>2022-08-12T13:44:55Z</time>
      </trkpt>
      <trkpt lat="42.496288" lon="2.419931">
        <ele>1816.527</ele>
        <time>2022-08-12T13:44:58Z</time>
      </trkpt>
      <trkpt lat="42.496239" lon="2.419937">
        <ele>1815.784</ele>
        <time>2022-08-12T13:45:02Z</time>
      </trkpt>
      <trkpt lat="42.496194" lon="2.419961">
        <ele>1815.271</ele>
        <time>2022-08-12T13:45:10Z</time>
      </trkpt>
      <trkpt lat="42.496169" lon="2.419907">
        <ele>1814.493</ele>
        <time>2022-08-12T13:45:17Z</time>
      </trkpt>
      <trkpt lat="42.496121" lon="2.419898">
        <ele>1813.156</ele>
        <time>2022-08-12T13:45:22Z</time>
      </trkpt>
      <trkpt lat="42.496081" lon="2.419869">
        <ele>1812.374</ele>
        <time>2022-08-12T13:45:25Z</time>
      </trkpt>
      <trkpt lat="42.496036" lon="2.419833">
        <ele>1812.156</ele>
        <time>2022-08-12T13:45:29Z</time>
      </trkpt>
      <trkpt lat="42.495990" lon="2.419819">
        <ele>1811.721</ele>
        <time>2022-08-12T13:45:37Z</time>
      </trkpt>
      <trkpt lat="42.495943" lon="2.419821">
        <ele>1811.009</ele>
        <time>2022-08-12T13:45:46Z</time>
      </trkpt>
      <trkpt lat="42.495909" lon="2.419766">
        <ele>1809.948</ele>
        <time>2022-08-12T13:45:55Z</time>
      </trkpt>
      <trkpt lat="42.495933" lon="2.419713">
        <ele>1808.688</ele>
        <time>2022-08-12T13:45:59Z</time>
      </trkpt>
      <trkpt lat="42.495964" lon="2.419647">
        <ele>1807.887</ele>
        <time>2022-08-12T13:46:02Z</time>
      </trkpt>
      <trkpt lat="42.495989" lon="2.419571">
        <ele>1807.221</ele>
        <time>2022-08-12T13:46:06Z</time>
      </trkpt>
      <trkpt lat="42.496008" lon="2.419509">
        <ele>1806.639</ele>
        <time>2022-08-12T13:46:12Z</time>
      </trkpt>
      <trkpt lat="42.496036" lon="2.419450">
        <ele>1806.116</ele>
        <time>2022-08-12T13:46:17Z</time>
      </trkpt>
      <trkpt lat="42.496066" lon="2.419400">
        <ele>1805.443</ele>
        <time>2022-08-12T13:46:23Z</time>
      </trkpt>
      <trkpt lat="42.496073" lon="2.419334">
        <ele>1804.845</ele>
        <time>2022-08-12T13:46:30Z</time>
      </trkpt>
      <trkpt lat="42.496088" lon="2.419274">
        <ele>1803.828</ele>
        <time>2022-08-12T13:46:34Z</time>
      </trkpt>
      <trkpt lat="42.496107" lon="2.419219">
        <ele>1803.037</ele>
        <time>2022-08-12T13:46:37Z</time>
      </trkpt>
      <trkpt lat="42.496133" lon="2.419158">
        <ele>1802.049</ele>
        <time>2022-08-12T13:46:43Z</time>
      </trkpt>
      <trkpt lat="42.496168" lon="2.419102">
        <ele>1801.013</ele>
        <time>2022-08-12T13:46:49Z</time>
      </trkpt>
      <trkpt lat="42.496206" lon="2.419055">
        <ele>1800.409</ele>
        <time>2022-08-12T13:46:54Z</time>
      </trkpt>
      <trkpt lat="42.496244" lon="2.419007">
        <ele>1799.874</ele>
        <time>2022-08-12T13:47:01Z</time>
      </trkpt>
      <trkpt lat="42.496291" lon="2.418961">
        <ele>1799.514</ele>
        <time>2022-08-12T13:47:07Z</time>
      </trkpt>
      <trkpt lat="42.496310" lon="2.418903">
        <ele>1798.963</ele>
        <time>2022-08-12T13:47:11Z</time>
      </trkpt>
      <trkpt lat="42.496338" lon="2.418841">
        <ele>1797.877</ele>
        <time>2022-08-12T13:47:19Z</time>
      </trkpt>
      <trkpt lat="42.496373" lon="2.418792">
        <ele>1796.815</ele>
        <time>2022-08-12T13:47:23Z</time>
      </trkpt>
      <trkpt lat="42.496416" lon="2.418740">
        <ele>1796.112</ele>
        <time>2022-08-12T13:47:27Z</time>
      </trkpt>
      <trkpt lat="42.496448" lon="2.418697">
        <ele>1795.589</ele>
        <time>2022-08-12T13:47:35Z</time>
      </trkpt>
      <trkpt lat="42.496498" lon="2.418673">
        <ele>1794.791</ele>
        <time>2022-08-12T13:47:45Z</time>
      </trkpt>
      <trkpt lat="42.496548" lon="2.418632">
        <ele>1793.954</ele>
        <time>2022-08-12T13:47:49Z</time>
      </trkpt>
      <trkpt lat="42.496584" lon="2.418584">
        <ele>1793.126</ele>
        <time>2022-08-12T13:47:54Z</time>
      </trkpt>
      <trkpt lat="42.496634" lon="2.418538">
        <ele>1792.147</ele>
        <time>2022-08-12T13:47:58Z</time>
      </trkpt>
      <trkpt lat="42.496667" lon="2.418490">
        <ele>1790.811</ele>
        <time>2022-08-12T13:48:01Z</time>
      </trkpt>
      <trkpt lat="42.496716" lon="2.418473">
        <ele>1790.309</ele>
        <time>2022-08-12T13:48:06Z</time>
      </trkpt>
      <trkpt lat="42.496753" lon="2.418427">
        <ele>1789.753</ele>
        <time>2022-08-12T13:48:09Z</time>
      </trkpt>
      <trkpt lat="42.496795" lon="2.418367">
        <ele>1788.743</ele>
        <time>2022-08-12T13:48:14Z</time>
      </trkpt>
      <trkpt lat="42.496817" lon="2.418301">
        <ele>1788.272</ele>
        <time>2022-08-12T13:48:19Z</time>
      </trkpt>
      <trkpt lat="42.496851" lon="2.418253">
        <ele>1787.136</ele>
        <time>2022-08-12T13:48:24Z</time>
      </trkpt>
      <trkpt lat="42.496875" lon="2.418188">
        <ele>1786.594</ele>
        <time>2022-08-12T13:48:33Z</time>
      </trkpt>
      <trkpt lat="42.496897" lon="2.418135">
        <ele>1785.551</ele>
        <time>2022-08-12T13:48:35Z</time>
      </trkpt>
      <trkpt lat="42.496921" lon="2.418072">
        <ele>1784.048</ele>
        <time>2022-08-12T13:48:39Z</time>
      </trkpt>
      <trkpt lat="42.496952" lon="2.418014">
        <ele>1783.190</ele>
        <time>2022-08-12T13:48:42Z</time>
      </trkpt>
      <trkpt lat="42.496965" lon="2.417942">
        <ele>1782.433</ele>
        <time>2022-08-12T13:48:45Z</time>
      </trkpt>
      <trkpt lat="42.496970" lon="2.417874">
        <ele>1782.074</ele>
        <time>2022-08-12T13:48:49Z</time>
      </trkpt>
      <trkpt lat="42.496982" lon="2.417799">
        <ele>1781.556</ele>
        <time>2022-08-12T13:48:53Z</time>
      </trkpt>
      <trkpt lat="42.497002" lon="2.417741">
        <ele>1780.921</ele>
        <time>2022-08-12T13:48:59Z</time>
      </trkpt>
      <trkpt lat="42.497014" lon="2.417681">
        <ele>1780.409</ele>
        <time>2022-08-12T13:49:03Z</time>
      </trkpt>
      <trkpt lat="42.497018" lon="2.417742">
        <ele>1779.858</ele>
        <time>2022-08-12T13:49:22Z</time>
      </trkpt>
      <trkpt lat="42.497032" lon="2.417807">
        <ele>1779.168</ele>
        <time>2022-08-12T13:49:28Z</time>
      </trkpt>
      <trkpt lat="42.497031" lon="2.417871">
        <ele>1777.367</ele>
        <time>2022-08-12T13:49:34Z</time>
      </trkpt>
      <trkpt lat="42.497054" lon="2.417925">
        <ele>1775.481</ele>
        <time>2022-08-12T13:49:37Z</time>
      </trkpt>
      <trkpt lat="42.497024" lon="2.417987">
        <ele>1774.469</ele>
        <time>2022-08-12T13:49:42Z</time>
      </trkpt>
      <trkpt lat="42.497020" lon="2.418058">
        <ele>1773.626</ele>
        <time>2022-08-12T13:49:45Z</time>
      </trkpt>
      <trkpt lat="42.497016" lon="2.418130">
        <ele>1773.223</ele>
        <time>2022-08-12T13:49:51Z</time>
      </trkpt>
      <trkpt lat="42.497029" lon="2.418194">
        <ele>1772.875</ele>
        <time>2022-08-12T13:49:55Z</time>
      </trkpt>
      <trkpt lat="42.497041" lon="2.418272">
        <ele>1772.188</ele>
        <time>2022-08-12T13:50:00Z</time>
      </trkpt>
      <trkpt lat="42.497058" lon="2.418330">
        <ele>1771.559</ele>
        <time>2022-08-12T13:50:03Z</time>
      </trkpt>
      <trkpt lat="42.497092" lon="2.418381">
        <ele>1771.003</ele>
        <time>2022-08-12T13:50:06Z</time>
      </trkpt>
      <trkpt lat="42.497137" lon="2.418424">
        <ele>1770.723</ele>
        <time>2022-08-12T13:50:09Z</time>
      </trkpt>
      <trkpt lat="42.497114" lon="2.418368">
        <ele>1770.309</ele>
        <time>2022-08-12T13:50:21Z</time>
      </trkpt>
      <trkpt lat="42.497104" lon="2.418296">
        <ele>1769.676</ele>
        <time>2022-08-12T13:50:27Z</time>
      </trkpt>
      <trkpt lat="42.497106" lon="2.418228">
        <ele>1768.186</ele>
        <time>2022-08-12T13:50:33Z</time>
      </trkpt>
      <trkpt lat="42.497122" lon="2.418167">
        <ele>1766.585</ele>
        <time>2022-08-12T13:50:39Z</time>
      </trkpt>
      <trkpt lat="42.497133" lon="2.418108">
        <ele>1765.449</ele>
        <time>2022-08-12T13:50:42Z</time>
      </trkpt>
      <trkpt lat="42.497155" lon="2.418053">
        <ele>1764.287</ele>
        <time>2022-08-12T13:50:45Z</time>
      </trkpt>
      <trkpt lat="42.497165" lon="2.417986">
        <ele>1763.384</ele>
        <time>2022-08-12T13:50:49Z</time>
      </trkpt>
      <trkpt lat="42.497179" lon="2.417907">
        <ele>1762.521</ele>
        <time>2022-08-12T13:50:54Z</time>
      </trkpt>
      <trkpt lat="42.497185" lon="2.417845">
        <ele>1761.913</ele>
        <time>2022-08-12T13:50:59Z</time>
      </trkpt>
      <trkpt lat="42.497187" lon="2.417783">
        <ele>1761.386</ele>
        <time>2022-08-12T13:51:04Z</time>
      </trkpt>
      <trkpt lat="42.497200" lon="2.417721">
        <ele>1760.389</ele>
        <time>2022-08-12T13:51:09Z</time>
      </trkpt>
      <trkpt lat="42.497211" lon="2.417659">
        <ele>1759.606</ele>
        <time>2022-08-12T13:51:12Z</time>
      </trkpt>
      <trkpt lat="42.497231" lon="2.417597">
        <ele>1759.026</ele>
        <time>2022-08-12T13:51:18Z</time>
      </trkpt>
      <trkpt lat="42.497245" lon="2.417537">
        <ele>1758.209</ele>
        <time>2022-08-12T13:51:22Z</time>
      </trkpt>
      <trkpt lat="42.497263" lon="2.417474">
        <ele>1757.399</ele>
        <time>2022-08-12T13:51:27Z</time>
      </trkpt>
      <trkpt lat="42.497294" lon="2.417425">
        <ele>1756.529</ele>
        <time>2022-08-12T13:51:31Z</time>
      </trkpt>
      <trkpt lat="42.497311" lon="2.417364">
        <ele>1755.828</ele>
        <time>2022-08-12T13:51:33Z</time>
      </trkpt>
      <trkpt lat="42.497333" lon="2.417295">
        <ele>1755.252</ele>
        <time>2022-08-12T13:51:37Z</time>
      </trkpt>
      <trkpt lat="42.497359" lon="2.417242">
        <ele>1755.040</ele>
        <time>2022-08-12T13:51:41Z</time>
      </trkpt>
      <trkpt lat="42.497382" lon="2.417185">
        <ele>1754.787</ele>
        <time>2022-08-12T13:51:44Z</time>
      </trkpt>
      <trkpt lat="42.497394" lon="2.417126">
        <ele>1754.214</ele>
        <time>2022-08-12T13:51:48Z</time>
      </trkpt>
      <trkpt lat="42.497404" lon="2.417067">
        <ele>1753.856</ele>
        <time>2022-08-12T13:51:51Z</time>
      </trkpt>
      <trkpt lat="42.497428" lon="2.416999">
        <ele>1753.449</ele>
        <time>2022-08-12T13:51:55Z</time>
      </trkpt>
      <trkpt lat="42.497450" lon="2.416934">
        <ele>1752.988</ele>
        <time>2022-08-12T13:51:59Z</time>
      </trkpt>
      <trkpt lat="42.497463" lon="2.416866">
        <ele>1752.224</ele>
        <time>2022-08-12T13:52:03Z</time>
      </trkpt>
      <trkpt lat="42.497481" lon="2.416802">
        <ele>1751.626</ele>
        <time>2022-08-12T13:52:07Z</time>
      </trkpt>
      <trkpt lat="42.497477" lon="2.416740">
        <ele>1751.109</ele>
        <time>2022-08-12T13:52:12Z</time>
      </trkpt>
      <trkpt lat="42.497483" lon="2.416675">
        <ele>1750.389</ele>
        <time>2022-08-12T13:52:16Z</time>
      </trkpt>
      <trkpt lat="42.497496" lon="2.416598">
        <ele>1749.639</ele>
        <time>2022-08-12T13:52:22Z</time>
      </trkpt>
      <trkpt lat="42.497511" lon="2.416519">
        <ele>1749.278</ele>
        <time>2022-08-12T13:52:26Z</time>
      </trkpt>
      <trkpt lat="42.497516" lon="2.416455">
        <ele>1748.782</ele>
        <time>2022-08-12T13:52:30Z</time>
      </trkpt>
      <trkpt lat="42.497504" lon="2.416378">
        <ele>1748.010</ele>
        <time>2022-08-12T13:52:36Z</time>
      </trkpt>
      <trkpt lat="42.497480" lon="2.416323">
        <ele>1747.757</ele>
        <time>2022-08-12T13:52:41Z</time>
      </trkpt>
      <trkpt lat="42.497439" lon="2.416284">
        <ele>1747.184</ele>
        <time>2022-08-12T13:52:46Z</time>
      </trkpt>
      <trkpt lat="42.497406" lon="2.416232">
        <ele>1746.276</ele>
        <time>2022-08-12T13:52:50Z</time>
      </trkpt>
      <trkpt lat="42.497372" lon="2.416181">
        <ele>1745.539</ele>
        <time>2022-08-12T13:52:54Z</time>
      </trkpt>
      <trkpt lat="42.497331" lon="2.416122">
        <ele>1744.995</ele>
        <time>2022-08-12T13:52:58Z</time>
      </trkpt>
      <trkpt lat="42.497294" lon="2.416079">
        <ele>1744.549</ele>
        <time>2022-08-12T13:53:01Z</time>
      </trkpt>
      <trkpt lat="42.497243" lon="2.416051">
        <ele>1744.123</ele>
        <time>2022-08-12T13:53:05Z</time>
      </trkpt>
      <trkpt lat="42.497189" lon="2.416026">
        <ele>1743.609</ele>
        <time>2022-08-12T13:53:09Z</time>
      </trkpt>
      <trkpt lat="42.497143" lon="2.416002">
        <ele>1743.160</ele>
        <time>2022-08-12T13:53:16Z</time>
      </trkpt>
      <trkpt lat="42.497096" lon="2.415993">
        <ele>1742.710</ele>
        <time>2022-08-12T13:53:22Z</time>
      </trkpt>
      <trkpt lat="42.497052" lon="2.415978">
        <ele>1741.839</ele>
        <time>2022-08-12T13:53:31Z</time>
      </trkpt>
      <trkpt lat="42.497007" lon="2.415968">
        <ele>1741.253</ele>
        <time>2022-08-12T13:53:42Z</time>
      </trkpt>
      <trkpt lat="42.496948" lon="2.415922">
        <ele>1740.551</ele>
        <time>2022-08-12T13:53:46Z</time>
      </trkpt>
      <trkpt lat="42.496893" lon="2.415890">
        <ele>1739.328</ele>
        <time>2022-08-12T13:53:49Z</time>
      </trkpt>
      <trkpt lat="42.496856" lon="2.415854">
        <ele>1738.235</ele>
        <time>2022-08-12T13:53:53Z</time>
      </trkpt>
      <trkpt lat="42.496807" lon="2.415805">
        <ele>1737.527</ele>
        <time>2022-08-12T13:53:57Z</time>
      </trkpt>
      <trkpt lat="42.496768" lon="2.415772">
        <ele>1736.970</ele>
        <time>2022-08-12T13:54:00Z</time>
      </trkpt>
      <trkpt lat="42.496733" lon="2.415715">
        <ele>1736.758</ele>
        <time>2022-08-12T13:54:04Z</time>
      </trkpt>
      <trkpt lat="42.496699" lon="2.415664">
        <ele>1736.452</ele>
        <time>2022-08-12T13:54:10Z</time>
      </trkpt>
      <trkpt lat="42.496664" lon="2.415624">
        <ele>1736.017</ele>
        <time>2022-08-12T13:54:13Z</time>
      </trkpt>
      <trkpt lat="42.496635" lon="2.415573">
        <ele>1735.409</ele>
        <time>2022-08-12T13:54:18Z</time>
      </trkpt>
      <trkpt lat="42.496603" lon="2.415526">
        <ele>1734.786</ele>
        <time>2022-08-12T13:54:21Z</time>
      </trkpt>
      <trkpt lat="42.496560" lon="2.415480">
        <ele>1734.366</ele>
        <time>2022-08-12T13:54:24Z</time>
      </trkpt>
      <trkpt lat="42.496509" lon="2.415441">
        <ele>1734.115</ele>
        <time>2022-08-12T13:54:29Z</time>
      </trkpt>
      <trkpt lat="42.496485" lon="2.415379">
        <ele>1733.639</ele>
        <time>2022-08-12T13:54:34Z</time>
      </trkpt>
      <trkpt lat="42.496453" lon="2.415328">
        <ele>1733.047</ele>
        <time>2022-08-12T13:54:38Z</time>
      </trkpt>
      <trkpt lat="42.496426" lon="2.415263">
        <ele>1732.484</ele>
        <time>2022-08-12T13:54:42Z</time>
      </trkpt>
      <trkpt lat="42.496397" lon="2.415204">
        <ele>1731.771</ele>
        <time>2022-08-12T13:54:46Z</time>
      </trkpt>
      <trkpt lat="42.496358" lon="2.415153">
        <ele>1731.223</ele>
        <time>2022-08-12T13:54:51Z</time>
      </trkpt>
      <trkpt lat="42.496314" lon="2.415111">
        <ele>1731.036</ele>
        <time>2022-08-12T13:54:55Z</time>
      </trkpt>
      <trkpt lat="42.496281" lon="2.415066">
        <ele>1730.595</ele>
        <time>2022-08-12T13:54:59Z</time>
      </trkpt>
      <trkpt lat="42.496250" lon="2.415012">
        <ele>1729.649</ele>
        <time>2022-08-12T13:55:07Z</time>
      </trkpt>
      <trkpt lat="42.496244" lon="2.414936">
        <ele>1729.123</ele>
        <time>2022-08-12T13:55:10Z</time>
      </trkpt>
      <trkpt lat="42.496199" lon="2.414904">
        <ele>1728.509</ele>
        <time>2022-08-12T13:55:13Z</time>
      </trkpt>
      <trkpt lat="42.496149" lon="2.414865">
        <ele>1727.760</ele>
        <time>2022-08-12T13:55:18Z</time>
      </trkpt>
      <trkpt lat="42.496098" lon="2.414839">
        <ele>1726.770</ele>
        <time>2022-08-12T13:55:24Z</time>
      </trkpt>
      <trkpt lat="42.496071" lon="2.414784">
        <ele>1726.099</ele>
        <time>2022-08-12T13:55:40Z</time>
      </trkpt>
      <trkpt lat="42.496098" lon="2.414731">
        <ele>1725.153</ele>
        <time>2022-08-12T13:55:50Z</time>
      </trkpt>
      <trkpt lat="42.496126" lon="2.414682">
        <ele>1724.021</ele>
        <time>2022-08-12T13:56:01Z</time>
      </trkpt>
      <trkpt lat="42.496126" lon="2.414618">
        <ele>1722.498</ele>
        <time>2022-08-12T13:56:04Z</time>
      </trkpt>
      <trkpt lat="42.496120" lon="2.414542">
        <ele>1721.245</ele>
        <time>2022-08-12T13:56:08Z</time>
      </trkpt>
      <trkpt lat="42.496120" lon="2.414469">
        <ele>1720.577</ele>
        <time>2022-08-12T13:56:11Z</time>
      </trkpt>
      <trkpt lat="42.496130" lon="2.414399">
        <ele>1720.330</ele>
        <time>2022-08-12T13:56:14Z</time>
      </trkpt>
      <trkpt lat="42.496145" lon="2.414333">
        <ele>1720.143</ele>
        <time>2022-08-12T13:56:18Z</time>
      </trkpt>
      <trkpt lat="42.496144" lon="2.414271">
        <ele>1719.764</ele>
        <time>2022-08-12T13:56:21Z</time>
      </trkpt>
      <trkpt lat="42.496108" lon="2.414228">
        <ele>1719.110</ele>
        <time>2022-08-12T13:56:24Z</time>
      </trkpt>
      <trkpt lat="42.496109" lon="2.414164">
        <ele>1718.509</ele>
        <time>2022-08-12T13:56:28Z</time>
      </trkpt>
      <trkpt lat="42.496091" lon="2.414093">
        <ele>1718.245</ele>
        <time>2022-08-12T13:56:38Z</time>
      </trkpt>
      <trkpt lat="42.496084" lon="2.414031">
        <ele>1717.885</ele>
        <time>2022-08-12T13:56:42Z</time>
      </trkpt>
      <trkpt lat="42.496053" lon="2.413961">
        <ele>1717.154</ele>
        <time>2022-08-12T13:56:46Z</time>
      </trkpt>
      <trkpt lat="42.496044" lon="2.413894">
        <ele>1716.718</ele>
        <time>2022-08-12T13:56:48Z</time>
      </trkpt>
      <trkpt lat="42.496031" lon="2.413829">
        <ele>1716.726</ele>
        <time>2022-08-12T13:56:51Z</time>
      </trkpt>
      <trkpt lat="42.496001" lon="2.413752">
        <ele>1716.523</ele>
        <time>2022-08-12T13:56:56Z</time>
      </trkpt>
      <trkpt lat="42.495986" lon="2.413685">
        <ele>1715.080</ele>
        <time>2022-08-12T13:57:00Z</time>
      </trkpt>
      <trkpt lat="42.495959" lon="2.413633">
        <ele>1714.732</ele>
        <time>2022-08-12T13:57:04Z</time>
      </trkpt>
      <trkpt lat="42.495944" lon="2.413556">
        <ele>1714.115</ele>
        <time>2022-08-12T13:57:07Z</time>
      </trkpt>
      <trkpt lat="42.495942" lon="2.413480">
        <ele>1713.984</ele>
        <time>2022-08-12T13:57:11Z</time>
      </trkpt>
      <trkpt lat="42.495893" lon="2.413435">
        <ele>1713.507</ele>
        <time>2022-08-12T13:57:14Z</time>
      </trkpt>
      <trkpt lat="42.495864" lon="2.413385">
        <ele>1712.817</ele>
        <time>2022-08-12T13:57:17Z</time>
      </trkpt>
      <trkpt lat="42.495844" lon="2.413318">
        <ele>1712.109</ele>
        <time>2022-08-12T13:57:20Z</time>
      </trkpt>
      <trkpt lat="42.495814" lon="2.413273">
        <ele>1712.079</ele>
        <time>2022-08-12T13:57:24Z</time>
      </trkpt>
      <trkpt lat="42.495784" lon="2.413225">
        <ele>1711.919</ele>
        <time>2022-08-12T13:57:29Z</time>
      </trkpt>
      <trkpt lat="42.495764" lon="2.413158">
        <ele>1711.598</ele>
        <time>2022-08-12T13:57:34Z</time>
      </trkpt>
      <trkpt lat="42.495748" lon="2.413094">
        <ele>1711.152</ele>
        <time>2022-08-12T13:57:38Z</time>
      </trkpt>
      <trkpt lat="42.495728" lon="2.413036">
        <ele>1710.690</ele>
        <time>2022-08-12T13:57:45Z</time>
      </trkpt>
      <trkpt lat="42.495740" lon="2.412969">
        <ele>1709.977</ele>
        <time>2022-08-12T13:57:50Z</time>
      </trkpt>
      <trkpt lat="42.495731" lon="2.412893">
        <ele>1709.384</ele>
        <time>2022-08-12T13:57:54Z</time>
      </trkpt>
      <trkpt lat="42.495735" lon="2.412825">
        <ele>1708.636</ele>
        <time>2022-08-12T13:57:59Z</time>
      </trkpt>
      <trkpt lat="42.495730" lon="2.412765">
        <ele>1708.039</ele>
        <time>2022-08-12T13:58:03Z</time>
      </trkpt>
      <trkpt lat="42.495721" lon="2.412705">
        <ele>1707.457</ele>
        <time>2022-08-12T13:58:06Z</time>
      </trkpt>
      <trkpt lat="42.495688" lon="2.412659">
        <ele>1706.900</ele>
        <time>2022-08-12T13:58:10Z</time>
      </trkpt>
      <trkpt lat="42.495664" lon="2.412594">
        <ele>1706.620</ele>
        <time>2022-08-12T13:58:14Z</time>
      </trkpt>
      <trkpt lat="42.495651" lon="2.412534">
        <ele>1706.209</ele>
        <time>2022-08-12T13:58:17Z</time>
      </trkpt>
      <trkpt lat="42.495629" lon="2.412467">
        <ele>1705.676</ele>
        <time>2022-08-12T13:58:22Z</time>
      </trkpt>
      <trkpt lat="42.495624" lon="2.412401">
        <ele>1704.956</ele>
        <time>2022-08-12T13:58:25Z</time>
      </trkpt>
      <trkpt lat="42.495612" lon="2.412335">
        <ele>1704.565</ele>
        <time>2022-08-12T13:58:27Z</time>
      </trkpt>
      <trkpt lat="42.495600" lon="2.412268">
        <ele>1704.349</ele>
        <time>2022-08-12T13:58:31Z</time>
      </trkpt>
      <trkpt lat="42.495600" lon="2.412198">
        <ele>1703.927</ele>
        <time>2022-08-12T13:58:40Z</time>
      </trkpt>
      <trkpt lat="42.495570" lon="2.412139">
        <ele>1703.484</ele>
        <time>2022-08-12T13:58:46Z</time>
      </trkpt>
      <trkpt lat="42.495549" lon="2.412071">
        <ele>1702.591</ele>
        <time>2022-08-12T13:58:52Z</time>
      </trkpt>
      <trkpt lat="42.495507" lon="2.412025">
        <ele>1701.913</ele>
        <time>2022-08-12T13:59:00Z</time>
      </trkpt>
      <trkpt lat="42.495473" lon="2.411958">
        <ele>1700.766</ele>
        <time>2022-08-12T13:59:04Z</time>
      </trkpt>
      <trkpt lat="42.495455" lon="2.411889">
        <ele>1700.028</ele>
        <time>2022-08-12T13:59:07Z</time>
      </trkpt>
      <trkpt lat="42.495420" lon="2.411834">
        <ele>1699.789</ele>
        <time>2022-08-12T13:59:10Z</time>
      </trkpt>
      <trkpt lat="42.495370" lon="2.411805">
        <ele>1698.717</ele>
        <time>2022-08-12T13:59:14Z</time>
      </trkpt>
      <trkpt lat="42.495326" lon="2.411791">
        <ele>1698.709</ele>
        <time>2022-08-12T13:59:18Z</time>
      </trkpt>
      <trkpt lat="42.495288" lon="2.411742">
        <ele>1698.483</ele>
        <time>2022-08-12T13:59:23Z</time>
      </trkpt>
      <trkpt lat="42.495230" lon="2.411742">
        <ele>1697.853</ele>
        <time>2022-08-12T13:59:28Z</time>
      </trkpt>
      <trkpt lat="42.495173" lon="2.411753">
        <ele>1697.142</ele>
        <time>2022-08-12T13:59:33Z</time>
      </trkpt>
      <trkpt lat="42.495125" lon="2.411769">
        <ele>1696.486</ele>
        <time>2022-08-12T13:59:36Z</time>
      </trkpt>
      <trkpt lat="42.495077" lon="2.411759">
        <ele>1695.534</ele>
        <time>2022-08-12T13:59:40Z</time>
      </trkpt>
      <trkpt lat="42.495026" lon="2.411767">
        <ele>1694.811</ele>
        <time>2022-08-12T13:59:43Z</time>
      </trkpt>
      <trkpt lat="42.494976" lon="2.411766">
        <ele>1694.478</ele>
        <time>2022-08-12T13:59:47Z</time>
      </trkpt>
      <trkpt lat="42.494928" lon="2.411749">
        <ele>1693.980</ele>
        <time>2022-08-12T13:59:51Z</time>
      </trkpt>
      <trkpt lat="42.494868" lon="2.411753">
        <ele>1693.363</ele>
        <time>2022-08-12T13:59:58Z</time>
      </trkpt>
      <trkpt lat="42.494821" lon="2.411735">
        <ele>1692.895</ele>
        <time>2022-08-12T14:00:02Z</time>
      </trkpt>
      <trkpt lat="42.494767" lon="2.411712">
        <ele>1692.449</ele>
        <time>2022-08-12T14:00:05Z</time>
      </trkpt>
      <trkpt lat="42.494710" lon="2.411703">
        <ele>1691.523</ele>
        <time>2022-08-12T14:00:09Z</time>
      </trkpt>
      <trkpt lat="42.494664" lon="2.411714">
        <ele>1691.409</ele>
        <time>2022-08-12T14:00:12Z</time>
      </trkpt>
      <trkpt lat="42.494611" lon="2.411684">
        <ele>1691.010</ele>
        <time>2022-08-12T14:00:18Z</time>
      </trkpt>
      <trkpt lat="42.494564" lon="2.411662">
        <ele>1690.570</ele>
        <time>2022-08-12T14:00:23Z</time>
      </trkpt>
      <trkpt lat="42.494529" lon="2.411616">
        <ele>1690.029</ele>
        <time>2022-08-12T14:00:30Z</time>
      </trkpt>
      <trkpt lat="42.494534" lon="2.411532">
        <ele>1689.163</ele>
        <time>2022-08-12T14:00:35Z</time>
      </trkpt>
      <trkpt lat="42.494518" lon="2.411471">
        <ele>1688.071</ele>
        <time>2022-08-12T14:00:40Z</time>
      </trkpt>
      <trkpt lat="42.494478" lon="2.411430">
        <ele>1687.328</ele>
        <time>2022-08-12T14:00:52Z</time>
      </trkpt>
      <trkpt lat="42.494503" lon="2.411360">
        <ele>1687.365</ele>
        <time>2022-08-12T14:00:57Z</time>
      </trkpt>
      <trkpt lat="42.494537" lon="2.411305">
        <ele>1687.077</ele>
        <time>2022-08-12T14:01:02Z</time>
      </trkpt>
      <trkpt lat="42.494588" lon="2.411293">
        <ele>1687.050</ele>
        <time>2022-08-12T14:01:09Z</time>
      </trkpt>
      <trkpt lat="42.494636" lon="2.411277">
        <ele>1687.088</ele>
        <time>2022-08-12T14:01:14Z</time>
      </trkpt>
      <trkpt lat="42.494678" lon="2.411239">
        <ele>1687.224</ele>
        <time>2022-08-12T14:01:18Z</time>
      </trkpt>
      <trkpt lat="42.494711" lon="2.411196">
        <ele>1688.026</ele>
        <time>2022-08-12T14:01:21Z</time>
      </trkpt>
      <trkpt lat="42.494756" lon="2.411149">
        <ele>1688.509</ele>
        <time>2022-08-12T14:01:25Z</time>
      </trkpt>
      <trkpt lat="42.494800" lon="2.411114">
        <ele>1688.629</ele>
        <time>2022-08-12T14:01:30Z</time>
      </trkpt>
      <trkpt lat="42.494846" lon="2.411084">
        <ele>1688.619</ele>
        <time>2022-08-12T14:01:35Z</time>
      </trkpt>
      <trkpt lat="42.494891" lon="2.411060">
        <ele>1688.638</ele>
        <time>2022-08-12T14:01:45Z</time>
      </trkpt>
      <trkpt lat="42.494946" lon="2.411035">
        <ele>1688.742</ele>
        <time>2022-08-12T14:01:54Z</time>
      </trkpt>
      <trkpt lat="42.494957" lon="2.410972">
        <ele>1689.520</ele>
        <time>2022-08-12T14:02:01Z</time>
      </trkpt>
      <trkpt lat="42.494966" lon="2.410909">
        <ele>1690.437</ele>
        <time>2022-08-12T14:02:05Z</time>
      </trkpt>
      <trkpt lat="42.494999" lon="2.410860">
        <ele>1690.934</ele>
        <time>2022-08-12T14:02:14Z</time>
      </trkpt>
      <trkpt lat="42.495055" lon="2.410874">
        <ele>1691.386</ele>
        <time>2022-08-12T14:02:18Z</time>
      </trkpt>
      <trkpt lat="42.495103" lon="2.410852">
        <ele>1691.619</ele>
        <time>2022-08-12T14:02:24Z</time>
      </trkpt>
      <trkpt lat="42.495146" lon="2.410813">
        <ele>1691.655</ele>
        <time>2022-08-12T14:02:27Z</time>
      </trkpt>
      <trkpt lat="42.495197" lon="2.410779">
        <ele>1691.807</ele>
        <time>2022-08-12T14:02:29Z</time>
      </trkpt>
      <trkpt lat="42.495249" lon="2.410745">
        <ele>1692.117</ele>
        <time>2022-08-12T14:02:32Z</time>
      </trkpt>
      <trkpt lat="42.495294" lon="2.410705">
        <ele>1692.609</ele>
        <time>2022-08-12T14:02:37Z</time>
      </trkpt>
      <trkpt lat="42.495348" lon="2.410687">
        <ele>1692.656</ele>
        <time>2022-08-12T14:02:42Z</time>
      </trkpt>
      <trkpt lat="42.495404" lon="2.410687">
        <ele>1692.956</ele>
        <time>2022-08-12T14:02:47Z</time>
      </trkpt>
      <trkpt lat="42.495456" lon="2.410712">
        <ele>1693.015</ele>
        <time>2022-08-12T14:02:53Z</time>
      </trkpt>
      <trkpt lat="42.495501" lon="2.410740">
        <ele>1693.829</ele>
        <time>2022-08-12T14:02:57Z</time>
      </trkpt>
      <trkpt lat="42.495542" lon="2.410767">
        <ele>1693.827</ele>
        <time>2022-08-12T14:03:01Z</time>
      </trkpt>
      <trkpt lat="42.495594" lon="2.410749">
        <ele>1694.154</ele>
        <time>2022-08-12T14:03:05Z</time>
      </trkpt>
      <trkpt lat="42.495626" lon="2.410701">
        <ele>1694.611</ele>
        <time>2022-08-12T14:03:10Z</time>
      </trkpt>
      <trkpt lat="42.495656" lon="2.410635">
        <ele>1694.963</ele>
        <time>2022-08-12T14:03:15Z</time>
      </trkpt>
      <trkpt lat="42.495703" lon="2.410594">
        <ele>1695.026</ele>
        <time>2022-08-12T14:03:22Z</time>
      </trkpt>
      <trkpt lat="42.495745" lon="2.410560">
        <ele>1695.277</ele>
        <time>2022-08-12T14:03:25Z</time>
      </trkpt>
      <trkpt lat="42.495774" lon="2.410615">
        <ele>1695.461</ele>
        <time>2022-08-12T14:03:30Z</time>
      </trkpt>
      <trkpt lat="42.495841" lon="2.410638">
        <ele>1696.027</ele>
        <time>2022-08-12T14:03:41Z</time>
      </trkpt>
      <trkpt lat="42.495890" lon="2.410652">
        <ele>1696.509</ele>
        <time>2022-08-12T14:03:43Z</time>
      </trkpt>
      <trkpt lat="42.495941" lon="2.410657">
        <ele>1696.638</ele>
        <time>2022-08-12T14:03:45Z</time>
      </trkpt>
      <trkpt lat="42.495989" lon="2.410655">
        <ele>1696.768</ele>
        <time>2022-08-12T14:03:47Z</time>
      </trkpt>
      <trkpt lat="42.496035" lon="2.410685">
        <ele>1696.957</ele>
        <time>2022-08-12T14:03:50Z</time>
      </trkpt>
      <trkpt lat="42.496081" lon="2.410660">
        <ele>1697.091</ele>
        <time>2022-08-12T14:03:53Z</time>
      </trkpt>
      <trkpt lat="42.496134" lon="2.410641">
        <ele>1697.249</ele>
        <time>2022-08-12T14:03:56Z</time>
      </trkpt>
      <trkpt lat="42.496187" lon="2.410661">
        <ele>1697.296</ele>
        <time>2022-08-12T14:03:58Z</time>
      </trkpt>
      <trkpt lat="42.496233" lon="2.410661">
        <ele>1697.443</ele>
        <time>2022-08-12T14:04:01Z</time>
      </trkpt>
      <trkpt lat="42.496273" lon="2.410712">
        <ele>1697.515</ele>
        <time>2022-08-12T14:04:05Z</time>
      </trkpt>
      <trkpt lat="42.496320" lon="2.410714">
        <ele>1697.678</ele>
        <time>2022-08-12T14:04:08Z</time>
      </trkpt>
      <trkpt lat="42.496363" lon="2.410742">
        <ele>1697.745</ele>
        <time>2022-08-12T14:04:11Z</time>
      </trkpt>
      <trkpt lat="42.496406" lon="2.410772">
        <ele>1697.847</ele>
        <time>2022-08-12T14:04:13Z</time>
      </trkpt>
      <trkpt lat="42.496449" lon="2.410800">
        <ele>1698.211</ele>
        <time>2022-08-12T14:04:17Z</time>
      </trkpt>
      <trkpt lat="42.496495" lon="2.410830">
        <ele>1698.909</ele>
        <time>2022-08-12T14:04:21Z</time>
      </trkpt>
      <trkpt lat="42.496545" lon="2.410856">
        <ele>1699.295</ele>
        <time>2022-08-12T14:04:26Z</time>
      </trkpt>
      <trkpt lat="42.496593" lon="2.410867">
        <ele>1699.485</ele>
        <time>2022-08-12T14:04:30Z</time>
      </trkpt>
      <trkpt lat="42.496641" lon="2.410876">
        <ele>1699.794</ele>
        <time>2022-08-12T14:04:34Z</time>
      </trkpt>
      <trkpt lat="42.496688" lon="2.410906">
        <ele>1699.938</ele>
        <time>2022-08-12T14:04:37Z</time>
      </trkpt>
      <trkpt lat="42.496737" lon="2.410947">
        <ele>1699.956</ele>
        <time>2022-08-12T14:04:40Z</time>
      </trkpt>
      <trkpt lat="42.496785" lon="2.410997">
        <ele>1700.053</ele>
        <time>2022-08-12T14:04:44Z</time>
      </trkpt>
      <trkpt lat="42.496838" lon="2.411006">
        <ele>1700.060</ele>
        <time>2022-08-12T14:04:47Z</time>
      </trkpt>
      <trkpt lat="42.496876" lon="2.411055">
        <ele>1700.082</ele>
        <time>2022-08-12T14:04:51Z</time>
      </trkpt>
      <trkpt lat="42.496916" lon="2.411093">
        <ele>1700.315</ele>
        <time>2022-08-12T14:04:55Z</time>
      </trkpt>
      <trkpt lat="42.496962" lon="2.411107">
        <ele>1700.529</ele>
        <time>2022-08-12T14:04:59Z</time>
      </trkpt>
      <trkpt lat="42.497012" lon="2.411152">
        <ele>1700.900</ele>
        <time>2022-08-12T14:05:03Z</time>
      </trkpt>
      <trkpt lat="42.497048" lon="2.411204">
        <ele>1701.320</ele>
        <time>2022-08-12T14:05:07Z</time>
      </trkpt>
      <trkpt lat="42.497071" lon="2.411259">
        <ele>1701.709</ele>
        <time>2022-08-12T14:05:11Z</time>
      </trkpt>
      <trkpt lat="42.497074" lon="2.411323">
        <ele>1701.923</ele>
        <time>2022-08-12T14:05:15Z</time>
      </trkpt>
      <trkpt lat="42.497084" lon="2.411389">
        <ele>1702.133</ele>
        <time>2022-08-12T14:05:19Z</time>
      </trkpt>
      <trkpt lat="42.497104" lon="2.411446">
        <ele>1702.372</ele>
        <time>2022-08-12T14:05:22Z</time>
      </trkpt>
      <trkpt lat="42.497139" lon="2.411495">
        <ele>1702.666</ele>
        <time>2022-08-12T14:05:25Z</time>
      </trkpt>
      <trkpt lat="42.497161" lon="2.411426">
        <ele>1703.044</ele>
        <time>2022-08-12T14:05:31Z</time>
      </trkpt>
      <trkpt lat="42.497192" lon="2.411366">
        <ele>1703.231</ele>
        <time>2022-08-12T14:05:36Z</time>
      </trkpt>
      <trkpt lat="42.497212" lon="2.411305">
        <ele>1703.468</ele>
        <time>2022-08-12T14:05:41Z</time>
      </trkpt>
      <trkpt lat="42.497244" lon="2.411262">
        <ele>1703.540</ele>
        <time>2022-08-12T14:05:44Z</time>
      </trkpt>
      <trkpt lat="42.497273" lon="2.411205">
        <ele>1703.653</ele>
        <time>2022-08-12T14:05:47Z</time>
      </trkpt>
      <trkpt lat="42.497291" lon="2.411133">
        <ele>1703.629</ele>
        <time>2022-08-12T14:05:51Z</time>
      </trkpt>
      <trkpt lat="42.497297" lon="2.411068">
        <ele>1703.600</ele>
        <time>2022-08-12T14:05:55Z</time>
      </trkpt>
      <trkpt lat="42.497318" lon="2.411004">
        <ele>1703.620</ele>
        <time>2022-08-12T14:06:00Z</time>
      </trkpt>
      <trkpt lat="42.497347" lon="2.410945">
        <ele>1703.509</ele>
        <time>2022-08-12T14:06:05Z</time>
      </trkpt>
      <trkpt lat="42.497369" lon="2.410890">
        <ele>1703.673</ele>
        <time>2022-08-12T14:06:10Z</time>
      </trkpt>
      <trkpt lat="42.497391" lon="2.410826">
        <ele>1703.683</ele>
        <time>2022-08-12T14:06:15Z</time>
      </trkpt>
      <trkpt lat="42.497417" lon="2.410773">
        <ele>1703.712</ele>
        <time>2022-08-12T14:06:18Z</time>
      </trkpt>
      <trkpt lat="42.497423" lon="2.410702">
        <ele>1703.746</ele>
        <time>2022-08-12T14:06:21Z</time>
      </trkpt>
      <trkpt lat="42.497445" lon="2.410644">
        <ele>1703.844</ele>
        <time>2022-08-12T14:06:26Z</time>
      </trkpt>
      <trkpt lat="42.497462" lon="2.410584">
        <ele>1704.091</ele>
        <time>2022-08-12T14:06:30Z</time>
      </trkpt>
      <trkpt lat="42.497503" lon="2.410530">
        <ele>1704.448</ele>
        <time>2022-08-12T14:06:35Z</time>
      </trkpt>
      <trkpt lat="42.497503" lon="2.410469">
        <ele>1704.720</ele>
        <time>2022-08-12T14:06:39Z</time>
      </trkpt>
      <trkpt lat="42.497521" lon="2.410400">
        <ele>1704.843</ele>
        <time>2022-08-12T14:06:44Z</time>
      </trkpt>
      <trkpt lat="42.497538" lon="2.410340">
        <ele>1704.984</ele>
        <time>2022-08-12T14:06:50Z</time>
      </trkpt>
      <trkpt lat="42.497573" lon="2.410297">
        <ele>1704.907</ele>
        <time>2022-08-12T14:06:55Z</time>
      </trkpt>
      <trkpt lat="42.497590" lon="2.410231">
        <ele>1705.217</ele>
        <time>2022-08-12T14:06:59Z</time>
      </trkpt>
      <trkpt lat="42.497600" lon="2.410154">
        <ele>1705.509</ele>
        <time>2022-08-12T14:07:05Z</time>
      </trkpt>
      <trkpt lat="42.497604" lon="2.410085">
        <ele>1705.649</ele>
        <time>2022-08-12T14:07:08Z</time>
      </trkpt>
      <trkpt lat="42.497590" lon="2.409991">
        <ele>1705.719</ele>
        <time>2022-08-12T14:07:12Z</time>
      </trkpt>
      <trkpt lat="42.497615" lon="2.409927">
        <ele>1705.868</ele>
        <time>2022-08-12T14:07:18Z</time>
      </trkpt>
      <trkpt lat="42.497639" lon="2.409861">
        <ele>1706.062</ele>
        <time>2022-08-12T14:07:26Z</time>
      </trkpt>
      <trkpt lat="42.497684" lon="2.409817">
        <ele>1706.140</ele>
        <time>2022-08-12T14:07:31Z</time>
      </trkpt>
      <trkpt lat="42.497692" lon="2.409747">
        <ele>1706.187</ele>
        <time>2022-08-12T14:07:37Z</time>
      </trkpt>
      <trkpt lat="42.497742" lon="2.409744">
        <ele>1706.464</ele>
        <time>2022-08-12T14:07:45Z</time>
      </trkpt>
      <trkpt lat="42.497790" lon="2.409702">
        <ele>1707.416</ele>
        <time>2022-08-12T14:07:49Z</time>
      </trkpt>
      <trkpt lat="42.497820" lon="2.409657">
        <ele>1707.439</ele>
        <time>2022-08-12T14:07:53Z</time>
      </trkpt>
      <trkpt lat="42.497851" lon="2.409606">
        <ele>1707.622</ele>
        <time>2022-08-12T14:07:59Z</time>
      </trkpt>
      <trkpt lat="42.497880" lon="2.409558">
        <ele>1707.962</ele>
        <time>2022-08-12T14:08:02Z</time>
      </trkpt>
      <trkpt lat="42.497927" lon="2.409524">
        <ele>1708.108</ele>
        <time>2022-08-12T14:08:06Z</time>
      </trkpt>
      <trkpt lat="42.497981" lon="2.409494">
        <ele>1708.209</ele>
        <time>2022-08-12T14:08:10Z</time>
      </trkpt>
      <trkpt lat="42.498022" lon="2.409464">
        <ele>1708.313</ele>
        <time>2022-08-12T14:08:13Z</time>
      </trkpt>
      <trkpt lat="42.498068" lon="2.409444">
        <ele>1708.493</ele>
        <time>2022-08-12T14:08:17Z</time>
      </trkpt>
      <trkpt lat="42.498119" lon="2.409412">
        <ele>1708.452</ele>
        <time>2022-08-12T14:08:21Z</time>
      </trkpt>
      <trkpt lat="42.498172" lon="2.409383">
        <ele>1708.456</ele>
        <time>2022-08-12T14:08:26Z</time>
      </trkpt>
      <trkpt lat="42.498224" lon="2.409362">
        <ele>1708.544</ele>
        <time>2022-08-12T14:08:29Z</time>
      </trkpt>
      <trkpt lat="42.498269" lon="2.409335">
        <ele>1708.621</ele>
        <time>2022-08-12T14:08:35Z</time>
      </trkpt>
      <trkpt lat="42.498321" lon="2.409364">
        <ele>1708.658</ele>
        <time>2022-08-12T14:08:41Z</time>
      </trkpt>
      <trkpt lat="42.498365" lon="2.409332">
        <ele>1708.690</ele>
        <time>2022-08-12T14:08:46Z</time>
      </trkpt>
      <trkpt lat="42.498404" lon="2.409294">
        <ele>1708.683</ele>
        <time>2022-08-12T14:08:52Z</time>
      </trkpt>
      <trkpt lat="42.498454" lon="2.409296">
        <ele>1708.611</ele>
        <time>2022-08-12T14:08:56Z</time>
      </trkpt>
      <trkpt lat="42.498512" lon="2.409264">
        <ele>1708.821</ele>
        <time>2022-08-12T14:09:00Z</time>
      </trkpt>
      <trkpt lat="42.498555" lon="2.409246">
        <ele>1709.103</ele>
        <time>2022-08-12T14:09:04Z</time>
      </trkpt>
      <trkpt lat="42.498603" lon="2.409243">
        <ele>1709.309</ele>
        <time>2022-08-12T14:09:14Z</time>
      </trkpt>
      <trkpt lat="42.498650" lon="2.409184">
        <ele>1709.422</ele>
        <time>2022-08-12T14:09:18Z</time>
      </trkpt>
      <trkpt lat="42.498696" lon="2.409178">
        <ele>1709.442</ele>
        <time>2022-08-12T14:09:25Z</time>
      </trkpt>
      <trkpt lat="42.498745" lon="2.409178">
        <ele>1709.561</ele>
        <time>2022-08-12T14:09:31Z</time>
      </trkpt>
      <trkpt lat="42.498790" lon="2.409147">
        <ele>1709.835</ele>
        <time>2022-08-12T14:09:35Z</time>
      </trkpt>
      <trkpt lat="42.498868" lon="2.409139">
        <ele>1710.673</ele>
        <time>2022-08-12T14:09:39Z</time>
      </trkpt>
      <trkpt lat="42.498917" lon="2.409147">
        <ele>1710.720</ele>
        <time>2022-08-12T14:09:46Z</time>
      </trkpt>
      <trkpt lat="42.498961" lon="2.409100">
        <ele>1710.747</ele>
        <time>2022-08-12T14:09:50Z</time>
      </trkpt>
      <trkpt lat="42.498993" lon="2.409040">
        <ele>1711.279</ele>
        <time>2022-08-12T14:09:53Z</time>
      </trkpt>
      <trkpt lat="42.499027" lon="2.408980">
        <ele>1711.372</ele>
        <time>2022-08-12T14:09:57Z</time>
      </trkpt>
      <trkpt lat="42.499078" lon="2.408956">
        <ele>1711.484</ele>
        <time>2022-08-12T14:10:04Z</time>
      </trkpt>
      <trkpt lat="42.499130" lon="2.408954">
        <ele>1711.507</ele>
        <time>2022-08-12T14:10:08Z</time>
      </trkpt>
      <trkpt lat="42.499191" lon="2.408955">
        <ele>1711.817</ele>
        <time>2022-08-12T14:10:12Z</time>
      </trkpt>
      <trkpt lat="42.499238" lon="2.408936">
        <ele>1711.809</ele>
        <time>2022-08-12T14:10:15Z</time>
      </trkpt>
      <trkpt lat="42.499288" lon="2.408915">
        <ele>1711.829</ele>
        <time>2022-08-12T14:10:19Z</time>
      </trkpt>
      <trkpt lat="42.499339" lon="2.408892">
        <ele>1711.819</ele>
        <time>2022-08-12T14:10:24Z</time>
      </trkpt>
      <trkpt lat="42.499384" lon="2.408879">
        <ele>1712.088</ele>
        <time>2022-08-12T14:10:27Z</time>
      </trkpt>
      <trkpt lat="42.499434" lon="2.408854">
        <ele>1712.142</ele>
        <time>2022-08-12T14:10:34Z</time>
      </trkpt>
      <trkpt lat="42.499476" lon="2.408825">
        <ele>1712.160</ele>
        <time>2022-08-12T14:10:38Z</time>
      </trkpt>
      <trkpt lat="42.499527" lon="2.408814">
        <ele>1712.637</ele>
        <time>2022-08-12T14:10:42Z</time>
      </trkpt>
      <trkpt lat="42.499585" lon="2.408791">
        <ele>1713.244</ele>
        <time>2022-08-12T14:10:45Z</time>
      </trkpt>
      <trkpt lat="42.499632" lon="2.408772">
        <ele>1713.326</ele>
        <time>2022-08-12T14:10:48Z</time>
      </trkpt>
      <trkpt lat="42.499677" lon="2.408764">
        <ele>1713.479</ele>
        <time>2022-08-12T14:10:51Z</time>
      </trkpt>
      <trkpt lat="42.499735" lon="2.408740">
        <ele>1713.582</ele>
        <time>2022-08-12T14:10:55Z</time>
      </trkpt>
      <trkpt lat="42.499779" lon="2.408705">
        <ele>1713.743</ele>
        <time>2022-08-12T14:10:58Z</time>
      </trkpt>
      <trkpt lat="42.499838" lon="2.408674">
        <ele>1714.217</ele>
        <time>2022-08-12T14:11:02Z</time>
      </trkpt>
      <trkpt lat="42.499884" lon="2.408647">
        <ele>1714.409</ele>
        <time>2022-08-12T14:11:09Z</time>
      </trkpt>
      <trkpt lat="42.499920" lon="2.408596">
        <ele>1714.499</ele>
        <time>2022-08-12T14:11:15Z</time>
      </trkpt>
      <trkpt lat="42.499954" lon="2.408537">
        <ele>1714.489</ele>
        <time>2022-08-12T14:11:19Z</time>
      </trkpt>
      <trkpt lat="42.499980" lon="2.408483">
        <ele>1714.458</ele>
        <time>2022-08-12T14:11:22Z</time>
      </trkpt>
      <trkpt lat="42.500024" lon="2.408467">
        <ele>1714.452</ele>
        <time>2022-08-12T14:11:31Z</time>
      </trkpt>
      <trkpt lat="42.500064" lon="2.408499">
        <ele>1714.030</ele>
        <time>2022-08-12T14:11:44Z</time>
      </trkpt>
      <trkpt lat="42.500089" lon="2.408550">
        <ele>1713.437</ele>
        <time>2022-08-12T14:12:02Z</time>
      </trkpt>
      <trkpt lat="42.500053" lon="2.408504">
        <ele>1713.114</ele>
        <time>2022-08-12T14:12:27Z</time>
      </trkpt>
      <trkpt lat="42.500101" lon="2.408500">
        <ele>1713.156</ele>
        <time>2022-08-12T14:12:56Z</time>
      </trkpt>
      <trkpt lat="42.500140" lon="2.408448">
        <ele>1713.089</ele>
        <time>2022-08-12T14:13:10Z</time>
      </trkpt>
      <trkpt lat="42.500185" lon="2.408414">
        <ele>1713.038</ele>
        <time>2022-08-12T14:13:13Z</time>
      </trkpt>
      <trkpt lat="42.500226" lon="2.408368">
        <ele>1712.970</ele>
        <time>2022-08-12T14:13:16Z</time>
      </trkpt>
      <trkpt lat="42.500277" lon="2.408335">
        <ele>1712.717</ele>
        <time>2022-08-12T14:13:20Z</time>
      </trkpt>
      <trkpt lat="42.500336" lon="2.408322">
        <ele>1712.109</ele>
        <time>2022-08-12T14:13:24Z</time>
      </trkpt>
      <trkpt lat="42.500389" lon="2.408302">
        <ele>1710.884</ele>
        <time>2022-08-12T14:13:28Z</time>
      </trkpt>
      <trkpt lat="42.500445" lon="2.408317">
        <ele>1710.174</ele>
        <time>2022-08-12T14:13:32Z</time>
      </trkpt>
      <trkpt lat="42.500504" lon="2.408320">
        <ele>1708.273</ele>
        <time>2022-08-12T14:13:36Z</time>
      </trkpt>
      <trkpt lat="42.500555" lon="2.408294">
        <ele>1707.047</ele>
        <time>2022-08-12T14:13:39Z</time>
      </trkpt>
      <trkpt lat="42.500596" lon="2.408266">
        <ele>1706.355</ele>
        <time>2022-08-12T14:13:42Z</time>
      </trkpt>
      <trkpt lat="42.500645" lon="2.408277">
        <ele>1705.992</ele>
        <time>2022-08-12T14:13:45Z</time>
      </trkpt>
      <trkpt lat="42.500710" lon="2.408268">
        <ele>1704.359</ele>
        <time>2022-08-12T14:13:49Z</time>
      </trkpt>
      <trkpt lat="42.500759" lon="2.408235">
        <ele>1703.441</ele>
        <time>2022-08-12T14:13:53Z</time>
      </trkpt>
      <trkpt lat="42.500814" lon="2.408188">
        <ele>1702.644</ele>
        <time>2022-08-12T14:13:57Z</time>
      </trkpt>
      <trkpt lat="42.500856" lon="2.408149">
        <ele>1701.175</ele>
        <time>2022-08-12T14:14:00Z</time>
      </trkpt>
      <trkpt lat="42.500902" lon="2.408124">
        <ele>1700.428</ele>
        <time>2022-08-12T14:14:04Z</time>
      </trkpt>
      <trkpt lat="42.500959" lon="2.408127">
        <ele>1698.820</ele>
        <time>2022-08-12T14:14:09Z</time>
      </trkpt>
      <trkpt lat="42.501010" lon="2.408109">
        <ele>1698.009</ele>
        <time>2022-08-12T14:14:13Z</time>
      </trkpt>
      <trkpt lat="42.501054" lon="2.408074">
        <ele>1697.128</ele>
        <time>2022-08-12T14:14:16Z</time>
      </trkpt>
      <trkpt lat="42.501107" lon="2.408057">
        <ele>1695.818</ele>
        <time>2022-08-12T14:14:20Z</time>
      </trkpt>
      <trkpt lat="42.501150" lon="2.408023">
        <ele>1695.487</ele>
        <time>2022-08-12T14:14:25Z</time>
      </trkpt>
      <trkpt lat="42.501188" lon="2.407981">
        <ele>1693.891</ele>
        <time>2022-08-12T14:14:30Z</time>
      </trkpt>
      <trkpt lat="42.501207" lon="2.407922">
        <ele>1691.489</ele>
        <time>2022-08-12T14:14:34Z</time>
      </trkpt>
      <trkpt lat="42.501234" lon="2.407859">
        <ele>1690.016</ele>
        <time>2022-08-12T14:14:38Z</time>
      </trkpt>
      <trkpt lat="42.501272" lon="2.407807">
        <ele>1688.963</ele>
        <time>2022-08-12T14:14:42Z</time>
      </trkpt>
      <trkpt lat="42.501321" lon="2.407788">
        <ele>1687.995</ele>
        <time>2022-08-12T14:14:46Z</time>
      </trkpt>
      <trkpt lat="42.501371" lon="2.407784">
        <ele>1686.888</ele>
        <time>2022-08-12T14:14:50Z</time>
      </trkpt>
      <trkpt lat="42.501429" lon="2.407763">
        <ele>1685.727</ele>
        <time>2022-08-12T14:14:55Z</time>
      </trkpt>
      <trkpt lat="42.501477" lon="2.407762">
        <ele>1685.468</ele>
        <time>2022-08-12T14:15:00Z</time>
      </trkpt>
      <trkpt lat="42.501537" lon="2.407714">
        <ele>1685.414</ele>
        <time>2022-08-12T14:48:01Z</time>
      </trkpt>
      <trkpt lat="42.501485" lon="2.407734">
        <ele>1685.509</ele>
        <time>2022-08-12T14:48:08Z</time>
      </trkpt>
      <trkpt lat="42.501423" lon="2.407764">
        <ele>1686.083</ele>
        <time>2022-08-12T14:48:12Z</time>
      </trkpt>
      <trkpt lat="42.501355" lon="2.407771">
        <ele>1686.583</ele>
        <time>2022-08-12T14:48:15Z</time>
      </trkpt>
      <trkpt lat="42.501307" lon="2.407783">
        <ele>1686.592</ele>
        <time>2022-08-12T14:48:20Z</time>
      </trkpt>
      <trkpt lat="42.501265" lon="2.407755">
        <ele>1686.566</ele>
        <time>2022-08-12T14:48:24Z</time>
      </trkpt>
      <trkpt lat="42.501211" lon="2.407758">
        <ele>1686.474</ele>
        <time>2022-08-12T14:48:28Z</time>
      </trkpt>
      <trkpt lat="42.501166" lon="2.407740">
        <ele>1686.551</ele>
        <time>2022-08-12T14:48:32Z</time>
      </trkpt>
      <trkpt lat="42.501122" lon="2.407698">
        <ele>1686.688</ele>
        <time>2022-08-12T14:48:37Z</time>
      </trkpt>
      <trkpt lat="42.501090" lon="2.407648">
        <ele>1686.690</ele>
        <time>2022-08-12T14:48:41Z</time>
      </trkpt>
      <trkpt lat="42.501058" lon="2.407590">
        <ele>1686.663</ele>
        <time>2022-08-12T14:48:46Z</time>
      </trkpt>
      <trkpt lat="42.501020" lon="2.407532">
        <ele>1686.446</ele>
        <time>2022-08-12T14:48:50Z</time>
      </trkpt>
      <trkpt lat="42.500975" lon="2.407504">
        <ele>1686.388</ele>
        <time>2022-08-12T14:48:54Z</time>
      </trkpt>
      <trkpt lat="42.500936" lon="2.407466">
        <ele>1685.616</ele>
        <time>2022-08-12T14:48:58Z</time>
      </trkpt>
      <trkpt lat="42.500893" lon="2.407403">
        <ele>1684.909</ele>
        <time>2022-08-12T14:49:01Z</time>
      </trkpt>
      <trkpt lat="42.500869" lon="2.407334">
        <ele>1684.985</ele>
        <time>2022-08-12T14:49:04Z</time>
      </trkpt>
      <trkpt lat="42.500825" lon="2.407292">
        <ele>1684.525</ele>
        <time>2022-08-12T14:49:08Z</time>
      </trkpt>
      <trkpt lat="42.500776" lon="2.407271">
        <ele>1684.414</ele>
        <time>2022-08-12T14:49:12Z</time>
      </trkpt>
      <trkpt lat="42.500743" lon="2.407225">
        <ele>1684.448</ele>
        <time>2022-08-12T14:49:16Z</time>
      </trkpt>
      <trkpt lat="42.500732" lon="2.407144">
        <ele>1684.436</ele>
        <time>2022-08-12T14:49:19Z</time>
      </trkpt>
      <trkpt lat="42.500712" lon="2.407083">
        <ele>1684.493</ele>
        <time>2022-08-12T14:49:22Z</time>
      </trkpt>
      <trkpt lat="42.500682" lon="2.407028">
        <ele>1684.450</ele>
        <time>2022-08-12T14:49:29Z</time>
      </trkpt>
      <trkpt lat="42.500678" lon="2.406958">
        <ele>1684.482</ele>
        <time>2022-08-12T14:49:33Z</time>
      </trkpt>
      <trkpt lat="42.500672" lon="2.406889">
        <ele>1684.115</ele>
        <time>2022-08-12T14:49:37Z</time>
      </trkpt>
      <trkpt lat="42.500660" lon="2.406816">
        <ele>1683.237</ele>
        <time>2022-08-12T14:49:43Z</time>
      </trkpt>
      <trkpt lat="42.500659" lon="2.406741">
        <ele>1682.349</ele>
        <time>2022-08-12T14:49:47Z</time>
      </trkpt>
      <trkpt lat="42.500652" lon="2.406667">
        <ele>1681.513</ele>
        <time>2022-08-12T14:49:50Z</time>
      </trkpt>
      <trkpt lat="42.500628" lon="2.406610">
        <ele>1680.709</ele>
        <time>2022-08-12T14:49:53Z</time>
      </trkpt>
      <trkpt lat="42.500613" lon="2.406547">
        <ele>1679.844</ele>
        <time>2022-08-12T14:49:57Z</time>
      </trkpt>
      <trkpt lat="42.500588" lon="2.406488">
        <ele>1679.084</ele>
        <time>2022-08-12T14:50:03Z</time>
      </trkpt>
      <trkpt lat="42.500578" lon="2.406418">
        <ele>1678.483</ele>
        <time>2022-08-12T14:50:09Z</time>
      </trkpt>
      <trkpt lat="42.500562" lon="2.406359">
        <ele>1677.567</ele>
        <time>2022-08-12T14:50:12Z</time>
      </trkpt>
      <trkpt lat="42.500566" lon="2.406287">
        <ele>1676.895</ele>
        <time>2022-08-12T14:50:18Z</time>
      </trkpt>
      <trkpt lat="42.500602" lon="2.406239">
        <ele>1676.052</ele>
        <time>2022-08-12T14:50:24Z</time>
      </trkpt>
      <trkpt lat="42.500628" lon="2.406177">
        <ele>1674.739</ele>
        <time>2022-08-12T14:50:31Z</time>
      </trkpt>
      <trkpt lat="42.500658" lon="2.406129">
        <ele>1673.381</ele>
        <time>2022-08-12T14:50:35Z</time>
      </trkpt>
      <trkpt lat="42.500690" lon="2.406060">
        <ele>1672.174</ele>
        <time>2022-08-12T14:50:40Z</time>
      </trkpt>
      <trkpt lat="42.500725" lon="2.405995">
        <ele>1671.262</ele>
        <time>2022-08-12T14:50:43Z</time>
      </trkpt>
      <trkpt lat="42.500740" lon="2.405937">
        <ele>1670.483</ele>
        <time>2022-08-12T14:50:46Z</time>
      </trkpt>
      <trkpt lat="42.500754" lon="2.405864">
        <ele>1669.411</ele>
        <time>2022-08-12T14:50:50Z</time>
      </trkpt>
      <trkpt lat="42.500780" lon="2.405794">
        <ele>1667.609</ele>
        <time>2022-08-12T14:50:55Z</time>
      </trkpt>
      <trkpt lat="42.500792" lon="2.405731">
        <ele>1667.087</ele>
        <time>2022-08-12T14:51:01Z</time>
      </trkpt>
      <trkpt lat="42.500800" lon="2.405668">
        <ele>1665.997</ele>
        <time>2022-08-12T14:51:06Z</time>
      </trkpt>
      <trkpt lat="42.500823" lon="2.405605">
        <ele>1663.986</ele>
        <time>2022-08-12T14:51:10Z</time>
      </trkpt>
      <trkpt lat="42.500833" lon="2.405542">
        <ele>1661.820</ele>
        <time>2022-08-12T14:51:13Z</time>
      </trkpt>
      <trkpt lat="42.500845" lon="2.405478">
        <ele>1660.758</ele>
        <time>2022-08-12T14:51:17Z</time>
      </trkpt>
      <trkpt lat="42.500852" lon="2.405402">
        <ele>1659.835</ele>
        <time>2022-08-12T14:51:21Z</time>
      </trkpt>
      <trkpt lat="42.500862" lon="2.405335">
        <ele>1658.682</ele>
        <time>2022-08-12T14:51:25Z</time>
      </trkpt>
      <trkpt lat="42.500855" lon="2.405265">
        <ele>1657.494</ele>
        <time>2022-08-12T14:51:31Z</time>
      </trkpt>
      <trkpt lat="42.500852" lon="2.405203">
        <ele>1656.497</ele>
        <time>2022-08-12T14:51:34Z</time>
      </trkpt>
      <trkpt lat="42.500844" lon="2.405130">
        <ele>1655.783</ele>
        <time>2022-08-12T14:51:38Z</time>
      </trkpt>
      <trkpt lat="42.500837" lon="2.405067">
        <ele>1655.125</ele>
        <time>2022-08-12T14:51:41Z</time>
      </trkpt>
      <trkpt lat="42.500816" lon="2.405005">
        <ele>1654.417</ele>
        <time>2022-08-12T14:51:45Z</time>
      </trkpt>
      <trkpt lat="42.500798" lon="2.404941">
        <ele>1653.809</ele>
        <time>2022-08-12T14:51:50Z</time>
      </trkpt>
      <trkpt lat="42.500765" lon="2.404892">
        <ele>1653.199</ele>
        <time>2022-08-12T14:51:56Z</time>
      </trkpt>
      <trkpt lat="42.500759" lon="2.404820">
        <ele>1652.319</ele>
        <time>2022-08-12T14:51:59Z</time>
      </trkpt>
      <trkpt lat="42.500748" lon="2.404745">
        <ele>1651.588</ele>
        <time>2022-08-12T14:52:03Z</time>
      </trkpt>
      <trkpt lat="42.500725" lon="2.404685">
        <ele>1650.832</ele>
        <time>2022-08-12T14:52:08Z</time>
      </trkpt>
      <trkpt lat="42.500701" lon="2.404623">
        <ele>1649.760</ele>
        <time>2022-08-12T14:52:15Z</time>
      </trkpt>
      <trkpt lat="42.500665" lon="2.404568">
        <ele>1648.427</ele>
        <time>2022-08-12T14:52:20Z</time>
      </trkpt>
      <trkpt lat="42.500648" lon="2.404505">
        <ele>1647.284</ele>
        <time>2022-08-12T14:52:24Z</time>
      </trkpt>
      <trkpt lat="42.500608" lon="2.404461">
        <ele>1645.986</ele>
        <time>2022-08-12T14:52:30Z</time>
      </trkpt>
      <trkpt lat="42.500569" lon="2.404423">
        <ele>1644.959</ele>
        <time>2022-08-12T14:52:34Z</time>
      </trkpt>
      <trkpt lat="42.500539" lon="2.404367">
        <ele>1644.264</ele>
        <time>2022-08-12T14:52:39Z</time>
      </trkpt>
      <trkpt lat="42.500490" lon="2.404353">
        <ele>1643.606</ele>
        <time>2022-08-12T14:52:44Z</time>
      </trkpt>
      <trkpt lat="42.500443" lon="2.404362">
        <ele>1642.916</ele>
        <time>2022-08-12T14:52:48Z</time>
      </trkpt>
      <trkpt lat="42.500389" lon="2.404351">
        <ele>1641.909</ele>
        <time>2022-08-12T14:52:51Z</time>
      </trkpt>
      <trkpt lat="42.500342" lon="2.404325">
        <ele>1641.067</ele>
        <time>2022-08-12T14:52:55Z</time>
      </trkpt>
      <trkpt lat="42.500295" lon="2.404302">
        <ele>1640.587</ele>
        <time>2022-08-12T14:53:00Z</time>
      </trkpt>
      <trkpt lat="42.500250" lon="2.404293">
        <ele>1640.186</ele>
        <time>2022-08-12T14:53:04Z</time>
      </trkpt>
      <trkpt lat="42.500205" lon="2.404269">
        <ele>1639.240</ele>
        <time>2022-08-12T14:53:08Z</time>
      </trkpt>
      <trkpt lat="42.500161" lon="2.404230">
        <ele>1637.958</ele>
        <time>2022-08-12T14:53:11Z</time>
      </trkpt>
      <trkpt lat="42.500122" lon="2.404194">
        <ele>1637.095</ele>
        <time>2022-08-12T14:53:15Z</time>
      </trkpt>
      <trkpt lat="42.500081" lon="2.404149">
        <ele>1636.412</ele>
        <time>2022-08-12T14:53:20Z</time>
      </trkpt>
      <trkpt lat="42.500028" lon="2.404129">
        <ele>1635.084</ele>
        <time>2022-08-12T14:53:24Z</time>
      </trkpt>
      <trkpt lat="42.499978" lon="2.404117">
        <ele>1633.717</ele>
        <time>2022-08-12T14:53:28Z</time>
      </trkpt>
      <trkpt lat="42.499956" lon="2.404056">
        <ele>1633.473</ele>
        <time>2022-08-12T14:53:37Z</time>
      </trkpt>
      <trkpt lat="42.499932" lon="2.403997">
        <ele>1633.085</ele>
        <time>2022-08-12T14:53:42Z</time>
      </trkpt>
      <trkpt lat="42.499895" lon="2.403958">
        <ele>1632.513</ele>
        <time>2022-08-12T14:53:47Z</time>
      </trkpt>
      <trkpt lat="42.499861" lon="2.403905">
        <ele>1631.209</ele>
        <time>2022-08-12T14:53:50Z</time>
      </trkpt>
      <trkpt lat="42.499833" lon="2.403851">
        <ele>1630.688</ele>
        <time>2022-08-12T14:54:05Z</time>
      </trkpt>
      <trkpt lat="42.499867" lon="2.403767">
        <ele>1630.158</ele>
        <time>2022-08-12T14:54:11Z</time>
      </trkpt>
      <trkpt lat="42.499902" lon="2.403717">
        <ele>1629.787</ele>
        <time>2022-08-12T14:54:15Z</time>
      </trkpt>
      <trkpt lat="42.499943" lon="2.403653">
        <ele>1629.261</ele>
        <time>2022-08-12T14:54:20Z</time>
      </trkpt>
      <trkpt lat="42.499975" lon="2.403606">
        <ele>1629.269</ele>
        <time>2022-08-12T14:54:23Z</time>
      </trkpt>
      <trkpt lat="42.500022" lon="2.403570">
        <ele>1628.546</ele>
        <time>2022-08-12T14:54:26Z</time>
      </trkpt>
      <trkpt lat="42.500058" lon="2.403519">
        <ele>1628.093</ele>
        <time>2022-08-12T14:54:32Z</time>
      </trkpt>
      <trkpt lat="42.500088" lon="2.403461">
        <ele>1627.145</ele>
        <time>2022-08-12T14:54:38Z</time>
      </trkpt>
      <trkpt lat="42.500117" lon="2.403415">
        <ele>1626.128</ele>
        <time>2022-08-12T14:54:43Z</time>
      </trkpt>
      <trkpt lat="42.500147" lon="2.403348">
        <ele>1625.074</ele>
        <time>2022-08-12T14:54:48Z</time>
      </trkpt>
      <trkpt lat="42.500195" lon="2.403313">
        <ele>1623.956</ele>
        <time>2022-08-12T14:54:55Z</time>
      </trkpt>
      <trkpt lat="42.500239" lon="2.403295">
        <ele>1623.521</ele>
        <time>2022-08-12T14:55:00Z</time>
      </trkpt>
      <trkpt lat="42.500287" lon="2.403279">
        <ele>1622.909</ele>
        <time>2022-08-12T14:55:05Z</time>
      </trkpt>
      <trkpt lat="42.500333" lon="2.403245">
        <ele>1622.298</ele>
        <time>2022-08-12T14:55:10Z</time>
      </trkpt>
      <trkpt lat="42.500367" lon="2.403204">
        <ele>1621.858</ele>
        <time>2022-08-12T14:55:14Z</time>
      </trkpt>
      <trkpt lat="42.500394" lon="2.403155">
        <ele>1621.817</ele>
        <time>2022-08-12T14:55:17Z</time>
      </trkpt>
      <trkpt lat="42.500446" lon="2.403129">
        <ele>1621.821</ele>
        <time>2022-08-12T14:55:22Z</time>
      </trkpt>
      <trkpt lat="42.500485" lon="2.403093">
        <ele>1621.619</ele>
        <time>2022-08-12T14:55:26Z</time>
      </trkpt>
      <trkpt lat="42.500523" lon="2.403057">
        <ele>1621.566</ele>
        <time>2022-08-12T14:55:30Z</time>
      </trkpt>
      <trkpt lat="42.500566" lon="2.403021">
        <ele>1621.263</ele>
        <time>2022-08-12T14:55:36Z</time>
      </trkpt>
      <trkpt lat="42.500609" lon="2.402995">
        <ele>1621.035</ele>
        <time>2022-08-12T14:55:40Z</time>
      </trkpt>
      <trkpt lat="42.500641" lon="2.402951">
        <ele>1620.828</ele>
        <time>2022-08-12T14:55:45Z</time>
      </trkpt>
      <trkpt lat="42.500687" lon="2.402957">
        <ele>1620.556</ele>
        <time>2022-08-12T14:55:52Z</time>
      </trkpt>
      <trkpt lat="42.500739" lon="2.402971">
        <ele>1620.359</ele>
        <time>2022-08-12T14:55:56Z</time>
      </trkpt>
      <trkpt lat="42.500790" lon="2.402931">
        <ele>1620.014</ele>
        <time>2022-08-12T14:56:01Z</time>
      </trkpt>
      <trkpt lat="42.500823" lon="2.402882">
        <ele>1619.309</ele>
        <time>2022-08-12T14:56:03Z</time>
      </trkpt>
      <trkpt lat="42.500861" lon="2.402838">
        <ele>1618.666</ele>
        <time>2022-08-12T14:56:07Z</time>
      </trkpt>
      <trkpt lat="42.500909" lon="2.402812">
        <ele>1618.116</ele>
        <time>2022-08-12T14:56:14Z</time>
      </trkpt>
      <trkpt lat="42.500955" lon="2.402770">
        <ele>1617.855</ele>
        <time>2022-08-12T14:56:20Z</time>
      </trkpt>
      <trkpt lat="42.501004" lon="2.402735">
        <ele>1617.399</ele>
        <time>2022-08-12T14:56:25Z</time>
      </trkpt>
      <trkpt lat="42.501044" lon="2.402699">
        <ele>1616.857</ele>
        <time>2022-08-12T14:56:30Z</time>
      </trkpt>
      <trkpt lat="42.501096" lon="2.402677">
        <ele>1616.574</ele>
        <time>2022-08-12T14:56:36Z</time>
      </trkpt>
      <trkpt lat="42.501137" lon="2.402635">
        <ele>1616.271</ele>
        <time>2022-08-12T14:56:40Z</time>
      </trkpt>
      <trkpt lat="42.501196" lon="2.402632">
        <ele>1615.913</ele>
        <time>2022-08-12T14:56:44Z</time>
      </trkpt>
      <trkpt lat="42.501242" lon="2.402614">
        <ele>1615.276</ele>
        <time>2022-08-12T14:56:48Z</time>
      </trkpt>
      <trkpt lat="42.501291" lon="2.402585">
        <ele>1614.781</ele>
        <time>2022-08-12T14:56:52Z</time>
      </trkpt>
      <trkpt lat="42.501336" lon="2.402551">
        <ele>1614.061</ele>
        <time>2022-08-12T14:56:57Z</time>
      </trkpt>
      <trkpt lat="42.501374" lon="2.402519">
        <ele>1613.317</ele>
        <time>2022-08-12T14:57:02Z</time>
      </trkpt>
      <trkpt lat="42.501433" lon="2.402512">
        <ele>1612.909</ele>
        <time>2022-08-12T14:57:09Z</time>
      </trkpt>
      <trkpt lat="42.501485" lon="2.402516">
        <ele>1612.489</ele>
        <time>2022-08-12T14:57:13Z</time>
      </trkpt>
      <trkpt lat="42.501533" lon="2.402513">
        <ele>1611.159</ele>
        <time>2022-08-12T14:57:17Z</time>
      </trkpt>
      <trkpt lat="42.501576" lon="2.402484">
        <ele>1609.878</ele>
        <time>2022-08-12T14:57:21Z</time>
      </trkpt>
      <trkpt lat="42.501606" lon="2.402433">
        <ele>1608.992</ele>
        <time>2022-08-12T14:57:24Z</time>
      </trkpt>
      <trkpt lat="42.501649" lon="2.402400">
        <ele>1607.820</ele>
        <time>2022-08-12T14:57:28Z</time>
      </trkpt>
      <trkpt lat="42.501698" lon="2.402374">
        <ele>1607.287</ele>
        <time>2022-08-12T14:57:32Z</time>
      </trkpt>
      <trkpt lat="42.501746" lon="2.402352">
        <ele>1606.494</ele>
        <time>2022-08-12T14:57:35Z</time>
      </trkpt>
      <trkpt lat="42.501786" lon="2.402287">
        <ele>1605.356</ele>
        <time>2022-08-12T14:57:38Z</time>
      </trkpt>
      <trkpt lat="42.501836" lon="2.402236">
        <ele>1604.629</ele>
        <time>2022-08-12T14:57:41Z</time>
      </trkpt>
      <trkpt lat="42.501880" lon="2.402186">
        <ele>1604.032</ele>
        <time>2022-08-12T14:57:45Z</time>
      </trkpt>
      <trkpt lat="42.501925" lon="2.402137">
        <ele>1603.292</ele>
        <time>2022-08-12T14:57:49Z</time>
      </trkpt>
      <trkpt lat="42.501955" lon="2.402076">
        <ele>1602.511</ele>
        <time>2022-08-12T14:57:53Z</time>
      </trkpt>
      <trkpt lat="42.501963" lon="2.402003">
        <ele>1601.509</ele>
        <time>2022-08-12T14:57:56Z</time>
      </trkpt>
      <trkpt lat="42.501985" lon="2.401948">
        <ele>1601.444</ele>
        <time>2022-08-12T14:58:01Z</time>
      </trkpt>
      <trkpt lat="42.502018" lon="2.401902">
        <ele>1601.034</ele>
        <time>2022-08-12T14:58:06Z</time>
      </trkpt>
      <trkpt lat="42.502054" lon="2.401861">
        <ele>1600.583</ele>
        <time>2022-08-12T14:58:13Z</time>
      </trkpt>
      <trkpt lat="42.502092" lon="2.401829">
        <ele>1600.377</ele>
        <time>2022-08-12T14:58:16Z</time>
      </trkpt>
      <trkpt lat="42.502127" lon="2.401791">
        <ele>1599.465</ele>
        <time>2022-08-12T14:58:19Z</time>
      </trkpt>
      <trkpt lat="42.502174" lon="2.401759">
        <ele>1598.652</ele>
        <time>2022-08-12T14:58:24Z</time>
      </trkpt>
      <trkpt lat="42.502206" lon="2.401702">
        <ele>1598.549</ele>
        <time>2022-08-12T14:58:28Z</time>
      </trkpt>
      <trkpt lat="42.502233" lon="2.401642">
        <ele>1598.121</ele>
        <time>2022-08-12T14:58:32Z</time>
      </trkpt>
      <trkpt lat="42.502277" lon="2.401618">
        <ele>1597.124</ele>
        <time>2022-08-12T14:58:40Z</time>
      </trkpt>
      <trkpt lat="42.502326" lon="2.401584">
        <ele>1596.299</ele>
        <time>2022-08-12T14:58:45Z</time>
      </trkpt>
      <trkpt lat="42.502386" lon="2.401563">
        <ele>1595.907</ele>
        <time>2022-08-12T14:58:50Z</time>
      </trkpt>
      <trkpt lat="42.502434" lon="2.401527">
        <ele>1595.827</ele>
        <time>2022-08-12T14:58:54Z</time>
      </trkpt>
      <trkpt lat="42.502470" lon="2.401489">
        <ele>1595.809</ele>
        <time>2022-08-12T14:58:58Z</time>
      </trkpt>
      <trkpt lat="42.502517" lon="2.401450">
        <ele>1595.740</ele>
        <time>2022-08-12T14:59:03Z</time>
      </trkpt>
      <trkpt lat="42.502551" lon="2.401398">
        <ele>1595.740</ele>
        <time>2022-08-12T14:59:06Z</time>
      </trkpt>
      <trkpt lat="42.502592" lon="2.401365">
        <ele>1595.379</ele>
        <time>2022-08-12T14:59:11Z</time>
      </trkpt>
      <trkpt lat="42.502622" lon="2.401312">
        <ele>1594.873</ele>
        <time>2022-08-12T14:59:14Z</time>
      </trkpt>
      <trkpt lat="42.502673" lon="2.401266">
        <ele>1594.191</ele>
        <time>2022-08-12T14:59:17Z</time>
      </trkpt>
      <trkpt lat="42.502712" lon="2.401212">
        <ele>1592.948</ele>
        <time>2022-08-12T14:59:21Z</time>
      </trkpt>
      <trkpt lat="42.502741" lon="2.401156">
        <ele>1592.095</ele>
        <time>2022-08-12T14:59:26Z</time>
      </trkpt>
      <trkpt lat="42.502736" lon="2.401089">
        <ele>1591.847</ele>
        <time>2022-08-12T14:59:30Z</time>
      </trkpt>
      <trkpt lat="42.502749" lon="2.401028">
        <ele>1590.970</ele>
        <time>2022-08-12T14:59:38Z</time>
      </trkpt>
      <trkpt lat="42.502762" lon="2.400959">
        <ele>1589.571</ele>
        <time>2022-08-12T14:59:41Z</time>
      </trkpt>
      <trkpt lat="42.502778" lon="2.400887">
        <ele>1588.041</ele>
        <time>2022-08-12T14:59:45Z</time>
      </trkpt>
      <trkpt lat="42.502806" lon="2.400818">
        <ele>1586.515</ele>
        <time>2022-08-12T14:59:51Z</time>
      </trkpt>
      <trkpt lat="42.502835" lon="2.400763">
        <ele>1585.709</ele>
        <time>2022-08-12T14:59:56Z</time>
      </trkpt>
      <trkpt lat="42.502887" lon="2.400723">
        <ele>1584.218</ele>
        <time>2022-08-12T15:00:00Z</time>
      </trkpt>
      <trkpt lat="42.502924" lon="2.400664">
        <ele>1583.118</ele>
        <time>2022-08-12T15:00:03Z</time>
      </trkpt>
      <trkpt lat="42.502937" lon="2.400596">
        <ele>1583.197</ele>
        <time>2022-08-12T15:00:06Z</time>
      </trkpt>
      <trkpt lat="42.502954" lon="2.400535">
        <ele>1583.191</ele>
        <time>2022-08-12T15:00:10Z</time>
      </trkpt>
      <trkpt lat="42.502997" lon="2.400498">
        <ele>1582.879</ele>
        <time>2022-08-12T15:00:16Z</time>
      </trkpt>
      <trkpt lat="42.503049" lon="2.400496">
        <ele>1582.366</ele>
        <time>2022-08-12T15:00:19Z</time>
      </trkpt>
      <trkpt lat="42.503100" lon="2.400479">
        <ele>1581.983</ele>
        <time>2022-08-12T15:00:23Z</time>
      </trkpt>
      <trkpt lat="42.503142" lon="2.400442">
        <ele>1581.695</ele>
        <time>2022-08-12T15:00:26Z</time>
      </trkpt>
      <trkpt lat="42.503194" lon="2.400413">
        <ele>1581.498</ele>
        <time>2022-08-12T15:00:30Z</time>
      </trkpt>
      <trkpt lat="42.503250" lon="2.400362">
        <ele>1580.247</ele>
        <time>2022-08-12T15:00:34Z</time>
      </trkpt>
      <trkpt lat="42.503265" lon="2.400300">
        <ele>1579.129</ele>
        <time>2022-08-12T15:00:37Z</time>
      </trkpt>
      <trkpt lat="42.503297" lon="2.400248">
        <ele>1577.821</ele>
        <time>2022-08-12T15:00:41Z</time>
      </trkpt>
      <trkpt lat="42.503330" lon="2.400198">
        <ele>1577.009</ele>
        <time>2022-08-12T15:00:44Z</time>
      </trkpt>
      <trkpt lat="42.503360" lon="2.400151">
        <ele>1576.725</ele>
        <time>2022-08-12T15:00:47Z</time>
      </trkpt>
      <trkpt lat="42.503380" lon="2.400095">
        <ele>1575.915</ele>
        <time>2022-08-12T15:00:49Z</time>
      </trkpt>
      <trkpt lat="42.503407" lon="2.400028">
        <ele>1575.364</ele>
        <time>2022-08-12T15:00:53Z</time>
      </trkpt>
      <trkpt lat="42.503436" lon="2.399973">
        <ele>1574.828</ele>
        <time>2022-08-12T15:00:57Z</time>
      </trkpt>
      <trkpt lat="42.503461" lon="2.399913">
        <ele>1573.976</ele>
        <time>2022-08-12T15:01:02Z</time>
      </trkpt>
      <trkpt lat="42.503473" lon="2.399834">
        <ele>1573.063</ele>
        <time>2022-08-12T15:01:07Z</time>
      </trkpt>
      <trkpt lat="42.503484" lon="2.399773">
        <ele>1572.120</ele>
        <time>2022-08-12T15:01:09Z</time>
      </trkpt>
      <trkpt lat="42.503513" lon="2.399707">
        <ele>1571.122</ele>
        <time>2022-08-12T15:01:14Z</time>
      </trkpt>
      <trkpt lat="42.503531" lon="2.399642">
        <ele>1570.525</ele>
        <time>2022-08-12T15:01:18Z</time>
      </trkpt>
      <trkpt lat="42.503549" lon="2.399576">
        <ele>1569.965</ele>
        <time>2022-08-12T15:01:22Z</time>
      </trkpt>
      <trkpt lat="42.503558" lon="2.399503">
        <ele>1569.268</ele>
        <time>2022-08-12T15:01:26Z</time>
      </trkpt>
      <trkpt lat="42.503576" lon="2.399446">
        <ele>1568.414</ele>
        <time>2022-08-12T15:01:30Z</time>
      </trkpt>
      <trkpt lat="42.503596" lon="2.399375">
        <ele>1567.509</ele>
        <time>2022-08-12T15:01:34Z</time>
      </trkpt>
      <trkpt lat="42.503611" lon="2.399311">
        <ele>1566.487</ele>
        <time>2022-08-12T15:01:40Z</time>
      </trkpt>
      <trkpt lat="42.503601" lon="2.399234">
        <ele>1565.047</ele>
        <time>2022-08-12T15:01:44Z</time>
      </trkpt>
      <trkpt lat="42.503591" lon="2.399164">
        <ele>1563.946</ele>
        <time>2022-08-12T15:01:47Z</time>
      </trkpt>
      <trkpt lat="42.503587" lon="2.399103">
        <ele>1563.140</ele>
        <time>2022-08-12T15:01:50Z</time>
      </trkpt>
      <trkpt lat="42.503587" lon="2.399039">
        <ele>1562.488</ele>
        <time>2022-08-12T15:01:54Z</time>
      </trkpt>
      <trkpt lat="42.503578" lon="2.398963">
        <ele>1561.655</ele>
        <time>2022-08-12T15:01:58Z</time>
      </trkpt>
      <trkpt lat="42.503564" lon="2.398889">
        <ele>1560.642</ele>
        <time>2022-08-12T15:02:03Z</time>
      </trkpt>
      <trkpt lat="42.503551" lon="2.398829">
        <ele>1559.464</ele>
        <time>2022-08-12T15:02:06Z</time>
      </trkpt>
      <trkpt lat="42.503544" lon="2.398762">
        <ele>1558.817</ele>
        <time>2022-08-12T15:02:10Z</time>
      </trkpt>
      <trkpt lat="42.503547" lon="2.398699">
        <ele>1558.498</ele>
        <time>2022-08-12T15:02:15Z</time>
      </trkpt>
      <trkpt lat="42.503546" lon="2.398632">
        <ele>1557.515</ele>
        <time>2022-08-12T15:02:20Z</time>
      </trkpt>
      <trkpt lat="42.503526" lon="2.398569">
        <ele>1556.726</ele>
        <time>2022-08-12T15:02:23Z</time>
      </trkpt>
      <trkpt lat="42.503501" lon="2.398505">
        <ele>1556.009</ele>
        <time>2022-08-12T15:02:26Z</time>
      </trkpt>
      <trkpt lat="42.503487" lon="2.398441">
        <ele>1555.680</ele>
        <time>2022-08-12T15:02:30Z</time>
      </trkpt>
      <trkpt lat="42.503483" lon="2.398377">
        <ele>1555.570</ele>
        <time>2022-08-12T15:02:33Z</time>
      </trkpt>
      <trkpt lat="42.503471" lon="2.398305">
        <ele>1555.119</ele>
        <time>2022-08-12T15:02:35Z</time>
      </trkpt>
      <trkpt lat="42.503457" lon="2.398244">
        <ele>1554.713</ele>
        <time>2022-08-12T15:02:37Z</time>
      </trkpt>
      <trkpt lat="42.503436" lon="2.398172">
        <ele>1554.651</ele>
        <time>2022-08-12T15:02:40Z</time>
      </trkpt>
      <trkpt lat="42.503433" lon="2.398098">
        <ele>1554.348</ele>
        <time>2022-08-12T15:02:45Z</time>
      </trkpt>
      <trkpt lat="42.503405" lon="2.398037">
        <ele>1554.155</ele>
        <time>2022-08-12T15:02:49Z</time>
      </trkpt>
      <trkpt lat="42.503366" lon="2.397993">
        <ele>1553.957</ele>
        <time>2022-08-12T15:02:54Z</time>
      </trkpt>
      <trkpt lat="42.503320" lon="2.397957">
        <ele>1553.470</ele>
        <time>2022-08-12T15:03:00Z</time>
      </trkpt>
      <trkpt lat="42.503271" lon="2.397935">
        <ele>1552.829</ele>
        <time>2022-08-12T15:03:06Z</time>
      </trkpt>
      <trkpt lat="42.503214" lon="2.397937">
        <ele>1552.000</ele>
        <time>2022-08-12T15:03:13Z</time>
      </trkpt>
      <trkpt lat="42.503166" lon="2.397948">
        <ele>1550.920</ele>
        <time>2022-08-12T15:03:19Z</time>
      </trkpt>
      <trkpt lat="42.503115" lon="2.397958">
        <ele>1550.009</ele>
        <time>2022-08-12T15:03:23Z</time>
      </trkpt>
      <trkpt lat="42.503066" lon="2.397948">
        <ele>1549.773</ele>
        <time>2022-08-12T15:03:27Z</time>
      </trkpt>
      <trkpt lat="42.503039" lon="2.397895">
        <ele>1549.513</ele>
        <time>2022-08-12T15:03:34Z</time>
      </trkpt>
      <trkpt lat="42.503037" lon="2.397828">
        <ele>1548.692</ele>
        <time>2022-08-12T15:03:42Z</time>
      </trkpt>
      <trkpt lat="42.503011" lon="2.397763">
        <ele>1546.816</ele>
        <time>2022-08-12T15:03:47Z</time>
      </trkpt>
      <trkpt lat="42.503004" lon="2.397697">
        <ele>1545.084</ele>
        <time>2022-08-12T15:03:51Z</time>
      </trkpt>
      <trkpt lat="42.502972" lon="2.397655">
        <ele>1544.151</ele>
        <time>2022-08-12T15:03:56Z</time>
      </trkpt>
      <trkpt lat="42.502938" lon="2.397600">
        <ele>1543.878</ele>
        <time>2022-08-12T15:04:03Z</time>
      </trkpt>
      <trkpt lat="42.502981" lon="2.397625">
        <ele>1543.570</ele>
        <time>2022-08-12T15:04:17Z</time>
      </trkpt>
      <trkpt lat="42.503033" lon="2.397629">
        <ele>1543.283</ele>
        <time>2022-08-12T15:04:20Z</time>
      </trkpt>
      <trkpt lat="42.503067" lon="2.397580">
        <ele>1542.888</ele>
        <time>2022-08-12T15:04:25Z</time>
      </trkpt>
      <trkpt lat="42.503115" lon="2.397564">
        <ele>1541.824</ele>
        <time>2022-08-12T15:04:30Z</time>
      </trkpt>
      <trkpt lat="42.503155" lon="2.397534">
        <ele>1540.726</ele>
        <time>2022-08-12T15:04:33Z</time>
      </trkpt>
      <trkpt lat="42.503192" lon="2.397474">
        <ele>1539.809</ele>
        <time>2022-08-12T15:04:37Z</time>
      </trkpt>
      <trkpt lat="42.503220" lon="2.397390">
        <ele>1539.069</ele>
        <time>2022-08-12T15:04:39Z</time>
      </trkpt>
      <trkpt lat="42.503237" lon="2.397319">
        <ele>1538.989</ele>
        <time>2022-08-12T15:04:42Z</time>
      </trkpt>
      <trkpt lat="42.503285" lon="2.397287">
        <ele>1538.938</ele>
        <time>2022-08-12T15:04:55Z</time>
      </trkpt>
      <trkpt lat="42.503335" lon="2.397272">
        <ele>1538.862</ele>
        <time>2022-08-12T15:04:59Z</time>
      </trkpt>
      <trkpt lat="42.503382" lon="2.397223">
        <ele>1537.840</ele>
        <time>2022-08-12T15:05:02Z</time>
      </trkpt>
      <trkpt lat="42.503423" lon="2.397185">
        <ele>1537.757</ele>
        <time>2022-08-12T15:05:06Z</time>
      </trkpt>
      <trkpt lat="42.503465" lon="2.397142">
        <ele>1537.124</ele>
        <time>2022-08-12T15:05:09Z</time>
      </trkpt>
      <trkpt lat="42.503503" lon="2.397099">
        <ele>1536.596</ele>
        <time>2022-08-12T15:05:12Z</time>
      </trkpt>
      <trkpt lat="42.503546" lon="2.397065">
        <ele>1536.279</ele>
        <time>2022-08-12T15:05:15Z</time>
      </trkpt>
      <trkpt lat="42.503589" lon="2.397016">
        <ele>1535.936</ele>
        <time>2022-08-12T15:05:18Z</time>
      </trkpt>
      <trkpt lat="42.503629" lon="2.396951">
        <ele>1535.717</ele>
        <time>2022-08-12T15:05:22Z</time>
      </trkpt>
      <trkpt lat="42.503672" lon="2.396910">
        <ele>1535.418</ele>
        <time>2022-08-12T15:05:28Z</time>
      </trkpt>
      <trkpt lat="42.503740" lon="2.396915">
        <ele>1535.009</ele>
        <time>2022-08-12T15:05:33Z</time>
      </trkpt>
      <trkpt lat="42.503789" lon="2.396906">
        <ele>1534.694</ele>
        <time>2022-08-12T15:05:36Z</time>
      </trkpt>
      <trkpt lat="42.503838" lon="2.396892">
        <ele>1534.284</ele>
        <time>2022-08-12T15:05:39Z</time>
      </trkpt>
      <trkpt lat="42.503885" lon="2.396872">
        <ele>1534.133</ele>
        <time>2022-08-12T15:05:43Z</time>
      </trkpt>
      <trkpt lat="42.503930" lon="2.396853">
        <ele>1533.657</ele>
        <time>2022-08-12T15:05:47Z</time>
      </trkpt>
      <trkpt lat="42.503976" lon="2.396840">
        <ele>1533.175</ele>
        <time>2022-08-12T15:05:50Z</time>
      </trkpt>
      <trkpt lat="42.504021" lon="2.396840">
        <ele>1532.992</ele>
        <time>2022-08-12T15:05:53Z</time>
      </trkpt>
      <trkpt lat="42.504071" lon="2.396835">
        <ele>1532.749</ele>
        <time>2022-08-12T15:05:57Z</time>
      </trkpt>
      <trkpt lat="42.504118" lon="2.396825">
        <ele>1532.451</ele>
        <time>2022-08-12T15:06:01Z</time>
      </trkpt>
      <trkpt lat="42.504159" lon="2.396774">
        <ele>1531.954</ele>
        <time>2022-08-12T15:06:09Z</time>
      </trkpt>
      <trkpt lat="42.504193" lon="2.396721">
        <ele>1531.556</ele>
        <time>2022-08-12T15:06:12Z</time>
      </trkpt>
      <trkpt lat="42.504223" lon="2.396664">
        <ele>1531.359</ele>
        <time>2022-08-12T15:06:14Z</time>
      </trkpt>
      <trkpt lat="42.504260" lon="2.396611">
        <ele>1531.214</ele>
        <time>2022-08-12T15:06:17Z</time>
      </trkpt>
      <trkpt lat="42.504300" lon="2.396552">
        <ele>1531.009</ele>
        <time>2022-08-12T15:06:20Z</time>
      </trkpt>
      <trkpt lat="42.504334" lon="2.396505">
        <ele>1530.986</ele>
        <time>2022-08-12T15:06:23Z</time>
      </trkpt>
      <trkpt lat="42.504367" lon="2.396441">
        <ele>1530.816</ele>
        <time>2022-08-12T15:06:26Z</time>
      </trkpt>
      <trkpt lat="42.504421" lon="2.396422">
        <ele>1530.325</ele>
        <time>2022-08-12T15:06:30Z</time>
      </trkpt>
      <trkpt lat="42.504477" lon="2.396419">
        <ele>1530.279</ele>
        <time>2022-08-12T15:06:34Z</time>
      </trkpt>
      <trkpt lat="42.504532" lon="2.396401">
        <ele>1529.287</ele>
        <time>2022-08-12T15:06:38Z</time>
      </trkpt>
      <trkpt lat="42.504574" lon="2.396377">
        <ele>1528.894</ele>
        <time>2022-08-12T15:06:42Z</time>
      </trkpt>
      <trkpt lat="42.504620" lon="2.396337">
        <ele>1528.691</ele>
        <time>2022-08-12T15:06:46Z</time>
      </trkpt>
      <trkpt lat="42.504671" lon="2.396299">
        <ele>1528.373</ele>
        <time>2022-08-12T15:06:50Z</time>
      </trkpt>
      <trkpt lat="42.504731" lon="2.396272">
        <ele>1528.016</ele>
        <time>2022-08-12T15:06:54Z</time>
      </trkpt>
      <trkpt lat="42.504780" lon="2.396259">
        <ele>1527.554</ele>
        <time>2022-08-12T15:06:57Z</time>
      </trkpt>
      <trkpt lat="42.504828" lon="2.396243">
        <ele>1527.156</ele>
        <time>2022-08-12T15:07:02Z</time>
      </trkpt>
      <trkpt lat="42.504878" lon="2.396233">
        <ele>1526.611</ele>
        <time>2022-08-12T15:07:06Z</time>
      </trkpt>
      <trkpt lat="42.504931" lon="2.396233">
        <ele>1526.609</ele>
        <time>2022-08-12T15:07:09Z</time>
      </trkpt>
      <trkpt lat="42.504976" lon="2.396242">
        <ele>1526.536</ele>
        <time>2022-08-12T15:07:12Z</time>
      </trkpt>
      <trkpt lat="42.505032" lon="2.396222">
        <ele>1526.486</ele>
        <time>2022-08-12T15:07:16Z</time>
      </trkpt>
      <trkpt lat="42.505085" lon="2.396204">
        <ele>1526.255</ele>
        <time>2022-08-12T15:07:20Z</time>
      </trkpt>
      <trkpt lat="42.505131" lon="2.396179">
        <ele>1526.219</ele>
        <time>2022-08-12T15:07:24Z</time>
      </trkpt>
      <trkpt lat="42.505169" lon="2.396135">
        <ele>1526.577</ele>
        <time>2022-08-12T15:07:27Z</time>
      </trkpt>
      <trkpt lat="42.505217" lon="2.396096">
        <ele>1526.484</ele>
        <time>2022-08-12T15:07:31Z</time>
      </trkpt>
      <trkpt lat="42.505266" lon="2.396094">
        <ele>1526.681</ele>
        <time>2022-08-12T15:07:36Z</time>
      </trkpt>
      <trkpt lat="42.505310" lon="2.396128">
        <ele>1526.633</ele>
        <time>2022-08-12T15:07:39Z</time>
      </trkpt>
      <trkpt lat="42.505358" lon="2.396163">
        <ele>1526.676</ele>
        <time>2022-08-12T15:07:43Z</time>
      </trkpt>
      <trkpt lat="42.505394" lon="2.396202">
        <ele>1526.243</ele>
        <time>2022-08-12T15:07:50Z</time>
      </trkpt>
      <trkpt lat="42.505445" lon="2.396244">
        <ele>1525.764</ele>
        <time>2022-08-12T15:07:56Z</time>
      </trkpt>
      <trkpt lat="42.505488" lon="2.396273">
        <ele>1525.010</ele>
        <time>2022-08-12T15:07:58Z</time>
      </trkpt>
      <trkpt lat="42.505524" lon="2.396317">
        <ele>1523.809</ele>
        <time>2022-08-12T15:08:02Z</time>
      </trkpt>
      <trkpt lat="42.505541" lon="2.396388">
        <ele>1523.135</ele>
        <time>2022-08-12T15:08:06Z</time>
      </trkpt>
      <trkpt lat="42.505539" lon="2.396457">
        <ele>1521.965</ele>
        <time>2022-08-12T15:08:12Z</time>
      </trkpt>
      <trkpt lat="42.505554" lon="2.396519">
        <ele>1520.564</ele>
        <time>2022-08-12T15:08:16Z</time>
      </trkpt>
      <trkpt lat="42.505607" lon="2.396522">
        <ele>1520.068</ele>
        <time>2022-08-12T15:08:33Z</time>
      </trkpt>
      <trkpt lat="42.505648" lon="2.396554">
        <ele>1519.636</ele>
        <time>2022-08-12T15:08:48Z</time>
      </trkpt>
      <trkpt lat="42.505687" lon="2.396513">
        <ele>1517.773</ele>
        <time>2022-08-12T15:08:52Z</time>
      </trkpt>
      <trkpt lat="42.505682" lon="2.396452">
        <ele>1514.180</ele>
        <time>2022-08-12T15:08:59Z</time>
      </trkpt>
      <trkpt lat="42.505728" lon="2.396498">
        <ele>1511.732</ele>
        <time>2022-08-12T15:09:11Z</time>
      </trkpt>
      <trkpt lat="42.505764" lon="2.396547">
        <ele>1510.635</ele>
        <time>2022-08-12T15:09:16Z</time>
      </trkpt>
      <trkpt lat="42.505806" lon="2.396587">
        <ele>1508.241</ele>
        <time>2022-08-12T15:09:23Z</time>
      </trkpt>
      <trkpt lat="42.505841" lon="2.396547">
        <ele>1505.381</ele>
        <time>2022-08-12T15:09:31Z</time>
      </trkpt>
      <trkpt lat="42.505832" lon="2.396481">
        <ele>1503.309</ele>
        <time>2022-08-12T15:09:35Z</time>
      </trkpt>
      <trkpt lat="42.505814" lon="2.396424">
        <ele>1501.609</ele>
        <time>2022-08-12T15:09:59Z</time>
      </trkpt>
      <trkpt lat="42.505871" lon="2.396427">
        <ele>1500.465</ele>
        <time>2022-08-12T15:10:11Z</time>
      </trkpt>
      <trkpt lat="42.505924" lon="2.396447">
        <ele>1498.345</ele>
        <time>2022-08-12T15:10:14Z</time>
      </trkpt>
      <trkpt lat="42.505967" lon="2.396481">
        <ele>1495.334</ele>
        <time>2022-08-12T15:10:18Z</time>
      </trkpt>
      <trkpt lat="42.505973" lon="2.396413">
        <ele>1493.558</ele>
        <time>2022-08-12T15:10:32Z</time>
      </trkpt>
      <trkpt lat="42.505963" lon="2.396345">
        <ele>1492.636</ele>
        <time>2022-08-12T15:10:37Z</time>
      </trkpt>
      <trkpt lat="42.505959" lon="2.396278">
        <ele>1490.193</ele>
        <time>2022-08-12T15:10:41Z</time>
      </trkpt>
      <trkpt lat="42.505939" lon="2.396208">
        <ele>1487.420</ele>
        <time>2022-08-12T15:10:45Z</time>
      </trkpt>
      <trkpt lat="42.505925" lon="2.396139">
        <ele>1486.732</ele>
        <time>2022-08-12T15:10:50Z</time>
      </trkpt>
      <trkpt lat="42.505909" lon="2.396071">
        <ele>1486.175</ele>
        <time>2022-08-12T15:10:54Z</time>
      </trkpt>
      <trkpt lat="42.505887" lon="2.396003">
        <ele>1485.081</ele>
        <time>2022-08-12T15:10:59Z</time>
      </trkpt>
      <trkpt lat="42.505870" lon="2.395942">
        <ele>1484.061</ele>
        <time>2022-08-12T15:11:03Z</time>
      </trkpt>
      <trkpt lat="42.505838" lon="2.395883">
        <ele>1483.617</ele>
        <time>2022-08-12T15:11:07Z</time>
      </trkpt>
      <trkpt lat="42.505813" lon="2.395811">
        <ele>1483.309</ele>
        <time>2022-08-12T15:11:11Z</time>
      </trkpt>
      <trkpt lat="42.505800" lon="2.395751">
        <ele>1483.129</ele>
        <time>2022-08-12T15:11:14Z</time>
      </trkpt>
      <trkpt lat="42.505771" lon="2.395671">
        <ele>1483.149</ele>
        <time>2022-08-12T15:11:18Z</time>
      </trkpt>
      <trkpt lat="42.505737" lon="2.395600">
        <ele>1483.038</ele>
        <time>2022-08-12T15:11:23Z</time>
      </trkpt>
      <trkpt lat="42.505710" lon="2.395542">
        <ele>1482.912</ele>
        <time>2022-08-12T15:11:27Z</time>
      </trkpt>
      <trkpt lat="42.505690" lon="2.395479">
        <ele>1482.490</ele>
        <time>2022-08-12T15:11:34Z</time>
      </trkpt>
      <trkpt lat="42.505659" lon="2.395425">
        <ele>1480.857</ele>
        <time>2022-08-12T15:11:38Z</time>
      </trkpt>
      <trkpt lat="42.505604" lon="2.395344">
        <ele>1480.014</ele>
        <time>2022-08-12T15:11:43Z</time>
      </trkpt>
      <trkpt lat="42.505571" lon="2.395299">
        <ele>1480.086</ele>
        <time>2022-08-12T15:11:46Z</time>
      </trkpt>
      <trkpt lat="42.505542" lon="2.395251">
        <ele>1480.019</ele>
        <time>2022-08-12T15:11:52Z</time>
      </trkpt>
      <trkpt lat="42.505581" lon="2.395293">
        <ele>1480.546</ele>
        <time>2022-08-12T15:12:07Z</time>
      </trkpt>
      <trkpt lat="42.505613" lon="2.395337">
        <ele>1480.388</ele>
        <time>2022-08-12T15:12:09Z</time>
      </trkpt>
      <trkpt lat="42.505676" lon="2.395374">
        <ele>1480.516</ele>
        <time>2022-08-12T15:12:11Z</time>
      </trkpt>
      <trkpt lat="42.505720" lon="2.395392">
        <ele>1480.509</ele>
        <time>2022-08-12T15:12:13Z</time>
      </trkpt>
      <trkpt lat="42.505765" lon="2.395409">
        <ele>1480.515</ele>
        <time>2022-08-12T15:12:17Z</time>
      </trkpt>
      <trkpt lat="42.505814" lon="2.395444">
        <ele>1480.515</ele>
        <time>2022-08-12T15:12:21Z</time>
      </trkpt>
      <trkpt lat="42.505856" lon="2.395493">
        <ele>1480.564</ele>
        <time>2022-08-12T15:12:25Z</time>
      </trkpt>
      <trkpt lat="42.505906" lon="2.395496">
        <ele>1480.558</ele>
        <time>2022-08-12T15:12:29Z</time>
      </trkpt>
      <trkpt lat="42.505957" lon="2.395498">
        <ele>1480.526</ele>
        <time>2022-08-12T15:12:36Z</time>
      </trkpt>
      <trkpt lat="42.506002" lon="2.395522">
        <ele>1480.533</ele>
        <time>2022-08-12T15:12:41Z</time>
      </trkpt>
      <trkpt lat="42.506060" lon="2.395543">
        <ele>1480.830</ele>
        <time>2022-08-12T15:12:47Z</time>
      </trkpt>
      <trkpt lat="42.506095" lon="2.395591">
        <ele>1480.862</ele>
        <time>2022-08-12T15:12:51Z</time>
      </trkpt>
      <trkpt lat="42.506143" lon="2.395598">
        <ele>1480.535</ele>
        <time>2022-08-12T15:12:55Z</time>
      </trkpt>
      <trkpt lat="42.506176" lon="2.395642">
        <ele>1480.513</ele>
        <time>2022-08-12T15:13:04Z</time>
      </trkpt>
      <trkpt lat="42.506205" lon="2.395575">
        <ele>1479.643</ele>
        <time>2022-08-12T15:13:10Z</time>
      </trkpt>
      <trkpt lat="42.506248" lon="2.395524">
        <ele>1479.107</ele>
        <time>2022-08-12T15:13:12Z</time>
      </trkpt>
      <trkpt lat="42.506283" lon="2.395472">
        <ele>1478.909</ele>
        <time>2022-08-12T15:13:14Z</time>
      </trkpt>
      <trkpt lat="42.506285" lon="2.395389">
        <ele>1478.542</ele>
        <time>2022-08-12T15:13:17Z</time>
      </trkpt>
      <trkpt lat="42.506304" lon="2.395311">
        <ele>1478.442</ele>
        <time>2022-08-12T15:13:21Z</time>
      </trkpt>
      <trkpt lat="42.506334" lon="2.395257">
        <ele>1478.341</ele>
        <time>2022-08-12T15:13:25Z</time>
      </trkpt>
      <trkpt lat="42.506371" lon="2.395215">
        <ele>1478.055</ele>
        <time>2022-08-12T15:13:28Z</time>
      </trkpt>
      <trkpt lat="42.506418" lon="2.395145">
        <ele>1477.933</ele>
        <time>2022-08-12T15:13:32Z</time>
      </trkpt>
      <trkpt lat="42.506450" lon="2.395087">
        <ele>1477.820</ele>
        <time>2022-08-12T15:13:36Z</time>
      </trkpt>
      <trkpt lat="42.506472" lon="2.395026">
        <ele>1477.767</ele>
        <time>2022-08-12T15:13:43Z</time>
      </trkpt>
      <trkpt lat="42.506504" lon="2.394958">
        <ele>1477.569</ele>
        <time>2022-08-12T15:13:46Z</time>
      </trkpt>
      <trkpt lat="42.506558" lon="2.394926">
        <ele>1476.952</ele>
        <time>2022-08-12T15:13:49Z</time>
      </trkpt>
      <trkpt lat="42.506587" lon="2.394873">
        <ele>1476.877</ele>
        <time>2022-08-12T15:13:51Z</time>
      </trkpt>
      <trkpt lat="42.506604" lon="2.394806">
        <ele>1476.861</ele>
        <time>2022-08-12T15:13:54Z</time>
      </trkpt>
      <trkpt lat="42.506614" lon="2.394736">
        <ele>1476.827</ele>
        <time>2022-08-12T15:13:57Z</time>
      </trkpt>
      <trkpt lat="42.506631" lon="2.394669">
        <ele>1476.809</ele>
        <time>2022-08-12T15:14:01Z</time>
      </trkpt>
      <trkpt lat="42.506664" lon="2.394609">
        <ele>1476.728</ele>
        <time>2022-08-12T15:14:03Z</time>
      </trkpt>
      <trkpt lat="42.506704" lon="2.394577">
        <ele>1476.788</ele>
        <time>2022-08-12T15:14:06Z</time>
      </trkpt>
      <trkpt lat="42.506750" lon="2.394539">
        <ele>1476.897</ele>
        <time>2022-08-12T15:14:08Z</time>
      </trkpt>
      <trkpt lat="42.506806" lon="2.394516">
        <ele>1476.981</ele>
        <time>2022-08-12T15:14:16Z</time>
      </trkpt>
      <trkpt lat="42.506869" lon="2.394471">
        <ele>1476.739</ele>
        <time>2022-08-12T15:14:18Z</time>
      </trkpt>
      <trkpt lat="42.506919" lon="2.394481">
        <ele>1476.736</ele>
        <time>2022-08-12T15:14:22Z</time>
      </trkpt>
      <trkpt lat="42.506970" lon="2.394461">
        <ele>1476.533</ele>
        <time>2022-08-12T15:14:27Z</time>
      </trkpt>
      <trkpt lat="42.507021" lon="2.394469">
        <ele>1476.495</ele>
        <time>2022-08-12T15:14:31Z</time>
      </trkpt>
      <trkpt lat="42.507077" lon="2.394453">
        <ele>1476.478</ele>
        <time>2022-08-12T15:14:35Z</time>
      </trkpt>
      <trkpt lat="42.507126" lon="2.394469">
        <ele>1476.396</ele>
        <time>2022-08-12T15:14:39Z</time>
      </trkpt>
      <trkpt lat="42.507180" lon="2.394474">
        <ele>1476.031</ele>
        <time>2022-08-12T15:14:49Z</time>
      </trkpt>
      <trkpt lat="42.507240" lon="2.394481">
        <ele>1475.424</ele>
        <time>2022-08-12T15:14:52Z</time>
      </trkpt>
      <trkpt lat="42.507292" lon="2.394492">
        <ele>1475.209</ele>
        <time>2022-08-12T15:14:54Z</time>
      </trkpt>
      <trkpt lat="42.507342" lon="2.394519">
        <ele>1475.290</ele>
        <time>2022-08-12T15:14:57Z</time>
      </trkpt>
      <trkpt lat="42.507388" lon="2.394511">
        <ele>1475.290</ele>
        <time>2022-08-12T15:15:00Z</time>
      </trkpt>
      <trkpt lat="42.507440" lon="2.394499">
        <ele>1475.219</ele>
        <time>2022-08-12T15:15:02Z</time>
      </trkpt>
      <trkpt lat="42.507483" lon="2.394462">
        <ele>1475.253</ele>
        <time>2022-08-12T15:15:05Z</time>
      </trkpt>
      <trkpt lat="42.507534" lon="2.394454">
        <ele>1475.231</ele>
        <time>2022-08-12T15:15:09Z</time>
      </trkpt>
      <trkpt lat="42.507603" lon="2.394457">
        <ele>1475.248</ele>
        <time>2022-08-12T15:15:13Z</time>
      </trkpt>
      <trkpt lat="42.507648" lon="2.394479">
        <ele>1475.295</ele>
        <time>2022-08-12T15:15:18Z</time>
      </trkpt>
      <trkpt lat="42.507704" lon="2.394512">
        <ele>1475.057</ele>
        <time>2022-08-12T15:15:22Z</time>
      </trkpt>
      <trkpt lat="42.507752" lon="2.394532">
        <ele>1475.240</ele>
        <time>2022-08-12T15:15:26Z</time>
      </trkpt>
      <trkpt lat="42.507807" lon="2.394541">
        <ele>1475.051</ele>
        <time>2022-08-12T15:15:31Z</time>
      </trkpt>
      <trkpt lat="42.507866" lon="2.394544">
        <ele>1475.001</ele>
        <time>2022-08-12T15:15:36Z</time>
      </trkpt>
      <trkpt lat="42.507915" lon="2.394546">
        <ele>1475.011</ele>
        <time>2022-08-12T15:15:39Z</time>
      </trkpt>
      <trkpt lat="42.507959" lon="2.394570">
        <ele>1475.009</ele>
        <time>2022-08-12T15:15:45Z</time>
      </trkpt>
      <trkpt lat="42.508212" lon="2.394591">
        <ele>1469.926</ele>
        <time>2022-08-12T15:16:01Z</time>
      </trkpt>
      <trkpt lat="42.508188" lon="2.394665">
        <ele>1485.466</ele>
        <time>2022-08-12T15:16:05Z</time>
      </trkpt>
      <trkpt lat="42.508129" lon="2.394686">
        <ele>1476.085</ele>
        <time>2022-08-12T15:16:07Z</time>
      </trkpt>
      <trkpt lat="42.508104" lon="2.394619">
        <ele>1475.559</ele>
        <time>2022-08-12T15:16:13Z</time>
      </trkpt>
      <trkpt lat="42.508142" lon="2.394577">
        <ele>1475.097</ele>
        <time>2022-08-12T15:16:21Z</time>
      </trkpt>
      <trkpt lat="42.508183" lon="2.394531">
        <ele>1474.614</ele>
        <time>2022-08-12T15:16:28Z</time>
      </trkpt>
      <trkpt lat="42.508225" lon="2.394508">
        <ele>1474.461</ele>
        <time>2022-08-12T15:16:33Z</time>
      </trkpt>
      <trkpt lat="42.508271" lon="2.394506">
        <ele>1474.133</ele>
        <time>2022-08-12T15:16:39Z</time>
      </trkpt>
      <trkpt lat="42.508323" lon="2.394498">
        <ele>1473.816</ele>
        <time>2022-08-12T15:16:44Z</time>
      </trkpt>
      <trkpt lat="42.508381" lon="2.394493">
        <ele>1473.464</ele>
        <time>2022-08-12T15:16:47Z</time>
      </trkpt>
      <trkpt lat="42.508430" lon="2.394505">
        <ele>1473.006</ele>
        <time>2022-08-12T15:16:50Z</time>
      </trkpt>
      <trkpt lat="42.508471" lon="2.394547">
        <ele>1472.816</ele>
        <time>2022-08-12T15:16:57Z</time>
      </trkpt>
      <trkpt lat="42.508517" lon="2.394564">
        <ele>1472.709</ele>
        <time>2022-08-12T15:17:02Z</time>
      </trkpt>
      <trkpt lat="42.508563" lon="2.394584">
        <ele>1472.767</ele>
        <time>2022-08-12T15:17:08Z</time>
      </trkpt>
      <trkpt lat="42.508600" lon="2.394627">
        <ele>1471.877</ele>
        <time>2022-08-12T15:17:19Z</time>
      </trkpt>
      <trkpt lat="42.508645" lon="2.394649">
        <ele>1470.946</ele>
        <time>2022-08-12T15:17:29Z</time>
      </trkpt>
      <trkpt lat="42.508640" lon="2.394714">
        <ele>1469.590</ele>
        <time>2022-08-12T15:17:31Z</time>
      </trkpt>
      <trkpt lat="42.508635" lon="2.394788">
        <ele>1466.988</ele>
        <time>2022-08-12T15:17:33Z</time>
      </trkpt>
      <trkpt lat="42.508672" lon="2.394868">
        <ele>1465.095</ele>
        <time>2022-08-12T15:17:36Z</time>
      </trkpt>
      <trkpt lat="42.508697" lon="2.394926">
        <ele>1463.752</ele>
        <time>2022-08-12T15:17:38Z</time>
      </trkpt>
      <trkpt lat="42.508648" lon="2.394896">
        <ele>1462.824</ele>
        <time>2022-08-12T15:17:44Z</time>
      </trkpt>
      <trkpt lat="42.508611" lon="2.394837">
        <ele>1462.297</ele>
        <time>2022-08-12T15:17:47Z</time>
      </trkpt>
      <trkpt lat="42.508663" lon="2.394831">
        <ele>1460.787</ele>
        <time>2022-08-12T15:18:01Z</time>
      </trkpt>
      <trkpt lat="42.508716" lon="2.394847">
        <ele>1460.642</ele>
        <time>2022-08-12T15:18:04Z</time>
      </trkpt>
      <trkpt lat="42.508766" lon="2.394843">
        <ele>1460.226</ele>
        <time>2022-08-12T15:18:14Z</time>
      </trkpt>
      <trkpt lat="42.508813" lon="2.394824">
        <ele>1459.909</ele>
        <time>2022-08-12T15:18:19Z</time>
      </trkpt>
      <trkpt lat="42.508852" lon="2.394787">
        <ele>1459.879</ele>
        <time>2022-08-12T15:18:24Z</time>
      </trkpt>
      <trkpt lat="42.508895" lon="2.394748">
        <ele>1459.289</ele>
        <time>2022-08-12T15:18:33Z</time>
      </trkpt>
      <trkpt lat="42.508919" lon="2.394683">
        <ele>1458.638</ele>
        <time>2022-08-12T15:18:37Z</time>
      </trkpt>
      <trkpt lat="42.508958" lon="2.394636">
        <ele>1458.032</ele>
        <time>2022-08-12T15:18:42Z</time>
      </trkpt>
      <trkpt lat="42.508994" lon="2.394589">
        <ele>1457.290</ele>
        <time>2022-08-12T15:18:53Z</time>
      </trkpt>
      <trkpt lat="42.509015" lon="2.394657">
        <ele>1457.247</ele>
        <time>2022-08-12T15:19:02Z</time>
      </trkpt>
      <trkpt lat="42.509060" lon="2.394702">
        <ele>1457.284</ele>
        <time>2022-08-12T15:19:06Z</time>
      </trkpt>
      <trkpt lat="42.509071" lon="2.394762">
        <ele>1457.226</ele>
        <time>2022-08-12T15:19:14Z</time>
      </trkpt>
      <trkpt lat="42.509093" lon="2.394817">
        <ele>1457.089</ele>
        <time>2022-08-12T15:19:21Z</time>
      </trkpt>
      <trkpt lat="42.509100" lon="2.394881">
        <ele>1457.072</ele>
        <time>2022-08-12T15:19:24Z</time>
      </trkpt>
      <trkpt lat="42.509134" lon="2.394839">
        <ele>1457.813</ele>
        <time>2022-08-12T15:19:35Z</time>
      </trkpt>
      <trkpt lat="42.509151" lon="2.394782">
        <ele>1457.514</ele>
        <time>2022-08-12T15:19:39Z</time>
      </trkpt>
      <trkpt lat="42.509178" lon="2.394730">
        <ele>1457.509</ele>
        <time>2022-08-12T15:19:45Z</time>
      </trkpt>
      <trkpt lat="42.509186" lon="2.394663">
        <ele>1457.958</ele>
        <time>2022-08-12T15:19:51Z</time>
      </trkpt>
      <trkpt lat="42.509197" lon="2.394602">
        <ele>1458.668</ele>
        <time>2022-08-12T15:19:55Z</time>
      </trkpt>
      <trkpt lat="42.509223" lon="2.394546">
        <ele>1459.257</ele>
        <time>2022-08-12T15:20:03Z</time>
      </trkpt>
      <trkpt lat="42.509248" lon="2.394480">
        <ele>1459.791</ele>
        <time>2022-08-12T15:20:06Z</time>
      </trkpt>
      <trkpt lat="42.509274" lon="2.394427">
        <ele>1460.479</ele>
        <time>2022-08-12T15:20:12Z</time>
      </trkpt>
      <trkpt lat="42.509294" lon="2.394372">
        <ele>1460.976</ele>
        <time>2022-08-12T15:20:20Z</time>
      </trkpt>
      <trkpt lat="42.509334" lon="2.394339">
        <ele>1461.413</ele>
        <time>2022-08-12T15:20:25Z</time>
      </trkpt>
      <trkpt lat="42.509366" lon="2.394284">
        <ele>1462.645</ele>
        <time>2022-08-12T15:20:30Z</time>
      </trkpt>
      <trkpt lat="42.509396" lon="2.394222">
        <ele>1463.588</ele>
        <time>2022-08-12T15:20:38Z</time>
      </trkpt>
      <trkpt lat="42.509444" lon="2.394182">
        <ele>1463.847</ele>
        <time>2022-08-12T15:20:42Z</time>
      </trkpt>
      <trkpt lat="42.509478" lon="2.394132">
        <ele>1464.729</ele>
        <time>2022-08-12T15:20:46Z</time>
      </trkpt>
      <trkpt lat="42.509497" lon="2.394062">
        <ele>1465.621</ele>
        <time>2022-08-12T15:20:50Z</time>
      </trkpt>
      <trkpt lat="42.509529" lon="2.394011">
        <ele>1465.909</ele>
        <time>2022-08-12T15:20:55Z</time>
      </trkpt>
      <trkpt lat="42.509561" lon="2.393964">
        <ele>1466.195</ele>
        <time>2022-08-12T15:20:59Z</time>
      </trkpt>
      <trkpt lat="42.509608" lon="2.393942">
        <ele>1467.055</ele>
        <time>2022-08-12T15:21:05Z</time>
      </trkpt>
      <trkpt lat="42.509664" lon="2.393913">
        <ele>1468.194</ele>
        <time>2022-08-12T15:21:10Z</time>
      </trkpt>
      <trkpt lat="42.509709" lon="2.393884">
        <ele>1468.648</ele>
        <time>2022-08-12T15:21:18Z</time>
      </trkpt>
      <trkpt lat="42.509758" lon="2.393831">
        <ele>1468.856</ele>
        <time>2022-08-12T15:21:23Z</time>
      </trkpt>
      <trkpt lat="42.509798" lon="2.393794">
        <ele>1468.983</ele>
        <time>2022-08-12T15:21:36Z</time>
      </trkpt>
      <trkpt lat="42.509829" lon="2.393749">
        <ele>1468.960</ele>
        <time>2022-08-12T15:21:40Z</time>
      </trkpt>
      <trkpt lat="42.509855" lon="2.393691">
        <ele>1468.952</ele>
        <time>2022-08-12T15:21:47Z</time>
      </trkpt>
      <trkpt lat="42.509892" lon="2.393654">
        <ele>1468.925</ele>
        <time>2022-08-12T15:21:51Z</time>
      </trkpt>
      <trkpt lat="42.509928" lon="2.393615">
        <ele>1469.192</ele>
        <time>2022-08-12T15:21:56Z</time>
      </trkpt>
      <trkpt lat="42.509981" lon="2.393622">
        <ele>1469.973</ele>
        <time>2022-08-12T15:22:02Z</time>
      </trkpt>
      <trkpt lat="42.510038" lon="2.393638">
        <ele>1470.920</ele>
        <time>2022-08-12T15:22:06Z</time>
      </trkpt>
      <trkpt lat="42.510087" lon="2.393667">
        <ele>1471.309</ele>
        <time>2022-08-12T15:22:10Z</time>
      </trkpt>
      <trkpt lat="42.510147" lon="2.393649">
        <ele>1472.390</ele>
        <time>2022-08-12T15:22:15Z</time>
      </trkpt>
      <trkpt lat="42.510196" lon="2.393633">
        <ele>1473.270</ele>
        <time>2022-08-12T15:22:18Z</time>
      </trkpt>
      <trkpt lat="42.510246" lon="2.393621">
        <ele>1473.259</ele>
        <time>2022-08-12T15:22:22Z</time>
      </trkpt>
      <trkpt lat="42.510290" lon="2.393601">
        <ele>1473.283</ele>
        <time>2022-08-12T15:22:28Z</time>
      </trkpt>
      <trkpt lat="42.510320" lon="2.393553">
        <ele>1473.251</ele>
        <time>2022-08-12T15:22:33Z</time>
      </trkpt>
      <trkpt lat="42.510369" lon="2.393534">
        <ele>1472.978</ele>
        <time>2022-08-12T15:22:40Z</time>
      </trkpt>
      <trkpt lat="42.510412" lon="2.393513">
        <ele>1471.945</ele>
        <time>2022-08-12T15:22:44Z</time>
      </trkpt>
      <trkpt lat="42.510456" lon="2.393495">
        <ele>1470.897</ele>
        <time>2022-08-12T15:22:49Z</time>
      </trkpt>
      <trkpt lat="42.510506" lon="2.393501">
        <ele>1470.180</ele>
        <time>2022-08-12T15:22:53Z</time>
      </trkpt>
      <trkpt lat="42.510552" lon="2.393508">
        <ele>1469.664</ele>
        <time>2022-08-12T15:22:57Z</time>
      </trkpt>
      <trkpt lat="42.510598" lon="2.393502">
        <ele>1468.906</ele>
        <time>2022-08-12T15:23:01Z</time>
      </trkpt>
      <trkpt lat="42.510642" lon="2.393478">
        <ele>1468.316</ele>
        <time>2022-08-12T15:23:06Z</time>
      </trkpt>
      <trkpt lat="42.510652" lon="2.393412">
        <ele>1468.009</ele>
        <time>2022-08-12T15:23:12Z</time>
      </trkpt>
      <trkpt lat="42.510694" lon="2.393386">
        <ele>1467.867</ele>
        <time>2022-08-12T15:23:24Z</time>
      </trkpt>
      <trkpt lat="42.510742" lon="2.393430">
        <ele>1467.637</ele>
        <time>2022-08-12T15:23:30Z</time>
      </trkpt>
      <trkpt lat="42.510793" lon="2.393455">
        <ele>1465.966</ele>
        <time>2022-08-12T15:23:35Z</time>
      </trkpt>
      <trkpt lat="42.510846" lon="2.393468">
        <ele>1464.220</ele>
        <time>2022-08-12T15:23:43Z</time>
      </trkpt>
      <trkpt lat="42.510878" lon="2.393416">
        <ele>1463.758</ele>
        <time>2022-08-12T15:23:49Z</time>
      </trkpt>
      <trkpt lat="42.510938" lon="2.393419">
        <ele>1462.375</ele>
        <time>2022-08-12T15:23:55Z</time>
      </trkpt>
      <trkpt lat="42.510984" lon="2.393401">
        <ele>1461.882</ele>
        <time>2022-08-12T15:23:59Z</time>
      </trkpt>
      <trkpt lat="42.511032" lon="2.393397">
        <ele>1460.974</ele>
        <time>2022-08-12T15:24:04Z</time>
      </trkpt>
      <trkpt lat="42.511082" lon="2.393365">
        <ele>1459.887</ele>
        <time>2022-08-12T15:24:11Z</time>
      </trkpt>
      <trkpt lat="42.511030" lon="2.393325">
        <ele>1458.317</ele>
        <time>2022-08-12T15:24:18Z</time>
      </trkpt>
      <trkpt lat="42.510986" lon="2.393307">
        <ele>1457.687</ele>
        <time>2022-08-12T15:24:21Z</time>
      </trkpt>
      <trkpt lat="42.510936" lon="2.393284">
        <ele>1456.115</ele>
        <time>2022-08-12T15:24:24Z</time>
      </trkpt>
      <trkpt lat="42.510893" lon="2.393268">
        <ele>1455.309</ele>
        <time>2022-08-12T15:24:27Z</time>
      </trkpt>
      <trkpt lat="42.510929" lon="2.393219">
        <ele>1454.982</ele>
        <time>2022-08-12T15:24:42Z</time>
      </trkpt>
      <trkpt lat="42.510984" lon="2.393215">
        <ele>1454.532</ele>
        <time>2022-08-12T15:24:47Z</time>
      </trkpt>
      <trkpt lat="42.511031" lon="2.393210">
        <ele>1453.231</ele>
        <time>2022-08-12T15:24:50Z</time>
      </trkpt>
      <trkpt lat="42.511078" lon="2.393190">
        <ele>1451.355</ele>
        <time>2022-08-12T15:24:55Z</time>
      </trkpt>
      <trkpt lat="42.511132" lon="2.393179">
        <ele>1450.533</ele>
        <time>2022-08-12T15:25:02Z</time>
      </trkpt>
      <trkpt lat="42.511186" lon="2.393177">
        <ele>1449.570</ele>
        <time>2022-08-12T15:25:08Z</time>
      </trkpt>
      <trkpt lat="42.511247" lon="2.393184">
        <ele>1448.037</ele>
        <time>2022-08-12T15:25:12Z</time>
      </trkpt>
      <trkpt lat="42.511292" lon="2.393184">
        <ele>1446.999</ele>
        <time>2022-08-12T15:25:15Z</time>
      </trkpt>
      <trkpt lat="42.511340" lon="2.393202">
        <ele>1445.952</ele>
        <time>2022-08-12T15:25:19Z</time>
      </trkpt>
      <trkpt lat="42.511384" lon="2.393182">
        <ele>1445.224</ele>
        <time>2022-08-12T15:25:32Z</time>
      </trkpt>
      <trkpt lat="42.511436" lon="2.393195">
        <ele>1445.004</ele>
        <time>2022-08-12T15:25:38Z</time>
      </trkpt>
      <trkpt lat="42.511483" lon="2.393168">
        <ele>1444.014</ele>
        <time>2022-08-12T15:25:45Z</time>
      </trkpt>
      <trkpt lat="42.511524" lon="2.393139">
        <ele>1442.109</ele>
        <time>2022-08-12T15:25:50Z</time>
      </trkpt>
      <trkpt lat="42.511517" lon="2.393067">
        <ele>1440.483</ele>
        <time>2022-08-12T15:25:57Z</time>
      </trkpt>
      <trkpt lat="42.511506" lon="2.393006">
        <ele>1439.373</ele>
        <time>2022-08-12T15:26:09Z</time>
      </trkpt>
      <trkpt lat="42.511481" lon="2.392949">
        <ele>1438.062</ele>
        <time>2022-08-12T15:26:12Z</time>
      </trkpt>
      <trkpt lat="42.511431" lon="2.392894">
        <ele>1435.956</ele>
        <time>2022-08-12T15:26:16Z</time>
      </trkpt>
      <trkpt lat="42.511380" lon="2.392878">
        <ele>1434.164</ele>
        <time>2022-08-12T15:26:19Z</time>
      </trkpt>
      <trkpt lat="42.511330" lon="2.392854">
        <ele>1432.811</ele>
        <time>2022-08-12T15:26:23Z</time>
      </trkpt>
      <trkpt lat="42.511281" lon="2.392831">
        <ele>1431.568</ele>
        <time>2022-08-12T15:26:30Z</time>
      </trkpt>
      <trkpt lat="42.511230" lon="2.392798">
        <ele>1431.130</ele>
        <time>2022-08-12T15:26:35Z</time>
      </trkpt>
      <trkpt lat="42.511183" lon="2.392732">
        <ele>1429.973</ele>
        <time>2022-08-12T15:26:39Z</time>
      </trkpt>
      <trkpt lat="42.511157" lon="2.392670">
        <ele>1428.987</ele>
        <time>2022-08-12T15:26:41Z</time>
      </trkpt>
      <trkpt lat="42.511129" lon="2.392613">
        <ele>1427.842</ele>
        <time>2022-08-12T15:26:44Z</time>
      </trkpt>
      <trkpt lat="42.511183" lon="2.392623">
        <ele>1427.726</ele>
        <time>2022-08-12T15:27:15Z</time>
      </trkpt>
      <trkpt lat="42.511233" lon="2.392592">
        <ele>1427.409</ele>
        <time>2022-08-12T15:27:18Z</time>
      </trkpt>
      <trkpt lat="42.511220" lon="2.392665">
        <ele>1424.049</ele>
        <time>2022-08-12T15:27:28Z</time>
      </trkpt>
      <trkpt lat="42.511248" lon="2.392724">
        <ele>1420.379</ele>
        <time>2022-08-12T15:27:33Z</time>
      </trkpt>
      <trkpt lat="42.511302" lon="2.392699">
        <ele>1418.258</ele>
        <time>2022-08-12T15:27:40Z</time>
      </trkpt>
      <trkpt lat="42.511348" lon="2.392664">
        <ele>1416.572</ele>
        <time>2022-08-12T15:27:47Z</time>
      </trkpt>
      <trkpt lat="42.511397" lon="2.392645">
        <ele>1415.750</ele>
        <time>2022-08-12T15:27:53Z</time>
      </trkpt>
      <trkpt lat="42.511354" lon="2.392622">
        <ele>1414.547</ele>
        <time>2022-08-12T15:28:14Z</time>
      </trkpt>
      <trkpt lat="42.511401" lon="2.392583">
        <ele>1413.974</ele>
        <time>2022-08-12T15:28:19Z</time>
      </trkpt>
      <trkpt lat="42.511459" lon="2.392591">
        <ele>1413.446</ele>
        <time>2022-08-12T15:28:26Z</time>
      </trkpt>
      <trkpt lat="42.511447" lon="2.392658">
        <ele>1411.989</ele>
        <time>2022-08-12T15:28:32Z</time>
      </trkpt>
      <trkpt lat="42.511425" lon="2.392589">
        <ele>1410.256</ele>
        <time>2022-08-12T15:28:42Z</time>
      </trkpt>
      <trkpt lat="42.511411" lon="2.392521">
        <ele>1408.059</ele>
        <time>2022-08-12T15:28:45Z</time>
      </trkpt>
      <trkpt lat="42.511384" lon="2.392469">
        <ele>1407.614</ele>
        <time>2022-08-12T15:28:47Z</time>
      </trkpt>
      <trkpt lat="42.511426" lon="2.392414">
        <ele>1407.209</ele>
        <time>2022-08-12T15:29:06Z</time>
      </trkpt>
      <trkpt lat="42.511424" lon="2.392350">
        <ele>1406.836</ele>
        <time>2022-08-12T15:29:08Z</time>
      </trkpt>
      <trkpt lat="42.511396" lon="2.392291">
        <ele>1404.856</ele>
        <time>2022-08-12T15:29:17Z</time>
      </trkpt>
      <trkpt lat="42.511353" lon="2.392264">
        <ele>1403.195</ele>
        <time>2022-08-12T15:29:25Z</time>
      </trkpt>
      <trkpt lat="42.511322" lon="2.392219">
        <ele>1402.139</ele>
        <time>2022-08-12T15:29:33Z</time>
      </trkpt>
      <trkpt lat="42.511275" lon="2.392214">
        <ele>1400.377</ele>
        <time>2022-08-12T15:29:38Z</time>
      </trkpt>
      <trkpt lat="42.511227" lon="2.392208">
        <ele>1398.884</ele>
        <time>2022-08-12T15:29:41Z</time>
      </trkpt>
      <trkpt lat="42.511185" lon="2.392182">
        <ele>1397.751</ele>
        <time>2022-08-12T15:29:45Z</time>
      </trkpt>
      <trkpt lat="42.511135" lon="2.392148">
        <ele>1397.023</ele>
        <time>2022-08-12T15:29:57Z</time>
      </trkpt>
      <trkpt lat="42.511090" lon="2.392111">
        <ele>1396.466</ele>
        <time>2022-08-12T15:30:07Z</time>
      </trkpt>
      <trkpt lat="42.511061" lon="2.392059">
        <ele>1395.972</ele>
        <time>2022-08-12T15:30:17Z</time>
      </trkpt>
      <trkpt lat="42.511031" lon="2.392114">
        <ele>1394.413</ele>
        <time>2022-08-12T15:30:27Z</time>
      </trkpt>
      <trkpt lat="42.510989" lon="2.392143">
        <ele>1391.614</ele>
        <time>2022-08-12T15:30:33Z</time>
      </trkpt>
      <trkpt lat="42.510935" lon="2.392151">
        <ele>1389.109</ele>
        <time>2022-08-12T15:30:39Z</time>
      </trkpt>
      <trkpt lat="42.510888" lon="2.392131">
        <ele>1388.058</ele>
        <time>2022-08-12T15:30:42Z</time>
      </trkpt>
      <trkpt lat="42.510833" lon="2.392084">
        <ele>1387.668</ele>
        <time>2022-08-12T15:30:45Z</time>
      </trkpt>
      <trkpt lat="42.510812" lon="2.392025">
        <ele>1387.397</ele>
        <time>2022-08-12T15:30:50Z</time>
      </trkpt>
      <trkpt lat="42.510781" lon="2.391969">
        <ele>1387.111</ele>
        <time>2022-08-12T15:30:54Z</time>
      </trkpt>
      <trkpt lat="42.510740" lon="2.391927">
        <ele>1386.449</ele>
        <time>2022-08-12T15:30:57Z</time>
      </trkpt>
      <trkpt lat="42.510709" lon="2.391871">
        <ele>1385.636</ele>
        <time>2022-08-12T15:31:02Z</time>
      </trkpt>
      <trkpt lat="42.510668" lon="2.391812">
        <ele>1385.343</ele>
        <time>2022-08-12T15:31:24Z</time>
      </trkpt>
      <trkpt lat="42.510648" lon="2.391746">
        <ele>1384.865</ele>
        <time>2022-08-12T15:31:27Z</time>
      </trkpt>
      <trkpt lat="42.510677" lon="2.391698">
        <ele>1381.758</ele>
        <time>2022-08-12T15:31:34Z</time>
      </trkpt>
      <trkpt lat="42.510721" lon="2.391683">
        <ele>1379.248</ele>
        <time>2022-08-12T15:31:43Z</time>
      </trkpt>
      <trkpt lat="42.510775" lon="2.391693">
        <ele>1378.161</ele>
        <time>2022-08-12T15:31:51Z</time>
      </trkpt>
      <trkpt lat="42.510835" lon="2.391693">
        <ele>1376.117</ele>
        <time>2022-08-12T15:31:55Z</time>
      </trkpt>
      <trkpt lat="42.510890" lon="2.391674">
        <ele>1374.309</ele>
        <time>2022-08-12T15:32:00Z</time>
      </trkpt>
      <trkpt lat="42.510873" lon="2.391601">
        <ele>1372.655</ele>
        <time>2022-08-12T15:32:08Z</time>
      </trkpt>
      <trkpt lat="42.510852" lon="2.391547">
        <ele>1371.575</ele>
        <time>2022-08-12T15:32:11Z</time>
      </trkpt>
      <trkpt lat="42.510808" lon="2.391530">
        <ele>1370.994</ele>
        <time>2022-08-12T15:32:20Z</time>
      </trkpt>
      <trkpt lat="42.510767" lon="2.391488">
        <ele>1369.698</ele>
        <time>2022-08-12T15:32:24Z</time>
      </trkpt>
      <trkpt lat="42.510714" lon="2.391492">
        <ele>1367.816</ele>
        <time>2022-08-12T15:32:34Z</time>
      </trkpt>
      <trkpt lat="42.510674" lon="2.391521">
        <ele>1366.693</ele>
        <time>2022-08-12T15:32:42Z</time>
      </trkpt>
      <trkpt lat="42.510691" lon="2.391452">
        <ele>1365.220</ele>
        <time>2022-08-12T15:32:55Z</time>
      </trkpt>
      <trkpt lat="42.510736" lon="2.391420">
        <ele>1363.532</ele>
        <time>2022-08-12T15:33:05Z</time>
      </trkpt>
      <trkpt lat="42.510781" lon="2.391432">
        <ele>1361.545</ele>
        <time>2022-08-12T15:33:11Z</time>
      </trkpt>
      <trkpt lat="42.510830" lon="2.391447">
        <ele>1358.429</ele>
        <time>2022-08-12T15:33:17Z</time>
      </trkpt>
      <trkpt lat="42.510881" lon="2.391423">
        <ele>1356.300</ele>
        <time>2022-08-12T15:33:24Z</time>
      </trkpt>
      <trkpt lat="42.510935" lon="2.391406">
        <ele>1355.220</ele>
        <time>2022-08-12T15:33:32Z</time>
      </trkpt>
      <trkpt lat="42.510979" lon="2.391375">
        <ele>1353.809</ele>
        <time>2022-08-12T15:33:35Z</time>
      </trkpt>
      <trkpt lat="42.511021" lon="2.391334">
        <ele>1351.833</ele>
        <time>2022-08-12T15:33:41Z</time>
      </trkpt>
      <trkpt lat="42.511069" lon="2.391339">
        <ele>1350.273</ele>
        <time>2022-08-12T15:33:47Z</time>
      </trkpt>
      <trkpt lat="42.511115" lon="2.391345">
        <ele>1349.282</ele>
        <time>2022-08-12T15:33:52Z</time>
      </trkpt>
      <trkpt lat="42.511138" lon="2.391400">
        <ele>1347.846</ele>
        <time>2022-08-12T15:33:57Z</time>
      </trkpt>
      <trkpt lat="42.511155" lon="2.391339">
        <ele>1346.434</ele>
        <time>2022-08-12T15:34:07Z</time>
      </trkpt>
      <trkpt lat="42.511192" lon="2.391295">
        <ele>1345.351</ele>
        <time>2022-08-12T15:34:13Z</time>
      </trkpt>
      <trkpt lat="42.511253" lon="2.391291">
        <ele>1343.658</ele>
        <time>2022-08-12T15:34:18Z</time>
      </trkpt>
      <trkpt lat="42.511303" lon="2.391248">
        <ele>1341.670</ele>
        <time>2022-08-12T15:34:29Z</time>
      </trkpt>
      <trkpt lat="42.511335" lon="2.391193">
        <ele>1340.483</ele>
        <time>2022-08-12T15:34:33Z</time>
      </trkpt>
      <trkpt lat="42.511392" lon="2.391204">
        <ele>1336.485</ele>
        <time>2022-08-12T15:34:37Z</time>
      </trkpt>
      <trkpt lat="42.511450" lon="2.391181">
        <ele>1335.489</ele>
        <time>2022-08-12T15:34:42Z</time>
      </trkpt>
      <trkpt lat="42.511500" lon="2.391116">
        <ele>1335.417</ele>
        <time>2022-08-12T15:34:45Z</time>
      </trkpt>
      <trkpt lat="42.511545" lon="2.391134">
        <ele>1333.309</ele>
        <time>2022-08-12T15:34:52Z</time>
      </trkpt>
      <trkpt lat="42.511592" lon="2.391141">
        <ele>1333.159</ele>
        <time>2022-08-12T15:34:59Z</time>
      </trkpt>
      <trkpt lat="42.511643" lon="2.391114">
        <ele>1332.819</ele>
        <time>2022-08-12T15:35:03Z</time>
      </trkpt>
      <trkpt lat="42.511677" lon="2.391071">
        <ele>1332.368</ele>
        <time>2022-08-12T15:35:06Z</time>
      </trkpt>
      <trkpt lat="42.511714" lon="2.391034">
        <ele>1331.522</ele>
        <time>2022-08-12T15:35:12Z</time>
      </trkpt>
      <trkpt lat="42.511655" lon="2.390977">
        <ele>1330.610</ele>
        <time>2022-08-12T15:35:21Z</time>
      </trkpt>
      <trkpt lat="42.511622" lon="2.390928">
        <ele>1328.777</ele>
        <time>2022-08-12T15:35:23Z</time>
      </trkpt>
      <trkpt lat="42.511578" lon="2.390904">
        <ele>1327.874</ele>
        <time>2022-08-12T15:35:27Z</time>
      </trkpt>
      <trkpt lat="42.511533" lon="2.390875">
        <ele>1326.746</ele>
        <time>2022-08-12T15:35:33Z</time>
      </trkpt>
      <trkpt lat="42.511483" lon="2.390849">
        <ele>1325.479</ele>
        <time>2022-08-12T15:35:37Z</time>
      </trkpt>
      <trkpt lat="42.511453" lon="2.390898">
        <ele>1324.838</ele>
        <time>2022-08-12T15:35:45Z</time>
      </trkpt>
      <trkpt lat="42.511406" lon="2.390856">
        <ele>1323.870</ele>
        <time>2022-08-12T15:36:06Z</time>
      </trkpt>
      <trkpt lat="42.511357" lon="2.390814">
        <ele>1322.017</ele>
        <time>2022-08-12T15:36:19Z</time>
      </trkpt>
      <trkpt lat="42.511383" lon="2.390761">
        <ele>1322.009</ele>
        <time>2022-08-12T15:36:29Z</time>
      </trkpt>
      <trkpt lat="42.511368" lon="2.390697">
        <ele>1319.484</ele>
        <time>2022-08-12T15:36:36Z</time>
      </trkpt>
      <trkpt lat="42.511363" lon="2.390620">
        <ele>1318.184</ele>
        <time>2022-08-12T15:36:42Z</time>
      </trkpt>
      <trkpt lat="42.511371" lon="2.390539">
        <ele>1318.153</ele>
        <time>2022-08-12T15:36:48Z</time>
      </trkpt>
      <trkpt lat="42.511381" lon="2.390463">
        <ele>1318.117</ele>
        <time>2022-08-12T15:36:51Z</time>
      </trkpt>
      <trkpt lat="42.511415" lon="2.390405">
        <ele>1317.785</ele>
        <time>2022-08-12T15:36:55Z</time>
      </trkpt>
      <trkpt lat="42.511435" lon="2.390342">
        <ele>1317.382</ele>
        <time>2022-08-12T15:36:58Z</time>
      </trkpt>
      <trkpt lat="42.511481" lon="2.390312">
        <ele>1316.759</ele>
        <time>2022-08-12T15:37:02Z</time>
      </trkpt>
      <trkpt lat="42.511518" lon="2.390265">
        <ele>1316.761</ele>
        <time>2022-08-12T15:37:07Z</time>
      </trkpt>
      <trkpt lat="42.511546" lon="2.390203">
        <ele>1316.644</ele>
        <time>2022-08-12T15:37:13Z</time>
      </trkpt>
      <trkpt lat="42.511566" lon="2.390134">
        <ele>1316.489</ele>
        <time>2022-08-12T15:37:17Z</time>
      </trkpt>
      <trkpt lat="42.511577" lon="2.390064">
        <ele>1316.106</ele>
        <time>2022-08-12T15:37:21Z</time>
      </trkpt>
      <trkpt lat="42.511593" lon="2.390003">
        <ele>1316.026</ele>
        <time>2022-08-12T15:37:24Z</time>
      </trkpt>
      <trkpt lat="42.511598" lon="2.389939">
        <ele>1315.809</ele>
        <time>2022-08-12T15:37:27Z</time>
      </trkpt>
      <trkpt lat="42.511603" lon="2.389872">
        <ele>1315.629</ele>
        <time>2022-08-12T15:37:31Z</time>
      </trkpt>
      <trkpt lat="42.511636" lon="2.389815">
        <ele>1315.519</ele>
        <time>2022-08-12T15:37:45Z</time>
      </trkpt>
      <trkpt lat="42.511670" lon="2.389772">
        <ele>1315.428</ele>
        <time>2022-08-12T15:37:48Z</time>
      </trkpt>
      <trkpt lat="42.511710" lon="2.389713">
        <ele>1314.672</ele>
        <time>2022-08-12T15:37:51Z</time>
      </trkpt>
      <trkpt lat="42.511747" lon="2.389675">
        <ele>1313.270</ele>
        <time>2022-08-12T15:37:54Z</time>
      </trkpt>
      <trkpt lat="42.511789" lon="2.389634">
        <ele>1312.317</ele>
        <time>2022-08-12T15:37:58Z</time>
      </trkpt>
      <trkpt lat="42.511830" lon="2.389575">
        <ele>1311.764</ele>
        <time>2022-08-12T15:38:04Z</time>
      </trkpt>
      <trkpt lat="42.511865" lon="2.389530">
        <ele>1310.656</ele>
        <time>2022-08-12T15:38:08Z</time>
      </trkpt>
      <trkpt lat="42.511905" lon="2.389501">
        <ele>1309.389</ele>
        <time>2022-08-12T15:38:13Z</time>
      </trkpt>
      <trkpt lat="42.511942" lon="2.389449">
        <ele>1307.821</ele>
        <time>2022-08-12T15:38:17Z</time>
      </trkpt>
      <trkpt lat="42.511975" lon="2.389402">
        <ele>1306.141</ele>
        <time>2022-08-12T15:38:21Z</time>
      </trkpt>
      <trkpt lat="42.511999" lon="2.389350">
        <ele>1304.605</ele>
        <time>2022-08-12T15:38:24Z</time>
      </trkpt>
      <trkpt lat="42.512026" lon="2.389296">
        <ele>1303.609</ele>
        <time>2022-08-12T15:38:28Z</time>
      </trkpt>
      <trkpt lat="42.512067" lon="2.389252">
        <ele>1303.123</ele>
        <time>2022-08-12T15:38:33Z</time>
      </trkpt>
      <trkpt lat="42.512107" lon="2.389195">
        <ele>1302.153</ele>
        <time>2022-08-12T15:38:37Z</time>
      </trkpt>
      <trkpt lat="42.512145" lon="2.389161">
        <ele>1301.072</ele>
        <time>2022-08-12T15:38:41Z</time>
      </trkpt>
      <trkpt lat="42.512181" lon="2.389109">
        <ele>1300.356</ele>
        <time>2022-08-12T15:38:46Z</time>
      </trkpt>
      <trkpt lat="42.512228" lon="2.389099">
        <ele>1299.394</ele>
        <time>2022-08-12T15:38:49Z</time>
      </trkpt>
      <trkpt lat="42.512279" lon="2.389066">
        <ele>1297.881</ele>
        <time>2022-08-12T15:38:54Z</time>
      </trkpt>
      <trkpt lat="42.512318" lon="2.389031">
        <ele>1296.788</ele>
        <time>2022-08-12T15:38:58Z</time>
      </trkpt>
      <trkpt lat="42.512345" lon="2.388982">
        <ele>1295.760</ele>
        <time>2022-08-12T15:39:01Z</time>
      </trkpt>
      <trkpt lat="42.512388" lon="2.388959">
        <ele>1294.513</ele>
        <time>2022-08-12T15:39:06Z</time>
      </trkpt>
      <trkpt lat="42.512440" lon="2.388928">
        <ele>1293.233</ele>
        <time>2022-08-12T15:39:10Z</time>
      </trkpt>
      <trkpt lat="42.512477" lon="2.388866">
        <ele>1291.823</ele>
        <time>2022-08-12T15:39:13Z</time>
      </trkpt>
      <trkpt lat="42.512506" lon="2.388810">
        <ele>1290.515</ele>
        <time>2022-08-12T15:39:16Z</time>
      </trkpt>
      <trkpt lat="42.512514" lon="2.388738">
        <ele>1289.809</ele>
        <time>2022-08-12T15:39:21Z</time>
      </trkpt>
      <trkpt lat="42.512526" lon="2.388674">
        <ele>1289.364</ele>
        <time>2022-08-12T15:39:25Z</time>
      </trkpt>
      <trkpt lat="42.512557" lon="2.388617">
        <ele>1288.584</ele>
        <time>2022-08-12T15:39:29Z</time>
      </trkpt>
      <trkpt lat="42.512575" lon="2.388552">
        <ele>1287.693</ele>
        <time>2022-08-12T15:39:34Z</time>
      </trkpt>
      <trkpt lat="42.512606" lon="2.388485">
        <ele>1286.537</ele>
        <time>2022-08-12T15:39:39Z</time>
      </trkpt>
      <trkpt lat="42.512637" lon="2.388429">
        <ele>1285.865</ele>
        <time>2022-08-12T15:39:43Z</time>
      </trkpt>
      <trkpt lat="42.512648" lon="2.388369">
        <ele>1285.092</ele>
        <time>2022-08-12T15:39:48Z</time>
      </trkpt>
      <trkpt lat="42.512679" lon="2.388324">
        <ele>1283.939</ele>
        <time>2022-08-12T15:39:54Z</time>
      </trkpt>
      <trkpt lat="42.512722" lon="2.388297">
        <ele>1282.751</ele>
        <time>2022-08-12T15:39:58Z</time>
      </trkpt>
      <trkpt lat="42.512765" lon="2.388264">
        <ele>1281.344</ele>
        <time>2022-08-12T15:40:05Z</time>
      </trkpt>
      <trkpt lat="42.512804" lon="2.388226">
        <ele>1280.324</ele>
        <time>2022-08-12T15:40:12Z</time>
      </trkpt>
      <trkpt lat="42.512849" lon="2.388212">
        <ele>1279.204</ele>
        <time>2022-08-12T15:40:16Z</time>
      </trkpt>
      <trkpt lat="42.512903" lon="2.388204">
        <ele>1277.714</ele>
        <time>2022-08-12T15:40:19Z</time>
      </trkpt>
      <trkpt lat="42.512950" lon="2.388183">
        <ele>1276.509</ele>
        <time>2022-08-12T15:40:23Z</time>
      </trkpt>
      <trkpt lat="42.512985" lon="2.388136">
        <ele>1275.793</ele>
        <time>2022-08-12T15:40:26Z</time>
      </trkpt>
      <trkpt lat="42.513026" lon="2.388090">
        <ele>1274.863</ele>
        <time>2022-08-12T15:40:29Z</time>
      </trkpt>
      <trkpt lat="42.513093" lon="2.388077">
        <ele>1273.972</ele>
        <time>2022-08-12T15:40:33Z</time>
      </trkpt>
      <trkpt lat="42.513146" lon="2.388073">
        <ele>1272.986</ele>
        <time>2022-08-12T15:40:36Z</time>
      </trkpt>
      <trkpt lat="42.513183" lon="2.388034">
        <ele>1272.114</ele>
        <time>2022-08-12T15:40:40Z</time>
      </trkpt>
      <trkpt lat="42.513215" lon="2.387971">
        <ele>1271.411</ele>
        <time>2022-08-12T15:40:44Z</time>
      </trkpt>
      <trkpt lat="42.513261" lon="2.387934">
        <ele>1270.338</ele>
        <time>2022-08-12T15:40:49Z</time>
      </trkpt>
      <trkpt lat="42.513312" lon="2.387899">
        <ele>1270.030</ele>
        <time>2022-08-12T15:40:53Z</time>
      </trkpt>
      <trkpt lat="42.513338" lon="2.387835">
        <ele>1269.243</ele>
        <time>2022-08-12T15:40:56Z</time>
      </trkpt>
      <trkpt lat="42.513374" lon="2.387786">
        <ele>1267.751</ele>
        <time>2022-08-12T15:41:00Z</time>
      </trkpt>
      <trkpt lat="42.513416" lon="2.387734">
        <ele>1267.001</ele>
        <time>2022-08-12T15:41:04Z</time>
      </trkpt>
      <trkpt lat="42.513460" lon="2.387695">
        <ele>1265.511</ele>
        <time>2022-08-12T15:41:07Z</time>
      </trkpt>
      <trkpt lat="42.513518" lon="2.387673">
        <ele>1265.409</ele>
        <time>2022-08-12T15:41:11Z</time>
      </trkpt>
      <trkpt lat="42.513562" lon="2.387650">
        <ele>1264.926</ele>
        <time>2022-08-12T15:41:14Z</time>
      </trkpt>
      <trkpt lat="42.513605" lon="2.387609">
        <ele>1264.056</ele>
        <time>2022-08-12T15:41:17Z</time>
      </trkpt>
      <trkpt lat="42.513657" lon="2.387555">
        <ele>1263.195</ele>
        <time>2022-08-12T15:41:20Z</time>
      </trkpt>
      <trkpt lat="42.513688" lon="2.387501">
        <ele>1263.069</ele>
        <time>2022-08-12T15:41:23Z</time>
      </trkpt>
      <trkpt lat="42.513711" lon="2.387446">
        <ele>1262.397</ele>
        <time>2022-08-12T15:41:28Z</time>
      </trkpt>
      <trkpt lat="42.513746" lon="2.387393">
        <ele>1261.514</ele>
        <time>2022-08-12T15:41:32Z</time>
      </trkpt>
      <trkpt lat="42.513777" lon="2.387348">
        <ele>1261.011</ele>
        <time>2022-08-12T15:41:35Z</time>
      </trkpt>
      <trkpt lat="42.513806" lon="2.387299">
        <ele>1260.173</ele>
        <time>2022-08-12T15:41:41Z</time>
      </trkpt>
      <trkpt lat="42.513863" lon="2.387282">
        <ele>1259.326</ele>
        <time>2022-08-12T15:41:47Z</time>
      </trkpt>
      <trkpt lat="42.513909" lon="2.387251">
        <ele>1258.833</ele>
        <time>2022-08-12T15:41:51Z</time>
      </trkpt>
      <trkpt lat="42.513940" lon="2.387199">
        <ele>1258.023</ele>
        <time>2022-08-12T15:41:54Z</time>
      </trkpt>
      <trkpt lat="42.513971" lon="2.387137">
        <ele>1257.415</ele>
        <time>2022-08-12T15:41:57Z</time>
      </trkpt>
      <trkpt lat="42.514019" lon="2.387098">
        <ele>1257.009</ele>
        <time>2022-08-12T15:42:02Z</time>
      </trkpt>
      <trkpt lat="42.514062" lon="2.387057">
        <ele>1257.094</ele>
        <time>2022-08-12T15:42:05Z</time>
      </trkpt>
      <trkpt lat="42.514103" lon="2.387025">
        <ele>1257.014</ele>
        <time>2022-08-12T15:42:08Z</time>
      </trkpt>
      <trkpt lat="42.514150" lon="2.387005">
        <ele>1256.973</ele>
        <time>2022-08-12T15:42:11Z</time>
      </trkpt>
      <trkpt lat="42.514195" lon="2.386971">
        <ele>1256.857</ele>
        <time>2022-08-12T15:42:15Z</time>
      </trkpt>
      <trkpt lat="42.514248" lon="2.386977">
        <ele>1256.535</ele>
        <time>2022-08-12T15:42:18Z</time>
      </trkpt>
      <trkpt lat="42.514300" lon="2.386982">
        <ele>1256.332</ele>
        <time>2022-08-12T15:42:22Z</time>
      </trkpt>
      <trkpt lat="42.514362" lon="2.386982">
        <ele>1256.189</ele>
        <time>2022-08-12T15:42:26Z</time>
      </trkpt>
      <trkpt lat="42.514421" lon="2.386963">
        <ele>1255.491</ele>
        <time>2022-08-12T15:42:29Z</time>
      </trkpt>
      <trkpt lat="42.514471" lon="2.386946">
        <ele>1255.194</ele>
        <time>2022-08-12T15:42:32Z</time>
      </trkpt>
      <trkpt lat="42.514525" lon="2.386942">
        <ele>1255.089</ele>
        <time>2022-08-12T15:42:35Z</time>
      </trkpt>
      <trkpt lat="42.514585" lon="2.386919">
        <ele>1254.306</ele>
        <time>2022-08-12T15:42:39Z</time>
      </trkpt>
      <trkpt lat="42.514626" lon="2.386877">
        <ele>1253.626</ele>
        <time>2022-08-12T15:42:44Z</time>
      </trkpt>
      <trkpt lat="42.514675" lon="2.386891">
        <ele>1253.209</ele>
        <time>2022-08-12T15:42:49Z</time>
      </trkpt>
      <trkpt lat="42.514727" lon="2.386862">
        <ele>1252.589</ele>
        <time>2022-08-12T15:42:54Z</time>
      </trkpt>
      <trkpt lat="42.514761" lon="2.386809">
        <ele>1252.149</ele>
        <time>2022-08-12T15:42:59Z</time>
      </trkpt>
      <trkpt lat="42.514808" lon="2.386827">
        <ele>1251.768</ele>
        <time>2022-08-12T15:43:04Z</time>
      </trkpt>
      <trkpt lat="42.514846" lon="2.386867">
        <ele>1250.982</ele>
        <time>2022-08-12T15:43:08Z</time>
      </trkpt>
      <trkpt lat="42.514897" lon="2.386891">
        <ele>1250.150</ele>
        <time>2022-08-12T15:43:12Z</time>
      </trkpt>
      <trkpt lat="42.514957" lon="2.386902">
        <ele>1249.547</ele>
        <time>2022-08-12T15:43:16Z</time>
      </trkpt>
      <trkpt lat="42.515014" lon="2.386911">
        <ele>1249.244</ele>
        <time>2022-08-12T15:43:18Z</time>
      </trkpt>
      <trkpt lat="42.515059" lon="2.386930">
        <ele>1249.066</ele>
        <time>2022-08-12T15:43:21Z</time>
      </trkpt>
      <trkpt lat="42.515106" lon="2.386950">
        <ele>1248.699</ele>
        <time>2022-08-12T15:43:26Z</time>
      </trkpt>
      <trkpt lat="42.515150" lon="2.386909">
        <ele>1248.126</ele>
        <time>2022-08-12T15:43:29Z</time>
      </trkpt>
      <trkpt lat="42.515193" lon="2.386863">
        <ele>1247.947</ele>
        <time>2022-08-12T15:43:32Z</time>
      </trkpt>
      <trkpt lat="42.515237" lon="2.386824">
        <ele>1247.611</ele>
        <time>2022-08-12T15:43:36Z</time>
      </trkpt>
      <trkpt lat="42.515282" lon="2.386775">
        <ele>1246.909</ele>
        <time>2022-08-12T15:43:41Z</time>
      </trkpt>
      <trkpt lat="42.515303" lon="2.386709">
        <ele>1245.263</ele>
        <time>2022-08-12T15:43:45Z</time>
      </trkpt>
      <trkpt lat="42.515332" lon="2.386633">
        <ele>1245.163</ele>
        <time>2022-08-12T15:43:50Z</time>
      </trkpt>
      <trkpt lat="42.515366" lon="2.386578">
        <ele>1244.082</ele>
        <time>2022-08-12T15:43:53Z</time>
      </trkpt>
      <trkpt lat="42.515363" lon="2.386517">
        <ele>1243.686</ele>
        <time>2022-08-12T15:43:59Z</time>
      </trkpt>
      <trkpt lat="42.515338" lon="2.386456">
        <ele>1243.184</ele>
        <time>2022-08-12T15:44:05Z</time>
      </trkpt>
      <trkpt lat="42.515301" lon="2.386404">
        <ele>1242.151</ele>
        <time>2022-08-12T15:44:09Z</time>
      </trkpt>
      <trkpt lat="42.515262" lon="2.386364">
        <ele>1241.088</ele>
        <time>2022-08-12T15:44:14Z</time>
      </trkpt>
      <trkpt lat="42.515218" lon="2.386346">
        <ele>1239.990</ele>
        <time>2022-08-12T15:44:20Z</time>
      </trkpt>
      <trkpt lat="42.515176" lon="2.386309">
        <ele>1239.113</ele>
        <time>2022-08-12T15:44:23Z</time>
      </trkpt>
      <trkpt lat="42.515133" lon="2.386240">
        <ele>1238.479</ele>
        <time>2022-08-12T15:44:26Z</time>
      </trkpt>
      <trkpt lat="42.515117" lon="2.386183">
        <ele>1237.405</ele>
        <time>2022-08-12T15:44:29Z</time>
      </trkpt>
      <trkpt lat="42.515085" lon="2.386117">
        <ele>1236.625</ele>
        <time>2022-08-12T15:44:33Z</time>
      </trkpt>
      <trkpt lat="42.515067" lon="2.386052">
        <ele>1235.609</ele>
        <time>2022-08-12T15:44:37Z</time>
      </trkpt>
      <trkpt lat="42.515065" lon="2.385981">
        <ele>1234.788</ele>
        <time>2022-08-12T15:44:42Z</time>
      </trkpt>
      <trkpt lat="42.515067" lon="2.385913">
        <ele>1234.328</ele>
        <time>2022-08-12T15:44:45Z</time>
      </trkpt>
      <trkpt lat="42.515083" lon="2.385845">
        <ele>1233.227</ele>
        <time>2022-08-12T15:44:48Z</time>
      </trkpt>
      <trkpt lat="42.515078" lon="2.385780">
        <ele>1232.441</ele>
        <time>2022-08-12T15:44:51Z</time>
      </trkpt>
      <trkpt lat="42.515073" lon="2.385711">
        <ele>1231.889</ele>
        <time>2022-08-12T15:44:57Z</time>
      </trkpt>
      <trkpt lat="42.515070" lon="2.385635">
        <ele>1231.156</ele>
        <time>2022-08-12T15:45:01Z</time>
      </trkpt>
      <trkpt lat="42.515073" lon="2.385554">
        <ele>1229.923</ele>
        <time>2022-08-12T15:45:06Z</time>
      </trkpt>
      <trkpt lat="42.515073" lon="2.385488">
        <ele>1228.865</ele>
        <time>2022-08-12T15:45:09Z</time>
      </trkpt>
      <trkpt lat="42.515069" lon="2.385409">
        <ele>1226.888</ele>
        <time>2022-08-12T15:45:14Z</time>
      </trkpt>
      <trkpt lat="42.515068" lon="2.385348">
        <ele>1226.431</ele>
        <time>2022-08-12T15:45:17Z</time>
      </trkpt>
      <trkpt lat="42.515061" lon="2.385288">
        <ele>1225.361</ele>
        <time>2022-08-12T15:45:21Z</time>
      </trkpt>
      <trkpt lat="42.515032" lon="2.385225">
        <ele>1224.507</ele>
        <time>2022-08-12T15:45:26Z</time>
      </trkpt>
      <trkpt lat="42.515005" lon="2.385162">
        <ele>1223.509</ele>
        <time>2022-08-12T15:45:31Z</time>
      </trkpt>
      <trkpt lat="42.514999" lon="2.385089">
        <ele>1222.454</ele>
        <time>2022-08-12T15:45:35Z</time>
      </trkpt>
      <trkpt lat="42.514983" lon="2.385026">
        <ele>1221.774</ele>
        <time>2022-08-12T15:45:39Z</time>
      </trkpt>
      <trkpt lat="42.514959" lon="2.384956">
        <ele>1220.733</ele>
        <time>2022-08-12T15:45:42Z</time>
      </trkpt>
      <trkpt lat="42.514940" lon="2.384892">
        <ele>1219.727</ele>
        <time>2022-08-12T15:45:45Z</time>
      </trkpt>
      <trkpt lat="42.514920" lon="2.384826">
        <ele>1218.945</ele>
        <time>2022-08-12T15:45:48Z</time>
      </trkpt>
      <trkpt lat="42.514898" lon="2.384756">
        <ele>1218.542</ele>
        <time>2022-08-12T15:45:52Z</time>
      </trkpt>
      <trkpt lat="42.514887" lon="2.384696">
        <ele>1217.949</ele>
        <time>2022-08-12T15:45:55Z</time>
      </trkpt>
      <trkpt lat="42.514863" lon="2.384637">
        <ele>1217.081</ele>
        <time>2022-08-12T15:46:02Z</time>
      </trkpt>
      <trkpt lat="42.514843" lon="2.384574">
        <ele>1216.344</ele>
        <time>2022-08-12T15:46:05Z</time>
      </trkpt>
      <trkpt lat="42.514822" lon="2.384506">
        <ele>1215.298</ele>
        <time>2022-08-12T15:46:08Z</time>
      </trkpt>
      <trkpt lat="42.514807" lon="2.384431">
        <ele>1214.215</ele>
        <time>2022-08-12T15:46:11Z</time>
      </trkpt>
      <trkpt lat="42.514793" lon="2.384361">
        <ele>1213.826</ele>
        <time>2022-08-12T15:46:17Z</time>
      </trkpt>
      <trkpt lat="42.514773" lon="2.384302">
        <ele>1212.909</ele>
        <time>2022-08-12T15:46:21Z</time>
      </trkpt>
      <trkpt lat="42.514755" lon="2.384246">
        <ele>1211.750</ele>
        <time>2022-08-12T15:46:24Z</time>
      </trkpt>
      <trkpt lat="42.514731" lon="2.384173">
        <ele>1210.850</ele>
        <time>2022-08-12T15:46:31Z</time>
      </trkpt>
      <trkpt lat="42.514696" lon="2.384120">
        <ele>1210.029</ele>
        <time>2022-08-12T15:46:34Z</time>
      </trkpt>
      <trkpt lat="42.514677" lon="2.384058">
        <ele>1208.923</ele>
        <time>2022-08-12T15:46:38Z</time>
      </trkpt>
      <trkpt lat="42.514648" lon="2.384004">
        <ele>1208.311</ele>
        <time>2022-08-12T15:46:45Z</time>
      </trkpt>
      <trkpt lat="42.514614" lon="2.383964">
        <ele>1207.828</ele>
        <time>2022-08-12T15:46:49Z</time>
      </trkpt>
      <trkpt lat="42.514581" lon="2.383911">
        <ele>1206.725</ele>
        <time>2022-08-12T15:46:54Z</time>
      </trkpt>
      <trkpt lat="42.514559" lon="2.383855">
        <ele>1205.747</ele>
        <time>2022-08-12T15:46:59Z</time>
      </trkpt>
      <trkpt lat="42.514534" lon="2.383798">
        <ele>1204.720</ele>
        <time>2022-08-12T15:47:02Z</time>
      </trkpt>
      <trkpt lat="42.514519" lon="2.383719">
        <ele>1203.731</ele>
        <time>2022-08-12T15:47:05Z</time>
      </trkpt>
      <trkpt lat="42.514506" lon="2.383654">
        <ele>1203.361</ele>
        <time>2022-08-12T15:47:08Z</time>
      </trkpt>
      <trkpt lat="42.514505" lon="2.383578">
        <ele>1202.807</ele>
        <time>2022-08-12T15:47:12Z</time>
      </trkpt>
      <trkpt lat="42.514495" lon="2.383514">
        <ele>1202.009</ele>
        <time>2022-08-12T15:47:16Z</time>
      </trkpt>
      <trkpt lat="42.514500" lon="2.383445">
        <ele>1201.684</ele>
        <time>2022-08-12T15:47:20Z</time>
      </trkpt>
      <trkpt lat="42.514506" lon="2.383375">
        <ele>1201.134</ele>
        <time>2022-08-12T15:47:25Z</time>
      </trkpt>
      <trkpt lat="42.514518" lon="2.383313">
        <ele>1200.173</ele>
        <time>2022-08-12T15:47:29Z</time>
      </trkpt>
      <trkpt lat="42.514528" lon="2.383249">
        <ele>1198.827</ele>
        <time>2022-08-12T15:47:33Z</time>
      </trkpt>
      <trkpt lat="42.514531" lon="2.383187">
        <ele>1197.655</ele>
        <time>2022-08-12T15:47:39Z</time>
      </trkpt>
      <trkpt lat="42.514530" lon="2.383115">
        <ele>1197.032</ele>
        <time>2022-08-12T15:47:43Z</time>
      </trkpt>
      <trkpt lat="42.514529" lon="2.383046">
        <ele>1195.979</ele>
        <time>2022-08-12T15:47:47Z</time>
      </trkpt>
      <trkpt lat="42.514526" lon="2.382976">
        <ele>1194.141</ele>
        <time>2022-08-12T15:47:51Z</time>
      </trkpt>
      <trkpt lat="42.514543" lon="2.382898">
        <ele>1193.374</ele>
        <time>2022-08-12T15:47:56Z</time>
      </trkpt>
      <trkpt lat="42.514551" lon="2.382835">
        <ele>1192.492</ele>
        <time>2022-08-12T15:47:59Z</time>
      </trkpt>
      <trkpt lat="42.514541" lon="2.382768">
        <ele>1190.973</ele>
        <time>2022-08-12T15:48:03Z</time>
      </trkpt>
      <trkpt lat="42.514523" lon="2.382708">
        <ele>1190.220</ele>
        <time>2022-08-12T15:48:07Z</time>
      </trkpt>
      <trkpt lat="42.514525" lon="2.382643">
        <ele>1189.909</ele>
        <time>2022-08-12T15:48:16Z</time>
      </trkpt>
      <trkpt lat="42.514554" lon="2.382579">
        <ele>1189.020</ele>
        <time>2022-08-12T15:48:21Z</time>
      </trkpt>
      <trkpt lat="42.514565" lon="2.382519">
        <ele>1187.360</ele>
        <time>2022-08-12T15:48:24Z</time>
      </trkpt>
      <trkpt lat="42.514599" lon="2.382463">
        <ele>1185.889</ele>
        <time>2022-08-12T15:48:31Z</time>
      </trkpt>
      <trkpt lat="42.514616" lon="2.382393">
        <ele>1185.073</ele>
        <time>2022-08-12T15:48:34Z</time>
      </trkpt>
      <trkpt lat="42.514640" lon="2.382314">
        <ele>1183.391</ele>
        <time>2022-08-12T15:48:39Z</time>
      </trkpt>
      <trkpt lat="42.514652" lon="2.382245">
        <ele>1183.058</ele>
        <time>2022-08-12T15:48:43Z</time>
      </trkpt>
      <trkpt lat="42.514674" lon="2.382167">
        <ele>1181.845</ele>
        <time>2022-08-12T15:48:48Z</time>
      </trkpt>
      <trkpt lat="42.514682" lon="2.382096">
        <ele>1180.957</ele>
        <time>2022-08-12T15:48:52Z</time>
      </trkpt>
      <trkpt lat="42.514694" lon="2.382017">
        <ele>1179.860</ele>
        <time>2022-08-12T15:48:56Z</time>
      </trkpt>
      <trkpt lat="42.514685" lon="2.381954">
        <ele>1178.472</ele>
        <time>2022-08-12T15:48:59Z</time>
      </trkpt>
      <trkpt lat="42.514686" lon="2.381878">
        <ele>1177.713</ele>
        <time>2022-08-12T15:49:02Z</time>
      </trkpt>
      <trkpt lat="42.514673" lon="2.381805">
        <ele>1177.114</ele>
        <time>2022-08-12T15:49:07Z</time>
      </trkpt>
      <trkpt lat="42.514679" lon="2.381728">
        <ele>1176.009</ele>
        <time>2022-08-12T15:49:11Z</time>
      </trkpt>
      <trkpt lat="42.514683" lon="2.381664">
        <ele>1175.568</ele>
        <time>2022-08-12T15:49:15Z</time>
      </trkpt>
      <trkpt lat="42.514660" lon="2.381592">
        <ele>1174.248</ele>
        <time>2022-08-12T15:49:20Z</time>
      </trkpt>
      <trkpt lat="42.514675" lon="2.381519">
        <ele>1173.537</ele>
        <time>2022-08-12T15:49:26Z</time>
      </trkpt>
      <trkpt lat="42.514702" lon="2.381455">
        <ele>1172.751</ele>
        <time>2022-08-12T15:49:30Z</time>
      </trkpt>
      <trkpt lat="42.514712" lon="2.381385">
        <ele>1172.099</ele>
        <time>2022-08-12T15:49:34Z</time>
      </trkpt>
      <trkpt lat="42.514739" lon="2.381329">
        <ele>1171.356</ele>
        <time>2022-08-12T15:49:42Z</time>
      </trkpt>
      <trkpt lat="42.514771" lon="2.381267">
        <ele>1170.933</ele>
        <time>2022-08-12T15:49:46Z</time>
      </trkpt>
      <trkpt lat="42.514815" lon="2.381230">
        <ele>1169.365</ele>
        <time>2022-08-12T15:49:50Z</time>
      </trkpt>
      <trkpt lat="42.514860" lon="2.381213">
        <ele>1167.848</ele>
        <time>2022-08-12T15:49:53Z</time>
      </trkpt>
      <trkpt lat="42.514907" lon="2.381200">
        <ele>1166.921</ele>
        <time>2022-08-12T15:49:57Z</time>
      </trkpt>
      <trkpt lat="42.514954" lon="2.381184">
        <ele>1166.241</ele>
        <time>2022-08-12T15:50:00Z</time>
      </trkpt>
      <trkpt lat="42.514991" lon="2.381135">
        <ele>1165.905</ele>
        <time>2022-08-12T15:50:03Z</time>
      </trkpt>
      <trkpt lat="42.515014" lon="2.381074">
        <ele>1164.909</ele>
        <time>2022-08-12T15:50:09Z</time>
      </trkpt>
    </trkseg>
  </trk>
</gpx>
